<?xml version="1.0" encoding="UTF-8" standalone="no" ?>
<gpx xmlns="http://www.topografix.com/GPX/1/1" xmlns:xsi="http://www.w3.org/2001/XMLSchema-instance" xsi:schemaLocation="http://www.topografix.com/GPX/1/1 http://www.topografix.com/GPX/1/1/gpx.xsd" version="1.1" creator="VisuGPX - https://www.visugpx.com">
  <metadata>
    <name>La Mandragore VTT 2011 (parcours 75km)</name>
    <desc><![CDATA[Circuit de 75km tracé pour la mandragore 2011. Beau tracé, pas trop de route... que du bon!]]></desc>
  </metadata>
  <trk>
    <name><![CDATA[Piste0001]]></name>
    <trkseg>
      <trkpt lat="45.92382" lon="1.17502">
        <ele>316</ele>
        <time>2011-06-26T06:02:56.000Z</time>
      </trkpt>
      <trkpt lat="45.9239" lon="1.17501">
        <ele>305</ele>
        <time>2011-06-26T06:03:12.000Z</time>
      </trkpt>
      <trkpt lat="45.92396" lon="1.17474">
        <ele>305</ele>
        <time>2011-06-26T06:03:18.000Z</time>
      </trkpt>
      <trkpt lat="45.92408" lon="1.1742">
        <ele>303</ele>
        <time>2011-06-26T06:03:27.000Z</time>
      </trkpt>
      <trkpt lat="45.92417" lon="1.17386">
        <ele>300</ele>
        <time>2011-06-26T06:03:32.000Z</time>
      </trkpt>
      <trkpt lat="45.9243" lon="1.17369">
        <ele>299</ele>
        <time>2011-06-26T06:03:35.000Z</time>
      </trkpt>
      <trkpt lat="45.92455" lon="1.17343">
        <ele>299</ele>
        <time>2011-06-26T06:03:41.000Z</time>
      </trkpt>
      <trkpt lat="45.92469" lon="1.17336">
        <ele>300</ele>
        <time>2011-06-26T06:03:44.000Z</time>
      </trkpt>
      <trkpt lat="45.92485" lon="1.17309">
        <ele>302</ele>
        <time>2011-06-26T06:03:50.000Z</time>
      </trkpt>
      <trkpt lat="45.925" lon="1.17273">
        <ele>307</ele>
        <time>2011-06-26T06:03:58.000Z</time>
      </trkpt>
      <trkpt lat="45.92497" lon="1.17258">
        <ele>308</ele>
        <time>2011-06-26T06:04:01.000Z</time>
      </trkpt>
      <trkpt lat="45.92473" lon="1.17198">
        <ele>310</ele>
        <time>2011-06-26T06:04:13.000Z</time>
      </trkpt>
      <trkpt lat="45.92471" lon="1.17192">
        <ele>310</ele>
        <time>2011-06-26T06:04:14.000Z</time>
      </trkpt>
      <trkpt lat="45.92458" lon="1.17158">
        <ele>311</ele>
        <time>2011-06-26T06:04:21.000Z</time>
      </trkpt>
      <trkpt lat="45.92444" lon="1.17106">
        <ele>314</ele>
        <time>2011-06-26T06:04:30.000Z</time>
      </trkpt>
      <trkpt lat="45.92433" lon="1.1704">
        <ele>315</ele>
        <time>2011-06-26T06:04:40.000Z</time>
      </trkpt>
      <trkpt lat="45.92432" lon="1.17033">
        <ele>314</ele>
        <time>2011-06-26T06:04:41.000Z</time>
      </trkpt>
      <trkpt lat="45.92424" lon="1.16966">
        <ele>312</ele>
        <time>2011-06-26T06:04:48.000Z</time>
      </trkpt>
      <trkpt lat="45.92423" lon="1.16956">
        <ele>311</ele>
        <time>2011-06-26T06:04:49.000Z</time>
      </trkpt>
      <trkpt lat="45.9242" lon="1.16897">
        <ele>311</ele>
        <time>2011-06-26T06:04:55.000Z</time>
      </trkpt>
      <trkpt lat="45.92422" lon="1.16888">
        <ele>311</ele>
        <time>2011-06-26T06:04:56.000Z</time>
      </trkpt>
      <trkpt lat="45.92427" lon="1.16873">
        <ele>310</ele>
        <time>2011-06-26T06:04:58.000Z</time>
      </trkpt>
      <trkpt lat="45.92455" lon="1.16819">
        <ele>308</ele>
        <time>2011-06-26T06:05:07.000Z</time>
      </trkpt>
      <trkpt lat="45.92458" lon="1.16813">
        <ele>308</ele>
        <time>2011-06-26T06:05:08.000Z</time>
      </trkpt>
      <trkpt lat="45.92487" lon="1.16756">
        <ele>306</ele>
        <time>2011-06-26T06:05:16.000Z</time>
      </trkpt>
      <trkpt lat="45.92491" lon="1.16748">
        <ele>305</ele>
        <time>2011-06-26T06:05:17.000Z</time>
      </trkpt>
      <trkpt lat="45.92521" lon="1.16697">
        <ele>300</ele>
        <time>2011-06-26T06:05:23.000Z</time>
      </trkpt>
      <trkpt lat="45.92527" lon="1.1669">
        <ele>300</ele>
        <time>2011-06-26T06:05:24.000Z</time>
      </trkpt>
      <trkpt lat="45.92565" lon="1.1665">
        <ele>296</ele>
        <time>2011-06-26T06:05:30.000Z</time>
      </trkpt>
      <trkpt lat="45.92571" lon="1.16644">
        <ele>296</ele>
        <time>2011-06-26T06:05:31.000Z</time>
      </trkpt>
      <trkpt lat="45.92617" lon="1.16606">
        <ele>292</ele>
        <time>2011-06-26T06:05:38.000Z</time>
      </trkpt>
      <trkpt lat="45.92625" lon="1.16603">
        <ele>292</ele>
        <time>2011-06-26T06:05:39.000Z</time>
      </trkpt>
      <trkpt lat="45.92633" lon="1.16603">
        <ele>291</ele>
        <time>2011-06-26T06:05:40.000Z</time>
      </trkpt>
      <trkpt lat="45.92649" lon="1.16611">
        <ele>291</ele>
        <time>2011-06-26T06:05:42.000Z</time>
      </trkpt>
      <trkpt lat="45.92668" lon="1.16635">
        <ele>290</ele>
        <time>2011-06-26T06:05:45.000Z</time>
      </trkpt>
      <trkpt lat="45.92684" lon="1.16657">
        <ele>289</ele>
        <time>2011-06-26T06:05:48.000Z</time>
      </trkpt>
      <trkpt lat="45.92711" lon="1.16672">
        <ele>288</ele>
        <time>2011-06-26T06:05:52.000Z</time>
      </trkpt>
      <trkpt lat="45.92756" lon="1.16677">
        <ele>289</ele>
        <time>2011-06-26T06:05:59.000Z</time>
      </trkpt>
      <trkpt lat="45.92762" lon="1.16677">
        <ele>289</ele>
        <time>2011-06-26T06:06:00.000Z</time>
      </trkpt>
      <trkpt lat="45.92797" lon="1.16676">
        <ele>291</ele>
        <time>2011-06-26T06:06:07.000Z</time>
      </trkpt>
      <trkpt lat="45.9282" lon="1.16669">
        <ele>293</ele>
        <time>2011-06-26T06:06:13.000Z</time>
      </trkpt>
      <trkpt lat="45.9284" lon="1.16657">
        <ele>295</ele>
        <time>2011-06-26T06:06:19.000Z</time>
      </trkpt>
      <trkpt lat="45.92881" lon="1.16628">
        <ele>301</ele>
        <time>2011-06-26T06:06:32.000Z</time>
      </trkpt>
      <trkpt lat="45.92884" lon="1.16625">
        <ele>301</ele>
        <time>2011-06-26T06:06:33.000Z</time>
      </trkpt>
      <trkpt lat="45.92924" lon="1.16593">
        <ele>307</ele>
        <time>2011-06-26T06:06:48.000Z</time>
      </trkpt>
      <trkpt lat="45.92927" lon="1.16591">
        <ele>308</ele>
        <time>2011-06-26T06:06:49.000Z</time>
      </trkpt>
      <trkpt lat="45.92966" lon="1.16555">
        <ele>313</ele>
        <time>2011-06-26T06:07:07.000Z</time>
      </trkpt>
      <trkpt lat="45.92968" lon="1.16552">
        <ele>313</ele>
        <time>2011-06-26T06:07:08.000Z</time>
      </trkpt>
      <trkpt lat="45.93008" lon="1.16519">
        <ele>317</ele>
        <time>2011-06-26T06:07:27.000Z</time>
      </trkpt>
      <trkpt lat="45.9301" lon="1.16518">
        <ele>318</ele>
        <time>2011-06-26T06:07:28.000Z</time>
      </trkpt>
      <trkpt lat="45.9305" lon="1.16498">
        <ele>322</ele>
        <time>2011-06-26T06:07:46.000Z</time>
      </trkpt>
      <trkpt lat="45.93056" lon="1.16506">
        <ele>322</ele>
        <time>2011-06-26T06:07:50.000Z</time>
      </trkpt>
      <trkpt lat="45.9308" lon="1.16567">
        <ele>320</ele>
        <time>2011-06-26T06:08:06.000Z</time>
      </trkpt>
      <trkpt lat="45.93083" lon="1.16572">
        <ele>320</ele>
        <time>2011-06-26T06:08:07.000Z</time>
      </trkpt>
      <trkpt lat="45.93086" lon="1.16577">
        <ele>320</ele>
        <time>2011-06-26T06:08:08.000Z</time>
      </trkpt>
      <trkpt lat="45.93096" lon="1.16585">
        <ele>319</ele>
        <time>2011-06-26T06:08:10.000Z</time>
      </trkpt>
      <trkpt lat="45.93132" lon="1.16591">
        <ele>316</ele>
        <time>2011-06-26T06:08:15.000Z</time>
      </trkpt>
      <trkpt lat="45.93145" lon="1.16604">
        <ele>315</ele>
        <time>2011-06-26T06:08:17.000Z</time>
      </trkpt>
      <trkpt lat="45.93151" lon="1.16624">
        <ele>314</ele>
        <time>2011-06-26T06:08:19.000Z</time>
      </trkpt>
      <trkpt lat="45.93158" lon="1.16646">
        <ele>314</ele>
        <time>2011-06-26T06:08:22.000Z</time>
      </trkpt>
      <trkpt lat="45.93168" lon="1.16656">
        <ele>315</ele>
        <time>2011-06-26T06:08:26.000Z</time>
      </trkpt>
      <trkpt lat="45.9318" lon="1.16666">
        <ele>318</ele>
        <time>2011-06-26T06:08:34.000Z</time>
      </trkpt>
      <trkpt lat="45.93224" lon="1.16691">
        <ele>324</ele>
        <time>2011-06-26T06:08:56.000Z</time>
      </trkpt>
      <trkpt lat="45.93226" lon="1.16692">
        <ele>324</ele>
        <time>2011-06-26T06:08:57.000Z</time>
      </trkpt>
      <trkpt lat="45.93259" lon="1.16711">
        <ele>329</ele>
        <time>2011-06-26T06:09:17.000Z</time>
      </trkpt>
      <trkpt lat="45.93269" lon="1.16728">
        <ele>331</ele>
        <time>2011-06-26T06:09:25.000Z</time>
      </trkpt>
      <trkpt lat="45.9328" lon="1.16764">
        <ele>331</ele>
        <time>2011-06-26T06:09:36.000Z</time>
      </trkpt>
      <trkpt lat="45.93293" lon="1.16819">
        <ele>330</ele>
        <time>2011-06-26T06:09:47.000Z</time>
      </trkpt>
      <trkpt lat="45.93301" lon="1.1683">
        <ele>329</ele>
        <time>2011-06-26T06:09:50.000Z</time>
      </trkpt>
      <trkpt lat="45.9332" lon="1.16843">
        <ele>329</ele>
        <time>2011-06-26T06:09:56.000Z</time>
      </trkpt>
      <trkpt lat="45.93329" lon="1.1685">
        <ele>329</ele>
        <time>2011-06-26T06:09:59.000Z</time>
      </trkpt>
      <trkpt lat="45.93348" lon="1.16867">
        <ele>330</ele>
        <time>2011-06-26T06:10:07.000Z</time>
      </trkpt>
      <trkpt lat="45.93368" lon="1.16895">
        <ele>332</ele>
        <time>2011-06-26T06:10:18.000Z</time>
      </trkpt>
      <trkpt lat="45.93385" lon="1.16929">
        <ele>334</ele>
        <time>2011-06-26T06:10:31.000Z</time>
      </trkpt>
      <trkpt lat="45.93401" lon="1.16934">
        <ele>336</ele>
        <time>2011-06-26T06:10:38.000Z</time>
      </trkpt>
      <trkpt lat="45.93412" lon="1.1693">
        <ele>338</ele>
        <time>2011-06-26T06:10:43.000Z</time>
      </trkpt>
      <trkpt lat="45.93451" lon="1.16897">
        <ele>341</ele>
        <time>2011-06-26T06:10:59.000Z</time>
      </trkpt>
      <trkpt lat="45.93454" lon="1.16894">
        <ele>341</ele>
        <time>2011-06-26T06:11:00.000Z</time>
      </trkpt>
      <trkpt lat="45.93494" lon="1.16865">
        <ele>342</ele>
        <time>2011-06-26T06:11:13.000Z</time>
      </trkpt>
      <trkpt lat="45.93498" lon="1.16863">
        <ele>342</ele>
        <time>2011-06-26T06:11:14.000Z</time>
      </trkpt>
      <trkpt lat="45.93509" lon="1.16858">
        <ele>343</ele>
        <time>2011-06-26T06:11:17.000Z</time>
      </trkpt>
      <trkpt lat="45.93554" lon="1.16844">
        <ele>344</ele>
        <time>2011-06-26T06:11:30.000Z</time>
      </trkpt>
      <trkpt lat="45.93557" lon="1.16843">
        <ele>345</ele>
        <time>2011-06-26T06:11:31.000Z</time>
      </trkpt>
      <trkpt lat="45.93581" lon="1.16837">
        <ele>346</ele>
        <time>2011-06-26T06:11:38.000Z</time>
      </trkpt>
      <trkpt lat="45.93628" lon="1.16834">
        <ele>347</ele>
        <time>2011-06-26T06:11:52.000Z</time>
      </trkpt>
      <trkpt lat="45.93631" lon="1.16835">
        <ele>347</ele>
        <time>2011-06-26T06:11:53.000Z</time>
      </trkpt>
      <trkpt lat="45.9368" lon="1.16839">
        <ele>348</ele>
        <time>2011-06-26T06:12:06.000Z</time>
      </trkpt>
      <trkpt lat="45.93684" lon="1.1684">
        <ele>348</ele>
        <time>2011-06-26T06:12:07.000Z</time>
      </trkpt>
      <trkpt lat="45.93727" lon="1.16855">
        <ele>349</ele>
        <time>2011-06-26T06:12:18.000Z</time>
      </trkpt>
      <trkpt lat="45.93732" lon="1.16856">
        <ele>349</ele>
        <time>2011-06-26T06:12:19.000Z</time>
      </trkpt>
      <trkpt lat="45.93777" lon="1.16872">
        <ele>351</ele>
        <time>2011-06-26T06:12:31.000Z</time>
      </trkpt>
      <trkpt lat="45.93781" lon="1.16873">
        <ele>351</ele>
        <time>2011-06-26T06:12:32.000Z</time>
      </trkpt>
      <trkpt lat="45.93797" lon="1.1688">
        <ele>352</ele>
        <time>2011-06-26T06:12:37.000Z</time>
      </trkpt>
      <trkpt lat="45.93837" lon="1.16904">
        <ele>352</ele>
        <time>2011-06-26T06:12:47.000Z</time>
      </trkpt>
      <trkpt lat="45.9384" lon="1.16907">
        <ele>352</ele>
        <time>2011-06-26T06:12:48.000Z</time>
      </trkpt>
      <trkpt lat="45.93851" lon="1.16913">
        <ele>352</ele>
        <time>2011-06-26T06:12:51.000Z</time>
      </trkpt>
      <trkpt lat="45.93858" lon="1.16909">
        <ele>352</ele>
        <time>2011-06-26T06:12:53.000Z</time>
      </trkpt>
      <trkpt lat="45.93861" lon="1.16899">
        <ele>352</ele>
        <time>2011-06-26T06:12:55.000Z</time>
      </trkpt>
      <trkpt lat="45.93872" lon="1.16831">
        <ele>352</ele>
        <time>2011-06-26T06:13:06.000Z</time>
      </trkpt>
      <trkpt lat="45.93873" lon="1.16823">
        <ele>351</ele>
        <time>2011-06-26T06:13:07.000Z</time>
      </trkpt>
      <trkpt lat="45.93887" lon="1.16754">
        <ele>349</ele>
        <time>2011-06-26T06:13:15.000Z</time>
      </trkpt>
      <trkpt lat="45.93889" lon="1.16745">
        <ele>348</ele>
        <time>2011-06-26T06:13:16.000Z</time>
      </trkpt>
      <trkpt lat="45.93906" lon="1.16673">
        <ele>346</ele>
        <time>2011-06-26T06:13:23.000Z</time>
      </trkpt>
      <trkpt lat="45.93908" lon="1.16661">
        <ele>345</ele>
        <time>2011-06-26T06:13:24.000Z</time>
      </trkpt>
      <trkpt lat="45.93922" lon="1.16598">
        <ele>341</ele>
        <time>2011-06-26T06:13:29.000Z</time>
      </trkpt>
      <trkpt lat="45.93926" lon="1.16586">
        <ele>340</ele>
        <time>2011-06-26T06:13:30.000Z</time>
      </trkpt>
      <trkpt lat="45.93946" lon="1.16526">
        <ele>337</ele>
        <time>2011-06-26T06:13:35.000Z</time>
      </trkpt>
      <trkpt lat="45.9395" lon="1.16516">
        <ele>337</ele>
        <time>2011-06-26T06:13:36.000Z</time>
      </trkpt>
      <trkpt lat="45.93972" lon="1.16454">
        <ele>337</ele>
        <time>2011-06-26T06:13:43.000Z</time>
      </trkpt>
      <trkpt lat="45.93975" lon="1.16446">
        <ele>337</ele>
        <time>2011-06-26T06:13:44.000Z</time>
      </trkpt>
      <trkpt lat="45.93995" lon="1.16402">
        <ele>335</ele>
        <time>2011-06-26T06:13:51.000Z</time>
      </trkpt>
      <trkpt lat="45.94002" lon="1.164">
        <ele>334</ele>
        <time>2011-06-26T06:13:53.000Z</time>
      </trkpt>
      <trkpt lat="45.94027" lon="1.16399">
        <ele>332</ele>
        <time>2011-06-26T06:13:59.000Z</time>
      </trkpt>
      <trkpt lat="45.94072" lon="1.16379">
        <ele>329</ele>
        <time>2011-06-26T06:14:07.000Z</time>
      </trkpt>
      <trkpt lat="45.94077" lon="1.16377">
        <ele>328</ele>
        <time>2011-06-26T06:14:08.000Z</time>
      </trkpt>
      <trkpt lat="45.94092" lon="1.16376">
        <ele>326</ele>
        <time>2011-06-26T06:14:12.000Z</time>
      </trkpt>
      <trkpt lat="45.94114" lon="1.16376">
        <ele>331</ele>
        <time>2011-06-26T06:15:16.000Z</time>
      </trkpt>
      <trkpt lat="45.94129" lon="1.1638">
        <ele>327</ele>
        <time>2011-06-26T06:15:29.000Z</time>
      </trkpt>
      <trkpt lat="45.94151" lon="1.16386">
        <ele>323</ele>
        <time>2011-06-26T06:15:49.000Z</time>
      </trkpt>
      <trkpt lat="45.94166" lon="1.16387">
        <ele>328</ele>
        <time>2011-06-26T06:16:20.000Z</time>
      </trkpt>
      <trkpt lat="45.94188" lon="1.16385">
        <ele>319</ele>
        <time>2011-06-26T06:17:49.000Z</time>
      </trkpt>
      <trkpt lat="45.94193" lon="1.16383">
        <ele>319</ele>
        <time>2011-06-26T06:18:00.000Z</time>
      </trkpt>
      <trkpt lat="45.94197" lon="1.16378">
        <ele>319</ele>
        <time>2011-06-26T06:18:32.000Z</time>
      </trkpt>
      <trkpt lat="45.94196" lon="1.16362">
        <ele>331</ele>
        <time>2011-06-26T06:19:22.000Z</time>
      </trkpt>
      <trkpt lat="45.94195" lon="1.16354">
        <ele>330</ele>
        <time>2011-06-26T06:19:30.000Z</time>
      </trkpt>
      <trkpt lat="45.94193" lon="1.16346">
        <ele>331</ele>
        <time>2011-06-26T06:19:40.000Z</time>
      </trkpt>
      <trkpt lat="45.94191" lon="1.16329">
        <ele>333</ele>
        <time>2011-06-26T06:19:58.000Z</time>
      </trkpt>
      <trkpt lat="45.94191" lon="1.16321">
        <ele>333</ele>
        <time>2011-06-26T06:20:06.000Z</time>
      </trkpt>
      <trkpt lat="45.94193" lon="1.16313">
        <ele>334</ele>
        <time>2011-06-26T06:20:13.000Z</time>
      </trkpt>
      <trkpt lat="45.94198" lon="1.16313">
        <ele>334</ele>
        <time>2011-06-26T06:20:25.000Z</time>
      </trkpt>
      <trkpt lat="45.94203" lon="1.16317">
        <ele>334</ele>
        <time>2011-06-26T06:20:36.000Z</time>
      </trkpt>
      <trkpt lat="45.94234" lon="1.16342">
        <ele>341</ele>
        <time>2011-06-26T06:20:53.000Z</time>
      </trkpt>
      <trkpt lat="45.94243" lon="1.16342">
        <ele>342</ele>
        <time>2011-06-26T06:20:57.000Z</time>
      </trkpt>
      <trkpt lat="45.94261" lon="1.16328">
        <ele>344</ele>
        <time>2011-06-26T06:21:05.000Z</time>
      </trkpt>
      <trkpt lat="45.94266" lon="1.16321">
        <ele>346</ele>
        <time>2011-06-26T06:21:10.000Z</time>
      </trkpt>
      <trkpt lat="45.94311" lon="1.16301">
        <ele>351</ele>
        <time>2011-06-26T06:21:29.000Z</time>
      </trkpt>
      <trkpt lat="45.94314" lon="1.163">
        <ele>352</ele>
        <time>2011-06-26T06:21:30.000Z</time>
      </trkpt>
      <trkpt lat="45.94358" lon="1.16279">
        <ele>366</ele>
        <time>2011-06-26T06:21:46.000Z</time>
      </trkpt>
      <trkpt lat="45.94361" lon="1.16278">
        <ele>367</ele>
        <time>2011-06-26T06:21:47.000Z</time>
      </trkpt>
      <trkpt lat="45.94384" lon="1.1627">
        <ele>374</ele>
        <time>2011-06-26T06:21:54.000Z</time>
      </trkpt>
      <trkpt lat="45.9439" lon="1.1627">
        <ele>375</ele>
        <time>2011-06-26T06:21:56.000Z</time>
      </trkpt>
      <trkpt lat="45.94427" lon="1.16257">
        <ele>378</ele>
        <time>2011-06-26T06:22:07.000Z</time>
      </trkpt>
      <trkpt lat="45.94473" lon="1.16245">
        <ele>379</ele>
        <time>2011-06-26T06:22:19.000Z</time>
      </trkpt>
      <trkpt lat="45.94478" lon="1.16244">
        <ele>379</ele>
        <time>2011-06-26T06:22:20.000Z</time>
      </trkpt>
      <trkpt lat="45.94522" lon="1.16227">
        <ele>377</ele>
        <time>2011-06-26T06:22:32.000Z</time>
      </trkpt>
      <trkpt lat="45.94527" lon="1.16226">
        <ele>377</ele>
        <time>2011-06-26T06:22:33.000Z</time>
      </trkpt>
      <trkpt lat="45.94555" lon="1.16215">
        <ele>375</ele>
        <time>2011-06-26T06:22:41.000Z</time>
      </trkpt>
      <trkpt lat="45.94564" lon="1.16211">
        <ele>374</ele>
        <time>2011-06-26T06:22:44.000Z</time>
      </trkpt>
      <trkpt lat="45.94575" lon="1.16206">
        <ele>373</ele>
        <time>2011-06-26T06:22:48.000Z</time>
      </trkpt>
      <trkpt lat="45.9462" lon="1.16193">
        <ele>366</ele>
        <time>2011-06-26T06:23:02.000Z</time>
      </trkpt>
      <trkpt lat="45.94623" lon="1.16192">
        <ele>365</ele>
        <time>2011-06-26T06:23:03.000Z</time>
      </trkpt>
      <trkpt lat="45.94665" lon="1.16174">
        <ele>361</ele>
        <time>2011-06-26T06:23:17.000Z</time>
      </trkpt>
      <trkpt lat="45.94668" lon="1.16172">
        <ele>360</ele>
        <time>2011-06-26T06:23:18.000Z</time>
      </trkpt>
      <trkpt lat="45.94711" lon="1.16149">
        <ele>358</ele>
        <time>2011-06-26T06:23:34.000Z</time>
      </trkpt>
      <trkpt lat="45.94714" lon="1.16147">
        <ele>358</ele>
        <time>2011-06-26T06:23:35.000Z</time>
      </trkpt>
      <trkpt lat="45.94756" lon="1.16122">
        <ele>359</ele>
        <time>2011-06-26T06:23:49.000Z</time>
      </trkpt>
      <trkpt lat="45.94759" lon="1.16121">
        <ele>359</ele>
        <time>2011-06-26T06:23:50.000Z</time>
      </trkpt>
      <trkpt lat="45.94786" lon="1.16107">
        <ele>361</ele>
        <time>2011-06-26T06:23:59.000Z</time>
      </trkpt>
      <trkpt lat="45.94795" lon="1.16106">
        <ele>362</ele>
        <time>2011-06-26T06:24:02.000Z</time>
      </trkpt>
      <trkpt lat="45.94804" lon="1.16107">
        <ele>363</ele>
        <time>2011-06-26T06:24:05.000Z</time>
      </trkpt>
      <trkpt lat="45.94851" lon="1.161">
        <ele>375</ele>
        <time>2011-06-26T06:24:21.000Z</time>
      </trkpt>
      <trkpt lat="45.94854" lon="1.16099">
        <ele>376</ele>
        <time>2011-06-26T06:24:22.000Z</time>
      </trkpt>
      <trkpt lat="45.949" lon="1.16096">
        <ele>382</ele>
        <time>2011-06-26T06:24:35.000Z</time>
      </trkpt>
      <trkpt lat="45.94904" lon="1.16096">
        <ele>381</ele>
        <time>2011-06-26T06:24:36.000Z</time>
      </trkpt>
      <trkpt lat="45.9492" lon="1.16097">
        <ele>378</ele>
        <time>2011-06-26T06:24:41.000Z</time>
      </trkpt>
      <trkpt lat="45.94936" lon="1.16107">
        <ele>374</ele>
        <time>2011-06-26T06:24:46.000Z</time>
      </trkpt>
      <trkpt lat="45.94952" lon="1.16121">
        <ele>370</ele>
        <time>2011-06-26T06:24:51.000Z</time>
      </trkpt>
      <trkpt lat="45.94963" lon="1.16136">
        <ele>367</ele>
        <time>2011-06-26T06:24:55.000Z</time>
      </trkpt>
      <trkpt lat="45.94995" lon="1.16184">
        <ele>359</ele>
        <time>2011-06-26T06:25:07.000Z</time>
      </trkpt>
      <trkpt lat="45.94997" lon="1.16188">
        <ele>359</ele>
        <time>2011-06-26T06:25:08.000Z</time>
      </trkpt>
      <trkpt lat="45.95021" lon="1.16222">
        <ele>356</ele>
        <time>2011-06-26T06:25:17.000Z</time>
      </trkpt>
      <trkpt lat="45.95027" lon="1.16226">
        <ele>356</ele>
        <time>2011-06-26T06:25:19.000Z</time>
      </trkpt>
      <trkpt lat="45.95048" lon="1.16232">
        <ele>356</ele>
        <time>2011-06-26T06:25:26.000Z</time>
      </trkpt>
      <trkpt lat="45.95054" lon="1.16242">
        <ele>356</ele>
        <time>2011-06-26T06:25:29.000Z</time>
      </trkpt>
      <trkpt lat="45.95075" lon="1.16288">
        <ele>356</ele>
        <time>2011-06-26T06:25:41.000Z</time>
      </trkpt>
      <trkpt lat="45.95084" lon="1.16291">
        <ele>357</ele>
        <time>2011-06-26T06:25:44.000Z</time>
      </trkpt>
      <trkpt lat="45.95131" lon="1.16281">
        <ele>359</ele>
        <time>2011-06-26T06:25:57.000Z</time>
      </trkpt>
      <trkpt lat="45.95135" lon="1.1628">
        <ele>358</ele>
        <time>2011-06-26T06:25:58.000Z</time>
      </trkpt>
      <trkpt lat="45.95183" lon="1.16276">
        <ele>357</ele>
        <time>2011-06-26T06:26:08.000Z</time>
      </trkpt>
      <trkpt lat="45.95188" lon="1.16276">
        <ele>357</ele>
        <time>2011-06-26T06:26:09.000Z</time>
      </trkpt>
      <trkpt lat="45.95235" lon="1.16276">
        <ele>357</ele>
        <time>2011-06-26T06:26:18.000Z</time>
      </trkpt>
      <trkpt lat="45.9524" lon="1.16276">
        <ele>357</ele>
        <time>2011-06-26T06:26:19.000Z</time>
      </trkpt>
      <trkpt lat="45.95276" lon="1.16269">
        <ele>358</ele>
        <time>2011-06-26T06:26:26.000Z</time>
      </trkpt>
      <trkpt lat="45.9532" lon="1.16249">
        <ele>360</ele>
        <time>2011-06-26T06:26:36.000Z</time>
      </trkpt>
      <trkpt lat="45.95325" lon="1.16246">
        <ele>360</ele>
        <time>2011-06-26T06:26:37.000Z</time>
      </trkpt>
      <trkpt lat="45.95369" lon="1.1623">
        <ele>361</ele>
        <time>2011-06-26T06:26:45.000Z</time>
      </trkpt>
      <trkpt lat="45.95376" lon="1.16229">
        <ele>361</ele>
        <time>2011-06-26T06:26:46.000Z</time>
      </trkpt>
      <trkpt lat="45.95398" lon="1.16231">
        <ele>361</ele>
        <time>2011-06-26T06:26:49.000Z</time>
      </trkpt>
      <trkpt lat="45.95421" lon="1.16234">
        <ele>360</ele>
        <time>2011-06-26T06:26:52.000Z</time>
      </trkpt>
      <trkpt lat="45.95447" lon="1.16225">
        <ele>358</ele>
        <time>2011-06-26T06:26:55.000Z</time>
      </trkpt>
      <trkpt lat="45.95494" lon="1.16191">
        <ele>355</ele>
        <time>2011-06-26T06:27:01.000Z</time>
      </trkpt>
      <trkpt lat="45.95502" lon="1.16187">
        <ele>355</ele>
        <time>2011-06-26T06:27:02.000Z</time>
      </trkpt>
      <trkpt lat="45.95526" lon="1.16177">
        <ele>354</ele>
        <time>2011-06-26T06:27:05.000Z</time>
      </trkpt>
      <trkpt lat="45.95572" lon="1.16166">
        <ele>353</ele>
        <time>2011-06-26T06:27:11.000Z</time>
      </trkpt>
      <trkpt lat="45.95579" lon="1.16165">
        <ele>353</ele>
        <time>2011-06-26T06:27:12.000Z</time>
      </trkpt>
      <trkpt lat="45.95628" lon="1.16154">
        <ele>355</ele>
        <time>2011-06-26T06:27:20.000Z</time>
      </trkpt>
      <trkpt lat="45.95633" lon="1.16152">
        <ele>355</ele>
        <time>2011-06-26T06:27:21.000Z</time>
      </trkpt>
      <trkpt lat="45.95681" lon="1.16139">
        <ele>358</ele>
        <time>2011-06-26T06:27:32.000Z</time>
      </trkpt>
      <trkpt lat="45.95685" lon="1.16138">
        <ele>358</ele>
        <time>2011-06-26T06:27:33.000Z</time>
      </trkpt>
      <trkpt lat="45.95733" lon="1.16127">
        <ele>357</ele>
        <time>2011-06-26T06:27:44.000Z</time>
      </trkpt>
      <trkpt lat="45.95738" lon="1.16125">
        <ele>357</ele>
        <time>2011-06-26T06:27:45.000Z</time>
      </trkpt>
      <trkpt lat="45.95784" lon="1.16112">
        <ele>356</ele>
        <time>2011-06-26T06:27:55.000Z</time>
      </trkpt>
      <trkpt lat="45.95789" lon="1.16111">
        <ele>356</ele>
        <time>2011-06-26T06:27:56.000Z</time>
      </trkpt>
      <trkpt lat="45.95833" lon="1.16096">
        <ele>354</ele>
        <time>2011-06-26T06:28:06.000Z</time>
      </trkpt>
      <trkpt lat="45.95838" lon="1.16095">
        <ele>354</ele>
        <time>2011-06-26T06:28:07.000Z</time>
      </trkpt>
      <trkpt lat="45.95843" lon="1.16096">
        <ele>354</ele>
        <time>2011-06-26T06:28:08.000Z</time>
      </trkpt>
      <trkpt lat="45.95888" lon="1.16107">
        <ele>351</ele>
        <time>2011-06-26T06:28:17.000Z</time>
      </trkpt>
      <trkpt lat="45.95893" lon="1.16108">
        <ele>351</ele>
        <time>2011-06-26T06:28:18.000Z</time>
      </trkpt>
      <trkpt lat="45.9594" lon="1.16119">
        <ele>352</ele>
        <time>2011-06-26T06:28:27.000Z</time>
      </trkpt>
      <trkpt lat="45.95945" lon="1.16121">
        <ele>352</ele>
        <time>2011-06-26T06:28:28.000Z</time>
      </trkpt>
      <trkpt lat="45.95992" lon="1.16133">
        <ele>353</ele>
        <time>2011-06-26T06:28:37.000Z</time>
      </trkpt>
      <trkpt lat="45.95997" lon="1.16135">
        <ele>354</ele>
        <time>2011-06-26T06:28:38.000Z</time>
      </trkpt>
      <trkpt lat="45.96002" lon="1.16138">
        <ele>354</ele>
        <time>2011-06-26T06:28:39.000Z</time>
      </trkpt>
      <trkpt lat="45.96047" lon="1.16158">
        <ele>356</ele>
        <time>2011-06-26T06:28:49.000Z</time>
      </trkpt>
      <trkpt lat="45.96051" lon="1.1616">
        <ele>356</ele>
        <time>2011-06-26T06:28:50.000Z</time>
      </trkpt>
      <trkpt lat="45.96058" lon="1.16166">
        <ele>356</ele>
        <time>2011-06-26T06:28:52.000Z</time>
      </trkpt>
      <trkpt lat="45.961" lon="1.162">
        <ele>352</ele>
        <time>2011-06-26T06:29:01.000Z</time>
      </trkpt>
      <trkpt lat="45.96106" lon="1.16205">
        <ele>351</ele>
        <time>2011-06-26T06:29:02.000Z</time>
      </trkpt>
      <trkpt lat="45.96146" lon="1.16244">
        <ele>345</ele>
        <time>2011-06-26T06:29:09.000Z</time>
      </trkpt>
      <trkpt lat="45.96152" lon="1.16248">
        <ele>345</ele>
        <time>2011-06-26T06:29:10.000Z</time>
      </trkpt>
      <trkpt lat="45.96174" lon="1.16269">
        <ele>344</ele>
        <time>2011-06-26T06:29:14.000Z</time>
      </trkpt>
      <trkpt lat="45.96188" lon="1.16286">
        <ele>344</ele>
        <time>2011-06-26T06:29:17.000Z</time>
      </trkpt>
      <trkpt lat="45.96224" lon="1.16302">
        <ele>343</ele>
        <time>2011-06-26T06:29:23.000Z</time>
      </trkpt>
      <trkpt lat="45.96271" lon="1.16311">
        <ele>341</ele>
        <time>2011-06-26T06:29:32.000Z</time>
      </trkpt>
      <trkpt lat="45.96276" lon="1.16312">
        <ele>341</ele>
        <time>2011-06-26T06:29:33.000Z</time>
      </trkpt>
      <trkpt lat="45.96323" lon="1.1632">
        <ele>341</ele>
        <time>2011-06-26T06:29:41.000Z</time>
      </trkpt>
      <trkpt lat="45.96329" lon="1.16318">
        <ele>341</ele>
        <time>2011-06-26T06:29:42.000Z</time>
      </trkpt>
      <trkpt lat="45.9634" lon="1.16312">
        <ele>342</ele>
        <time>2011-06-26T06:29:44.000Z</time>
      </trkpt>
      <trkpt lat="45.96343" lon="1.16304">
        <ele>342</ele>
        <time>2011-06-26T06:29:46.000Z</time>
      </trkpt>
      <trkpt lat="45.96341" lon="1.16297">
        <ele>342</ele>
        <time>2011-06-26T06:29:48.000Z</time>
      </trkpt>
      <trkpt lat="45.96304" lon="1.16259">
        <ele>344</ele>
        <time>2011-06-26T06:29:59.000Z</time>
      </trkpt>
      <trkpt lat="45.963" lon="1.16254">
        <ele>344</ele>
        <time>2011-06-26T06:30:00.000Z</time>
      </trkpt>
      <trkpt lat="45.96264" lon="1.1621">
        <ele>343</ele>
        <time>2011-06-26T06:30:08.000Z</time>
      </trkpt>
      <trkpt lat="45.9626" lon="1.16203">
        <ele>343</ele>
        <time>2011-06-26T06:30:09.000Z</time>
      </trkpt>
      <trkpt lat="45.96255" lon="1.16189">
        <ele>342</ele>
        <time>2011-06-26T06:30:11.000Z</time>
      </trkpt>
      <trkpt lat="45.96247" lon="1.16122">
        <ele>341</ele>
        <time>2011-06-26T06:30:20.000Z</time>
      </trkpt>
      <trkpt lat="45.96247" lon="1.16116">
        <ele>341</ele>
        <time>2011-06-26T06:30:21.000Z</time>
      </trkpt>
      <trkpt lat="45.96248" lon="1.16107">
        <ele>342</ele>
        <time>2011-06-26T06:30:23.000Z</time>
      </trkpt>
      <trkpt lat="45.96255" lon="1.16081">
        <ele>343</ele>
        <time>2011-06-26T06:30:29.000Z</time>
      </trkpt>
      <trkpt lat="45.96265" lon="1.16051">
        <ele>343</ele>
        <time>2011-06-26T06:30:36.000Z</time>
      </trkpt>
      <trkpt lat="45.96274" lon="1.15999">
        <ele>345</ele>
        <time>2011-06-26T06:30:49.000Z</time>
      </trkpt>
      <trkpt lat="45.96276" lon="1.1598">
        <ele>345</ele>
        <time>2011-06-26T06:30:54.000Z</time>
      </trkpt>
      <trkpt lat="45.96278" lon="1.15958">
        <ele>345</ele>
        <time>2011-06-26T06:30:59.000Z</time>
      </trkpt>
      <trkpt lat="45.96282" lon="1.15933">
        <ele>345</ele>
        <time>2011-06-26T06:31:07.000Z</time>
      </trkpt>
      <trkpt lat="45.96295" lon="1.15879">
        <ele>346</ele>
        <time>2011-06-26T06:31:27.000Z</time>
      </trkpt>
      <trkpt lat="45.96296" lon="1.15869">
        <ele>347</ele>
        <time>2011-06-26T06:31:31.000Z</time>
      </trkpt>
      <trkpt lat="45.96297" lon="1.15854">
        <ele>348</ele>
        <time>2011-06-26T06:31:37.000Z</time>
      </trkpt>
      <trkpt lat="45.96295" lon="1.15784">
        <ele>352</ele>
        <time>2011-06-26T06:31:58.000Z</time>
      </trkpt>
      <trkpt lat="45.96295" lon="1.15779">
        <ele>352</ele>
        <time>2011-06-26T06:31:59.000Z</time>
      </trkpt>
      <trkpt lat="45.9629" lon="1.15736">
        <ele>350</ele>
        <time>2011-06-26T06:32:06.000Z</time>
      </trkpt>
      <trkpt lat="45.96266" lon="1.15701">
        <ele>347</ele>
        <time>2011-06-26T06:32:12.000Z</time>
      </trkpt>
      <trkpt lat="45.96228" lon="1.15657">
        <ele>346</ele>
        <time>2011-06-26T06:32:21.000Z</time>
      </trkpt>
      <trkpt lat="45.96225" lon="1.15653">
        <ele>346</ele>
        <time>2011-06-26T06:32:22.000Z</time>
      </trkpt>
      <trkpt lat="45.96188" lon="1.15608">
        <ele>346</ele>
        <time>2011-06-26T06:32:32.000Z</time>
      </trkpt>
      <trkpt lat="45.96185" lon="1.15605">
        <ele>346</ele>
        <time>2011-06-26T06:32:33.000Z</time>
      </trkpt>
      <trkpt lat="45.9618" lon="1.15593">
        <ele>346</ele>
        <time>2011-06-26T06:32:37.000Z</time>
      </trkpt>
      <trkpt lat="45.96193" lon="1.1559">
        <ele>346</ele>
        <time>2011-06-26T06:32:42.000Z</time>
      </trkpt>
      <trkpt lat="45.9624" lon="1.15588">
        <ele>342</ele>
        <time>2011-06-26T06:32:52.000Z</time>
      </trkpt>
      <trkpt lat="45.96246" lon="1.15588">
        <ele>342</ele>
        <time>2011-06-26T06:32:53.000Z</time>
      </trkpt>
      <trkpt lat="45.96268" lon="1.15589">
        <ele>342</ele>
        <time>2011-06-26T06:32:58.000Z</time>
      </trkpt>
      <trkpt lat="45.96313" lon="1.15607">
        <ele>340</ele>
        <time>2011-06-26T06:33:08.000Z</time>
      </trkpt>
      <trkpt lat="45.96319" lon="1.1561">
        <ele>340</ele>
        <time>2011-06-26T06:33:09.000Z</time>
      </trkpt>
      <trkpt lat="45.96329" lon="1.15615">
        <ele>339</ele>
        <time>2011-06-26T06:33:11.000Z</time>
      </trkpt>
      <trkpt lat="45.96372" lon="1.15641">
        <ele>339</ele>
        <time>2011-06-26T06:33:19.000Z</time>
      </trkpt>
      <trkpt lat="45.96376" lon="1.15644">
        <ele>339</ele>
        <time>2011-06-26T06:33:20.000Z</time>
      </trkpt>
      <trkpt lat="45.96408" lon="1.15662">
        <ele>336</ele>
        <time>2011-06-26T06:33:28.000Z</time>
      </trkpt>
      <trkpt lat="45.96452" lon="1.15676">
        <ele>331</ele>
        <time>2011-06-26T06:33:36.000Z</time>
      </trkpt>
      <trkpt lat="45.96458" lon="1.15678">
        <ele>331</ele>
        <time>2011-06-26T06:33:37.000Z</time>
      </trkpt>
      <trkpt lat="45.96502" lon="1.15694">
        <ele>331</ele>
        <time>2011-06-26T06:33:46.000Z</time>
      </trkpt>
      <trkpt lat="45.96507" lon="1.15692">
        <ele>330</ele>
        <time>2011-06-26T06:33:47.000Z</time>
      </trkpt>
      <trkpt lat="45.96553" lon="1.15686">
        <ele>330</ele>
        <time>2011-06-26T06:33:56.000Z</time>
      </trkpt>
      <trkpt lat="45.96558" lon="1.15686">
        <ele>330</ele>
        <time>2011-06-26T06:33:57.000Z</time>
      </trkpt>
      <trkpt lat="45.96603" lon="1.15683">
        <ele>333</ele>
        <time>2011-06-26T06:34:07.000Z</time>
      </trkpt>
      <trkpt lat="45.96609" lon="1.15682">
        <ele>333</ele>
        <time>2011-06-26T06:34:08.000Z</time>
      </trkpt>
      <trkpt lat="45.96633" lon="1.15677">
        <ele>332</ele>
        <time>2011-06-26T06:34:13.000Z</time>
      </trkpt>
      <trkpt lat="45.96642" lon="1.15669">
        <ele>331</ele>
        <time>2011-06-26T06:34:15.000Z</time>
      </trkpt>
      <trkpt lat="45.96675" lon="1.15625">
        <ele>330</ele>
        <time>2011-06-26T06:34:23.000Z</time>
      </trkpt>
      <trkpt lat="45.96679" lon="1.15619">
        <ele>330</ele>
        <time>2011-06-26T06:34:24.000Z</time>
      </trkpt>
      <trkpt lat="45.96689" lon="1.15599">
        <ele>330</ele>
        <time>2011-06-26T06:34:27.000Z</time>
      </trkpt>
      <trkpt lat="45.96694" lon="1.15573">
        <ele>331</ele>
        <time>2011-06-26T06:34:31.000Z</time>
      </trkpt>
      <trkpt lat="45.96698" lon="1.15543">
        <ele>332</ele>
        <time>2011-06-26T06:34:36.000Z</time>
      </trkpt>
      <trkpt lat="45.9671" lon="1.15527">
        <ele>334</ele>
        <time>2011-06-26T06:34:40.000Z</time>
      </trkpt>
      <trkpt lat="45.96727" lon="1.15518">
        <ele>335</ele>
        <time>2011-06-26T06:34:45.000Z</time>
      </trkpt>
      <trkpt lat="45.96738" lon="1.15512">
        <ele>336</ele>
        <time>2011-06-26T06:34:48.000Z</time>
      </trkpt>
      <trkpt lat="45.96752" lon="1.15501">
        <ele>337</ele>
        <time>2011-06-26T06:34:53.000Z</time>
      </trkpt>
      <trkpt lat="45.96796" lon="1.15522">
        <ele>341</ele>
        <time>2011-06-26T06:35:07.000Z</time>
      </trkpt>
      <trkpt lat="45.96799" lon="1.15523">
        <ele>341</ele>
        <time>2011-06-26T06:35:08.000Z</time>
      </trkpt>
      <trkpt lat="45.96844" lon="1.15544">
        <ele>344</ele>
        <time>2011-06-26T06:35:21.000Z</time>
      </trkpt>
      <trkpt lat="45.96848" lon="1.15546">
        <ele>344</ele>
        <time>2011-06-26T06:35:22.000Z</time>
      </trkpt>
      <trkpt lat="45.96894" lon="1.15564">
        <ele>345</ele>
        <time>2011-06-26T06:35:34.000Z</time>
      </trkpt>
      <trkpt lat="45.96898" lon="1.15566">
        <ele>345</ele>
        <time>2011-06-26T06:35:35.000Z</time>
      </trkpt>
      <trkpt lat="45.96946" lon="1.15584">
        <ele>346</ele>
        <time>2011-06-26T06:35:46.000Z</time>
      </trkpt>
      <trkpt lat="45.9695" lon="1.15585">
        <ele>346</ele>
        <time>2011-06-26T06:35:47.000Z</time>
      </trkpt>
      <trkpt lat="45.96982" lon="1.15598">
        <ele>345</ele>
        <time>2011-06-26T06:35:54.000Z</time>
      </trkpt>
      <trkpt lat="45.97003" lon="1.15619">
        <ele>346</ele>
        <time>2011-06-26T06:36:00.000Z</time>
      </trkpt>
      <trkpt lat="45.9703" lon="1.15636">
        <ele>347</ele>
        <time>2011-06-26T06:36:07.000Z</time>
      </trkpt>
      <trkpt lat="45.97038" lon="1.15652">
        <ele>346</ele>
        <time>2011-06-26T06:36:10.000Z</time>
      </trkpt>
      <trkpt lat="45.97049" lon="1.15718">
        <ele>343</ele>
        <time>2011-06-26T06:36:20.000Z</time>
      </trkpt>
      <trkpt lat="45.97051" lon="1.15724">
        <ele>343</ele>
        <time>2011-06-26T06:36:21.000Z</time>
      </trkpt>
      <trkpt lat="45.97062" lon="1.15736">
        <ele>343</ele>
        <time>2011-06-26T06:36:24.000Z</time>
      </trkpt>
      <trkpt lat="45.97106" lon="1.15765">
        <ele>342</ele>
        <time>2011-06-26T06:36:34.000Z</time>
      </trkpt>
      <trkpt lat="45.9711" lon="1.15767">
        <ele>342</ele>
        <time>2011-06-26T06:36:35.000Z</time>
      </trkpt>
      <trkpt lat="45.97147" lon="1.15783">
        <ele>343</ele>
        <time>2011-06-26T06:36:43.000Z</time>
      </trkpt>
      <trkpt lat="45.97194" lon="1.15799">
        <ele>343</ele>
        <time>2011-06-26T06:36:53.000Z</time>
      </trkpt>
      <trkpt lat="45.97198" lon="1.158">
        <ele>343</ele>
        <time>2011-06-26T06:36:54.000Z</time>
      </trkpt>
      <trkpt lat="45.97243" lon="1.15816">
        <ele>344</ele>
        <time>2011-06-26T06:37:04.000Z</time>
      </trkpt>
      <trkpt lat="45.97247" lon="1.15818">
        <ele>344</ele>
        <time>2011-06-26T06:37:05.000Z</time>
      </trkpt>
      <trkpt lat="45.97272" lon="1.15824">
        <ele>345</ele>
        <time>2011-06-26T06:37:11.000Z</time>
      </trkpt>
      <trkpt lat="45.97281" lon="1.15817">
        <ele>345</ele>
        <time>2011-06-26T06:37:14.000Z</time>
      </trkpt>
      <trkpt lat="45.97287" lon="1.15811">
        <ele>345</ele>
        <time>2011-06-26T06:37:16.000Z</time>
      </trkpt>
      <trkpt lat="45.97319" lon="1.15761">
        <ele>347</ele>
        <time>2011-06-26T06:37:28.000Z</time>
      </trkpt>
      <trkpt lat="45.97322" lon="1.15757">
        <ele>347</ele>
        <time>2011-06-26T06:37:29.000Z</time>
      </trkpt>
      <trkpt lat="45.97338" lon="1.15729">
        <ele>348</ele>
        <time>2011-06-26T06:37:36.000Z</time>
      </trkpt>
      <trkpt lat="45.97369" lon="1.15681">
        <ele>348</ele>
        <time>2011-06-26T06:37:49.000Z</time>
      </trkpt>
      <trkpt lat="45.97371" lon="1.15677">
        <ele>348</ele>
        <time>2011-06-26T06:37:50.000Z</time>
      </trkpt>
      <trkpt lat="45.97403" lon="1.15627">
        <ele>352</ele>
        <time>2011-06-26T06:38:08.000Z</time>
      </trkpt>
      <trkpt lat="45.97404" lon="1.15624">
        <ele>352</ele>
        <time>2011-06-26T06:38:09.000Z</time>
      </trkpt>
      <trkpt lat="45.97415" lon="1.15612">
        <ele>353</ele>
        <time>2011-06-26T06:38:14.000Z</time>
      </trkpt>
      <trkpt lat="45.97441" lon="1.15593">
        <ele>353</ele>
        <time>2011-06-26T06:38:26.000Z</time>
      </trkpt>
      <trkpt lat="45.97453" lon="1.1559">
        <ele>353</ele>
        <time>2011-06-26T06:38:31.000Z</time>
      </trkpt>
      <trkpt lat="45.97466" lon="1.15593">
        <ele>353</ele>
        <time>2011-06-26T06:38:35.000Z</time>
      </trkpt>
      <trkpt lat="45.97505" lon="1.15567">
        <ele>356</ele>
        <time>2011-06-26T06:38:48.000Z</time>
      </trkpt>
      <trkpt lat="45.97508" lon="1.15565">
        <ele>357</ele>
        <time>2011-06-26T06:38:49.000Z</time>
      </trkpt>
      <trkpt lat="45.97546" lon="1.15525">
        <ele>357</ele>
        <time>2011-06-26T06:39:00.000Z</time>
      </trkpt>
      <trkpt lat="45.97551" lon="1.15521">
        <ele>357</ele>
        <time>2011-06-26T06:39:01.000Z</time>
      </trkpt>
      <trkpt lat="45.97591" lon="1.15479">
        <ele>356</ele>
        <time>2011-06-26T06:39:11.000Z</time>
      </trkpt>
      <trkpt lat="45.97595" lon="1.15473">
        <ele>355</ele>
        <time>2011-06-26T06:39:12.000Z</time>
      </trkpt>
      <trkpt lat="45.97633" lon="1.1543">
        <ele>353</ele>
        <time>2011-06-26T06:39:21.000Z</time>
      </trkpt>
      <trkpt lat="45.97638" lon="1.15426">
        <ele>353</ele>
        <time>2011-06-26T06:39:22.000Z</time>
      </trkpt>
      <trkpt lat="45.97654" lon="1.15413">
        <ele>351</ele>
        <time>2011-06-26T06:39:26.000Z</time>
      </trkpt>
      <trkpt lat="45.97691" lon="1.1537">
        <ele>345</ele>
        <time>2011-06-26T06:39:35.000Z</time>
      </trkpt>
      <trkpt lat="45.97696" lon="1.15367">
        <ele>345</ele>
        <time>2011-06-26T06:39:36.000Z</time>
      </trkpt>
      <trkpt lat="45.97721" lon="1.15348">
        <ele>341</ele>
        <time>2011-06-26T06:39:41.000Z</time>
      </trkpt>
      <trkpt lat="45.97728" lon="1.15333">
        <ele>339</ele>
        <time>2011-06-26T06:39:43.000Z</time>
      </trkpt>
      <trkpt lat="45.97739" lon="1.15286">
        <ele>336</ele>
        <time>2011-06-26T06:39:49.000Z</time>
      </trkpt>
      <trkpt lat="45.97749" lon="1.1528">
        <ele>335</ele>
        <time>2011-06-26T06:39:51.000Z</time>
      </trkpt>
      <trkpt lat="45.97763" lon="1.1527">
        <ele>333</ele>
        <time>2011-06-26T06:39:55.000Z</time>
      </trkpt>
      <trkpt lat="45.97766" lon="1.15259">
        <ele>332</ele>
        <time>2011-06-26T06:39:57.000Z</time>
      </trkpt>
      <trkpt lat="45.97771" lon="1.1523">
        <ele>330</ele>
        <time>2011-06-26T06:40:01.000Z</time>
      </trkpt>
      <trkpt lat="45.9777" lon="1.15181">
        <ele>324</ele>
        <time>2011-06-26T06:40:08.000Z</time>
      </trkpt>
      <trkpt lat="45.97768" lon="1.15119">
        <ele>317</ele>
        <time>2011-06-26T06:40:22.000Z</time>
      </trkpt>
      <trkpt lat="45.97768" lon="1.15114">
        <ele>316</ele>
        <time>2011-06-26T06:40:23.000Z</time>
      </trkpt>
      <trkpt lat="45.97769" lon="1.15111">
        <ele>316</ele>
        <time>2011-06-26T06:40:24.000Z</time>
      </trkpt>
      <trkpt lat="45.97778" lon="1.15084">
        <ele>312</ele>
        <time>2011-06-26T06:40:30.000Z</time>
      </trkpt>
      <trkpt lat="45.97779" lon="1.15073">
        <ele>311</ele>
        <time>2011-06-26T06:40:32.000Z</time>
      </trkpt>
      <trkpt lat="45.97791" lon="1.15008">
        <ele>307</ele>
        <time>2011-06-26T06:40:40.000Z</time>
      </trkpt>
      <trkpt lat="45.97792" lon="1.15">
        <ele>306</ele>
        <time>2011-06-26T06:40:41.000Z</time>
      </trkpt>
      <trkpt lat="45.9779" lon="1.1493">
        <ele>301</ele>
        <time>2011-06-26T06:40:51.000Z</time>
      </trkpt>
      <trkpt lat="45.97789" lon="1.14924">
        <ele>301</ele>
        <time>2011-06-26T06:40:52.000Z</time>
      </trkpt>
      <trkpt lat="45.97784" lon="1.14903">
        <ele>300</ele>
        <time>2011-06-26T06:40:56.000Z</time>
      </trkpt>
      <trkpt lat="45.97774" lon="1.14885">
        <ele>300</ele>
        <time>2011-06-26T06:40:59.000Z</time>
      </trkpt>
      <trkpt lat="45.9775" lon="1.1485">
        <ele>299</ele>
        <time>2011-06-26T06:41:05.000Z</time>
      </trkpt>
      <trkpt lat="45.9775" lon="1.14833">
        <ele>298</ele>
        <time>2011-06-26T06:41:07.000Z</time>
      </trkpt>
      <trkpt lat="45.9777" lon="1.14779">
        <ele>294</ele>
        <time>2011-06-26T06:41:14.000Z</time>
      </trkpt>
      <trkpt lat="45.97772" lon="1.14773">
        <ele>294</ele>
        <time>2011-06-26T06:41:15.000Z</time>
      </trkpt>
      <trkpt lat="45.97795" lon="1.14731">
        <ele>291</ele>
        <time>2011-06-26T06:41:23.000Z</time>
      </trkpt>
      <trkpt lat="45.97815" lon="1.14705">
        <ele>291</ele>
        <time>2011-06-26T06:41:29.000Z</time>
      </trkpt>
      <trkpt lat="45.97819" lon="1.14696">
        <ele>292</ele>
        <time>2011-06-26T06:41:31.000Z</time>
      </trkpt>
      <trkpt lat="45.97831" lon="1.14627">
        <ele>294</ele>
        <time>2011-06-26T06:41:44.000Z</time>
      </trkpt>
      <trkpt lat="45.97832" lon="1.1462">
        <ele>294</ele>
        <time>2011-06-26T06:41:45.000Z</time>
      </trkpt>
      <trkpt lat="45.97834" lon="1.14588">
        <ele>295</ele>
        <time>2011-06-26T06:41:49.000Z</time>
      </trkpt>
      <trkpt lat="45.97833" lon="1.14543">
        <ele>295</ele>
        <time>2011-06-26T06:41:55.000Z</time>
      </trkpt>
      <trkpt lat="45.9783" lon="1.14496">
        <ele>293</ele>
        <time>2011-06-26T06:42:02.000Z</time>
      </trkpt>
      <trkpt lat="45.97835" lon="1.14481">
        <ele>292</ele>
        <time>2011-06-26T06:42:05.000Z</time>
      </trkpt>
      <trkpt lat="45.97859" lon="1.14452">
        <ele>290</ele>
        <time>2011-06-26T06:42:11.000Z</time>
      </trkpt>
      <trkpt lat="45.97885" lon="1.14413">
        <ele>289</ele>
        <time>2011-06-26T06:42:18.000Z</time>
      </trkpt>
      <trkpt lat="45.9789" lon="1.1438">
        <ele>289</ele>
        <time>2011-06-26T06:42:23.000Z</time>
      </trkpt>
      <trkpt lat="45.97886" lon="1.1431">
        <ele>286</ele>
        <time>2011-06-26T06:42:33.000Z</time>
      </trkpt>
      <trkpt lat="45.97884" lon="1.14301">
        <ele>284</ele>
        <time>2011-06-26T06:42:34.000Z</time>
      </trkpt>
      <trkpt lat="45.97877" lon="1.14279">
        <ele>281</ele>
        <time>2011-06-26T06:42:37.000Z</time>
      </trkpt>
      <trkpt lat="45.97866" lon="1.14258">
        <ele>277</ele>
        <time>2011-06-26T06:42:40.000Z</time>
      </trkpt>
      <trkpt lat="45.9783" lon="1.14218">
        <ele>271</ele>
        <time>2011-06-26T06:42:47.000Z</time>
      </trkpt>
      <trkpt lat="45.97825" lon="1.14214">
        <ele>271</ele>
        <time>2011-06-26T06:42:48.000Z</time>
      </trkpt>
      <trkpt lat="45.9782" lon="1.14209">
        <ele>271</ele>
        <time>2011-06-26T06:42:49.000Z</time>
      </trkpt>
      <trkpt lat="45.97795" lon="1.1418">
        <ele>273</ele>
        <time>2011-06-26T06:42:55.000Z</time>
      </trkpt>
      <trkpt lat="45.97783" lon="1.14147">
        <ele>275</ele>
        <time>2011-06-26T06:43:00.000Z</time>
      </trkpt>
      <trkpt lat="45.97782" lon="1.14132">
        <ele>277</ele>
        <time>2011-06-26T06:43:02.000Z</time>
      </trkpt>
      <trkpt lat="45.97777" lon="1.14084">
        <ele>284</ele>
        <time>2011-06-26T06:43:08.000Z</time>
      </trkpt>
      <trkpt lat="45.97779" lon="1.14069">
        <ele>286</ele>
        <time>2011-06-26T06:43:10.000Z</time>
      </trkpt>
      <trkpt lat="45.97787" lon="1.14056">
        <ele>287</ele>
        <time>2011-06-26T06:43:12.000Z</time>
      </trkpt>
      <trkpt lat="45.97821" lon="1.14006">
        <ele>285</ele>
        <time>2011-06-26T06:43:20.000Z</time>
      </trkpt>
      <trkpt lat="45.97824" lon="1.13999">
        <ele>285</ele>
        <time>2011-06-26T06:43:21.000Z</time>
      </trkpt>
      <trkpt lat="45.97828" lon="1.13992">
        <ele>285</ele>
        <time>2011-06-26T06:43:22.000Z</time>
      </trkpt>
      <trkpt lat="45.97856" lon="1.13935">
        <ele>286</ele>
        <time>2011-06-26T06:43:31.000Z</time>
      </trkpt>
      <trkpt lat="45.97858" lon="1.1393">
        <ele>286</ele>
        <time>2011-06-26T06:43:32.000Z</time>
      </trkpt>
      <trkpt lat="45.97886" lon="1.13886">
        <ele>286</ele>
        <time>2011-06-26T06:43:41.000Z</time>
      </trkpt>
      <trkpt lat="45.97889" lon="1.13882">
        <ele>286</ele>
        <time>2011-06-26T06:43:42.000Z</time>
      </trkpt>
      <trkpt lat="45.97904" lon="1.13869">
        <ele>286</ele>
        <time>2011-06-26T06:43:46.000Z</time>
      </trkpt>
      <trkpt lat="45.97924" lon="1.13859">
        <ele>286</ele>
        <time>2011-06-26T06:43:51.000Z</time>
      </trkpt>
      <trkpt lat="45.97964" lon="1.13857">
        <ele>290</ele>
        <time>2011-06-26T06:44:01.000Z</time>
      </trkpt>
      <trkpt lat="45.97986" lon="1.13854">
        <ele>294</ele>
        <time>2011-06-26T06:44:10.000Z</time>
      </trkpt>
      <trkpt lat="45.98" lon="1.13841">
        <ele>295</ele>
        <time>2011-06-26T06:44:18.000Z</time>
      </trkpt>
      <trkpt lat="45.98011" lon="1.13822">
        <ele>297</ele>
        <time>2011-06-26T06:44:25.000Z</time>
      </trkpt>
      <trkpt lat="45.98019" lon="1.1382">
        <ele>297</ele>
        <time>2011-06-26T06:44:29.000Z</time>
      </trkpt>
      <trkpt lat="45.98064" lon="1.13828">
        <ele>304</ele>
        <time>2011-06-26T06:44:48.000Z</time>
      </trkpt>
      <trkpt lat="45.98067" lon="1.13828">
        <ele>304</ele>
        <time>2011-06-26T06:44:49.000Z</time>
      </trkpt>
      <trkpt lat="45.98069" lon="1.13828">
        <ele>304</ele>
        <time>2011-06-26T06:44:50.000Z</time>
      </trkpt>
      <trkpt lat="45.98077" lon="1.13821">
        <ele>305</ele>
        <time>2011-06-26T06:44:54.000Z</time>
      </trkpt>
      <trkpt lat="45.98081" lon="1.13809">
        <ele>305</ele>
        <time>2011-06-26T06:44:58.000Z</time>
      </trkpt>
      <trkpt lat="45.98086" lon="1.13794">
        <ele>305</ele>
        <time>2011-06-26T06:45:03.000Z</time>
      </trkpt>
      <trkpt lat="45.98114" lon="1.13739">
        <ele>306</ele>
        <time>2011-06-26T06:45:19.000Z</time>
      </trkpt>
      <trkpt lat="45.98116" lon="1.13735">
        <ele>306</ele>
        <time>2011-06-26T06:45:20.000Z</time>
      </trkpt>
      <trkpt lat="45.98142" lon="1.13681">
        <ele>306</ele>
        <time>2011-06-26T06:45:32.000Z</time>
      </trkpt>
      <trkpt lat="45.98144" lon="1.13677">
        <ele>306</ele>
        <time>2011-06-26T06:45:33.000Z</time>
      </trkpt>
      <trkpt lat="45.98156" lon="1.13647">
        <ele>306</ele>
        <time>2011-06-26T06:45:39.000Z</time>
      </trkpt>
      <trkpt lat="45.98163" lon="1.13612">
        <ele>305</ele>
        <time>2011-06-26T06:45:45.000Z</time>
      </trkpt>
      <trkpt lat="45.9817" lon="1.13542">
        <ele>302</ele>
        <time>2011-06-26T06:45:56.000Z</time>
      </trkpt>
      <trkpt lat="45.98171" lon="1.13536">
        <ele>302</ele>
        <time>2011-06-26T06:45:57.000Z</time>
      </trkpt>
      <trkpt lat="45.98183" lon="1.13468">
        <ele>299</ele>
        <time>2011-06-26T06:46:07.000Z</time>
      </trkpt>
      <trkpt lat="45.98184" lon="1.1346">
        <ele>299</ele>
        <time>2011-06-26T06:46:08.000Z</time>
      </trkpt>
      <trkpt lat="45.98192" lon="1.13392">
        <ele>296</ele>
        <time>2011-06-26T06:46:17.000Z</time>
      </trkpt>
      <trkpt lat="45.98192" lon="1.13384">
        <ele>296</ele>
        <time>2011-06-26T06:46:18.000Z</time>
      </trkpt>
      <trkpt lat="45.98195" lon="1.13318">
        <ele>296</ele>
        <time>2011-06-26T06:46:26.000Z</time>
      </trkpt>
      <trkpt lat="45.98196" lon="1.13309">
        <ele>295</ele>
        <time>2011-06-26T06:46:27.000Z</time>
      </trkpt>
      <trkpt lat="45.982" lon="1.13292">
        <ele>295</ele>
        <time>2011-06-26T06:46:29.000Z</time>
      </trkpt>
      <trkpt lat="45.98208" lon="1.13268">
        <ele>295</ele>
        <time>2011-06-26T06:46:32.000Z</time>
      </trkpt>
      <trkpt lat="45.98232" lon="1.13206">
        <ele>293</ele>
        <time>2011-06-26T06:46:39.000Z</time>
      </trkpt>
      <trkpt lat="45.98235" lon="1.13197">
        <ele>292</ele>
        <time>2011-06-26T06:46:40.000Z</time>
      </trkpt>
      <trkpt lat="45.98259" lon="1.13137">
        <ele>290</ele>
        <time>2011-06-26T06:46:46.000Z</time>
      </trkpt>
      <trkpt lat="45.98264" lon="1.13128">
        <ele>290</ele>
        <time>2011-06-26T06:46:47.000Z</time>
      </trkpt>
      <trkpt lat="45.98296" lon="1.13078">
        <ele>291</ele>
        <time>2011-06-26T06:46:54.000Z</time>
      </trkpt>
      <trkpt lat="45.98299" lon="1.13072">
        <ele>291</ele>
        <time>2011-06-26T06:46:55.000Z</time>
      </trkpt>
      <trkpt lat="45.98305" lon="1.13054">
        <ele>292</ele>
        <time>2011-06-26T06:46:58.000Z</time>
      </trkpt>
      <trkpt lat="45.98303" lon="1.13031">
        <ele>292</ele>
        <time>2011-06-26T06:47:01.000Z</time>
      </trkpt>
      <trkpt lat="45.98293" lon="1.12975">
        <ele>292</ele>
        <time>2011-06-26T06:47:09.000Z</time>
      </trkpt>
      <trkpt lat="45.98295" lon="1.12953">
        <ele>293</ele>
        <time>2011-06-26T06:47:13.000Z</time>
      </trkpt>
      <trkpt lat="45.98303" lon="1.1293">
        <ele>295</ele>
        <time>2011-06-26T06:47:19.000Z</time>
      </trkpt>
      <trkpt lat="45.98312" lon="1.12908">
        <ele>296</ele>
        <time>2011-06-26T06:47:26.000Z</time>
      </trkpt>
      <trkpt lat="45.98337" lon="1.12851">
        <ele>301</ele>
        <time>2011-06-26T06:47:46.000Z</time>
      </trkpt>
      <trkpt lat="45.98338" lon="1.12848">
        <ele>302</ele>
        <time>2011-06-26T06:47:47.000Z</time>
      </trkpt>
      <trkpt lat="45.98358" lon="1.12822">
        <ele>305</ele>
        <time>2011-06-26T06:47:59.000Z</time>
      </trkpt>
      <trkpt lat="45.98399" lon="1.12787">
        <ele>310</ele>
        <time>2011-06-26T06:48:19.000Z</time>
      </trkpt>
      <trkpt lat="45.98402" lon="1.12784">
        <ele>310</ele>
        <time>2011-06-26T06:48:20.000Z</time>
      </trkpt>
      <trkpt lat="45.98404" lon="1.1278">
        <ele>310</ele>
        <time>2011-06-26T06:48:21.000Z</time>
      </trkpt>
      <trkpt lat="45.98412" lon="1.12773">
        <ele>311</ele>
        <time>2011-06-26T06:48:26.000Z</time>
      </trkpt>
      <trkpt lat="45.98429" lon="1.12771">
        <ele>313</ele>
        <time>2011-06-26T06:48:37.000Z</time>
      </trkpt>
      <trkpt lat="45.98456" lon="1.12751">
        <ele>313</ele>
        <time>2011-06-26T06:48:45.000Z</time>
      </trkpt>
      <trkpt lat="45.9847" lon="1.12733">
        <ele>313</ele>
        <time>2011-06-26T06:48:50.000Z</time>
      </trkpt>
      <trkpt lat="45.98502" lon="1.12713">
        <ele>311</ele>
        <time>2011-06-26T06:48:58.000Z</time>
      </trkpt>
      <trkpt lat="45.98542" lon="1.12704">
        <ele>306</ele>
        <time>2011-06-26T06:49:07.000Z</time>
      </trkpt>
      <trkpt lat="45.98548" lon="1.12701">
        <ele>306</ele>
        <time>2011-06-26T06:49:08.000Z</time>
      </trkpt>
      <trkpt lat="45.9859" lon="1.12675">
        <ele>305</ele>
        <time>2011-06-26T06:49:17.000Z</time>
      </trkpt>
      <trkpt lat="45.98594" lon="1.12672">
        <ele>306</ele>
        <time>2011-06-26T06:49:18.000Z</time>
      </trkpt>
      <trkpt lat="45.98613" lon="1.12657">
        <ele>306</ele>
        <time>2011-06-26T06:49:23.000Z</time>
      </trkpt>
      <trkpt lat="45.98656" lon="1.12623">
        <ele>308</ele>
        <time>2011-06-26T06:49:34.000Z</time>
      </trkpt>
      <trkpt lat="45.9866" lon="1.1262">
        <ele>308</ele>
        <time>2011-06-26T06:49:35.000Z</time>
      </trkpt>
      <trkpt lat="45.987" lon="1.12586">
        <ele>309</ele>
        <time>2011-06-26T06:49:46.000Z</time>
      </trkpt>
      <trkpt lat="45.98703" lon="1.12583">
        <ele>309</ele>
        <time>2011-06-26T06:49:47.000Z</time>
      </trkpt>
      <trkpt lat="45.98706" lon="1.1258">
        <ele>309</ele>
        <time>2011-06-26T06:49:48.000Z</time>
      </trkpt>
      <trkpt lat="45.98722" lon="1.12558">
        <ele>311</ele>
        <time>2011-06-26T06:49:55.000Z</time>
      </trkpt>
      <trkpt lat="45.98724" lon="1.12549">
        <ele>311</ele>
        <time>2011-06-26T06:49:58.000Z</time>
      </trkpt>
      <trkpt lat="45.9872" lon="1.12543">
        <ele>311</ele>
        <time>2011-06-26T06:50:00.000Z</time>
      </trkpt>
      <trkpt lat="45.98684" lon="1.12498">
        <ele>311</ele>
        <time>2011-06-26T06:50:14.000Z</time>
      </trkpt>
      <trkpt lat="45.98681" lon="1.12495">
        <ele>311</ele>
        <time>2011-06-26T06:50:15.000Z</time>
      </trkpt>
      <trkpt lat="45.98644" lon="1.12454">
        <ele>309</ele>
        <time>2011-06-26T06:50:25.000Z</time>
      </trkpt>
      <trkpt lat="45.98639" lon="1.12449">
        <ele>309</ele>
        <time>2011-06-26T06:50:26.000Z</time>
      </trkpt>
      <trkpt lat="45.98603" lon="1.12409">
        <ele>307</ele>
        <time>2011-06-26T06:50:33.000Z</time>
      </trkpt>
      <trkpt lat="45.98597" lon="1.12403">
        <ele>306</ele>
        <time>2011-06-26T06:50:34.000Z</time>
      </trkpt>
      <trkpt lat="45.98558" lon="1.12359">
        <ele>306</ele>
        <time>2011-06-26T06:50:42.000Z</time>
      </trkpt>
      <trkpt lat="45.98557" lon="1.12352">
        <ele>306</ele>
        <time>2011-06-26T06:50:43.000Z</time>
      </trkpt>
      <trkpt lat="45.98559" lon="1.12329">
        <ele>306</ele>
        <time>2011-06-26T06:50:47.000Z</time>
      </trkpt>
      <trkpt lat="45.98564" lon="1.12288">
        <ele>308</ele>
        <time>2011-06-26T06:50:55.000Z</time>
      </trkpt>
      <trkpt lat="45.98574" lon="1.12224">
        <ele>310</ele>
        <time>2011-06-26T06:51:10.000Z</time>
      </trkpt>
      <trkpt lat="45.98575" lon="1.12221">
        <ele>311</ele>
        <time>2011-06-26T06:51:11.000Z</time>
      </trkpt>
      <trkpt lat="45.98579" lon="1.12197">
        <ele>312</ele>
        <time>2011-06-26T06:51:18.000Z</time>
      </trkpt>
      <trkpt lat="45.98584" lon="1.12186">
        <ele>314</ele>
        <time>2011-06-26T06:51:22.000Z</time>
      </trkpt>
      <trkpt lat="45.98597" lon="1.12171">
        <ele>318</ele>
        <time>2011-06-26T06:51:30.000Z</time>
      </trkpt>
      <trkpt lat="45.98621" lon="1.12153">
        <ele>326</ele>
        <time>2011-06-26T06:51:46.000Z</time>
      </trkpt>
      <trkpt lat="45.98639" lon="1.12139">
        <ele>331</ele>
        <time>2011-06-26T06:51:56.000Z</time>
      </trkpt>
      <trkpt lat="45.98673" lon="1.12096">
        <ele>330</ele>
        <time>2011-06-26T06:52:16.000Z</time>
      </trkpt>
      <trkpt lat="45.98675" lon="1.12093">
        <ele>330</ele>
        <time>2011-06-26T06:52:17.000Z</time>
      </trkpt>
      <trkpt lat="45.98689" lon="1.12074">
        <ele>331</ele>
        <time>2011-06-26T06:52:26.000Z</time>
      </trkpt>
      <trkpt lat="45.98716" lon="1.12025">
        <ele>333</ele>
        <time>2011-06-26T06:52:46.000Z</time>
      </trkpt>
      <trkpt lat="45.98717" lon="1.12023">
        <ele>333</ele>
        <time>2011-06-26T06:52:47.000Z</time>
      </trkpt>
      <trkpt lat="45.98741" lon="1.11974">
        <ele>335</ele>
        <time>2011-06-26T06:53:05.000Z</time>
      </trkpt>
      <trkpt lat="45.98755" lon="1.11931">
        <ele>334</ele>
        <time>2011-06-26T06:53:14.000Z</time>
      </trkpt>
      <trkpt lat="45.98773" lon="1.11865">
        <ele>331</ele>
        <time>2011-06-26T06:53:24.000Z</time>
      </trkpt>
      <trkpt lat="45.98775" lon="1.1186">
        <ele>330</ele>
        <time>2011-06-26T06:53:25.000Z</time>
      </trkpt>
      <trkpt lat="45.98796" lon="1.11804">
        <ele>325</ele>
        <time>2011-06-26T06:53:36.000Z</time>
      </trkpt>
      <trkpt lat="45.98798" lon="1.11799">
        <ele>326</ele>
        <time>2011-06-26T06:53:37.000Z</time>
      </trkpt>
      <trkpt lat="45.98819" lon="1.11739">
        <ele>331</ele>
        <time>2011-06-26T06:53:50.000Z</time>
      </trkpt>
      <trkpt lat="45.98821" lon="1.11733">
        <ele>331</ele>
        <time>2011-06-26T06:53:51.000Z</time>
      </trkpt>
      <trkpt lat="45.98842" lon="1.11674">
        <ele>334</ele>
        <time>2011-06-26T06:54:02.000Z</time>
      </trkpt>
      <trkpt lat="45.98844" lon="1.11667">
        <ele>334</ele>
        <time>2011-06-26T06:54:03.000Z</time>
      </trkpt>
      <trkpt lat="45.98856" lon="1.11625">
        <ele>333</ele>
        <time>2011-06-26T06:54:09.000Z</time>
      </trkpt>
      <trkpt lat="45.98866" lon="1.11562">
        <ele>334</ele>
        <time>2011-06-26T06:54:18.000Z</time>
      </trkpt>
      <trkpt lat="45.98867" lon="1.11555">
        <ele>334</ele>
        <time>2011-06-26T06:54:19.000Z</time>
      </trkpt>
      <trkpt lat="45.98876" lon="1.11502">
        <ele>335</ele>
        <time>2011-06-26T06:54:27.000Z</time>
      </trkpt>
      <trkpt lat="45.98877" lon="1.11451">
        <ele>336</ele>
        <time>2011-06-26T06:54:35.000Z</time>
      </trkpt>
      <trkpt lat="45.98874" lon="1.11428">
        <ele>337</ele>
        <time>2011-06-26T06:54:39.000Z</time>
      </trkpt>
      <trkpt lat="45.98866" lon="1.11402">
        <ele>336</ele>
        <time>2011-06-26T06:54:45.000Z</time>
      </trkpt>
      <trkpt lat="45.98849" lon="1.11339">
        <ele>341</ele>
        <time>2011-06-26T06:54:59.000Z</time>
      </trkpt>
      <trkpt lat="45.98847" lon="1.11335">
        <ele>341</ele>
        <time>2011-06-26T06:55:00.000Z</time>
      </trkpt>
      <trkpt lat="45.98836" lon="1.11304">
        <ele>343</ele>
        <time>2011-06-26T06:55:07.000Z</time>
      </trkpt>
      <trkpt lat="45.98812" lon="1.11249">
        <ele>344</ele>
        <time>2011-06-26T06:55:19.000Z</time>
      </trkpt>
      <trkpt lat="45.9881" lon="1.11244">
        <ele>344</ele>
        <time>2011-06-26T06:55:20.000Z</time>
      </trkpt>
      <trkpt lat="45.98805" lon="1.11224">
        <ele>344</ele>
        <time>2011-06-26T06:55:24.000Z</time>
      </trkpt>
      <trkpt lat="45.98803" lon="1.11214">
        <ele>344</ele>
        <time>2011-06-26T06:55:26.000Z</time>
      </trkpt>
      <trkpt lat="45.98801" lon="1.11203">
        <ele>344</ele>
        <time>2011-06-26T06:55:28.000Z</time>
      </trkpt>
      <trkpt lat="45.98792" lon="1.11135">
        <ele>345</ele>
        <time>2011-06-26T06:55:41.000Z</time>
      </trkpt>
      <trkpt lat="45.98791" lon="1.11129">
        <ele>345</ele>
        <time>2011-06-26T06:55:42.000Z</time>
      </trkpt>
      <trkpt lat="45.98782" lon="1.11064">
        <ele>347</ele>
        <time>2011-06-26T06:55:56.000Z</time>
      </trkpt>
      <trkpt lat="45.98781" lon="1.11061">
        <ele>347</ele>
        <time>2011-06-26T06:55:57.000Z</time>
      </trkpt>
      <trkpt lat="45.98775" lon="1.11032">
        <ele>349</ele>
        <time>2011-06-26T06:56:05.000Z</time>
      </trkpt>
      <trkpt lat="45.98747" lon="1.10974">
        <ele>358</ele>
        <time>2011-06-26T06:56:22.000Z</time>
      </trkpt>
      <trkpt lat="45.98745" lon="1.10967">
        <ele>359</ele>
        <time>2011-06-26T06:56:23.000Z</time>
      </trkpt>
      <trkpt lat="45.98743" lon="1.10961">
        <ele>359</ele>
        <time>2011-06-26T06:56:24.000Z</time>
      </trkpt>
      <trkpt lat="45.98735" lon="1.10915">
        <ele>361</ele>
        <time>2011-06-26T06:56:30.000Z</time>
      </trkpt>
      <trkpt lat="45.98733" lon="1.10856">
        <ele>360</ele>
        <time>2011-06-26T06:56:37.000Z</time>
      </trkpt>
      <trkpt lat="45.98734" lon="1.10848">
        <ele>360</ele>
        <time>2011-06-26T06:56:38.000Z</time>
      </trkpt>
      <trkpt lat="45.98735" lon="1.1084">
        <ele>360</ele>
        <time>2011-06-26T06:56:39.000Z</time>
      </trkpt>
      <trkpt lat="45.98742" lon="1.10772">
        <ele>355</ele>
        <time>2011-06-26T06:56:47.000Z</time>
      </trkpt>
      <trkpt lat="45.98743" lon="1.10763">
        <ele>354</ele>
        <time>2011-06-26T06:56:48.000Z</time>
      </trkpt>
      <trkpt lat="45.98753" lon="1.10699">
        <ele>350</ele>
        <time>2011-06-26T06:56:55.000Z</time>
      </trkpt>
      <trkpt lat="45.98756" lon="1.1069">
        <ele>350</ele>
        <time>2011-06-26T06:56:56.000Z</time>
      </trkpt>
      <trkpt lat="45.98778" lon="1.10632">
        <ele>347</ele>
        <time>2011-06-26T06:57:03.000Z</time>
      </trkpt>
      <trkpt lat="45.9878" lon="1.10623">
        <ele>347</ele>
        <time>2011-06-26T06:57:04.000Z</time>
      </trkpt>
      <trkpt lat="45.98782" lon="1.10613">
        <ele>346</ele>
        <time>2011-06-26T06:57:05.000Z</time>
      </trkpt>
      <trkpt lat="45.9879" lon="1.10546">
        <ele>346</ele>
        <time>2011-06-26T06:57:12.000Z</time>
      </trkpt>
      <trkpt lat="45.9879" lon="1.10537">
        <ele>345</ele>
        <time>2011-06-26T06:57:13.000Z</time>
      </trkpt>
      <trkpt lat="45.98791" lon="1.10528">
        <ele>345</ele>
        <time>2011-06-26T06:57:14.000Z</time>
      </trkpt>
      <trkpt lat="45.98794" lon="1.10466">
        <ele>346</ele>
        <time>2011-06-26T06:57:23.000Z</time>
      </trkpt>
      <trkpt lat="45.98795" lon="1.10461">
        <ele>346</ele>
        <time>2011-06-26T06:57:24.000Z</time>
      </trkpt>
      <trkpt lat="45.98808" lon="1.10431">
        <ele>346</ele>
        <time>2011-06-26T06:57:31.000Z</time>
      </trkpt>
      <trkpt lat="45.98841" lon="1.10382">
        <ele>352</ele>
        <time>2011-06-26T06:57:48.000Z</time>
      </trkpt>
      <trkpt lat="45.98843" lon="1.1038">
        <ele>353</ele>
        <time>2011-06-26T06:57:49.000Z</time>
      </trkpt>
      <trkpt lat="45.98847" lon="1.10377">
        <ele>354</ele>
        <time>2011-06-26T06:57:51.000Z</time>
      </trkpt>
      <trkpt lat="45.98859" lon="1.10365">
        <ele>359</ele>
        <time>2011-06-26T06:57:59.000Z</time>
      </trkpt>
      <trkpt lat="45.98885" lon="1.10336">
        <ele>366</ele>
        <time>2011-06-26T06:58:15.000Z</time>
      </trkpt>
      <trkpt lat="45.989" lon="1.10316">
        <ele>368</ele>
        <time>2011-06-26T06:58:24.000Z</time>
      </trkpt>
      <trkpt lat="45.98907" lon="1.10303">
        <ele>368</ele>
        <time>2011-06-26T06:58:29.000Z</time>
      </trkpt>
      <trkpt lat="45.98931" lon="1.10248">
        <ele>368</ele>
        <time>2011-06-26T06:58:43.000Z</time>
      </trkpt>
      <trkpt lat="45.98933" lon="1.10244">
        <ele>367</ele>
        <time>2011-06-26T06:58:44.000Z</time>
      </trkpt>
      <trkpt lat="45.98955" lon="1.10184">
        <ele>366</ele>
        <time>2011-06-26T06:58:57.000Z</time>
      </trkpt>
      <trkpt lat="45.98956" lon="1.10179">
        <ele>366</ele>
        <time>2011-06-26T06:58:58.000Z</time>
      </trkpt>
      <trkpt lat="45.98957" lon="1.10169">
        <ele>366</ele>
        <time>2011-06-26T06:59:00.000Z</time>
      </trkpt>
      <trkpt lat="45.98958" lon="1.10133">
        <ele>366</ele>
        <time>2011-06-26T06:59:07.000Z</time>
      </trkpt>
      <trkpt lat="45.98964" lon="1.10064">
        <ele>364</ele>
        <time>2011-06-26T06:59:17.000Z</time>
      </trkpt>
      <trkpt lat="45.98967" lon="1.10057">
        <ele>364</ele>
        <time>2011-06-26T06:59:18.000Z</time>
      </trkpt>
      <trkpt lat="45.98971" lon="1.1005">
        <ele>364</ele>
        <time>2011-06-26T06:59:19.000Z</time>
      </trkpt>
      <trkpt lat="45.99001" lon="1.1">
        <ele>363</ele>
        <time>2011-06-26T06:59:28.000Z</time>
      </trkpt>
      <trkpt lat="45.99005" lon="1.09996">
        <ele>363</ele>
        <time>2011-06-26T06:59:29.000Z</time>
      </trkpt>
      <trkpt lat="45.99035" lon="1.09947">
        <ele>362</ele>
        <time>2011-06-26T06:59:39.000Z</time>
      </trkpt>
      <trkpt lat="45.99038" lon="1.09941">
        <ele>362</ele>
        <time>2011-06-26T06:59:40.000Z</time>
      </trkpt>
      <trkpt lat="45.99055" lon="1.09902">
        <ele>361</ele>
        <time>2011-06-26T06:59:46.000Z</time>
      </trkpt>
      <trkpt lat="45.99075" lon="1.09841">
        <ele>359</ele>
        <time>2011-06-26T06:59:53.000Z</time>
      </trkpt>
      <trkpt lat="45.99078" lon="1.09832">
        <ele>359</ele>
        <time>2011-06-26T06:59:54.000Z</time>
      </trkpt>
      <trkpt lat="45.991" lon="1.09771">
        <ele>357</ele>
        <time>2011-06-26T07:00:00.000Z</time>
      </trkpt>
      <trkpt lat="45.99103" lon="1.09762">
        <ele>356</ele>
        <time>2011-06-26T07:00:01.000Z</time>
      </trkpt>
      <trkpt lat="45.99115" lon="1.09733">
        <ele>355</ele>
        <time>2011-06-26T07:00:05.000Z</time>
      </trkpt>
      <trkpt lat="45.99121" lon="1.09736">
        <ele>355</ele>
        <time>2011-06-26T07:00:08.000Z</time>
      </trkpt>
      <trkpt lat="45.99118" lon="1.09757">
        <ele>355</ele>
        <time>2011-06-26T07:00:14.000Z</time>
      </trkpt>
      <trkpt lat="45.99117" lon="1.09771">
        <ele>356</ele>
        <time>2011-06-26T07:00:17.000Z</time>
      </trkpt>
      <trkpt lat="45.9912" lon="1.0978">
        <ele>356</ele>
        <time>2011-06-26T07:00:19.000Z</time>
      </trkpt>
      <trkpt lat="45.9913" lon="1.09812">
        <ele>356</ele>
        <time>2011-06-26T07:00:25.000Z</time>
      </trkpt>
      <trkpt lat="45.99139" lon="1.09862">
        <ele>357</ele>
        <time>2011-06-26T07:00:34.000Z</time>
      </trkpt>
      <trkpt lat="45.99147" lon="1.09931">
        <ele>360</ele>
        <time>2011-06-26T07:00:46.000Z</time>
      </trkpt>
      <trkpt lat="45.99148" lon="1.09936">
        <ele>360</ele>
        <time>2011-06-26T07:00:47.000Z</time>
      </trkpt>
      <trkpt lat="45.99152" lon="1.09952">
        <ele>360</ele>
        <time>2011-06-26T07:00:50.000Z</time>
      </trkpt>
      <trkpt lat="45.99158" lon="1.09973">
        <ele>360</ele>
        <time>2011-06-26T07:00:54.000Z</time>
      </trkpt>
      <trkpt lat="45.99187" lon="1.10024">
        <ele>359</ele>
        <time>2011-06-26T07:01:04.000Z</time>
      </trkpt>
      <trkpt lat="45.99191" lon="1.1003">
        <ele>359</ele>
        <time>2011-06-26T07:01:05.000Z</time>
      </trkpt>
      <trkpt lat="45.99202" lon="1.10047">
        <ele>359</ele>
        <time>2011-06-26T07:01:08.000Z</time>
      </trkpt>
      <trkpt lat="45.99225" lon="1.1008">
        <ele>358</ele>
        <time>2011-06-26T07:01:14.000Z</time>
      </trkpt>
      <trkpt lat="45.99237" lon="1.10105">
        <ele>357</ele>
        <time>2011-06-26T07:01:18.000Z</time>
      </trkpt>
      <trkpt lat="45.99268" lon="1.10161">
        <ele>358</ele>
        <time>2011-06-26T07:01:28.000Z</time>
      </trkpt>
      <trkpt lat="45.99272" lon="1.10166">
        <ele>358</ele>
        <time>2011-06-26T07:01:29.000Z</time>
      </trkpt>
      <trkpt lat="45.99281" lon="1.10177">
        <ele>358</ele>
        <time>2011-06-26T07:01:31.000Z</time>
      </trkpt>
      <trkpt lat="45.99295" lon="1.10191">
        <ele>359</ele>
        <time>2011-06-26T07:01:34.000Z</time>
      </trkpt>
      <trkpt lat="45.99316" lon="1.1024">
        <ele>358</ele>
        <time>2011-06-26T07:01:39.000Z</time>
      </trkpt>
      <trkpt lat="45.9932" lon="1.1025">
        <ele>357</ele>
        <time>2011-06-26T07:01:40.000Z</time>
      </trkpt>
      <trkpt lat="45.99341" lon="1.1032">
        <ele>353</ele>
        <time>2011-06-26T07:01:46.000Z</time>
      </trkpt>
      <trkpt lat="45.99345" lon="1.10332">
        <ele>353</ele>
        <time>2011-06-26T07:01:47.000Z</time>
      </trkpt>
      <trkpt lat="45.99371" lon="1.10391">
        <ele>349</ele>
        <time>2011-06-26T07:01:53.000Z</time>
      </trkpt>
      <trkpt lat="45.99375" lon="1.104">
        <ele>348</ele>
        <time>2011-06-26T07:01:54.000Z</time>
      </trkpt>
      <trkpt lat="45.99386" lon="1.10418">
        <ele>346</ele>
        <time>2011-06-26T07:01:56.000Z</time>
      </trkpt>
      <trkpt lat="45.99418" lon="1.10479">
        <ele>341</ele>
        <time>2011-06-26T07:02:02.000Z</time>
      </trkpt>
      <trkpt lat="45.99424" lon="1.10489">
        <ele>340</ele>
        <time>2011-06-26T07:02:03.000Z</time>
      </trkpt>
      <trkpt lat="45.99447" lon="1.10547">
        <ele>336</ele>
        <time>2011-06-26T07:02:08.000Z</time>
      </trkpt>
      <trkpt lat="45.99453" lon="1.10559">
        <ele>335</ele>
        <time>2011-06-26T07:02:09.000Z</time>
      </trkpt>
      <trkpt lat="45.99471" lon="1.1061">
        <ele>333</ele>
        <time>2011-06-26T07:02:13.000Z</time>
      </trkpt>
      <trkpt lat="45.99475" lon="1.10623">
        <ele>332</ele>
        <time>2011-06-26T07:02:14.000Z</time>
      </trkpt>
      <trkpt lat="45.99492" lon="1.10684">
        <ele>331</ele>
        <time>2011-06-26T07:02:19.000Z</time>
      </trkpt>
      <trkpt lat="45.99495" lon="1.10695">
        <ele>331</ele>
        <time>2011-06-26T07:02:20.000Z</time>
      </trkpt>
      <trkpt lat="45.99511" lon="1.10761">
        <ele>330</ele>
        <time>2011-06-26T07:02:26.000Z</time>
      </trkpt>
      <trkpt lat="45.99513" lon="1.10772">
        <ele>330</ele>
        <time>2011-06-26T07:02:27.000Z</time>
      </trkpt>
      <trkpt lat="45.9953" lon="1.10829">
        <ele>326</ele>
        <time>2011-06-26T07:02:32.000Z</time>
      </trkpt>
      <trkpt lat="45.99534" lon="1.10841">
        <ele>326</ele>
        <time>2011-06-26T07:02:33.000Z</time>
      </trkpt>
      <trkpt lat="45.99555" lon="1.10885">
        <ele>323</ele>
        <time>2011-06-26T07:02:37.000Z</time>
      </trkpt>
      <trkpt lat="45.9956" lon="1.10895">
        <ele>322</ele>
        <time>2011-06-26T07:02:38.000Z</time>
      </trkpt>
      <trkpt lat="45.9959" lon="1.10954">
        <ele>318</ele>
        <time>2011-06-26T07:02:44.000Z</time>
      </trkpt>
      <trkpt lat="45.99594" lon="1.10965">
        <ele>318</ele>
        <time>2011-06-26T07:02:45.000Z</time>
      </trkpt>
      <trkpt lat="45.99623" lon="1.11019">
        <ele>314</ele>
        <time>2011-06-26T07:02:51.000Z</time>
      </trkpt>
      <trkpt lat="45.9963" lon="1.11024">
        <ele>314</ele>
        <time>2011-06-26T07:02:52.000Z</time>
      </trkpt>
      <trkpt lat="45.99672" lon="1.11059">
        <ele>313</ele>
        <time>2011-06-26T07:02:59.000Z</time>
      </trkpt>
      <trkpt lat="45.99678" lon="1.11063">
        <ele>313</ele>
        <time>2011-06-26T07:03:00.000Z</time>
      </trkpt>
      <trkpt lat="45.99684" lon="1.11065">
        <ele>313</ele>
        <time>2011-06-26T07:03:01.000Z</time>
      </trkpt>
      <trkpt lat="45.99734" lon="1.11061">
        <ele>314</ele>
        <time>2011-06-26T07:03:09.000Z</time>
      </trkpt>
      <trkpt lat="45.99741" lon="1.11059">
        <ele>314</ele>
        <time>2011-06-26T07:03:10.000Z</time>
      </trkpt>
      <trkpt lat="45.99747" lon="1.11057">
        <ele>314</ele>
        <time>2011-06-26T07:03:11.000Z</time>
      </trkpt>
      <trkpt lat="45.99797" lon="1.11039">
        <ele>313</ele>
        <time>2011-06-26T07:03:19.000Z</time>
      </trkpt>
      <trkpt lat="45.99803" lon="1.11039">
        <ele>313</ele>
        <time>2011-06-26T07:03:20.000Z</time>
      </trkpt>
      <trkpt lat="45.99816" lon="1.11039">
        <ele>312</ele>
        <time>2011-06-26T07:03:22.000Z</time>
      </trkpt>
      <trkpt lat="45.99862" lon="1.11044">
        <ele>312</ele>
        <time>2011-06-26T07:03:29.000Z</time>
      </trkpt>
      <trkpt lat="45.99868" lon="1.11044">
        <ele>312</ele>
        <time>2011-06-26T07:03:30.000Z</time>
      </trkpt>
      <trkpt lat="45.99917" lon="1.11053">
        <ele>312</ele>
        <time>2011-06-26T07:03:38.000Z</time>
      </trkpt>
      <trkpt lat="45.99923" lon="1.11053">
        <ele>312</ele>
        <time>2011-06-26T07:03:39.000Z</time>
      </trkpt>
      <trkpt lat="45.99936" lon="1.11052">
        <ele>312</ele>
        <time>2011-06-26T07:03:41.000Z</time>
      </trkpt>
      <trkpt lat="45.99953" lon="1.11045">
        <ele>312</ele>
        <time>2011-06-26T07:03:44.000Z</time>
      </trkpt>
      <trkpt lat="45.99993" lon="1.11011">
        <ele>313</ele>
        <time>2011-06-26T07:03:52.000Z</time>
      </trkpt>
      <trkpt lat="45.99997" lon="1.11007">
        <ele>314</ele>
        <time>2011-06-26T07:03:53.000Z</time>
      </trkpt>
      <trkpt lat="46.00005" lon="1.11001">
        <ele>314</ele>
        <time>2011-06-26T07:03:55.000Z</time>
      </trkpt>
      <trkpt lat="46.00035" lon="1.10967">
        <ele>317</ele>
        <time>2011-06-26T07:04:04.000Z</time>
      </trkpt>
      <trkpt lat="46.00042" lon="1.10957">
        <ele>317</ele>
        <time>2011-06-26T07:04:07.000Z</time>
      </trkpt>
      <trkpt lat="46.00049" lon="1.10958">
        <ele>317</ele>
        <time>2011-06-26T07:04:09.000Z</time>
      </trkpt>
      <trkpt lat="46.00062" lon="1.10964">
        <ele>317</ele>
        <time>2011-06-26T07:04:13.000Z</time>
      </trkpt>
      <trkpt lat="46.00066" lon="1.10971">
        <ele>317</ele>
        <time>2011-06-26T07:04:15.000Z</time>
      </trkpt>
      <trkpt lat="46.00069" lon="1.10989">
        <ele>317</ele>
        <time>2011-06-26T07:04:18.000Z</time>
      </trkpt>
      <trkpt lat="46.00077" lon="1.11054">
        <ele>316</ele>
        <time>2011-06-26T07:04:28.000Z</time>
      </trkpt>
      <trkpt lat="46.00077" lon="1.11061">
        <ele>316</ele>
        <time>2011-06-26T07:04:29.000Z</time>
      </trkpt>
      <trkpt lat="46.00087" lon="1.11133">
        <ele>313</ele>
        <time>2011-06-26T07:04:38.000Z</time>
      </trkpt>
      <trkpt lat="46.00089" lon="1.11143">
        <ele>313</ele>
        <time>2011-06-26T07:04:39.000Z</time>
      </trkpt>
      <trkpt lat="46.00094" lon="1.11173">
        <ele>311</ele>
        <time>2011-06-26T07:04:42.000Z</time>
      </trkpt>
      <trkpt lat="46.00102" lon="1.11243">
        <ele>308</ele>
        <time>2011-06-26T07:04:48.000Z</time>
      </trkpt>
      <trkpt lat="46.00103" lon="1.11256">
        <ele>307</ele>
        <time>2011-06-26T07:04:49.000Z</time>
      </trkpt>
      <trkpt lat="46.00107" lon="1.11327">
        <ele>305</ele>
        <time>2011-06-26T07:04:55.000Z</time>
      </trkpt>
      <trkpt lat="46.00106" lon="1.11339">
        <ele>305</ele>
        <time>2011-06-26T07:04:56.000Z</time>
      </trkpt>
      <trkpt lat="46.00105" lon="1.11406">
        <ele>301</ele>
        <time>2011-06-26T07:05:02.000Z</time>
      </trkpt>
      <trkpt lat="46.00107" lon="1.11413">
        <ele>300</ele>
        <time>2011-06-26T07:05:03.000Z</time>
      </trkpt>
      <trkpt lat="46.00131" lon="1.11471">
        <ele>296</ele>
        <time>2011-06-26T07:05:10.000Z</time>
      </trkpt>
      <trkpt lat="46.00135" lon="1.11481">
        <ele>295</ele>
        <time>2011-06-26T07:05:11.000Z</time>
      </trkpt>
      <trkpt lat="46.00155" lon="1.11529">
        <ele>292</ele>
        <time>2011-06-26T07:05:16.000Z</time>
      </trkpt>
      <trkpt lat="46.00188" lon="1.11575">
        <ele>287</ele>
        <time>2011-06-26T07:05:23.000Z</time>
      </trkpt>
      <trkpt lat="46.00191" lon="1.11582">
        <ele>286</ele>
        <time>2011-06-26T07:05:24.000Z</time>
      </trkpt>
      <trkpt lat="46.00205" lon="1.11623">
        <ele>283</ele>
        <time>2011-06-26T07:05:29.000Z</time>
      </trkpt>
      <trkpt lat="46.00218" lon="1.11663">
        <ele>281</ele>
        <time>2011-06-26T07:05:34.000Z</time>
      </trkpt>
      <trkpt lat="46.00225" lon="1.11675">
        <ele>280</ele>
        <time>2011-06-26T07:05:36.000Z</time>
      </trkpt>
      <trkpt lat="46.00254" lon="1.11718">
        <ele>280</ele>
        <time>2011-06-26T07:05:43.000Z</time>
      </trkpt>
      <trkpt lat="46.00257" lon="1.11726">
        <ele>280</ele>
        <time>2011-06-26T07:05:44.000Z</time>
      </trkpt>
      <trkpt lat="46.00268" lon="1.11758">
        <ele>280</ele>
        <time>2011-06-26T07:05:48.000Z</time>
      </trkpt>
      <trkpt lat="46.00268" lon="1.11774">
        <ele>279</ele>
        <time>2011-06-26T07:05:50.000Z</time>
      </trkpt>
      <trkpt lat="46.00268" lon="1.11786">
        <ele>279</ele>
        <time>2011-06-26T07:05:52.000Z</time>
      </trkpt>
      <trkpt lat="46.00269" lon="1.11799">
        <ele>278</ele>
        <time>2011-06-26T07:05:55.000Z</time>
      </trkpt>
      <trkpt lat="46.00276" lon="1.11803">
        <ele>278</ele>
        <time>2011-06-26T07:05:59.000Z</time>
      </trkpt>
      <trkpt lat="46.00284" lon="1.11806">
        <ele>277</ele>
        <time>2011-06-26T07:06:03.000Z</time>
      </trkpt>
      <trkpt lat="46.00323" lon="1.1181">
        <ele>280</ele>
        <time>2011-06-26T07:06:15.000Z</time>
      </trkpt>
      <trkpt lat="46.00371" lon="1.11801">
        <ele>282</ele>
        <time>2011-06-26T07:06:24.000Z</time>
      </trkpt>
      <trkpt lat="46.00377" lon="1.11797">
        <ele>282</ele>
        <time>2011-06-26T07:06:25.000Z</time>
      </trkpt>
      <trkpt lat="46.00422" lon="1.1177">
        <ele>282</ele>
        <time>2011-06-26T07:06:33.000Z</time>
      </trkpt>
      <trkpt lat="46.00427" lon="1.11768">
        <ele>282</ele>
        <time>2011-06-26T07:06:34.000Z</time>
      </trkpt>
      <trkpt lat="46.00433" lon="1.11767">
        <ele>282</ele>
        <time>2011-06-26T07:06:35.000Z</time>
      </trkpt>
      <trkpt lat="46.00458" lon="1.11752">
        <ele>282</ele>
        <time>2011-06-26T07:06:41.000Z</time>
      </trkpt>
      <trkpt lat="46.00478" lon="1.11732">
        <ele>284</ele>
        <time>2011-06-26T07:06:47.000Z</time>
      </trkpt>
      <trkpt lat="46.00513" lon="1.11689">
        <ele>289</ele>
        <time>2011-06-26T07:07:00.000Z</time>
      </trkpt>
      <trkpt lat="46.00515" lon="1.11686">
        <ele>289</ele>
        <time>2011-06-26T07:07:01.000Z</time>
      </trkpt>
      <trkpt lat="46.00523" lon="1.11676">
        <ele>289</ele>
        <time>2011-06-26T07:07:04.000Z</time>
      </trkpt>
      <trkpt lat="46.00557" lon="1.11632">
        <ele>288</ele>
        <time>2011-06-26T07:07:18.000Z</time>
      </trkpt>
      <trkpt lat="46.00559" lon="1.11629">
        <ele>288</ele>
        <time>2011-06-26T07:07:19.000Z</time>
      </trkpt>
      <trkpt lat="46.00595" lon="1.11586">
        <ele>290</ele>
        <time>2011-06-26T07:07:34.000Z</time>
      </trkpt>
      <trkpt lat="46.00597" lon="1.11584">
        <ele>290</ele>
        <time>2011-06-26T07:07:35.000Z</time>
      </trkpt>
      <trkpt lat="46.00621" lon="1.11561">
        <ele>291</ele>
        <time>2011-06-26T07:07:43.000Z</time>
      </trkpt>
      <trkpt lat="46.0066" lon="1.11526">
        <ele>290</ele>
        <time>2011-06-26T07:07:54.000Z</time>
      </trkpt>
      <trkpt lat="46.00663" lon="1.11523">
        <ele>289</ele>
        <time>2011-06-26T07:07:55.000Z</time>
      </trkpt>
      <trkpt lat="46.00703" lon="1.11487">
        <ele>288</ele>
        <time>2011-06-26T07:08:05.000Z</time>
      </trkpt>
      <trkpt lat="46.00707" lon="1.11483">
        <ele>289</ele>
        <time>2011-06-26T07:08:06.000Z</time>
      </trkpt>
      <trkpt lat="46.00742" lon="1.11452">
        <ele>293</ele>
        <time>2011-06-26T07:08:16.000Z</time>
      </trkpt>
      <trkpt lat="46.00754" lon="1.11445">
        <ele>294</ele>
        <time>2011-06-26T07:08:21.000Z</time>
      </trkpt>
      <trkpt lat="46.00787" lon="1.11411">
        <ele>294</ele>
        <time>2011-06-26T07:08:33.000Z</time>
      </trkpt>
      <trkpt lat="46.00811" lon="1.11378">
        <ele>293</ele>
        <time>2011-06-26T07:08:40.000Z</time>
      </trkpt>
      <trkpt lat="46.00837" lon="1.11329">
        <ele>292</ele>
        <time>2011-06-26T07:08:48.000Z</time>
      </trkpt>
      <trkpt lat="46.00838" lon="1.11321">
        <ele>292</ele>
        <time>2011-06-26T07:08:49.000Z</time>
      </trkpt>
      <trkpt lat="46.00837" lon="1.11313">
        <ele>292</ele>
        <time>2011-06-26T07:08:50.000Z</time>
      </trkpt>
      <trkpt lat="46.00835" lon="1.11246">
        <ele>289</ele>
        <time>2011-06-26T07:08:57.000Z</time>
      </trkpt>
      <trkpt lat="46.00837" lon="1.11237">
        <ele>288</ele>
        <time>2011-06-26T07:08:58.000Z</time>
      </trkpt>
      <trkpt lat="46.00851" lon="1.1117">
        <ele>285</ele>
        <time>2011-06-26T07:09:06.000Z</time>
      </trkpt>
      <trkpt lat="46.00853" lon="1.11163">
        <ele>285</ele>
        <time>2011-06-26T07:09:07.000Z</time>
      </trkpt>
      <trkpt lat="46.00868" lon="1.11098">
        <ele>284</ele>
        <time>2011-06-26T07:09:17.000Z</time>
      </trkpt>
      <trkpt lat="46.00871" lon="1.11094">
        <ele>284</ele>
        <time>2011-06-26T07:09:18.000Z</time>
      </trkpt>
      <trkpt lat="46.00875" lon="1.11092">
        <ele>284</ele>
        <time>2011-06-26T07:09:19.000Z</time>
      </trkpt>
      <trkpt lat="46.00893" lon="1.1109">
        <ele>283</ele>
        <time>2011-06-26T07:09:23.000Z</time>
      </trkpt>
      <trkpt lat="46.00943" lon="1.11087">
        <ele>281</ele>
        <time>2011-06-26T07:09:31.000Z</time>
      </trkpt>
      <trkpt lat="46.0095" lon="1.11086">
        <ele>281</ele>
        <time>2011-06-26T07:09:32.000Z</time>
      </trkpt>
      <trkpt lat="46.00997" lon="1.11074">
        <ele>280</ele>
        <time>2011-06-26T07:09:39.000Z</time>
      </trkpt>
      <trkpt lat="46.01004" lon="1.11072">
        <ele>281</ele>
        <time>2011-06-26T07:09:40.000Z</time>
      </trkpt>
      <trkpt lat="46.01043" lon="1.11064">
        <ele>280</ele>
        <time>2011-06-26T07:09:46.000Z</time>
      </trkpt>
      <trkpt lat="46.0105" lon="1.11067">
        <ele>280</ele>
        <time>2011-06-26T07:09:47.000Z</time>
      </trkpt>
      <trkpt lat="46.01086" lon="1.11087">
        <ele>279</ele>
        <time>2011-06-26T07:09:53.000Z</time>
      </trkpt>
      <trkpt lat="46.01099" lon="1.11102">
        <ele>278</ele>
        <time>2011-06-26T07:09:56.000Z</time>
      </trkpt>
      <trkpt lat="46.01099" lon="1.11113">
        <ele>278</ele>
        <time>2011-06-26T07:09:58.000Z</time>
      </trkpt>
      <trkpt lat="46.0107" lon="1.11171">
        <ele>278</ele>
        <time>2011-06-26T07:10:09.000Z</time>
      </trkpt>
      <trkpt lat="46.01068" lon="1.11177">
        <ele>278</ele>
        <time>2011-06-26T07:10:10.000Z</time>
      </trkpt>
      <trkpt lat="46.01064" lon="1.1119">
        <ele>278</ele>
        <time>2011-06-26T07:10:12.000Z</time>
      </trkpt>
      <trkpt lat="46.01061" lon="1.1122">
        <ele>279</ele>
        <time>2011-06-26T07:10:16.000Z</time>
      </trkpt>
      <trkpt lat="46.01064" lon="1.1124">
        <ele>279</ele>
        <time>2011-06-26T07:10:19.000Z</time>
      </trkpt>
      <trkpt lat="46.01081" lon="1.11268">
        <ele>278</ele>
        <time>2011-06-26T07:10:24.000Z</time>
      </trkpt>
      <trkpt lat="46.01111" lon="1.11323">
        <ele>275</ele>
        <time>2011-06-26T07:10:31.000Z</time>
      </trkpt>
      <trkpt lat="46.01115" lon="1.1133">
        <ele>274</ele>
        <time>2011-06-26T07:10:32.000Z</time>
      </trkpt>
      <trkpt lat="46.01145" lon="1.11385">
        <ele>270</ele>
        <time>2011-06-26T07:10:39.000Z</time>
      </trkpt>
      <trkpt lat="46.01149" lon="1.11393">
        <ele>269</ele>
        <time>2011-06-26T07:10:40.000Z</time>
      </trkpt>
      <trkpt lat="46.01184" lon="1.11443">
        <ele>267</ele>
        <time>2011-06-26T07:10:47.000Z</time>
      </trkpt>
      <trkpt lat="46.01191" lon="1.11448">
        <ele>266</ele>
        <time>2011-06-26T07:10:48.000Z</time>
      </trkpt>
      <trkpt lat="46.01237" lon="1.11474">
        <ele>266</ele>
        <time>2011-06-26T07:10:55.000Z</time>
      </trkpt>
      <trkpt lat="46.01243" lon="1.11476">
        <ele>266</ele>
        <time>2011-06-26T07:10:56.000Z</time>
      </trkpt>
      <trkpt lat="46.01249" lon="1.11478">
        <ele>266</ele>
        <time>2011-06-26T07:10:57.000Z</time>
      </trkpt>
      <trkpt lat="46.01294" lon="1.11485">
        <ele>267</ele>
        <time>2011-06-26T07:11:08.000Z</time>
      </trkpt>
      <trkpt lat="46.01299" lon="1.11486">
        <ele>268</ele>
        <time>2011-06-26T07:11:09.000Z</time>
      </trkpt>
      <trkpt lat="46.01348" lon="1.11486">
        <ele>272</ele>
        <time>2011-06-26T07:11:18.000Z</time>
      </trkpt>
      <trkpt lat="46.01354" lon="1.11485">
        <ele>273</ele>
        <time>2011-06-26T07:11:19.000Z</time>
      </trkpt>
      <trkpt lat="46.0136" lon="1.11484">
        <ele>273</ele>
        <time>2011-06-26T07:11:20.000Z</time>
      </trkpt>
      <trkpt lat="46.01405" lon="1.1147">
        <ele>275</ele>
        <time>2011-06-26T07:11:29.000Z</time>
      </trkpt>
      <trkpt lat="46.0141" lon="1.11469">
        <ele>275</ele>
        <time>2011-06-26T07:11:30.000Z</time>
      </trkpt>
      <trkpt lat="46.01414" lon="1.11469">
        <ele>274</ele>
        <time>2011-06-26T07:11:31.000Z</time>
      </trkpt>
      <trkpt lat="46.01443" lon="1.11465">
        <ele>274</ele>
        <time>2011-06-26T07:11:37.000Z</time>
      </trkpt>
      <trkpt lat="46.01489" lon="1.11458">
        <ele>273</ele>
        <time>2011-06-26T07:11:45.000Z</time>
      </trkpt>
      <trkpt lat="46.01495" lon="1.11457">
        <ele>273</ele>
        <time>2011-06-26T07:11:46.000Z</time>
      </trkpt>
      <trkpt lat="46.01527" lon="1.11457">
        <ele>270</ele>
        <time>2011-06-26T07:11:51.000Z</time>
      </trkpt>
      <trkpt lat="46.01553" lon="1.11469">
        <ele>269</ele>
        <time>2011-06-26T07:11:56.000Z</time>
      </trkpt>
      <trkpt lat="46.01594" lon="1.11489">
        <ele>266</ele>
        <time>2011-06-26T07:12:04.000Z</time>
      </trkpt>
      <trkpt lat="46.016" lon="1.11491">
        <ele>265</ele>
        <time>2011-06-26T07:12:05.000Z</time>
      </trkpt>
      <trkpt lat="46.01641" lon="1.11495">
        <ele>261</ele>
        <time>2011-06-26T07:12:12.000Z</time>
      </trkpt>
      <trkpt lat="46.01646" lon="1.11493">
        <ele>261</ele>
        <time>2011-06-26T07:12:13.000Z</time>
      </trkpt>
      <trkpt lat="46.01655" lon="1.11485">
        <ele>259</ele>
        <time>2011-06-26T07:12:15.000Z</time>
      </trkpt>
      <trkpt lat="46.01694" lon="1.1144">
        <ele>254</ele>
        <time>2011-06-26T07:12:22.000Z</time>
      </trkpt>
      <trkpt lat="46.017" lon="1.11434">
        <ele>254</ele>
        <time>2011-06-26T07:12:23.000Z</time>
      </trkpt>
      <trkpt lat="46.01705" lon="1.11429">
        <ele>253</ele>
        <time>2011-06-26T07:12:24.000Z</time>
      </trkpt>
      <trkpt lat="46.01747" lon="1.11395">
        <ele>251</ele>
        <time>2011-06-26T07:12:31.000Z</time>
      </trkpt>
      <trkpt lat="46.01752" lon="1.11391">
        <ele>250</ele>
        <time>2011-06-26T07:12:32.000Z</time>
      </trkpt>
      <trkpt lat="46.01761" lon="1.11386">
        <ele>250</ele>
        <time>2011-06-26T07:12:34.000Z</time>
      </trkpt>
      <trkpt lat="46.01772" lon="1.11382">
        <ele>250</ele>
        <time>2011-06-26T07:12:37.000Z</time>
      </trkpt>
      <trkpt lat="46.01788" lon="1.1138">
        <ele>251</ele>
        <time>2011-06-26T07:12:50.000Z</time>
      </trkpt>
      <trkpt lat="46.018" lon="1.11378">
        <ele>253</ele>
        <time>2011-06-26T07:13:06.000Z</time>
      </trkpt>
      <trkpt lat="46.01823" lon="1.11436">
        <ele>249</ele>
        <time>2011-06-26T07:13:20.000Z</time>
      </trkpt>
      <trkpt lat="46.01825" lon="1.11441">
        <ele>249</ele>
        <time>2011-06-26T07:13:21.000Z</time>
      </trkpt>
      <trkpt lat="46.01831" lon="1.11449">
        <ele>247</ele>
        <time>2011-06-26T07:13:23.000Z</time>
      </trkpt>
      <trkpt lat="46.01839" lon="1.11456">
        <ele>246</ele>
        <time>2011-06-26T07:13:26.000Z</time>
      </trkpt>
      <trkpt lat="46.01848" lon="1.11458">
        <ele>247</ele>
        <time>2011-06-26T07:13:29.000Z</time>
      </trkpt>
      <trkpt lat="46.01895" lon="1.1146">
        <ele>250</ele>
        <time>2011-06-26T07:13:43.000Z</time>
      </trkpt>
      <trkpt lat="46.01898" lon="1.11461">
        <ele>250</ele>
        <time>2011-06-26T07:13:44.000Z</time>
      </trkpt>
      <trkpt lat="46.01945" lon="1.11467">
        <ele>252</ele>
        <time>2011-06-26T07:13:56.000Z</time>
      </trkpt>
      <trkpt lat="46.01949" lon="1.11466">
        <ele>252</ele>
        <time>2011-06-26T07:13:57.000Z</time>
      </trkpt>
      <trkpt lat="46.01964" lon="1.1147">
        <ele>251</ele>
        <time>2011-06-26T07:14:00.000Z</time>
      </trkpt>
      <trkpt lat="46.0197" lon="1.11477">
        <ele>251</ele>
        <time>2011-06-26T07:14:02.000Z</time>
      </trkpt>
      <trkpt lat="46.01976" lon="1.11495">
        <ele>250</ele>
        <time>2011-06-26T07:14:06.000Z</time>
      </trkpt>
      <trkpt lat="46.01984" lon="1.11496">
        <ele>248</ele>
        <time>2011-06-26T07:14:11.000Z</time>
      </trkpt>
      <trkpt lat="46.01995" lon="1.11492">
        <ele>247</ele>
        <time>2011-06-26T07:14:15.000Z</time>
      </trkpt>
      <trkpt lat="46.02005" lon="1.11495">
        <ele>246</ele>
        <time>2011-06-26T07:14:18.000Z</time>
      </trkpt>
      <trkpt lat="46.02025" lon="1.11518">
        <ele>248</ele>
        <time>2011-06-26T07:14:26.000Z</time>
      </trkpt>
      <trkpt lat="46.0206" lon="1.11559">
        <ele>253</ele>
        <time>2011-06-26T07:14:39.000Z</time>
      </trkpt>
      <trkpt lat="46.02063" lon="1.11562">
        <ele>254</ele>
        <time>2011-06-26T07:14:40.000Z</time>
      </trkpt>
      <trkpt lat="46.02076" lon="1.11583">
        <ele>254</ele>
        <time>2011-06-26T07:14:46.000Z</time>
      </trkpt>
      <trkpt lat="46.02096" lon="1.11638">
        <ele>254</ele>
        <time>2011-06-26T07:15:01.000Z</time>
      </trkpt>
      <trkpt lat="46.02097" lon="1.11641">
        <ele>254</ele>
        <time>2011-06-26T07:15:02.000Z</time>
      </trkpt>
      <trkpt lat="46.02105" lon="1.11669">
        <ele>255</ele>
        <time>2011-06-26T07:15:10.000Z</time>
      </trkpt>
      <trkpt lat="46.02106" lon="1.1168">
        <ele>255</ele>
        <time>2011-06-26T07:15:13.000Z</time>
      </trkpt>
      <trkpt lat="46.02108" lon="1.11704">
        <ele>255</ele>
        <time>2011-06-26T07:15:20.000Z</time>
      </trkpt>
      <trkpt lat="46.02109" lon="1.11744">
        <ele>258</ele>
        <time>2011-06-26T07:15:33.000Z</time>
      </trkpt>
      <trkpt lat="46.0211" lon="1.11755">
        <ele>260</ele>
        <time>2011-06-26T07:15:37.000Z</time>
      </trkpt>
      <trkpt lat="46.02125" lon="1.11793">
        <ele>262</ele>
        <time>2011-06-26T07:15:55.000Z</time>
      </trkpt>
      <trkpt lat="46.02132" lon="1.11805">
        <ele>263</ele>
        <time>2011-06-26T07:16:01.000Z</time>
      </trkpt>
      <trkpt lat="46.02164" lon="1.11855">
        <ele>266</ele>
        <time>2011-06-26T07:16:25.000Z</time>
      </trkpt>
      <trkpt lat="46.02166" lon="1.11857">
        <ele>266</ele>
        <time>2011-06-26T07:16:26.000Z</time>
      </trkpt>
      <trkpt lat="46.02182" lon="1.11877">
        <ele>268</ele>
        <time>2011-06-26T07:16:36.000Z</time>
      </trkpt>
      <trkpt lat="46.02198" lon="1.119">
        <ele>274</ele>
        <time>2011-06-26T07:16:48.000Z</time>
      </trkpt>
      <trkpt lat="46.02224" lon="1.11954">
        <ele>275</ele>
        <time>2011-06-26T07:17:08.000Z</time>
      </trkpt>
      <trkpt lat="46.02225" lon="1.11956">
        <ele>275</ele>
        <time>2011-06-26T07:17:09.000Z</time>
      </trkpt>
      <trkpt lat="46.02245" lon="1.11988">
        <ele>278</ele>
        <time>2011-06-26T07:17:24.000Z</time>
      </trkpt>
      <trkpt lat="46.02282" lon="1.12028">
        <ele>282</ele>
        <time>2011-06-26T07:17:47.000Z</time>
      </trkpt>
      <trkpt lat="46.02283" lon="1.1203">
        <ele>282</ele>
        <time>2011-06-26T07:17:48.000Z</time>
      </trkpt>
      <trkpt lat="46.02285" lon="1.12032">
        <ele>282</ele>
        <time>2011-06-26T07:17:49.000Z</time>
      </trkpt>
      <trkpt lat="46.02316" lon="1.12081">
        <ele>284</ele>
        <time>2011-06-26T07:18:11.000Z</time>
      </trkpt>
      <trkpt lat="46.02317" lon="1.12084">
        <ele>284</ele>
        <time>2011-06-26T07:18:12.000Z</time>
      </trkpt>
      <trkpt lat="46.02342" lon="1.1213">
        <ele>284</ele>
        <time>2011-06-26T07:18:29.000Z</time>
      </trkpt>
      <trkpt lat="46.02347" lon="1.1214">
        <ele>284</ele>
        <time>2011-06-26T07:18:32.000Z</time>
      </trkpt>
      <trkpt lat="46.02361" lon="1.12157">
        <ele>282</ele>
        <time>2011-06-26T07:18:38.000Z</time>
      </trkpt>
      <trkpt lat="46.02402" lon="1.12188">
        <ele>287</ele>
        <time>2011-06-26T07:18:54.000Z</time>
      </trkpt>
      <trkpt lat="46.02404" lon="1.1219">
        <ele>287</ele>
        <time>2011-06-26T07:18:55.000Z</time>
      </trkpt>
      <trkpt lat="46.02447" lon="1.12217">
        <ele>293</ele>
        <time>2011-06-26T07:19:11.000Z</time>
      </trkpt>
      <trkpt lat="46.0245" lon="1.12218">
        <ele>294</ele>
        <time>2011-06-26T07:19:12.000Z</time>
      </trkpt>
      <trkpt lat="46.02464" lon="1.12219">
        <ele>296</ele>
        <time>2011-06-26T07:19:17.000Z</time>
      </trkpt>
      <trkpt lat="46.02469" lon="1.12215">
        <ele>297</ele>
        <time>2011-06-26T07:19:19.000Z</time>
      </trkpt>
      <trkpt lat="46.02476" lon="1.12201">
        <ele>298</ele>
        <time>2011-06-26T07:19:23.000Z</time>
      </trkpt>
      <trkpt lat="46.02481" lon="1.12194">
        <ele>299</ele>
        <time>2011-06-26T07:19:26.000Z</time>
      </trkpt>
      <trkpt lat="46.02491" lon="1.12185">
        <ele>301</ele>
        <time>2011-06-26T07:19:31.000Z</time>
      </trkpt>
      <trkpt lat="46.02504" lon="1.12169">
        <ele>305</ele>
        <time>2011-06-26T07:19:39.000Z</time>
      </trkpt>
      <trkpt lat="46.02501" lon="1.12155">
        <ele>305</ele>
        <time>2011-06-26T07:19:43.000Z</time>
      </trkpt>
      <trkpt lat="46.02495" lon="1.12141">
        <ele>306</ele>
        <time>2011-06-26T07:19:47.000Z</time>
      </trkpt>
      <trkpt lat="46.02492" lon="1.12126">
        <ele>306</ele>
        <time>2011-06-26T07:19:50.000Z</time>
      </trkpt>
      <trkpt lat="46.02494" lon="1.12112">
        <ele>305</ele>
        <time>2011-06-26T07:19:52.000Z</time>
      </trkpt>
      <trkpt lat="46.02516" lon="1.1207">
        <ele>303</ele>
        <time>2011-06-26T07:20:00.000Z</time>
      </trkpt>
      <trkpt lat="46.02534" lon="1.12022">
        <ele>303</ele>
        <time>2011-06-26T07:20:10.000Z</time>
      </trkpt>
      <trkpt lat="46.02544" lon="1.11986">
        <ele>304</ele>
        <time>2011-06-26T07:20:17.000Z</time>
      </trkpt>
      <trkpt lat="46.02559" lon="1.11925">
        <ele>305</ele>
        <time>2011-06-26T07:20:29.000Z</time>
      </trkpt>
      <trkpt lat="46.0256" lon="1.11919">
        <ele>305</ele>
        <time>2011-06-26T07:20:30.000Z</time>
      </trkpt>
      <trkpt lat="46.02574" lon="1.11854">
        <ele>305</ele>
        <time>2011-06-26T07:20:42.000Z</time>
      </trkpt>
      <trkpt lat="46.02575" lon="1.11848">
        <ele>305</ele>
        <time>2011-06-26T07:20:43.000Z</time>
      </trkpt>
      <trkpt lat="46.02583" lon="1.1182">
        <ele>305</ele>
        <time>2011-06-26T07:20:49.000Z</time>
      </trkpt>
      <trkpt lat="46.02593" lon="1.11799">
        <ele>305</ele>
        <time>2011-06-26T07:20:53.000Z</time>
      </trkpt>
      <trkpt lat="46.02622" lon="1.11739">
        <ele>303</ele>
        <time>2011-06-26T07:21:02.000Z</time>
      </trkpt>
      <trkpt lat="46.02625" lon="1.11731">
        <ele>302</ele>
        <time>2011-06-26T07:21:03.000Z</time>
      </trkpt>
      <trkpt lat="46.0264" lon="1.11663">
        <ele>300</ele>
        <time>2011-06-26T07:21:11.000Z</time>
      </trkpt>
      <trkpt lat="46.02642" lon="1.11654">
        <ele>300</ele>
        <time>2011-06-26T07:21:12.000Z</time>
      </trkpt>
      <trkpt lat="46.02661" lon="1.11591">
        <ele>299</ele>
        <time>2011-06-26T07:21:19.000Z</time>
      </trkpt>
      <trkpt lat="46.02664" lon="1.11581">
        <ele>298</ele>
        <time>2011-06-26T07:21:20.000Z</time>
      </trkpt>
      <trkpt lat="46.02682" lon="1.11535">
        <ele>295</ele>
        <time>2011-06-26T07:21:25.000Z</time>
      </trkpt>
      <trkpt lat="46.0271" lon="1.11505">
        <ele>291</ele>
        <time>2011-06-26T07:21:30.000Z</time>
      </trkpt>
      <trkpt lat="46.02738" lon="1.11488">
        <ele>287</ele>
        <time>2011-06-26T07:21:34.000Z</time>
      </trkpt>
      <trkpt lat="46.0276" lon="1.11494">
        <ele>282</ele>
        <time>2011-06-26T07:21:37.000Z</time>
      </trkpt>
      <trkpt lat="46.02801" lon="1.11523">
        <ele>273</ele>
        <time>2011-06-26T07:21:45.000Z</time>
      </trkpt>
      <trkpt lat="46.02805" lon="1.11528">
        <ele>273</ele>
        <time>2011-06-26T07:21:46.000Z</time>
      </trkpt>
      <trkpt lat="46.02838" lon="1.11574">
        <ele>272</ele>
        <time>2011-06-26T07:21:56.000Z</time>
      </trkpt>
      <trkpt lat="46.02842" lon="1.11579">
        <ele>272</ele>
        <time>2011-06-26T07:21:57.000Z</time>
      </trkpt>
      <trkpt lat="46.02879" lon="1.11617">
        <ele>275</ele>
        <time>2011-06-26T07:22:07.000Z</time>
      </trkpt>
      <trkpt lat="46.02883" lon="1.1162">
        <ele>275</ele>
        <time>2011-06-26T07:22:08.000Z</time>
      </trkpt>
      <trkpt lat="46.02896" lon="1.11625">
        <ele>276</ele>
        <time>2011-06-26T07:22:11.000Z</time>
      </trkpt>
      <trkpt lat="46.02943" lon="1.11634">
        <ele>279</ele>
        <time>2011-06-26T07:22:20.000Z</time>
      </trkpt>
      <trkpt lat="46.02948" lon="1.11636">
        <ele>279</ele>
        <time>2011-06-26T07:22:21.000Z</time>
      </trkpt>
      <trkpt lat="46.02953" lon="1.11639">
        <ele>279</ele>
        <time>2011-06-26T07:22:22.000Z</time>
      </trkpt>
      <trkpt lat="46.02967" lon="1.11643">
        <ele>279</ele>
        <time>2011-06-26T07:22:25.000Z</time>
      </trkpt>
      <trkpt lat="46.02977" lon="1.11635">
        <ele>279</ele>
        <time>2011-06-26T07:22:27.000Z</time>
      </trkpt>
      <trkpt lat="46.02982" lon="1.11611">
        <ele>279</ele>
        <time>2011-06-26T07:22:30.000Z</time>
      </trkpt>
      <trkpt lat="46.02968" lon="1.11556">
        <ele>278</ele>
        <time>2011-06-26T07:22:37.000Z</time>
      </trkpt>
      <trkpt lat="46.02966" lon="1.11548">
        <ele>278</ele>
        <time>2011-06-26T07:22:38.000Z</time>
      </trkpt>
      <trkpt lat="46.02951" lon="1.11486">
        <ele>280</ele>
        <time>2011-06-26T07:22:47.000Z</time>
      </trkpt>
      <trkpt lat="46.02949" lon="1.11479">
        <ele>280</ele>
        <time>2011-06-26T07:22:48.000Z</time>
      </trkpt>
      <trkpt lat="46.02944" lon="1.11459">
        <ele>281</ele>
        <time>2011-06-26T07:22:51.000Z</time>
      </trkpt>
      <trkpt lat="46.02947" lon="1.11448">
        <ele>281</ele>
        <time>2011-06-26T07:22:53.000Z</time>
      </trkpt>
      <trkpt lat="46.02966" lon="1.11412">
        <ele>282</ele>
        <time>2011-06-26T07:23:00.000Z</time>
      </trkpt>
      <trkpt lat="46.02974" lon="1.11396">
        <ele>283</ele>
        <time>2011-06-26T07:23:03.000Z</time>
      </trkpt>
      <trkpt lat="46.02973" lon="1.11383">
        <ele>284</ele>
        <time>2011-06-26T07:23:05.000Z</time>
      </trkpt>
      <trkpt lat="46.02969" lon="1.11367">
        <ele>285</ele>
        <time>2011-06-26T07:23:07.000Z</time>
      </trkpt>
      <trkpt lat="46.02955" lon="1.11348">
        <ele>287</ele>
        <time>2011-06-26T07:23:10.000Z</time>
      </trkpt>
      <trkpt lat="46.02929" lon="1.11308">
        <ele>292</ele>
        <time>2011-06-26T07:23:15.000Z</time>
      </trkpt>
      <trkpt lat="46.0292" lon="1.11282">
        <ele>292</ele>
        <time>2011-06-26T07:23:18.000Z</time>
      </trkpt>
      <trkpt lat="46.02932" lon="1.11209">
        <ele>284</ele>
        <time>2011-06-26T07:23:25.000Z</time>
      </trkpt>
      <trkpt lat="46.02934" lon="1.11197">
        <ele>282</ele>
        <time>2011-06-26T07:23:26.000Z</time>
      </trkpt>
      <trkpt lat="46.02951" lon="1.11128">
        <ele>273</ele>
        <time>2011-06-26T07:23:32.000Z</time>
      </trkpt>
      <trkpt lat="46.02953" lon="1.11116">
        <ele>271</ele>
        <time>2011-06-26T07:23:33.000Z</time>
      </trkpt>
      <trkpt lat="46.02954" lon="1.11085">
        <ele>268</ele>
        <time>2011-06-26T07:23:36.000Z</time>
      </trkpt>
      <trkpt lat="46.0295" lon="1.11072">
        <ele>266</ele>
        <time>2011-06-26T07:23:38.000Z</time>
      </trkpt>
      <trkpt lat="46.02929" lon="1.11051">
        <ele>260</ele>
        <time>2011-06-26T07:23:44.000Z</time>
      </trkpt>
      <trkpt lat="46.02924" lon="1.11026">
        <ele>256</ele>
        <time>2011-06-26T07:23:48.000Z</time>
      </trkpt>
      <trkpt lat="46.02922" lon="1.10959">
        <ele>249</ele>
        <time>2011-06-26T07:23:57.000Z</time>
      </trkpt>
      <trkpt lat="46.02921" lon="1.10951">
        <ele>248</ele>
        <time>2011-06-26T07:23:58.000Z</time>
      </trkpt>
      <trkpt lat="46.02914" lon="1.10882">
        <ele>248</ele>
        <time>2011-06-26T07:24:06.000Z</time>
      </trkpt>
      <trkpt lat="46.02914" lon="1.10874">
        <ele>248</ele>
        <time>2011-06-26T07:24:07.000Z</time>
      </trkpt>
      <trkpt lat="46.02913" lon="1.10866">
        <ele>247</ele>
        <time>2011-06-26T07:24:08.000Z</time>
      </trkpt>
      <trkpt lat="46.02914" lon="1.10824">
        <ele>246</ele>
        <time>2011-06-26T07:24:13.000Z</time>
      </trkpt>
      <trkpt lat="46.02916" lon="1.10803">
        <ele>246</ele>
        <time>2011-06-26T07:24:16.000Z</time>
      </trkpt>
      <trkpt lat="46.02914" lon="1.10748">
        <ele>246</ele>
        <time>2011-06-26T07:24:23.000Z</time>
      </trkpt>
      <trkpt lat="46.02916" lon="1.10681">
        <ele>242</ele>
        <time>2011-06-26T07:24:31.000Z</time>
      </trkpt>
      <trkpt lat="46.02915" lon="1.10674">
        <ele>241</ele>
        <time>2011-06-26T07:24:32.000Z</time>
      </trkpt>
      <trkpt lat="46.02911" lon="1.10608">
        <ele>235</ele>
        <time>2011-06-26T07:24:40.000Z</time>
      </trkpt>
      <trkpt lat="46.02911" lon="1.10598">
        <ele>235</ele>
        <time>2011-06-26T07:24:41.000Z</time>
      </trkpt>
      <trkpt lat="46.02904" lon="1.10568">
        <ele>235</ele>
        <time>2011-06-26T07:24:44.000Z</time>
      </trkpt>
      <trkpt lat="46.02897" lon="1.10537">
        <ele>233</ele>
        <time>2011-06-26T07:24:47.000Z</time>
      </trkpt>
      <trkpt lat="46.02884" lon="1.10472">
        <ele>231</ele>
        <time>2011-06-26T07:24:53.000Z</time>
      </trkpt>
      <trkpt lat="46.0288" lon="1.1046">
        <ele>232</ele>
        <time>2011-06-26T07:24:54.000Z</time>
      </trkpt>
      <trkpt lat="46.02869" lon="1.10427">
        <ele>236</ele>
        <time>2011-06-26T07:24:58.000Z</time>
      </trkpt>
      <trkpt lat="46.02871" lon="1.10375">
        <ele>239</ele>
        <time>2011-06-26T07:25:05.000Z</time>
      </trkpt>
      <trkpt lat="46.02878" lon="1.10358">
        <ele>240</ele>
        <time>2011-06-26T07:25:08.000Z</time>
      </trkpt>
      <trkpt lat="46.02883" lon="1.10346">
        <ele>242</ele>
        <time>2011-06-26T07:25:11.000Z</time>
      </trkpt>
      <trkpt lat="46.0288" lon="1.1033">
        <ele>243</ele>
        <time>2011-06-26T07:25:15.000Z</time>
      </trkpt>
      <trkpt lat="46.02877" lon="1.10309">
        <ele>248</ele>
        <time>2011-06-26T07:25:20.000Z</time>
      </trkpt>
      <trkpt lat="46.02878" lon="1.10301">
        <ele>251</ele>
        <time>2011-06-26T07:25:22.000Z</time>
      </trkpt>
      <trkpt lat="46.0289" lon="1.10278">
        <ele>258</ele>
        <time>2011-06-26T07:25:29.000Z</time>
      </trkpt>
      <trkpt lat="46.02904" lon="1.10263">
        <ele>261</ele>
        <time>2011-06-26T07:25:35.000Z</time>
      </trkpt>
      <trkpt lat="46.02911" lon="1.10258">
        <ele>262</ele>
        <time>2011-06-26T07:25:38.000Z</time>
      </trkpt>
      <trkpt lat="46.02914" lon="1.1025">
        <ele>262</ele>
        <time>2011-06-26T07:25:40.000Z</time>
      </trkpt>
      <trkpt lat="46.02918" lon="1.10239">
        <ele>261</ele>
        <time>2011-06-26T07:25:43.000Z</time>
      </trkpt>
      <trkpt lat="46.0292" lon="1.10232">
        <ele>260</ele>
        <time>2011-06-26T07:25:45.000Z</time>
      </trkpt>
      <trkpt lat="46.02922" lon="1.1022">
        <ele>258</ele>
        <time>2011-06-26T07:25:48.000Z</time>
      </trkpt>
      <trkpt lat="46.02927" lon="1.10212">
        <ele>257</ele>
        <time>2011-06-26T07:25:51.000Z</time>
      </trkpt>
      <trkpt lat="46.02934" lon="1.10203">
        <ele>256</ele>
        <time>2011-06-26T07:25:54.000Z</time>
      </trkpt>
      <trkpt lat="46.02953" lon="1.10143">
        <ele>252</ele>
        <time>2011-06-26T07:26:05.000Z</time>
      </trkpt>
      <trkpt lat="46.02954" lon="1.10137">
        <ele>252</ele>
        <time>2011-06-26T07:26:06.000Z</time>
      </trkpt>
      <trkpt lat="46.02961" lon="1.10105">
        <ele>252</ele>
        <time>2011-06-26T07:26:12.000Z</time>
      </trkpt>
      <trkpt lat="46.02977" lon="1.10041">
        <ele>254</ele>
        <time>2011-06-26T07:26:24.000Z</time>
      </trkpt>
      <trkpt lat="46.02978" lon="1.10037">
        <ele>254</ele>
        <time>2011-06-26T07:26:25.000Z</time>
      </trkpt>
      <trkpt lat="46.02988" lon="1.09988">
        <ele>257</ele>
        <time>2011-06-26T07:26:38.000Z</time>
      </trkpt>
      <trkpt lat="46.02988" lon="1.09926">
        <ele>256</ele>
        <time>2011-06-26T07:26:57.000Z</time>
      </trkpt>
      <trkpt lat="46.02988" lon="1.09923">
        <ele>256</ele>
        <time>2011-06-26T07:26:58.000Z</time>
      </trkpt>
      <trkpt lat="46.02985" lon="1.09891">
        <ele>256</ele>
        <time>2011-06-26T07:27:07.000Z</time>
      </trkpt>
      <trkpt lat="46.02984" lon="1.09884">
        <ele>256</ele>
        <time>2011-06-26T07:27:09.000Z</time>
      </trkpt>
      <trkpt lat="46.02977" lon="1.09818">
        <ele>256</ele>
        <time>2011-06-26T07:28:07.000Z</time>
      </trkpt>
      <trkpt lat="46.02977" lon="1.09814">
        <ele>256</ele>
        <time>2011-06-26T07:28:08.000Z</time>
      </trkpt>
      <trkpt lat="46.02971" lon="1.09745">
        <ele>256</ele>
        <time>2011-06-26T07:28:21.000Z</time>
      </trkpt>
      <trkpt lat="46.02971" lon="1.0974">
        <ele>257</ele>
        <time>2011-06-26T07:28:22.000Z</time>
      </trkpt>
      <trkpt lat="46.02968" lon="1.09729">
        <ele>257</ele>
        <time>2011-06-26T07:28:24.000Z</time>
      </trkpt>
      <trkpt lat="46.02962" lon="1.09702">
        <ele>257</ele>
        <time>2011-06-26T07:28:29.000Z</time>
      </trkpt>
      <trkpt lat="46.0294" lon="1.09643">
        <ele>257</ele>
        <time>2011-06-26T07:28:40.000Z</time>
      </trkpt>
      <trkpt lat="46.02938" lon="1.09638">
        <ele>257</ele>
        <time>2011-06-26T07:28:41.000Z</time>
      </trkpt>
      <trkpt lat="46.02929" lon="1.09618">
        <ele>257</ele>
        <time>2011-06-26T07:28:45.000Z</time>
      </trkpt>
      <trkpt lat="46.02922" lon="1.09607">
        <ele>256</ele>
        <time>2011-06-26T07:28:48.000Z</time>
      </trkpt>
      <trkpt lat="46.02917" lon="1.09597">
        <ele>256</ele>
        <time>2011-06-26T07:28:51.000Z</time>
      </trkpt>
      <trkpt lat="46.02922" lon="1.09587">
        <ele>257</ele>
        <time>2011-06-26T07:28:54.000Z</time>
      </trkpt>
      <trkpt lat="46.02945" lon="1.09556">
        <ele>259</ele>
        <time>2011-06-26T07:29:03.000Z</time>
      </trkpt>
      <trkpt lat="46.0299" lon="1.09552">
        <ele>260</ele>
        <time>2011-06-26T07:29:15.000Z</time>
      </trkpt>
      <trkpt lat="46.02995" lon="1.09551">
        <ele>260</ele>
        <time>2011-06-26T07:29:16.000Z</time>
      </trkpt>
      <trkpt lat="46.03042" lon="1.09547">
        <ele>260</ele>
        <time>2011-06-26T07:29:29.000Z</time>
      </trkpt>
      <trkpt lat="46.03046" lon="1.09546">
        <ele>260</ele>
        <time>2011-06-26T07:29:30.000Z</time>
      </trkpt>
      <trkpt lat="46.03058" lon="1.09542">
        <ele>260</ele>
        <time>2011-06-26T07:29:33.000Z</time>
      </trkpt>
      <trkpt lat="46.03062" lon="1.09535">
        <ele>260</ele>
        <time>2011-06-26T07:29:35.000Z</time>
      </trkpt>
      <trkpt lat="46.03074" lon="1.095">
        <ele>261</ele>
        <time>2011-06-26T07:29:42.000Z</time>
      </trkpt>
      <trkpt lat="46.0309" lon="1.09438">
        <ele>265</ele>
        <time>2011-06-26T07:29:57.000Z</time>
      </trkpt>
      <trkpt lat="46.03091" lon="1.09435">
        <ele>265</ele>
        <time>2011-06-26T07:29:58.000Z</time>
      </trkpt>
      <trkpt lat="46.03102" lon="1.09387">
        <ele>268</ele>
        <time>2011-06-26T07:30:14.000Z</time>
      </trkpt>
      <trkpt lat="46.03108" lon="1.09373">
        <ele>269</ele>
        <time>2011-06-26T07:30:20.000Z</time>
      </trkpt>
      <trkpt lat="46.03136" lon="1.0932">
        <ele>274</ele>
        <time>2011-06-26T07:30:48.000Z</time>
      </trkpt>
      <trkpt lat="46.03137" lon="1.09318">
        <ele>274</ele>
        <time>2011-06-26T07:30:49.000Z</time>
      </trkpt>
      <trkpt lat="46.03151" lon="1.09296">
        <ele>277</ele>
        <time>2011-06-26T07:31:01.000Z</time>
      </trkpt>
      <trkpt lat="46.03199" lon="1.0929">
        <ele>277</ele>
        <time>2011-06-26T07:31:14.000Z</time>
      </trkpt>
      <trkpt lat="46.03204" lon="1.0929">
        <ele>277</ele>
        <time>2011-06-26T07:31:15.000Z</time>
      </trkpt>
      <trkpt lat="46.03249" lon="1.09284">
        <ele>277</ele>
        <time>2011-06-26T07:31:24.000Z</time>
      </trkpt>
      <trkpt lat="46.03254" lon="1.09283">
        <ele>277</ele>
        <time>2011-06-26T07:31:25.000Z</time>
      </trkpt>
      <trkpt lat="46.03302" lon="1.09278">
        <ele>274</ele>
        <time>2011-06-26T07:31:32.000Z</time>
      </trkpt>
      <trkpt lat="46.03308" lon="1.09277">
        <ele>274</ele>
        <time>2011-06-26T07:31:33.000Z</time>
      </trkpt>
      <trkpt lat="46.03355" lon="1.09269">
        <ele>273</ele>
        <time>2011-06-26T07:31:39.000Z</time>
      </trkpt>
      <trkpt lat="46.03363" lon="1.0927">
        <ele>273</ele>
        <time>2011-06-26T07:31:40.000Z</time>
      </trkpt>
      <trkpt lat="46.03394" lon="1.09283">
        <ele>271</ele>
        <time>2011-06-26T07:31:44.000Z</time>
      </trkpt>
      <trkpt lat="46.03414" lon="1.093">
        <ele>271</ele>
        <time>2011-06-26T07:31:47.000Z</time>
      </trkpt>
      <trkpt lat="46.03443" lon="1.0935">
        <ele>268</ele>
        <time>2011-06-26T07:31:53.000Z</time>
      </trkpt>
      <trkpt lat="46.03448" lon="1.09357">
        <ele>267</ele>
        <time>2011-06-26T07:31:54.000Z</time>
      </trkpt>
      <trkpt lat="46.03454" lon="1.09361">
        <ele>266</ele>
        <time>2011-06-26T07:31:55.000Z</time>
      </trkpt>
      <trkpt lat="46.03465" lon="1.09363">
        <ele>264</ele>
        <time>2011-06-26T07:31:57.000Z</time>
      </trkpt>
      <trkpt lat="46.03471" lon="1.09357">
        <ele>262</ele>
        <time>2011-06-26T07:31:59.000Z</time>
      </trkpt>
      <trkpt lat="46.03471" lon="1.09347">
        <ele>261</ele>
        <time>2011-06-26T07:32:01.000Z</time>
      </trkpt>
      <trkpt lat="46.03471" lon="1.09335">
        <ele>258</ele>
        <time>2011-06-26T07:32:04.000Z</time>
      </trkpt>
      <trkpt lat="46.03468" lon="1.09298">
        <ele>256</ele>
        <time>2011-06-26T07:32:12.000Z</time>
      </trkpt>
      <trkpt lat="46.03461" lon="1.09233">
        <ele>265</ele>
        <time>2011-06-26T07:32:28.000Z</time>
      </trkpt>
      <trkpt lat="46.03461" lon="1.09229">
        <ele>266</ele>
        <time>2011-06-26T07:32:29.000Z</time>
      </trkpt>
      <trkpt lat="46.03461" lon="1.09212">
        <ele>270</ele>
        <time>2011-06-26T07:32:34.000Z</time>
      </trkpt>
      <trkpt lat="46.03468" lon="1.09167">
        <ele>283</ele>
        <time>2011-06-26T07:32:46.000Z</time>
      </trkpt>
      <trkpt lat="46.03468" lon="1.09158">
        <ele>286</ele>
        <time>2011-06-26T07:32:48.000Z</time>
      </trkpt>
      <trkpt lat="46.03465" lon="1.09118">
        <ele>301</ele>
        <time>2011-06-26T07:32:58.000Z</time>
      </trkpt>
      <trkpt lat="46.03457" lon="1.09092">
        <ele>308</ele>
        <time>2011-06-26T07:33:04.000Z</time>
      </trkpt>
      <trkpt lat="46.0345" lon="1.09072">
        <ele>309</ele>
        <time>2011-06-26T07:33:09.000Z</time>
      </trkpt>
      <trkpt lat="46.03444" lon="1.09042">
        <ele>308</ele>
        <time>2011-06-26T07:33:17.000Z</time>
      </trkpt>
      <trkpt lat="46.03448" lon="1.09024">
        <ele>311</ele>
        <time>2011-06-26T07:33:23.000Z</time>
      </trkpt>
      <trkpt lat="46.03469" lon="1.08965">
        <ele>300</ele>
        <time>2011-06-26T07:33:41.000Z</time>
      </trkpt>
      <trkpt lat="46.0347" lon="1.08961">
        <ele>300</ele>
        <time>2011-06-26T07:33:42.000Z</time>
      </trkpt>
      <trkpt lat="46.03473" lon="1.08954">
        <ele>299</ele>
        <time>2011-06-26T07:33:44.000Z</time>
      </trkpt>
      <trkpt lat="46.03475" lon="1.08943">
        <ele>296</ele>
        <time>2011-06-26T07:33:47.000Z</time>
      </trkpt>
      <trkpt lat="46.03476" lon="1.08934">
        <ele>294</ele>
        <time>2011-06-26T07:33:49.000Z</time>
      </trkpt>
      <trkpt lat="46.03477" lon="1.08925">
        <ele>292</ele>
        <time>2011-06-26T07:33:51.000Z</time>
      </trkpt>
      <trkpt lat="46.03477" lon="1.08916">
        <ele>291</ele>
        <time>2011-06-26T07:33:53.000Z</time>
      </trkpt>
      <trkpt lat="46.03476" lon="1.08907">
        <ele>291</ele>
        <time>2011-06-26T07:33:55.000Z</time>
      </trkpt>
      <trkpt lat="46.03475" lon="1.08893">
        <ele>290</ele>
        <time>2011-06-26T07:33:58.000Z</time>
      </trkpt>
      <trkpt lat="46.03477" lon="1.08867">
        <ele>284</ele>
        <time>2011-06-26T07:34:04.000Z</time>
      </trkpt>
      <trkpt lat="46.03479" lon="1.08849">
        <ele>283</ele>
        <time>2011-06-26T07:34:08.000Z</time>
      </trkpt>
      <trkpt lat="46.03481" lon="1.08826">
        <ele>281</ele>
        <time>2011-06-26T07:34:13.000Z</time>
      </trkpt>
      <trkpt lat="46.03482" lon="1.08817">
        <ele>281</ele>
        <time>2011-06-26T07:34:15.000Z</time>
      </trkpt>
      <trkpt lat="46.03485" lon="1.08788">
        <ele>282</ele>
        <time>2011-06-26T07:34:21.000Z</time>
      </trkpt>
      <trkpt lat="46.0348" lon="1.08755">
        <ele>291</ele>
        <time>2011-06-26T07:34:29.000Z</time>
      </trkpt>
      <trkpt lat="46.03478" lon="1.08747">
        <ele>294</ele>
        <time>2011-06-26T07:34:31.000Z</time>
      </trkpt>
      <trkpt lat="46.03474" lon="1.08718">
        <ele>305</ele>
        <time>2011-06-26T07:34:38.000Z</time>
      </trkpt>
      <trkpt lat="46.03473" lon="1.08706">
        <ele>307</ele>
        <time>2011-06-26T07:34:41.000Z</time>
      </trkpt>
      <trkpt lat="46.03473" lon="1.08683">
        <ele>308</ele>
        <time>2011-06-26T07:34:47.000Z</time>
      </trkpt>
      <trkpt lat="46.03474" lon="1.08666">
        <ele>309</ele>
        <time>2011-06-26T07:34:51.000Z</time>
      </trkpt>
      <trkpt lat="46.03474" lon="1.08625">
        <ele>313</ele>
        <time>2011-06-26T07:35:02.000Z</time>
      </trkpt>
      <trkpt lat="46.03474" lon="1.0861">
        <ele>316</ele>
        <time>2011-06-26T07:35:06.000Z</time>
      </trkpt>
      <trkpt lat="46.03475" lon="1.08596">
        <ele>317</ele>
        <time>2011-06-26T07:35:10.000Z</time>
      </trkpt>
      <trkpt lat="46.0348" lon="1.0856">
        <ele>313</ele>
        <time>2011-06-26T07:35:19.000Z</time>
      </trkpt>
      <trkpt lat="46.03484" lon="1.08538">
        <ele>312</ele>
        <time>2011-06-26T07:35:24.000Z</time>
      </trkpt>
      <trkpt lat="46.03488" lon="1.08474">
        <ele>300</ele>
        <time>2011-06-26T07:35:40.000Z</time>
      </trkpt>
      <trkpt lat="46.03488" lon="1.08469">
        <ele>300</ele>
        <time>2011-06-26T07:35:41.000Z</time>
      </trkpt>
      <trkpt lat="46.03489" lon="1.0846">
        <ele>299</ele>
        <time>2011-06-26T07:35:43.000Z</time>
      </trkpt>
      <trkpt lat="46.03492" lon="1.08439">
        <ele>295</ele>
        <time>2011-06-26T07:35:48.000Z</time>
      </trkpt>
      <trkpt lat="46.03492" lon="1.08431">
        <ele>293</ele>
        <time>2011-06-26T07:35:50.000Z</time>
      </trkpt>
      <trkpt lat="46.0349" lon="1.08419">
        <ele>291</ele>
        <time>2011-06-26T07:35:53.000Z</time>
      </trkpt>
      <trkpt lat="46.03489" lon="1.0841">
        <ele>290</ele>
        <time>2011-06-26T07:35:55.000Z</time>
      </trkpt>
      <trkpt lat="46.03479" lon="1.08384">
        <ele>290</ele>
        <time>2011-06-26T07:36:02.000Z</time>
      </trkpt>
      <trkpt lat="46.03465" lon="1.0835">
        <ele>298</ele>
        <time>2011-06-26T07:36:12.000Z</time>
      </trkpt>
      <trkpt lat="46.03457" lon="1.08336">
        <ele>301</ele>
        <time>2011-06-26T07:36:16.000Z</time>
      </trkpt>
      <trkpt lat="46.03425" lon="1.08288">
        <ele>300</ele>
        <time>2011-06-26T07:36:33.000Z</time>
      </trkpt>
      <trkpt lat="46.03423" lon="1.08286">
        <ele>300</ele>
        <time>2011-06-26T07:36:34.000Z</time>
      </trkpt>
      <trkpt lat="46.03382" lon="1.08255">
        <ele>300</ele>
        <time>2011-06-26T07:36:50.000Z</time>
      </trkpt>
      <trkpt lat="46.0338" lon="1.08253">
        <ele>300</ele>
        <time>2011-06-26T07:36:51.000Z</time>
      </trkpt>
      <trkpt lat="46.03357" lon="1.08228">
        <ele>304</ele>
        <time>2011-06-26T07:37:01.000Z</time>
      </trkpt>
      <trkpt lat="46.03357" lon="1.08215">
        <ele>305</ele>
        <time>2011-06-26T07:37:05.000Z</time>
      </trkpt>
      <trkpt lat="46.03364" lon="1.08204">
        <ele>307</ele>
        <time>2011-06-26T07:37:09.000Z</time>
      </trkpt>
      <trkpt lat="46.03392" lon="1.08177">
        <ele>316</ele>
        <time>2011-06-26T07:37:23.000Z</time>
      </trkpt>
      <trkpt lat="46.03391" lon="1.0817">
        <ele>315</ele>
        <time>2011-06-26T07:37:27.000Z</time>
      </trkpt>
      <trkpt lat="46.03381" lon="1.08175">
        <ele>315</ele>
        <time>2011-06-26T07:37:31.000Z</time>
      </trkpt>
      <trkpt lat="46.03338" lon="1.08194">
        <ele>323</ele>
        <time>2011-06-26T07:37:45.000Z</time>
      </trkpt>
      <trkpt lat="46.03334" lon="1.08195">
        <ele>323</ele>
        <time>2011-06-26T07:37:46.000Z</time>
      </trkpt>
      <trkpt lat="46.03315" lon="1.08199">
        <ele>323</ele>
        <time>2011-06-26T07:37:51.000Z</time>
      </trkpt>
      <trkpt lat="46.03267" lon="1.08196">
        <ele>323</ele>
        <time>2011-06-26T07:38:04.000Z</time>
      </trkpt>
      <trkpt lat="46.03263" lon="1.08195">
        <ele>323</ele>
        <time>2011-06-26T07:38:05.000Z</time>
      </trkpt>
      <trkpt lat="46.0326" lon="1.08194">
        <ele>323</ele>
        <time>2011-06-26T07:38:06.000Z</time>
      </trkpt>
      <trkpt lat="46.03215" lon="1.08185">
        <ele>322</ele>
        <time>2011-06-26T07:38:19.000Z</time>
      </trkpt>
      <trkpt lat="46.03212" lon="1.08185">
        <ele>322</ele>
        <time>2011-06-26T07:38:20.000Z</time>
      </trkpt>
      <trkpt lat="46.03183" lon="1.08175">
        <ele>319</ele>
        <time>2011-06-26T07:38:29.000Z</time>
      </trkpt>
      <trkpt lat="46.03182" lon="1.08165">
        <ele>318</ele>
        <time>2011-06-26T07:38:33.000Z</time>
      </trkpt>
      <trkpt lat="46.03183" lon="1.08157">
        <ele>318</ele>
        <time>2011-06-26T07:38:37.000Z</time>
      </trkpt>
      <trkpt lat="46.03185" lon="1.08135">
        <ele>318</ele>
        <time>2011-06-26T07:38:50.000Z</time>
      </trkpt>
      <trkpt lat="46.03186" lon="1.08126">
        <ele>318</ele>
        <time>2011-06-26T07:38:55.000Z</time>
      </trkpt>
      <trkpt lat="46.03187" lon="1.08118">
        <ele>318</ele>
        <time>2011-06-26T07:38:59.000Z</time>
      </trkpt>
      <trkpt lat="46.03188" lon="1.08109">
        <ele>317</ele>
        <time>2011-06-26T07:39:03.000Z</time>
      </trkpt>
      <trkpt lat="46.03195" lon="1.08072">
        <ele>317</ele>
        <time>2011-06-26T07:39:23.000Z</time>
      </trkpt>
      <trkpt lat="46.03199" lon="1.08066">
        <ele>317</ele>
        <time>2011-06-26T07:39:27.000Z</time>
      </trkpt>
      <trkpt lat="46.03205" lon="1.08066">
        <ele>318</ele>
        <time>2011-06-26T07:39:33.000Z</time>
      </trkpt>
      <trkpt lat="46.03251" lon="1.08075">
        <ele>331</ele>
        <time>2011-06-26T07:40:07.000Z</time>
      </trkpt>
      <trkpt lat="46.03253" lon="1.08076">
        <ele>331</ele>
        <time>2011-06-26T07:40:08.000Z</time>
      </trkpt>
      <trkpt lat="46.03268" lon="1.08076">
        <ele>331</ele>
        <time>2011-06-26T07:40:16.000Z</time>
      </trkpt>
      <trkpt lat="46.03312" lon="1.08073">
        <ele>331</ele>
        <time>2011-06-26T07:40:35.000Z</time>
      </trkpt>
      <trkpt lat="46.03314" lon="1.08072">
        <ele>331</ele>
        <time>2011-06-26T07:40:36.000Z</time>
      </trkpt>
      <trkpt lat="46.03331" lon="1.08069">
        <ele>332</ele>
        <time>2011-06-26T07:40:42.000Z</time>
      </trkpt>
      <trkpt lat="46.03378" lon="1.08057">
        <ele>333</ele>
        <time>2011-06-26T07:40:55.000Z</time>
      </trkpt>
      <trkpt lat="46.03382" lon="1.08055">
        <ele>334</ele>
        <time>2011-06-26T07:40:56.000Z</time>
      </trkpt>
      <trkpt lat="46.03423" lon="1.08025">
        <ele>340</ele>
        <time>2011-06-26T07:41:15.000Z</time>
      </trkpt>
      <trkpt lat="46.03425" lon="1.08023">
        <ele>340</ele>
        <time>2011-06-26T07:41:16.000Z</time>
      </trkpt>
      <trkpt lat="46.03461" lon="1.07985">
        <ele>340</ele>
        <time>2011-06-26T07:41:28.000Z</time>
      </trkpt>
      <trkpt lat="46.03463" lon="1.07983">
        <ele>340</ele>
        <time>2011-06-26T07:41:29.000Z</time>
      </trkpt>
      <trkpt lat="46.03503" lon="1.07947">
        <ele>342</ele>
        <time>2011-06-26T07:41:45.000Z</time>
      </trkpt>
      <trkpt lat="46.03506" lon="1.07946">
        <ele>342</ele>
        <time>2011-06-26T07:41:46.000Z</time>
      </trkpt>
      <trkpt lat="46.03511" lon="1.07945">
        <ele>344</ele>
        <time>2011-06-26T07:41:48.000Z</time>
      </trkpt>
      <trkpt lat="46.03536" lon="1.07949">
        <ele>347</ele>
        <time>2011-06-26T07:42:02.000Z</time>
      </trkpt>
      <trkpt lat="46.03546" lon="1.07951">
        <ele>348</ele>
        <time>2011-06-26T07:42:09.000Z</time>
      </trkpt>
      <trkpt lat="46.03553" lon="1.0795">
        <ele>348</ele>
        <time>2011-06-26T07:42:13.000Z</time>
      </trkpt>
      <trkpt lat="46.03589" lon="1.07914">
        <ele>343</ele>
        <time>2011-06-26T07:42:42.000Z</time>
      </trkpt>
      <trkpt lat="46.0359" lon="1.07912">
        <ele>343</ele>
        <time>2011-06-26T07:42:43.000Z</time>
      </trkpt>
      <trkpt lat="46.03592" lon="1.07906">
        <ele>342</ele>
        <time>2011-06-26T07:42:46.000Z</time>
      </trkpt>
      <trkpt lat="46.03594" lon="1.07898">
        <ele>342</ele>
        <time>2011-06-26T07:42:52.000Z</time>
      </trkpt>
      <trkpt lat="46.03596" lon="1.0789">
        <ele>342</ele>
        <time>2011-06-26T07:42:56.000Z</time>
      </trkpt>
      <trkpt lat="46.03598" lon="1.07873">
        <ele>337</ele>
        <time>2011-06-26T07:43:05.000Z</time>
      </trkpt>
      <trkpt lat="46.03599" lon="1.07865">
        <ele>335</ele>
        <time>2011-06-26T07:43:09.000Z</time>
      </trkpt>
      <trkpt lat="46.03602" lon="1.07853">
        <ele>335</ele>
        <time>2011-06-26T07:43:15.000Z</time>
      </trkpt>
      <trkpt lat="46.03609" lon="1.07814">
        <ele>337</ele>
        <time>2011-06-26T07:43:35.000Z</time>
      </trkpt>
      <trkpt lat="46.03616" lon="1.07778">
        <ele>343</ele>
        <time>2011-06-26T07:43:51.000Z</time>
      </trkpt>
      <trkpt lat="46.03615" lon="1.07768">
        <ele>346</ele>
        <time>2011-06-26T07:43:55.000Z</time>
      </trkpt>
      <trkpt lat="46.03615" lon="1.07759">
        <ele>348</ele>
        <time>2011-06-26T07:43:59.000Z</time>
      </trkpt>
      <trkpt lat="46.03616" lon="1.07745">
        <ele>349</ele>
        <time>2011-06-26T07:44:07.000Z</time>
      </trkpt>
      <trkpt lat="46.03616" lon="1.07734">
        <ele>352</ele>
        <time>2011-06-26T07:44:13.000Z</time>
      </trkpt>
      <trkpt lat="46.03617" lon="1.07709">
        <ele>356</ele>
        <time>2011-06-26T07:44:26.000Z</time>
      </trkpt>
      <trkpt lat="46.0361" lon="1.077">
        <ele>357</ele>
        <time>2011-06-26T07:44:33.000Z</time>
      </trkpt>
      <trkpt lat="46.03585" lon="1.07678">
        <ele>359</ele>
        <time>2011-06-26T07:44:45.000Z</time>
      </trkpt>
      <trkpt lat="46.03544" lon="1.07656">
        <ele>361</ele>
        <time>2011-06-26T07:45:02.000Z</time>
      </trkpt>
      <trkpt lat="46.03542" lon="1.07656">
        <ele>361</ele>
        <time>2011-06-26T07:45:03.000Z</time>
      </trkpt>
      <trkpt lat="46.03524" lon="1.0765">
        <ele>362</ele>
        <time>2011-06-26T07:45:10.000Z</time>
      </trkpt>
      <trkpt lat="46.03511" lon="1.07643">
        <ele>364</ele>
        <time>2011-06-26T07:45:17.000Z</time>
      </trkpt>
      <trkpt lat="46.03505" lon="1.07644">
        <ele>367</ele>
        <time>2011-06-26T07:45:21.000Z</time>
      </trkpt>
      <trkpt lat="46.03493" lon="1.07655">
        <ele>372</ele>
        <time>2011-06-26T07:45:29.000Z</time>
      </trkpt>
      <trkpt lat="46.03485" lon="1.07652">
        <ele>373</ele>
        <time>2011-06-26T07:45:33.000Z</time>
      </trkpt>
      <trkpt lat="46.03481" lon="1.07647">
        <ele>374</ele>
        <time>2011-06-26T07:45:37.000Z</time>
      </trkpt>
      <trkpt lat="46.03457" lon="1.07616">
        <ele>380</ele>
        <time>2011-06-26T07:45:59.000Z</time>
      </trkpt>
      <trkpt lat="46.03449" lon="1.07605">
        <ele>379</ele>
        <time>2011-06-26T07:46:05.000Z</time>
      </trkpt>
      <trkpt lat="46.03431" lon="1.07587">
        <ele>374</ele>
        <time>2011-06-26T07:46:19.000Z</time>
      </trkpt>
      <trkpt lat="46.03426" lon="1.07585">
        <ele>373</ele>
        <time>2011-06-26T07:46:23.000Z</time>
      </trkpt>
      <trkpt lat="46.03417" lon="1.07579">
        <ele>374</ele>
        <time>2011-06-26T07:46:29.000Z</time>
      </trkpt>
      <trkpt lat="46.03397" lon="1.07565">
        <ele>377</ele>
        <time>2011-06-26T07:46:43.000Z</time>
      </trkpt>
      <trkpt lat="46.03376" lon="1.07552">
        <ele>380</ele>
        <time>2011-06-26T07:47:01.000Z</time>
      </trkpt>
      <trkpt lat="46.03355" lon="1.07539">
        <ele>379</ele>
        <time>2011-06-26T07:47:16.000Z</time>
      </trkpt>
      <trkpt lat="46.03351" lon="1.0753">
        <ele>379</ele>
        <time>2011-06-26T07:47:20.000Z</time>
      </trkpt>
      <trkpt lat="46.03348" lon="1.07516">
        <ele>382</ele>
        <time>2011-06-26T07:47:26.000Z</time>
      </trkpt>
      <trkpt lat="46.03341" lon="1.07512">
        <ele>384</ele>
        <time>2011-06-26T07:47:30.000Z</time>
      </trkpt>
      <trkpt lat="46.03324" lon="1.07516">
        <ele>388</ele>
        <time>2011-06-26T07:47:38.000Z</time>
      </trkpt>
      <trkpt lat="46.03283" lon="1.07507">
        <ele>396</ele>
        <time>2011-06-26T07:47:56.000Z</time>
      </trkpt>
      <trkpt lat="46.0324" lon="1.07484">
        <ele>399</ele>
        <time>2011-06-26T07:48:16.000Z</time>
      </trkpt>
      <trkpt lat="46.03238" lon="1.07483">
        <ele>399</ele>
        <time>2011-06-26T07:48:17.000Z</time>
      </trkpt>
      <trkpt lat="46.03198" lon="1.07457">
        <ele>401</ele>
        <time>2011-06-26T07:48:35.000Z</time>
      </trkpt>
      <trkpt lat="46.03196" lon="1.07455">
        <ele>401</ele>
        <time>2011-06-26T07:48:36.000Z</time>
      </trkpt>
      <trkpt lat="46.03157" lon="1.07419">
        <ele>401</ele>
        <time>2011-06-26T07:48:52.000Z</time>
      </trkpt>
      <trkpt lat="46.03155" lon="1.07416">
        <ele>402</ele>
        <time>2011-06-26T07:48:53.000Z</time>
      </trkpt>
      <trkpt lat="46.03116" lon="1.07378">
        <ele>403</ele>
        <time>2011-06-26T07:49:10.000Z</time>
      </trkpt>
      <trkpt lat="46.03114" lon="1.07376">
        <ele>403</ele>
        <time>2011-06-26T07:49:11.000Z</time>
      </trkpt>
      <trkpt lat="46.03112" lon="1.07372">
        <ele>403</ele>
        <time>2011-06-26T07:49:12.000Z</time>
      </trkpt>
      <trkpt lat="46.03096" lon="1.07347">
        <ele>403</ele>
        <time>2011-06-26T07:49:20.000Z</time>
      </trkpt>
      <trkpt lat="46.03068" lon="1.07294">
        <ele>402</ele>
        <time>2011-06-26T07:49:36.000Z</time>
      </trkpt>
      <trkpt lat="46.03067" lon="1.07291">
        <ele>402</ele>
        <time>2011-06-26T07:49:37.000Z</time>
      </trkpt>
      <trkpt lat="46.03063" lon="1.07285">
        <ele>402</ele>
        <time>2011-06-26T07:49:40.000Z</time>
      </trkpt>
      <trkpt lat="46.03055" lon="1.0727">
        <ele>401</ele>
        <time>2011-06-26T07:49:56.000Z</time>
      </trkpt>
      <trkpt lat="46.03061" lon="1.0727">
        <ele>406</ele>
        <time>2011-06-26T07:57:10.000Z</time>
      </trkpt>
      <trkpt lat="46.03046" lon="1.07265">
        <ele>403</ele>
        <time>2011-06-26T08:01:28.000Z</time>
      </trkpt>
      <trkpt lat="46.03039" lon="1.0726">
        <ele>402</ele>
        <time>2011-06-26T08:01:32.000Z</time>
      </trkpt>
      <trkpt lat="46.02994" lon="1.07243">
        <ele>402</ele>
        <time>2011-06-26T08:01:50.000Z</time>
      </trkpt>
      <trkpt lat="46.02991" lon="1.07241">
        <ele>402</ele>
        <time>2011-06-26T08:01:51.000Z</time>
      </trkpt>
      <trkpt lat="46.02945" lon="1.07222">
        <ele>402</ele>
        <time>2011-06-26T08:02:03.000Z</time>
      </trkpt>
      <trkpt lat="46.02942" lon="1.0722">
        <ele>402</ele>
        <time>2011-06-26T08:02:04.000Z</time>
      </trkpt>
      <trkpt lat="46.02924" lon="1.0721">
        <ele>402</ele>
        <time>2011-06-26T08:02:09.000Z</time>
      </trkpt>
      <trkpt lat="46.02907" lon="1.07193">
        <ele>401</ele>
        <time>2011-06-26T08:02:15.000Z</time>
      </trkpt>
      <trkpt lat="46.02899" lon="1.07181">
        <ele>401</ele>
        <time>2011-06-26T08:02:18.000Z</time>
      </trkpt>
      <trkpt lat="46.029" lon="1.07173">
        <ele>401</ele>
        <time>2011-06-26T08:02:20.000Z</time>
      </trkpt>
      <trkpt lat="46.02904" lon="1.07167">
        <ele>401</ele>
        <time>2011-06-26T08:02:22.000Z</time>
      </trkpt>
      <trkpt lat="46.02948" lon="1.07138">
        <ele>400</ele>
        <time>2011-06-26T08:02:38.000Z</time>
      </trkpt>
      <trkpt lat="46.02951" lon="1.07136">
        <ele>399</ele>
        <time>2011-06-26T08:02:39.000Z</time>
      </trkpt>
      <trkpt lat="46.02974" lon="1.07114">
        <ele>398</ele>
        <time>2011-06-26T08:02:47.000Z</time>
      </trkpt>
      <trkpt lat="46.02991" lon="1.07091">
        <ele>399</ele>
        <time>2011-06-26T08:02:54.000Z</time>
      </trkpt>
      <trkpt lat="46.03003" lon="1.07076">
        <ele>400</ele>
        <time>2011-06-26T08:03:00.000Z</time>
      </trkpt>
      <trkpt lat="46.03012" lon="1.0707">
        <ele>401</ele>
        <time>2011-06-26T08:03:05.000Z</time>
      </trkpt>
      <trkpt lat="46.03019" lon="1.07073">
        <ele>402</ele>
        <time>2011-06-26T08:03:09.000Z</time>
      </trkpt>
      <trkpt lat="46.0304" lon="1.0709">
        <ele>404</ele>
        <time>2011-06-26T08:03:23.000Z</time>
      </trkpt>
      <trkpt lat="46.03056" lon="1.071">
        <ele>408</ele>
        <time>2011-06-26T08:03:34.000Z</time>
      </trkpt>
      <trkpt lat="46.0307" lon="1.07108">
        <ele>411</ele>
        <time>2011-06-26T08:03:42.000Z</time>
      </trkpt>
      <trkpt lat="46.03094" lon="1.07124">
        <ele>418</ele>
        <time>2011-06-26T08:03:56.000Z</time>
      </trkpt>
      <trkpt lat="46.03136" lon="1.07147">
        <ele>430</ele>
        <time>2011-06-26T08:04:19.000Z</time>
      </trkpt>
      <trkpt lat="46.03138" lon="1.07148">
        <ele>431</ele>
        <time>2011-06-26T08:04:20.000Z</time>
      </trkpt>
      <trkpt lat="46.03146" lon="1.07151">
        <ele>433</ele>
        <time>2011-06-26T08:04:25.000Z</time>
      </trkpt>
      <trkpt lat="46.03189" lon="1.0717">
        <ele>432</ele>
        <time>2011-06-26T08:04:43.000Z</time>
      </trkpt>
      <trkpt lat="46.03191" lon="1.0717">
        <ele>433</ele>
        <time>2011-06-26T08:04:44.000Z</time>
      </trkpt>
      <trkpt lat="46.03236" lon="1.07182">
        <ele>427</ele>
        <time>2011-06-26T08:05:06.000Z</time>
      </trkpt>
      <trkpt lat="46.03238" lon="1.07182">
        <ele>427</ele>
        <time>2011-06-26T08:05:07.000Z</time>
      </trkpt>
      <trkpt lat="46.03253" lon="1.07184">
        <ele>428</ele>
        <time>2011-06-26T08:05:14.000Z</time>
      </trkpt>
      <trkpt lat="46.03259" lon="1.0718">
        <ele>428</ele>
        <time>2011-06-26T08:05:18.000Z</time>
      </trkpt>
      <trkpt lat="46.03268" lon="1.07174">
        <ele>426</ele>
        <time>2011-06-26T08:05:24.000Z</time>
      </trkpt>
      <trkpt lat="46.03276" lon="1.07168">
        <ele>424</ele>
        <time>2011-06-26T08:05:30.000Z</time>
      </trkpt>
      <trkpt lat="46.03281" lon="1.07165">
        <ele>422</ele>
        <time>2011-06-26T08:05:34.000Z</time>
      </trkpt>
      <trkpt lat="46.03321" lon="1.07148">
        <ele>414</ele>
        <time>2011-06-26T08:05:52.000Z</time>
      </trkpt>
      <trkpt lat="46.0333" lon="1.07136">
        <ele>413</ele>
        <time>2011-06-26T08:05:58.000Z</time>
      </trkpt>
      <trkpt lat="46.03332" lon="1.07127">
        <ele>415</ele>
        <time>2011-06-26T08:06:02.000Z</time>
      </trkpt>
      <trkpt lat="46.03331" lon="1.07118">
        <ele>419</ele>
        <time>2011-06-26T08:06:08.000Z</time>
      </trkpt>
      <trkpt lat="46.03329" lon="1.07111">
        <ele>422</ele>
        <time>2011-06-26T08:06:12.000Z</time>
      </trkpt>
      <trkpt lat="46.03325" lon="1.07093">
        <ele>427</ele>
        <time>2011-06-26T08:06:22.000Z</time>
      </trkpt>
      <trkpt lat="46.03316" lon="1.07074">
        <ele>427</ele>
        <time>2011-06-26T08:06:30.000Z</time>
      </trkpt>
      <trkpt lat="46.03313" lon="1.07064">
        <ele>427</ele>
        <time>2011-06-26T08:06:34.000Z</time>
      </trkpt>
      <trkpt lat="46.03305" lon="1.07051">
        <ele>429</ele>
        <time>2011-06-26T08:06:40.000Z</time>
      </trkpt>
      <trkpt lat="46.03289" lon="1.07031">
        <ele>435</ele>
        <time>2011-06-26T08:06:50.000Z</time>
      </trkpt>
      <trkpt lat="46.03259" lon="1.07033">
        <ele>441</ele>
        <time>2011-06-26T08:07:04.000Z</time>
      </trkpt>
      <trkpt lat="46.03249" lon="1.07028">
        <ele>442</ele>
        <time>2011-06-26T08:07:09.000Z</time>
      </trkpt>
      <trkpt lat="46.03242" lon="1.0702">
        <ele>442</ele>
        <time>2011-06-26T08:07:13.000Z</time>
      </trkpt>
      <trkpt lat="46.03209" lon="1.06974">
        <ele>444</ele>
        <time>2011-06-26T08:07:37.000Z</time>
      </trkpt>
      <trkpt lat="46.03208" lon="1.06973">
        <ele>444</ele>
        <time>2011-06-26T08:07:38.000Z</time>
      </trkpt>
      <trkpt lat="46.03199" lon="1.06954">
        <ele>442</ele>
        <time>2011-06-26T08:07:46.000Z</time>
      </trkpt>
      <trkpt lat="46.03196" lon="1.06947">
        <ele>441</ele>
        <time>2011-06-26T08:07:48.000Z</time>
      </trkpt>
      <trkpt lat="46.03175" lon="1.06887">
        <ele>437</ele>
        <time>2011-06-26T08:08:05.000Z</time>
      </trkpt>
      <trkpt lat="46.03174" lon="1.06882">
        <ele>437</ele>
        <time>2011-06-26T08:08:06.000Z</time>
      </trkpt>
      <trkpt lat="46.03162" lon="1.06857">
        <ele>439</ele>
        <time>2011-06-26T08:08:13.000Z</time>
      </trkpt>
      <trkpt lat="46.03141" lon="1.06821">
        <ele>441</ele>
        <time>2011-06-26T08:08:24.000Z</time>
      </trkpt>
      <trkpt lat="46.03116" lon="1.06772">
        <ele>449</ele>
        <time>2011-06-26T08:08:42.000Z</time>
      </trkpt>
      <trkpt lat="46.031" lon="1.06751">
        <ele>451</ele>
        <time>2011-06-26T08:08:53.000Z</time>
      </trkpt>
      <trkpt lat="46.03085" lon="1.06735">
        <ele>459</ele>
        <time>2011-06-26T08:09:01.000Z</time>
      </trkpt>
      <trkpt lat="46.0306" lon="1.06711">
        <ele>470</ele>
        <time>2011-06-26T08:09:14.000Z</time>
      </trkpt>
      <trkpt lat="46.03041" lon="1.06695">
        <ele>478</ele>
        <time>2011-06-26T08:09:25.000Z</time>
      </trkpt>
      <trkpt lat="46.03024" lon="1.0669">
        <ele>481</ele>
        <time>2011-06-26T08:09:31.000Z</time>
      </trkpt>
      <trkpt lat="46.03006" lon="1.06681">
        <ele>483</ele>
        <time>2011-06-26T08:09:37.000Z</time>
      </trkpt>
      <trkpt lat="46.02997" lon="1.06673">
        <ele>484</ele>
        <time>2011-06-26T08:09:40.000Z</time>
      </trkpt>
      <trkpt lat="46.02991" lon="1.06664">
        <ele>485</ele>
        <time>2011-06-26T08:09:43.000Z</time>
      </trkpt>
      <trkpt lat="46.02985" lon="1.06616">
        <ele>470</ele>
        <time>2011-06-26T08:09:58.000Z</time>
      </trkpt>
      <trkpt lat="46.0298" lon="1.06603">
        <ele>466</ele>
        <time>2011-06-26T08:10:02.000Z</time>
      </trkpt>
      <trkpt lat="46.02954" lon="1.06549">
        <ele>454</ele>
        <time>2011-06-26T08:10:19.000Z</time>
      </trkpt>
      <trkpt lat="46.02952" lon="1.06545">
        <ele>454</ele>
        <time>2011-06-26T08:10:20.000Z</time>
      </trkpt>
      <trkpt lat="46.02924" lon="1.0649">
        <ele>459</ele>
        <time>2011-06-26T08:10:34.000Z</time>
      </trkpt>
      <trkpt lat="46.02922" lon="1.06485">
        <ele>460</ele>
        <time>2011-06-26T08:10:35.000Z</time>
      </trkpt>
      <trkpt lat="46.02915" lon="1.06468">
        <ele>460</ele>
        <time>2011-06-26T08:10:38.000Z</time>
      </trkpt>
      <trkpt lat="46.02905" lon="1.06434">
        <ele>461</ele>
        <time>2011-06-26T08:10:44.000Z</time>
      </trkpt>
      <trkpt lat="46.02895" lon="1.06407">
        <ele>462</ele>
        <time>2011-06-26T08:10:53.000Z</time>
      </trkpt>
      <trkpt lat="46.029" lon="1.064">
        <ele>462</ele>
        <time>2011-06-26T08:10:58.000Z</time>
      </trkpt>
      <trkpt lat="46.02945" lon="1.06367">
        <ele>459</ele>
        <time>2011-06-26T08:11:09.000Z</time>
      </trkpt>
      <trkpt lat="46.0295" lon="1.06363">
        <ele>458</ele>
        <time>2011-06-26T08:11:10.000Z</time>
      </trkpt>
      <trkpt lat="46.02972" lon="1.06345">
        <ele>456</ele>
        <time>2011-06-26T08:11:15.000Z</time>
      </trkpt>
      <trkpt lat="46.03005" lon="1.06326">
        <ele>451</ele>
        <time>2011-06-26T08:11:23.000Z</time>
      </trkpt>
      <trkpt lat="46.03021" lon="1.06303">
        <ele>446</ele>
        <time>2011-06-26T08:11:27.000Z</time>
      </trkpt>
      <trkpt lat="46.03056" lon="1.06269">
        <ele>441</ele>
        <time>2011-06-26T08:11:33.000Z</time>
      </trkpt>
      <trkpt lat="46.03063" lon="1.06265">
        <ele>439</ele>
        <time>2011-06-26T08:11:34.000Z</time>
      </trkpt>
      <trkpt lat="46.03103" lon="1.06238">
        <ele>433</ele>
        <time>2011-06-26T08:11:41.000Z</time>
      </trkpt>
      <trkpt lat="46.03106" lon="1.06232">
        <ele>433</ele>
        <time>2011-06-26T08:11:42.000Z</time>
      </trkpt>
      <trkpt lat="46.0311" lon="1.0622">
        <ele>431</ele>
        <time>2011-06-26T08:11:44.000Z</time>
      </trkpt>
      <trkpt lat="46.03114" lon="1.0621">
        <ele>429</ele>
        <time>2011-06-26T08:11:46.000Z</time>
      </trkpt>
      <trkpt lat="46.03127" lon="1.0619">
        <ele>425</ele>
        <time>2011-06-26T08:11:50.000Z</time>
      </trkpt>
      <trkpt lat="46.03148" lon="1.06173">
        <ele>421</ele>
        <time>2011-06-26T08:11:55.000Z</time>
      </trkpt>
      <trkpt lat="46.03171" lon="1.06158">
        <ele>416</ele>
        <time>2011-06-26T08:12:00.000Z</time>
      </trkpt>
      <trkpt lat="46.03175" lon="1.06146">
        <ele>414</ele>
        <time>2011-06-26T08:12:02.000Z</time>
      </trkpt>
      <trkpt lat="46.03181" lon="1.06131">
        <ele>411</ele>
        <time>2011-06-26T08:12:05.000Z</time>
      </trkpt>
      <trkpt lat="46.03197" lon="1.06103">
        <ele>406</ele>
        <time>2011-06-26T08:12:11.000Z</time>
      </trkpt>
      <trkpt lat="46.03206" lon="1.06088">
        <ele>404</ele>
        <time>2011-06-26T08:12:14.000Z</time>
      </trkpt>
      <trkpt lat="46.03226" lon="1.06067">
        <ele>401</ele>
        <time>2011-06-26T08:12:20.000Z</time>
      </trkpt>
      <trkpt lat="46.03271" lon="1.06052">
        <ele>394</ele>
        <time>2011-06-26T08:12:31.000Z</time>
      </trkpt>
      <trkpt lat="46.03275" lon="1.06051">
        <ele>393</ele>
        <time>2011-06-26T08:12:32.000Z</time>
      </trkpt>
      <trkpt lat="46.0328" lon="1.06046">
        <ele>392</ele>
        <time>2011-06-26T08:12:34.000Z</time>
      </trkpt>
      <trkpt lat="46.03281" lon="1.06031">
        <ele>390</ele>
        <time>2011-06-26T08:12:37.000Z</time>
      </trkpt>
      <trkpt lat="46.03272" lon="1.05988">
        <ele>386</ele>
        <time>2011-06-26T08:12:44.000Z</time>
      </trkpt>
      <trkpt lat="46.03265" lon="1.05969">
        <ele>385</ele>
        <time>2011-06-26T08:12:48.000Z</time>
      </trkpt>
      <trkpt lat="46.03262" lon="1.05956">
        <ele>383</ele>
        <time>2011-06-26T08:12:51.000Z</time>
      </trkpt>
      <trkpt lat="46.03254" lon="1.05947">
        <ele>384</ele>
        <time>2011-06-26T08:12:54.000Z</time>
      </trkpt>
      <trkpt lat="46.03245" lon="1.05947">
        <ele>384</ele>
        <time>2011-06-26T08:12:57.000Z</time>
      </trkpt>
      <trkpt lat="46.03239" lon="1.05945">
        <ele>385</ele>
        <time>2011-06-26T08:12:59.000Z</time>
      </trkpt>
      <trkpt lat="46.03216" lon="1.05933">
        <ele>388</ele>
        <time>2011-06-26T08:13:07.000Z</time>
      </trkpt>
      <trkpt lat="46.03207" lon="1.05923">
        <ele>388</ele>
        <time>2011-06-26T08:13:11.000Z</time>
      </trkpt>
      <trkpt lat="46.03195" lon="1.0589">
        <ele>392</ele>
        <time>2011-06-26T08:13:18.000Z</time>
      </trkpt>
      <trkpt lat="46.0319" lon="1.05876">
        <ele>394</ele>
        <time>2011-06-26T08:13:21.000Z</time>
      </trkpt>
      <trkpt lat="46.03183" lon="1.05866">
        <ele>395</ele>
        <time>2011-06-26T08:13:24.000Z</time>
      </trkpt>
      <trkpt lat="46.03168" lon="1.05845">
        <ele>397</ele>
        <time>2011-06-26T08:13:32.000Z</time>
      </trkpt>
      <trkpt lat="46.03157" lon="1.05835">
        <ele>400</ele>
        <time>2011-06-26T08:13:39.000Z</time>
      </trkpt>
      <trkpt lat="46.03138" lon="1.05821">
        <ele>407</ele>
        <time>2011-06-26T08:13:53.000Z</time>
      </trkpt>
      <trkpt lat="46.03132" lon="1.05819">
        <ele>410</ele>
        <time>2011-06-26T08:13:58.000Z</time>
      </trkpt>
      <trkpt lat="46.03127" lon="1.05817">
        <ele>414</ele>
        <time>2011-06-26T08:14:07.000Z</time>
      </trkpt>
      <trkpt lat="46.03111" lon="1.05817">
        <ele>421</ele>
        <time>2011-06-26T08:14:28.000Z</time>
      </trkpt>
      <trkpt lat="46.03106" lon="1.05819">
        <ele>423</ele>
        <time>2011-06-26T08:14:38.000Z</time>
      </trkpt>
      <trkpt lat="46.03079" lon="1.05812">
        <ele>428</ele>
        <time>2011-06-26T08:15:08.000Z</time>
      </trkpt>
      <trkpt lat="46.03054" lon="1.05789">
        <ele>423</ele>
        <time>2011-06-26T08:15:24.000Z</time>
      </trkpt>
      <trkpt lat="46.03024" lon="1.05754">
        <ele>422</ele>
        <time>2011-06-26T08:15:40.000Z</time>
      </trkpt>
      <trkpt lat="46.03008" lon="1.05728">
        <ele>424</ele>
        <time>2011-06-26T08:15:47.000Z</time>
      </trkpt>
      <trkpt lat="46.02974" lon="1.05682">
        <ele>428</ele>
        <time>2011-06-26T08:15:56.000Z</time>
      </trkpt>
      <trkpt lat="46.02971" lon="1.05677">
        <ele>428</ele>
        <time>2011-06-26T08:15:57.000Z</time>
      </trkpt>
      <trkpt lat="46.02935" lon="1.05628">
        <ele>427</ele>
        <time>2011-06-26T08:16:08.000Z</time>
      </trkpt>
      <trkpt lat="46.02932" lon="1.05623">
        <ele>427</ele>
        <time>2011-06-26T08:16:09.000Z</time>
      </trkpt>
      <trkpt lat="46.02917" lon="1.05607">
        <ele>426</ele>
        <time>2011-06-26T08:16:13.000Z</time>
      </trkpt>
      <trkpt lat="46.02895" lon="1.05587">
        <ele>424</ele>
        <time>2011-06-26T08:16:20.000Z</time>
      </trkpt>
      <trkpt lat="46.02878" lon="1.05578">
        <ele>421</ele>
        <time>2011-06-26T08:16:25.000Z</time>
      </trkpt>
      <trkpt lat="46.02853" lon="1.05564">
        <ele>424</ele>
        <time>2011-06-26T08:16:35.000Z</time>
      </trkpt>
      <trkpt lat="46.02838" lon="1.05555">
        <ele>428</ele>
        <time>2011-06-26T08:16:42.000Z</time>
      </trkpt>
      <trkpt lat="46.02824" lon="1.0553">
        <ele>430</ele>
        <time>2011-06-26T08:16:49.000Z</time>
      </trkpt>
      <trkpt lat="46.02819" lon="1.05513">
        <ele>431</ele>
        <time>2011-06-26T08:16:52.000Z</time>
      </trkpt>
      <trkpt lat="46.02815" lon="1.05502">
        <ele>431</ele>
        <time>2011-06-26T08:16:54.000Z</time>
      </trkpt>
      <trkpt lat="46.02814" lon="1.05481">
        <ele>430</ele>
        <time>2011-06-26T08:16:58.000Z</time>
      </trkpt>
      <trkpt lat="46.02811" lon="1.05472">
        <ele>430</ele>
        <time>2011-06-26T08:17:00.000Z</time>
      </trkpt>
      <trkpt lat="46.02805" lon="1.05461">
        <ele>430</ele>
        <time>2011-06-26T08:17:03.000Z</time>
      </trkpt>
      <trkpt lat="46.02793" lon="1.05447">
        <ele>431</ele>
        <time>2011-06-26T08:17:14.000Z</time>
      </trkpt>
      <trkpt lat="46.02783" lon="1.05441">
        <ele>427</ele>
        <time>2011-06-26T08:17:24.000Z</time>
      </trkpt>
      <trkpt lat="46.02777" lon="1.05441">
        <ele>427</ele>
        <time>2011-06-26T08:17:29.000Z</time>
      </trkpt>
      <trkpt lat="46.02758" lon="1.05441">
        <ele>425</ele>
        <time>2011-06-26T08:17:41.000Z</time>
      </trkpt>
      <trkpt lat="46.02744" lon="1.05435">
        <ele>428</ele>
        <time>2011-06-26T08:17:51.000Z</time>
      </trkpt>
      <trkpt lat="46.02736" lon="1.05424">
        <ele>432</ele>
        <time>2011-06-26T08:17:57.000Z</time>
      </trkpt>
      <trkpt lat="46.02725" lon="1.05395">
        <ele>436</ele>
        <time>2011-06-26T08:18:07.000Z</time>
      </trkpt>
      <trkpt lat="46.02716" lon="1.0534">
        <ele>434</ele>
        <time>2011-06-26T08:18:30.000Z</time>
      </trkpt>
      <trkpt lat="46.02713" lon="1.05307">
        <ele>432</ele>
        <time>2011-06-26T08:18:51.000Z</time>
      </trkpt>
      <trkpt lat="46.02708" lon="1.05301">
        <ele>436</ele>
        <time>2011-06-26T08:18:57.000Z</time>
      </trkpt>
      <trkpt lat="46.0271" lon="1.05292">
        <ele>437</ele>
        <time>2011-06-26T08:19:02.000Z</time>
      </trkpt>
      <trkpt lat="46.02725" lon="1.05268">
        <ele>430</ele>
        <time>2011-06-26T08:19:13.000Z</time>
      </trkpt>
      <trkpt lat="46.02744" lon="1.05253">
        <ele>423</ele>
        <time>2011-06-26T08:19:19.000Z</time>
      </trkpt>
      <trkpt lat="46.02763" lon="1.05242">
        <ele>416</ele>
        <time>2011-06-26T08:19:24.000Z</time>
      </trkpt>
      <trkpt lat="46.0277" lon="1.05235">
        <ele>414</ele>
        <time>2011-06-26T08:19:26.000Z</time>
      </trkpt>
      <trkpt lat="46.0279" lon="1.05215">
        <ele>410</ele>
        <time>2011-06-26T08:19:30.000Z</time>
      </trkpt>
      <trkpt lat="46.02831" lon="1.05176">
        <ele>405</ele>
        <time>2011-06-26T08:19:39.000Z</time>
      </trkpt>
      <trkpt lat="46.02835" lon="1.05172">
        <ele>404</ele>
        <time>2011-06-26T08:19:40.000Z</time>
      </trkpt>
      <trkpt lat="46.02848" lon="1.05163">
        <ele>403</ele>
        <time>2011-06-26T08:19:43.000Z</time>
      </trkpt>
      <trkpt lat="46.02861" lon="1.05151">
        <ele>400</ele>
        <time>2011-06-26T08:19:46.000Z</time>
      </trkpt>
      <trkpt lat="46.02873" lon="1.05134">
        <ele>397</ele>
        <time>2011-06-26T08:19:49.000Z</time>
      </trkpt>
      <trkpt lat="46.02886" lon="1.05116">
        <ele>394</ele>
        <time>2011-06-26T08:19:53.000Z</time>
      </trkpt>
      <trkpt lat="46.02897" lon="1.05104">
        <ele>392</ele>
        <time>2011-06-26T08:19:56.000Z</time>
      </trkpt>
      <trkpt lat="46.02902" lon="1.05091">
        <ele>391</ele>
        <time>2011-06-26T08:19:58.000Z</time>
      </trkpt>
      <trkpt lat="46.02915" lon="1.05022">
        <ele>391</ele>
        <time>2011-06-26T08:20:09.000Z</time>
      </trkpt>
      <trkpt lat="46.02917" lon="1.05016">
        <ele>391</ele>
        <time>2011-06-26T08:20:10.000Z</time>
      </trkpt>
      <trkpt lat="46.02919" lon="1.05011">
        <ele>391</ele>
        <time>2011-06-26T08:20:11.000Z</time>
      </trkpt>
      <trkpt lat="46.02936" lon="1.04953">
        <ele>391</ele>
        <time>2011-06-26T08:20:22.000Z</time>
      </trkpt>
      <trkpt lat="46.02939" lon="1.04949">
        <ele>391</ele>
        <time>2011-06-26T08:20:23.000Z</time>
      </trkpt>
      <trkpt lat="46.02953" lon="1.04939">
        <ele>392</ele>
        <time>2011-06-26T08:20:26.000Z</time>
      </trkpt>
      <trkpt lat="46.02996" lon="1.04903">
        <ele>391</ele>
        <time>2011-06-26T08:20:32.000Z</time>
      </trkpt>
      <trkpt lat="46.03003" lon="1.04894">
        <ele>391</ele>
        <time>2011-06-26T08:20:33.000Z</time>
      </trkpt>
      <trkpt lat="46.03027" lon="1.0487">
        <ele>391</ele>
        <time>2011-06-26T08:20:36.000Z</time>
      </trkpt>
      <trkpt lat="46.03067" lon="1.0484">
        <ele>392</ele>
        <time>2011-06-26T08:20:42.000Z</time>
      </trkpt>
      <trkpt lat="46.03073" lon="1.04837">
        <ele>392</ele>
        <time>2011-06-26T08:20:43.000Z</time>
      </trkpt>
      <trkpt lat="46.03099" lon="1.04824">
        <ele>391</ele>
        <time>2011-06-26T08:20:47.000Z</time>
      </trkpt>
      <trkpt lat="46.03144" lon="1.04796">
        <ele>390</ele>
        <time>2011-06-26T08:20:54.000Z</time>
      </trkpt>
      <trkpt lat="46.0315" lon="1.04792">
        <ele>390</ele>
        <time>2011-06-26T08:20:55.000Z</time>
      </trkpt>
      <trkpt lat="46.03192" lon="1.04774">
        <ele>387</ele>
        <time>2011-06-26T08:21:03.000Z</time>
      </trkpt>
      <trkpt lat="46.03196" lon="1.04774">
        <ele>387</ele>
        <time>2011-06-26T08:21:04.000Z</time>
      </trkpt>
      <trkpt lat="46.03232" lon="1.04778">
        <ele>384</ele>
        <time>2011-06-26T08:21:11.000Z</time>
      </trkpt>
      <trkpt lat="46.03281" lon="1.04772">
        <ele>379</ele>
        <time>2011-06-26T08:21:20.000Z</time>
      </trkpt>
      <trkpt lat="46.03285" lon="1.04771">
        <ele>378</ele>
        <time>2011-06-26T08:21:21.000Z</time>
      </trkpt>
      <trkpt lat="46.03292" lon="1.04765">
        <ele>377</ele>
        <time>2011-06-26T08:21:23.000Z</time>
      </trkpt>
      <trkpt lat="46.03297" lon="1.04755">
        <ele>376</ele>
        <time>2011-06-26T08:21:25.000Z</time>
      </trkpt>
      <trkpt lat="46.03311" lon="1.04717">
        <ele>370</ele>
        <time>2011-06-26T08:21:31.000Z</time>
      </trkpt>
      <trkpt lat="46.03313" lon="1.04707">
        <ele>368</ele>
        <time>2011-06-26T08:21:33.000Z</time>
      </trkpt>
      <trkpt lat="46.0331" lon="1.04699">
        <ele>366</ele>
        <time>2011-06-26T08:21:36.000Z</time>
      </trkpt>
      <trkpt lat="46.03304" lon="1.04693">
        <ele>366</ele>
        <time>2011-06-26T08:21:40.000Z</time>
      </trkpt>
      <trkpt lat="46.03294" lon="1.04686">
        <ele>369</ele>
        <time>2011-06-26T08:21:47.000Z</time>
      </trkpt>
      <trkpt lat="46.03254" lon="1.04662">
        <ele>378</ele>
        <time>2011-06-26T08:22:13.000Z</time>
      </trkpt>
      <trkpt lat="46.03216" lon="1.04653">
        <ele>383</ele>
        <time>2011-06-26T08:22:30.000Z</time>
      </trkpt>
      <trkpt lat="46.03185" lon="1.04653">
        <ele>384</ele>
        <time>2011-06-26T08:22:40.000Z</time>
      </trkpt>
      <trkpt lat="46.03178" lon="1.0465">
        <ele>384</ele>
        <time>2011-06-26T08:22:42.000Z</time>
      </trkpt>
      <trkpt lat="46.0317" lon="1.04644">
        <ele>383</ele>
        <time>2011-06-26T08:22:45.000Z</time>
      </trkpt>
      <trkpt lat="46.03141" lon="1.04618">
        <ele>380</ele>
        <time>2011-06-26T08:22:58.000Z</time>
      </trkpt>
      <trkpt lat="46.03128" lon="1.04611">
        <ele>381</ele>
        <time>2011-06-26T08:23:06.000Z</time>
      </trkpt>
      <trkpt lat="46.03117" lon="1.04603">
        <ele>383</ele>
        <time>2011-06-26T08:23:15.000Z</time>
      </trkpt>
      <trkpt lat="46.03103" lon="1.04592">
        <ele>385</ele>
        <time>2011-06-26T08:23:28.000Z</time>
      </trkpt>
      <trkpt lat="46.03094" lon="1.04581">
        <ele>389</ele>
        <time>2011-06-26T08:23:40.000Z</time>
      </trkpt>
      <trkpt lat="46.03088" lon="1.04567">
        <ele>387</ele>
        <time>2011-06-26T08:23:52.000Z</time>
      </trkpt>
      <trkpt lat="46.03066" lon="1.04509">
        <ele>393</ele>
        <time>2011-06-26T08:24:33.000Z</time>
      </trkpt>
      <trkpt lat="46.03065" lon="1.04509">
        <ele>393</ele>
        <time>2011-06-26T08:24:34.000Z</time>
      </trkpt>
      <trkpt lat="46.03056" lon="1.045">
        <ele>398</ele>
        <time>2011-06-26T08:24:53.000Z</time>
      </trkpt>
      <trkpt lat="46.03048" lon="1.04493">
        <ele>400</ele>
        <time>2011-06-26T08:25:02.000Z</time>
      </trkpt>
      <trkpt lat="46.03038" lon="1.04486">
        <ele>403</ele>
        <time>2011-06-26T08:25:15.000Z</time>
      </trkpt>
      <trkpt lat="46.03004" lon="1.04472">
        <ele>408</ele>
        <time>2011-06-26T08:25:45.000Z</time>
      </trkpt>
      <trkpt lat="46.02988" lon="1.04466">
        <ele>410</ele>
        <time>2011-06-26T08:25:56.000Z</time>
      </trkpt>
      <trkpt lat="46.02942" lon="1.04452">
        <ele>418</ele>
        <time>2011-06-26T08:26:19.000Z</time>
      </trkpt>
      <trkpt lat="46.0294" lon="1.04452">
        <ele>419</ele>
        <time>2011-06-26T08:26:20.000Z</time>
      </trkpt>
      <trkpt lat="46.02937" lon="1.0445">
        <ele>421</ele>
        <time>2011-06-26T08:26:22.000Z</time>
      </trkpt>
      <trkpt lat="46.02918" lon="1.04439">
        <ele>426</ele>
        <time>2011-06-26T08:26:32.000Z</time>
      </trkpt>
      <trkpt lat="46.0288" lon="1.04403">
        <ele>433</ele>
        <time>2011-06-26T08:26:57.000Z</time>
      </trkpt>
      <trkpt lat="46.02879" lon="1.04402">
        <ele>433</ele>
        <time>2011-06-26T08:26:58.000Z</time>
      </trkpt>
      <trkpt lat="46.02848" lon="1.04369">
        <ele>432</ele>
        <time>2011-06-26T08:27:18.000Z</time>
      </trkpt>
      <trkpt lat="46.02839" lon="1.04358">
        <ele>432</ele>
        <time>2011-06-26T08:27:24.000Z</time>
      </trkpt>
      <trkpt lat="46.02811" lon="1.04316">
        <ele>431</ele>
        <time>2011-06-26T08:27:47.000Z</time>
      </trkpt>
      <trkpt lat="46.02803" lon="1.04296">
        <ele>432</ele>
        <time>2011-06-26T08:28:00.000Z</time>
      </trkpt>
      <trkpt lat="46.0279" lon="1.04255">
        <ele>428</ele>
        <time>2011-06-26T08:28:13.000Z</time>
      </trkpt>
      <trkpt lat="46.02775" lon="1.04236">
        <ele>428</ele>
        <time>2011-06-26T08:28:18.000Z</time>
      </trkpt>
      <trkpt lat="46.02738" lon="1.04201">
        <ele>427</ele>
        <time>2011-06-26T08:28:31.000Z</time>
      </trkpt>
      <trkpt lat="46.02735" lon="1.04199">
        <ele>426</ele>
        <time>2011-06-26T08:28:32.000Z</time>
      </trkpt>
      <trkpt lat="46.02693" lon="1.04174">
        <ele>425</ele>
        <time>2011-06-26T08:28:45.000Z</time>
      </trkpt>
      <trkpt lat="46.0269" lon="1.04173">
        <ele>425</ele>
        <time>2011-06-26T08:28:46.000Z</time>
      </trkpt>
      <trkpt lat="46.02684" lon="1.04171">
        <ele>425</ele>
        <time>2011-06-26T08:28:48.000Z</time>
      </trkpt>
      <trkpt lat="46.02654" lon="1.04164">
        <ele>426</ele>
        <time>2011-06-26T08:28:55.000Z</time>
      </trkpt>
      <trkpt lat="46.02607" lon="1.04171">
        <ele>427</ele>
        <time>2011-06-26T08:29:07.000Z</time>
      </trkpt>
      <trkpt lat="46.02602" lon="1.04171">
        <ele>427</ele>
        <time>2011-06-26T08:29:08.000Z</time>
      </trkpt>
      <trkpt lat="46.02588" lon="1.04168">
        <ele>426</ele>
        <time>2011-06-26T08:29:11.000Z</time>
      </trkpt>
      <trkpt lat="46.0256" lon="1.04153">
        <ele>424</ele>
        <time>2011-06-26T08:29:16.000Z</time>
      </trkpt>
      <trkpt lat="46.02551" lon="1.04148">
        <ele>423</ele>
        <time>2011-06-26T08:29:18.000Z</time>
      </trkpt>
      <trkpt lat="46.02546" lon="1.04141">
        <ele>422</ele>
        <time>2011-06-26T08:29:20.000Z</time>
      </trkpt>
      <trkpt lat="46.02537" lon="1.0411">
        <ele>424</ele>
        <time>2011-06-26T08:29:30.000Z</time>
      </trkpt>
      <trkpt lat="46.02534" lon="1.04087">
        <ele>426</ele>
        <time>2011-06-26T08:29:38.000Z</time>
      </trkpt>
      <trkpt lat="46.02533" lon="1.04065">
        <ele>424</ele>
        <time>2011-06-26T08:29:49.000Z</time>
      </trkpt>
      <trkpt lat="46.02527" lon="1.04039">
        <ele>428</ele>
        <time>2011-06-26T08:30:06.000Z</time>
      </trkpt>
      <trkpt lat="46.02517" lon="1.04026">
        <ele>431</ele>
        <time>2011-06-26T08:30:18.000Z</time>
      </trkpt>
      <trkpt lat="46.02514" lon="1.04021">
        <ele>432</ele>
        <time>2011-06-26T08:30:23.000Z</time>
      </trkpt>
      <trkpt lat="46.02509" lon="1.04017">
        <ele>433</ele>
        <time>2011-06-26T08:30:29.000Z</time>
      </trkpt>
      <trkpt lat="46.02502" lon="1.04011">
        <ele>439</ele>
        <time>2011-06-26T08:30:40.000Z</time>
      </trkpt>
      <trkpt lat="46.02486" lon="1.03998">
        <ele>446</ele>
        <time>2011-06-26T08:30:57.000Z</time>
      </trkpt>
      <trkpt lat="46.02475" lon="1.03994">
        <ele>452</ele>
        <time>2011-06-26T08:31:10.000Z</time>
      </trkpt>
      <trkpt lat="46.02459" lon="1.0399">
        <ele>456</ele>
        <time>2011-06-26T08:31:27.000Z</time>
      </trkpt>
      <trkpt lat="46.0245" lon="1.03989">
        <ele>456</ele>
        <time>2011-06-26T08:31:35.000Z</time>
      </trkpt>
      <trkpt lat="46.02441" lon="1.03983">
        <ele>455</ele>
        <time>2011-06-26T08:31:45.000Z</time>
      </trkpt>
      <trkpt lat="46.02414" lon="1.03962">
        <ele>451</ele>
        <time>2011-06-26T08:32:00.000Z</time>
      </trkpt>
      <trkpt lat="46.02392" lon="1.03934">
        <ele>451</ele>
        <time>2011-06-26T08:32:08.000Z</time>
      </trkpt>
      <trkpt lat="46.02386" lon="1.03914">
        <ele>451</ele>
        <time>2011-06-26T08:32:12.000Z</time>
      </trkpt>
      <trkpt lat="46.02385" lon="1.03894">
        <ele>449</ele>
        <time>2011-06-26T08:32:16.000Z</time>
      </trkpt>
      <trkpt lat="46.02386" lon="1.03886">
        <ele>448</ele>
        <time>2011-06-26T08:32:18.000Z</time>
      </trkpt>
      <trkpt lat="46.02387" lon="1.03863">
        <ele>447</ele>
        <time>2011-06-26T08:32:25.000Z</time>
      </trkpt>
      <trkpt lat="46.02388" lon="1.03822">
        <ele>447</ele>
        <time>2011-06-26T08:32:44.000Z</time>
      </trkpt>
      <trkpt lat="46.02389" lon="1.03807">
        <ele>452</ele>
        <time>2011-06-26T08:32:53.000Z</time>
      </trkpt>
      <trkpt lat="46.02389" lon="1.03799">
        <ele>454</ele>
        <time>2011-06-26T08:32:58.000Z</time>
      </trkpt>
      <trkpt lat="46.02391" lon="1.03782">
        <ele>453</ele>
        <time>2011-06-26T08:33:07.000Z</time>
      </trkpt>
      <trkpt lat="46.02394" lon="1.03756">
        <ele>451</ele>
        <time>2011-06-26T08:33:19.000Z</time>
      </trkpt>
      <trkpt lat="46.02393" lon="1.03743">
        <ele>452</ele>
        <time>2011-06-26T08:33:25.000Z</time>
      </trkpt>
      <trkpt lat="46.0239" lon="1.03731">
        <ele>454</ele>
        <time>2011-06-26T08:33:31.000Z</time>
      </trkpt>
      <trkpt lat="46.02385" lon="1.03725">
        <ele>458</ele>
        <time>2011-06-26T08:33:37.000Z</time>
      </trkpt>
      <trkpt lat="46.02375" lon="1.03714">
        <ele>463</ele>
        <time>2011-06-26T08:33:48.000Z</time>
      </trkpt>
      <trkpt lat="46.02345" lon="1.0368">
        <ele>469</ele>
        <time>2011-06-26T08:34:19.000Z</time>
      </trkpt>
      <trkpt lat="46.02337" lon="1.03673">
        <ele>472</ele>
        <time>2011-06-26T08:34:34.000Z</time>
      </trkpt>
      <trkpt lat="46.02334" lon="1.03664">
        <ele>475</ele>
        <time>2011-06-26T08:34:56.000Z</time>
      </trkpt>
      <trkpt lat="46.02334" lon="1.03655">
        <ele>476</ele>
        <time>2011-06-26T08:35:01.000Z</time>
      </trkpt>
      <trkpt lat="46.02336" lon="1.03645">
        <ele>477</ele>
        <time>2011-06-26T08:35:05.000Z</time>
      </trkpt>
      <trkpt lat="46.0234" lon="1.03614">
        <ele>475</ele>
        <time>2011-06-26T08:35:15.000Z</time>
      </trkpt>
      <trkpt lat="46.0233" lon="1.03592">
        <ele>474</ele>
        <time>2011-06-26T08:35:35.000Z</time>
      </trkpt>
      <trkpt lat="46.02322" lon="1.03578">
        <ele>476</ele>
        <time>2011-06-26T08:35:43.000Z</time>
      </trkpt>
      <trkpt lat="46.0232" lon="1.0357">
        <ele>477</ele>
        <time>2011-06-26T08:35:47.000Z</time>
      </trkpt>
      <trkpt lat="46.02316" lon="1.03557">
        <ele>478</ele>
        <time>2011-06-26T08:35:53.000Z</time>
      </trkpt>
      <trkpt lat="46.02314" lon="1.03548">
        <ele>477</ele>
        <time>2011-06-26T08:35:57.000Z</time>
      </trkpt>
      <trkpt lat="46.0231" lon="1.03529">
        <ele>478</ele>
        <time>2011-06-26T08:36:05.000Z</time>
      </trkpt>
      <trkpt lat="46.02307" lon="1.0351">
        <ele>479</ele>
        <time>2011-06-26T08:36:13.000Z</time>
      </trkpt>
      <trkpt lat="46.02306" lon="1.03502">
        <ele>479</ele>
        <time>2011-06-26T08:36:17.000Z</time>
      </trkpt>
      <trkpt lat="46.02304" lon="1.03447">
        <ele>482</ele>
        <time>2011-06-26T08:36:43.000Z</time>
      </trkpt>
      <trkpt lat="46.02302" lon="1.03418">
        <ele>486</ele>
        <time>2011-06-26T08:36:57.000Z</time>
      </trkpt>
      <trkpt lat="46.02303" lon="1.03408">
        <ele>486</ele>
        <time>2011-06-26T08:37:04.000Z</time>
      </trkpt>
      <trkpt lat="46.02303" lon="1.03391">
        <ele>486</ele>
        <time>2011-06-26T08:37:13.000Z</time>
      </trkpt>
      <trkpt lat="46.02302" lon="1.03383">
        <ele>487</ele>
        <time>2011-06-26T08:37:17.000Z</time>
      </trkpt>
      <trkpt lat="46.02299" lon="1.03369">
        <ele>489</ele>
        <time>2011-06-26T08:37:23.000Z</time>
      </trkpt>
      <trkpt lat="46.02294" lon="1.03357">
        <ele>491</ele>
        <time>2011-06-26T08:37:29.000Z</time>
      </trkpt>
      <trkpt lat="46.02292" lon="1.03348">
        <ele>491</ele>
        <time>2011-06-26T08:37:33.000Z</time>
      </trkpt>
      <trkpt lat="46.02291" lon="1.03338">
        <ele>492</ele>
        <time>2011-06-26T08:37:37.000Z</time>
      </trkpt>
      <trkpt lat="46.02295" lon="1.0332">
        <ele>494</ele>
        <time>2011-06-26T08:37:45.000Z</time>
      </trkpt>
      <trkpt lat="46.02302" lon="1.0331">
        <ele>496</ele>
        <time>2011-06-26T08:37:51.000Z</time>
      </trkpt>
      <trkpt lat="46.02315" lon="1.03303">
        <ele>497</ele>
        <time>2011-06-26T08:37:57.000Z</time>
      </trkpt>
      <trkpt lat="46.02331" lon="1.03306">
        <ele>497</ele>
        <time>2011-06-26T08:38:02.000Z</time>
      </trkpt>
      <trkpt lat="46.02344" lon="1.03309">
        <ele>496</ele>
        <time>2011-06-26T08:38:05.000Z</time>
      </trkpt>
      <trkpt lat="46.0235" lon="1.03302">
        <ele>496</ele>
        <time>2011-06-26T08:38:07.000Z</time>
      </trkpt>
      <trkpt lat="46.02356" lon="1.03292">
        <ele>494</ele>
        <time>2011-06-26T08:38:10.000Z</time>
      </trkpt>
      <trkpt lat="46.02393" lon="1.03252">
        <ele>491</ele>
        <time>2011-06-26T08:38:19.000Z</time>
      </trkpt>
      <trkpt lat="46.02399" lon="1.03244">
        <ele>491</ele>
        <time>2011-06-26T08:38:20.000Z</time>
      </trkpt>
      <trkpt lat="46.02404" lon="1.03235">
        <ele>490</ele>
        <time>2011-06-26T08:38:21.000Z</time>
      </trkpt>
      <trkpt lat="46.02426" lon="1.03174">
        <ele>489</ele>
        <time>2011-06-26T08:38:28.000Z</time>
      </trkpt>
      <trkpt lat="46.02429" lon="1.03173">
        <ele>489</ele>
        <time>2011-06-26T08:38:29.000Z</time>
      </trkpt>
      <trkpt lat="46.02438" lon="1.03174">
        <ele>489</ele>
        <time>2011-06-26T08:38:32.000Z</time>
      </trkpt>
      <trkpt lat="46.02483" lon="1.0318">
        <ele>491</ele>
        <time>2011-06-26T08:38:47.000Z</time>
      </trkpt>
      <trkpt lat="46.02485" lon="1.0318">
        <ele>491</ele>
        <time>2011-06-26T08:38:48.000Z</time>
      </trkpt>
      <trkpt lat="46.02533" lon="1.03182">
        <ele>488</ele>
        <time>2011-06-26T08:39:07.000Z</time>
      </trkpt>
      <trkpt lat="46.02536" lon="1.03183">
        <ele>488</ele>
        <time>2011-06-26T08:39:08.000Z</time>
      </trkpt>
      <trkpt lat="46.02541" lon="1.03185">
        <ele>487</ele>
        <time>2011-06-26T08:39:10.000Z</time>
      </trkpt>
      <trkpt lat="46.02589" lon="1.03192">
        <ele>483</ele>
        <time>2011-06-26T08:39:22.000Z</time>
      </trkpt>
      <trkpt lat="46.02592" lon="1.03193">
        <ele>483</ele>
        <time>2011-06-26T08:39:23.000Z</time>
      </trkpt>
      <trkpt lat="46.02636" lon="1.03208">
        <ele>482</ele>
        <time>2011-06-26T08:39:33.000Z</time>
      </trkpt>
      <trkpt lat="46.02641" lon="1.03209">
        <ele>481</ele>
        <time>2011-06-26T08:39:34.000Z</time>
      </trkpt>
      <trkpt lat="46.0269" lon="1.03221">
        <ele>480</ele>
        <time>2011-06-26T08:39:44.000Z</time>
      </trkpt>
      <trkpt lat="46.02696" lon="1.03223">
        <ele>480</ele>
        <time>2011-06-26T08:39:45.000Z</time>
      </trkpt>
      <trkpt lat="46.02718" lon="1.03235">
        <ele>480</ele>
        <time>2011-06-26T08:39:50.000Z</time>
      </trkpt>
      <trkpt lat="46.02763" lon="1.03265">
        <ele>480</ele>
        <time>2011-06-26T08:40:01.000Z</time>
      </trkpt>
      <trkpt lat="46.02768" lon="1.03267">
        <ele>480</ele>
        <time>2011-06-26T08:40:02.000Z</time>
      </trkpt>
      <trkpt lat="46.02773" lon="1.03269">
        <ele>480</ele>
        <time>2011-06-26T08:40:03.000Z</time>
      </trkpt>
      <trkpt lat="46.02801" lon="1.03271">
        <ele>479</ele>
        <time>2011-06-26T08:40:08.000Z</time>
      </trkpt>
      <trkpt lat="46.02848" lon="1.03266">
        <ele>478</ele>
        <time>2011-06-26T08:40:17.000Z</time>
      </trkpt>
      <trkpt lat="46.02851" lon="1.03265">
        <ele>478</ele>
        <time>2011-06-26T08:40:18.000Z</time>
      </trkpt>
      <trkpt lat="46.02896" lon="1.03248">
        <ele>483</ele>
        <time>2011-06-26T08:40:27.000Z</time>
      </trkpt>
      <trkpt lat="46.029" lon="1.03246">
        <ele>483</ele>
        <time>2011-06-26T08:40:28.000Z</time>
      </trkpt>
      <trkpt lat="46.02915" lon="1.03244">
        <ele>484</ele>
        <time>2011-06-26T08:40:31.000Z</time>
      </trkpt>
      <trkpt lat="46.02949" lon="1.03235">
        <ele>483</ele>
        <time>2011-06-26T08:40:42.000Z</time>
      </trkpt>
      <trkpt lat="46.0297" lon="1.03224">
        <ele>481</ele>
        <time>2011-06-26T08:40:49.000Z</time>
      </trkpt>
      <trkpt lat="46.03004" lon="1.03196">
        <ele>479</ele>
        <time>2011-06-26T08:40:59.000Z</time>
      </trkpt>
      <trkpt lat="46.03017" lon="1.03186">
        <ele>479</ele>
        <time>2011-06-26T08:41:02.000Z</time>
      </trkpt>
      <trkpt lat="46.03052" lon="1.03158">
        <ele>478</ele>
        <time>2011-06-26T08:41:09.000Z</time>
      </trkpt>
      <trkpt lat="46.03061" lon="1.0315">
        <ele>478</ele>
        <time>2011-06-26T08:41:12.000Z</time>
      </trkpt>
      <trkpt lat="46.03066" lon="1.03146">
        <ele>478</ele>
        <time>2011-06-26T08:41:14.000Z</time>
      </trkpt>
      <trkpt lat="46.0308" lon="1.03133">
        <ele>476</ele>
        <time>2011-06-26T08:41:18.000Z</time>
      </trkpt>
      <trkpt lat="46.03119" lon="1.03091">
        <ele>469</ele>
        <time>2011-06-26T08:41:29.000Z</time>
      </trkpt>
      <trkpt lat="46.03123" lon="1.03085">
        <ele>468</ele>
        <time>2011-06-26T08:41:30.000Z</time>
      </trkpt>
      <trkpt lat="46.03131" lon="1.03073">
        <ele>467</ele>
        <time>2011-06-26T08:41:32.000Z</time>
      </trkpt>
      <trkpt lat="46.03161" lon="1.03018">
        <ele>464</ele>
        <time>2011-06-26T08:41:40.000Z</time>
      </trkpt>
      <trkpt lat="46.03164" lon="1.03013">
        <ele>464</ele>
        <time>2011-06-26T08:41:41.000Z</time>
      </trkpt>
      <trkpt lat="46.03172" lon="1.03004">
        <ele>463</ele>
        <time>2011-06-26T08:41:43.000Z</time>
      </trkpt>
      <trkpt lat="46.03209" lon="1.02962">
        <ele>459</ele>
        <time>2011-06-26T08:41:52.000Z</time>
      </trkpt>
      <trkpt lat="46.03214" lon="1.02957">
        <ele>458</ele>
        <time>2011-06-26T08:41:53.000Z</time>
      </trkpt>
      <trkpt lat="46.03226" lon="1.02942">
        <ele>457</ele>
        <time>2011-06-26T08:41:56.000Z</time>
      </trkpt>
      <trkpt lat="46.03247" lon="1.02909">
        <ele>453</ele>
        <time>2011-06-26T08:42:05.000Z</time>
      </trkpt>
      <trkpt lat="46.03247" lon="1.029">
        <ele>453</ele>
        <time>2011-06-26T08:42:07.000Z</time>
      </trkpt>
      <trkpt lat="46.03245" lon="1.0289">
        <ele>452</ele>
        <time>2011-06-26T08:42:09.000Z</time>
      </trkpt>
      <trkpt lat="46.03243" lon="1.02858">
        <ele>451</ele>
        <time>2011-06-26T08:42:14.000Z</time>
      </trkpt>
      <trkpt lat="46.03244" lon="1.02844">
        <ele>450</ele>
        <time>2011-06-26T08:42:17.000Z</time>
      </trkpt>
      <trkpt lat="46.03245" lon="1.02828">
        <ele>449</ele>
        <time>2011-06-26T08:42:20.000Z</time>
      </trkpt>
      <trkpt lat="46.03249" lon="1.02806">
        <ele>448</ele>
        <time>2011-06-26T08:42:24.000Z</time>
      </trkpt>
      <trkpt lat="46.03251" lon="1.02795">
        <ele>447</ele>
        <time>2011-06-26T08:42:26.000Z</time>
      </trkpt>
      <trkpt lat="46.03259" lon="1.02775">
        <ele>445</ele>
        <time>2011-06-26T08:42:30.000Z</time>
      </trkpt>
      <trkpt lat="46.03281" lon="1.0274">
        <ele>439</ele>
        <time>2011-06-26T08:42:40.000Z</time>
      </trkpt>
      <trkpt lat="46.033" lon="1.02726">
        <ele>435</ele>
        <time>2011-06-26T08:42:48.000Z</time>
      </trkpt>
      <trkpt lat="46.03323" lon="1.02711">
        <ele>434</ele>
        <time>2011-06-26T08:42:58.000Z</time>
      </trkpt>
      <trkpt lat="46.03331" lon="1.02708">
        <ele>434</ele>
        <time>2011-06-26T08:43:01.000Z</time>
      </trkpt>
      <trkpt lat="46.03356" lon="1.02704">
        <ele>432</ele>
        <time>2011-06-26T08:43:12.000Z</time>
      </trkpt>
      <trkpt lat="46.03379" lon="1.02711">
        <ele>429</ele>
        <time>2011-06-26T08:43:21.000Z</time>
      </trkpt>
      <trkpt lat="46.03394" lon="1.02702">
        <ele>424</ele>
        <time>2011-06-26T08:43:30.000Z</time>
      </trkpt>
      <trkpt lat="46.03403" lon="1.02689">
        <ele>421</ele>
        <time>2011-06-26T08:43:38.000Z</time>
      </trkpt>
      <trkpt lat="46.03406" lon="1.02679">
        <ele>421</ele>
        <time>2011-06-26T08:43:41.000Z</time>
      </trkpt>
      <trkpt lat="46.03408" lon="1.02672">
        <ele>420</ele>
        <time>2011-06-26T08:43:43.000Z</time>
      </trkpt>
      <trkpt lat="46.03412" lon="1.02656">
        <ele>419</ele>
        <time>2011-06-26T08:43:47.000Z</time>
      </trkpt>
      <trkpt lat="46.03417" lon="1.02628">
        <ele>417</ele>
        <time>2011-06-26T08:43:56.000Z</time>
      </trkpt>
      <trkpt lat="46.03419" lon="1.02618">
        <ele>417</ele>
        <time>2011-06-26T08:43:58.000Z</time>
      </trkpt>
      <trkpt lat="46.03427" lon="1.02589">
        <ele>415</ele>
        <time>2011-06-26T08:44:04.000Z</time>
      </trkpt>
      <trkpt lat="46.03435" lon="1.02562">
        <ele>413</ele>
        <time>2011-06-26T08:44:12.000Z</time>
      </trkpt>
      <trkpt lat="46.03435" lon="1.02551">
        <ele>412</ele>
        <time>2011-06-26T08:44:14.000Z</time>
      </trkpt>
      <trkpt lat="46.03434" lon="1.0254">
        <ele>411</ele>
        <time>2011-06-26T08:44:16.000Z</time>
      </trkpt>
      <trkpt lat="46.03433" lon="1.02503">
        <ele>410</ele>
        <time>2011-06-26T08:44:23.000Z</time>
      </trkpt>
      <trkpt lat="46.03435" lon="1.02455">
        <ele>409</ele>
        <time>2011-06-26T08:44:32.000Z</time>
      </trkpt>
      <trkpt lat="46.03428" lon="1.02452">
        <ele>408</ele>
        <time>2011-06-26T08:44:35.000Z</time>
      </trkpt>
      <trkpt lat="46.03407" lon="1.02449">
        <ele>406</ele>
        <time>2011-06-26T08:44:42.000Z</time>
      </trkpt>
      <trkpt lat="46.03396" lon="1.02445">
        <ele>405</ele>
        <time>2011-06-26T08:44:45.000Z</time>
      </trkpt>
      <trkpt lat="46.03389" lon="1.02446">
        <ele>404</ele>
        <time>2011-06-26T08:44:47.000Z</time>
      </trkpt>
      <trkpt lat="46.03374" lon="1.02457">
        <ele>403</ele>
        <time>2011-06-26T08:44:51.000Z</time>
      </trkpt>
      <trkpt lat="46.03338" lon="1.02483">
        <ele>401</ele>
        <time>2011-06-26T08:44:59.000Z</time>
      </trkpt>
      <trkpt lat="46.03306" lon="1.02502">
        <ele>402</ele>
        <time>2011-06-26T08:45:08.000Z</time>
      </trkpt>
      <trkpt lat="46.03266" lon="1.02538">
        <ele>405</ele>
        <time>2011-06-26T08:45:20.000Z</time>
      </trkpt>
      <trkpt lat="46.03263" lon="1.02541">
        <ele>406</ele>
        <time>2011-06-26T08:45:21.000Z</time>
      </trkpt>
      <trkpt lat="46.0325" lon="1.02551">
        <ele>406</ele>
        <time>2011-06-26T08:45:25.000Z</time>
      </trkpt>
      <trkpt lat="46.03237" lon="1.02553">
        <ele>406</ele>
        <time>2011-06-26T08:45:28.000Z</time>
      </trkpt>
      <trkpt lat="46.03225" lon="1.02542">
        <ele>404</ele>
        <time>2011-06-26T08:45:31.000Z</time>
      </trkpt>
      <trkpt lat="46.03188" lon="1.02498">
        <ele>402</ele>
        <time>2011-06-26T08:45:39.000Z</time>
      </trkpt>
      <trkpt lat="46.03185" lon="1.02495">
        <ele>402</ele>
        <time>2011-06-26T08:45:40.000Z</time>
      </trkpt>
      <trkpt lat="46.03176" lon="1.02483">
        <ele>402</ele>
        <time>2011-06-26T08:45:44.000Z</time>
      </trkpt>
      <trkpt lat="46.03176" lon="1.02471">
        <ele>402</ele>
        <time>2011-06-26T08:45:47.000Z</time>
      </trkpt>
      <trkpt lat="46.03179" lon="1.02452">
        <ele>401</ele>
        <time>2011-06-26T08:45:51.000Z</time>
      </trkpt>
      <trkpt lat="46.03201" lon="1.02394">
        <ele>395</ele>
        <time>2011-06-26T08:45:59.000Z</time>
      </trkpt>
      <trkpt lat="46.03204" lon="1.02389">
        <ele>395</ele>
        <time>2011-06-26T08:46:00.000Z</time>
      </trkpt>
      <trkpt lat="46.03228" lon="1.02354">
        <ele>400</ele>
        <time>2011-06-26T08:46:10.000Z</time>
      </trkpt>
      <trkpt lat="46.0324" lon="1.02343">
        <ele>401</ele>
        <time>2011-06-26T08:46:14.000Z</time>
      </trkpt>
      <trkpt lat="46.03249" lon="1.02329">
        <ele>401</ele>
        <time>2011-06-26T08:46:17.000Z</time>
      </trkpt>
      <trkpt lat="46.03282" lon="1.02279">
        <ele>400</ele>
        <time>2011-06-26T08:46:26.000Z</time>
      </trkpt>
      <trkpt lat="46.03286" lon="1.02273">
        <ele>400</ele>
        <time>2011-06-26T08:46:27.000Z</time>
      </trkpt>
      <trkpt lat="46.0332" lon="1.02229">
        <ele>397</ele>
        <time>2011-06-26T08:46:34.000Z</time>
      </trkpt>
      <trkpt lat="46.03326" lon="1.02222">
        <ele>396</ele>
        <time>2011-06-26T08:46:35.000Z</time>
      </trkpt>
      <trkpt lat="46.03352" lon="1.02181">
        <ele>393</ele>
        <time>2011-06-26T08:46:41.000Z</time>
      </trkpt>
      <trkpt lat="46.03354" lon="1.02158">
        <ele>392</ele>
        <time>2011-06-26T08:46:44.000Z</time>
      </trkpt>
      <trkpt lat="46.03353" lon="1.02141">
        <ele>391</ele>
        <time>2011-06-26T08:46:46.000Z</time>
      </trkpt>
      <trkpt lat="46.03354" lon="1.02118">
        <ele>387</ele>
        <time>2011-06-26T08:46:53.000Z</time>
      </trkpt>
      <trkpt lat="46.03332" lon="1.02121">
        <ele>384</ele>
        <time>2011-06-26T08:47:02.000Z</time>
      </trkpt>
      <trkpt lat="46.03297" lon="1.02129">
        <ele>386</ele>
        <time>2011-06-26T08:47:15.000Z</time>
      </trkpt>
      <trkpt lat="46.03282" lon="1.02131">
        <ele>387</ele>
        <time>2011-06-26T08:47:20.000Z</time>
      </trkpt>
      <trkpt lat="46.03246" lon="1.02144">
        <ele>387</ele>
        <time>2011-06-26T08:47:33.000Z</time>
      </trkpt>
      <trkpt lat="46.0323" lon="1.02146">
        <ele>387</ele>
        <time>2011-06-26T08:47:38.000Z</time>
      </trkpt>
      <trkpt lat="46.0322" lon="1.02146">
        <ele>386</ele>
        <time>2011-06-26T08:47:41.000Z</time>
      </trkpt>
      <trkpt lat="46.03185" lon="1.02137">
        <ele>386</ele>
        <time>2011-06-26T08:47:53.000Z</time>
      </trkpt>
      <trkpt lat="46.03178" lon="1.02132">
        <ele>385</ele>
        <time>2011-06-26T08:47:55.000Z</time>
      </trkpt>
      <trkpt lat="46.03162" lon="1.02119">
        <ele>386</ele>
        <time>2011-06-26T08:48:01.000Z</time>
      </trkpt>
      <trkpt lat="46.03149" lon="1.02114">
        <ele>385</ele>
        <time>2011-06-26T08:48:05.000Z</time>
      </trkpt>
      <trkpt lat="46.03143" lon="1.02114">
        <ele>385</ele>
        <time>2011-06-26T08:48:07.000Z</time>
      </trkpt>
      <trkpt lat="46.03097" lon="1.02112">
        <ele>393</ele>
        <time>2011-06-26T08:48:23.000Z</time>
      </trkpt>
      <trkpt lat="46.03095" lon="1.02112">
        <ele>393</ele>
        <time>2011-06-26T08:48:24.000Z</time>
      </trkpt>
      <trkpt lat="46.0309" lon="1.02113">
        <ele>394</ele>
        <time>2011-06-26T08:48:27.000Z</time>
      </trkpt>
      <trkpt lat="46.03071" lon="1.02122">
        <ele>399</ele>
        <time>2011-06-26T08:48:39.000Z</time>
      </trkpt>
      <trkpt lat="46.03065" lon="1.0212">
        <ele>401</ele>
        <time>2011-06-26T08:48:43.000Z</time>
      </trkpt>
      <trkpt lat="46.03059" lon="1.02114">
        <ele>401</ele>
        <time>2011-06-26T08:48:47.000Z</time>
      </trkpt>
      <trkpt lat="46.03047" lon="1.02102">
        <ele>401</ele>
        <time>2011-06-26T08:48:55.000Z</time>
      </trkpt>
      <trkpt lat="46.03037" lon="1.02099">
        <ele>401</ele>
        <time>2011-06-26T08:49:01.000Z</time>
      </trkpt>
      <trkpt lat="46.03031" lon="1.02096">
        <ele>401</ele>
        <time>2011-06-26T08:49:05.000Z</time>
      </trkpt>
      <trkpt lat="46.03008" lon="1.02076">
        <ele>407</ele>
        <time>2011-06-26T08:49:20.000Z</time>
      </trkpt>
      <trkpt lat="46.02999" lon="1.02078">
        <ele>409</ele>
        <time>2011-06-26T08:49:27.000Z</time>
      </trkpt>
      <trkpt lat="46.02978" lon="1.02077">
        <ele>409</ele>
        <time>2011-06-26T08:49:39.000Z</time>
      </trkpt>
      <trkpt lat="46.02932" lon="1.02084">
        <ele>405</ele>
        <time>2011-06-26T08:50:02.000Z</time>
      </trkpt>
      <trkpt lat="46.0293" lon="1.02084">
        <ele>404</ele>
        <time>2011-06-26T08:50:03.000Z</time>
      </trkpt>
      <trkpt lat="46.02913" lon="1.02086">
        <ele>403</ele>
        <time>2011-06-26T08:50:10.000Z</time>
      </trkpt>
      <trkpt lat="46.02872" lon="1.02107">
        <ele>403</ele>
        <time>2011-06-26T08:50:27.000Z</time>
      </trkpt>
      <trkpt lat="46.02869" lon="1.02108">
        <ele>403</ele>
        <time>2011-06-26T08:50:28.000Z</time>
      </trkpt>
      <trkpt lat="46.02843" lon="1.02118">
        <ele>405</ele>
        <time>2011-06-26T08:50:40.000Z</time>
      </trkpt>
      <trkpt lat="46.02813" lon="1.02121">
        <ele>408</ele>
        <time>2011-06-26T08:50:56.000Z</time>
      </trkpt>
      <trkpt lat="46.02767" lon="1.02125">
        <ele>414</ele>
        <time>2011-06-26T08:51:18.000Z</time>
      </trkpt>
      <trkpt lat="46.02764" lon="1.02125">
        <ele>414</ele>
        <time>2011-06-26T08:51:19.000Z</time>
      </trkpt>
      <trkpt lat="46.0275" lon="1.02128">
        <ele>415</ele>
        <time>2011-06-26T08:51:24.000Z</time>
      </trkpt>
      <trkpt lat="46.0274" lon="1.02129">
        <ele>416</ele>
        <time>2011-06-26T08:51:27.000Z</time>
      </trkpt>
      <trkpt lat="46.02695" lon="1.02144">
        <ele>420</ele>
        <time>2011-06-26T08:51:43.000Z</time>
      </trkpt>
      <trkpt lat="46.02692" lon="1.02146">
        <ele>420</ele>
        <time>2011-06-26T08:51:44.000Z</time>
      </trkpt>
      <trkpt lat="46.02656" lon="1.02152">
        <ele>417</ele>
        <time>2011-06-26T08:51:55.000Z</time>
      </trkpt>
      <trkpt lat="46.02625" lon="1.0215">
        <ele>416</ele>
        <time>2011-06-26T08:52:05.000Z</time>
      </trkpt>
      <trkpt lat="46.02579" lon="1.02158">
        <ele>415</ele>
        <time>2011-06-26T08:52:19.000Z</time>
      </trkpt>
      <trkpt lat="46.02576" lon="1.02158">
        <ele>415</ele>
        <time>2011-06-26T08:52:20.000Z</time>
      </trkpt>
      <trkpt lat="46.02552" lon="1.02157">
        <ele>415</ele>
        <time>2011-06-26T08:52:27.000Z</time>
      </trkpt>
      <trkpt lat="46.02506" lon="1.02153">
        <ele>414</ele>
        <time>2011-06-26T08:52:41.000Z</time>
      </trkpt>
      <trkpt lat="46.02502" lon="1.02153">
        <ele>414</ele>
        <time>2011-06-26T08:52:42.000Z</time>
      </trkpt>
      <trkpt lat="46.02478" lon="1.0215">
        <ele>415</ele>
        <time>2011-06-26T08:52:50.000Z</time>
      </trkpt>
      <trkpt lat="46.02433" lon="1.02155">
        <ele>418</ele>
        <time>2011-06-26T08:53:03.000Z</time>
      </trkpt>
      <trkpt lat="46.02429" lon="1.02151">
        <ele>418</ele>
        <time>2011-06-26T08:53:04.000Z</time>
      </trkpt>
      <trkpt lat="46.02425" lon="1.02147">
        <ele>418</ele>
        <time>2011-06-26T08:53:05.000Z</time>
      </trkpt>
      <trkpt lat="46.02421" lon="1.02135">
        <ele>418</ele>
        <time>2011-06-26T08:53:07.000Z</time>
      </trkpt>
      <trkpt lat="46.0242" lon="1.021">
        <ele>416</ele>
        <time>2011-06-26T08:53:13.000Z</time>
      </trkpt>
      <trkpt lat="46.02419" lon="1.02087">
        <ele>416</ele>
        <time>2011-06-26T08:53:16.000Z</time>
      </trkpt>
      <trkpt lat="46.02415" lon="1.02076">
        <ele>416</ele>
        <time>2011-06-26T08:53:19.000Z</time>
      </trkpt>
      <trkpt lat="46.02401" lon="1.02051">
        <ele>417</ele>
        <time>2011-06-26T08:53:31.000Z</time>
      </trkpt>
      <trkpt lat="46.02391" lon="1.02044">
        <ele>418</ele>
        <time>2011-06-26T08:53:39.000Z</time>
      </trkpt>
      <trkpt lat="46.02385" lon="1.0204">
        <ele>417</ele>
        <time>2011-06-26T08:53:45.000Z</time>
      </trkpt>
      <trkpt lat="46.0238" lon="1.02035">
        <ele>418</ele>
        <time>2011-06-26T08:53:51.000Z</time>
      </trkpt>
      <trkpt lat="46.02361" lon="1.02019">
        <ele>419</ele>
        <time>2011-06-26T08:54:08.000Z</time>
      </trkpt>
      <trkpt lat="46.02351" lon="1.02011">
        <ele>418</ele>
        <time>2011-06-26T08:54:16.000Z</time>
      </trkpt>
      <trkpt lat="46.02338" lon="1.01995">
        <ele>421</ele>
        <time>2011-06-26T08:54:26.000Z</time>
      </trkpt>
      <trkpt lat="46.02329" lon="1.01974">
        <ele>424</ele>
        <time>2011-06-26T08:54:36.000Z</time>
      </trkpt>
      <trkpt lat="46.02324" lon="1.01958">
        <ele>427</ele>
        <time>2011-06-26T08:54:45.000Z</time>
      </trkpt>
      <trkpt lat="46.02326" lon="1.01944">
        <ele>430</ele>
        <time>2011-06-26T08:54:53.000Z</time>
      </trkpt>
      <trkpt lat="46.02328" lon="1.01936">
        <ele>431</ele>
        <time>2011-06-26T08:54:58.000Z</time>
      </trkpt>
      <trkpt lat="46.02332" lon="1.01919">
        <ele>437</ele>
        <time>2011-06-26T08:55:09.000Z</time>
      </trkpt>
      <trkpt lat="46.02331" lon="1.01908">
        <ele>439</ele>
        <time>2011-06-26T08:55:15.000Z</time>
      </trkpt>
      <trkpt lat="46.02324" lon="1.01864">
        <ele>441</ele>
        <time>2011-06-26T08:55:38.000Z</time>
      </trkpt>
      <trkpt lat="46.02322" lon="1.01857">
        <ele>441</ele>
        <time>2011-06-26T08:55:42.000Z</time>
      </trkpt>
      <trkpt lat="46.02318" lon="1.01845">
        <ele>442</ele>
        <time>2011-06-26T08:55:49.000Z</time>
      </trkpt>
      <trkpt lat="46.02308" lon="1.01813">
        <ele>445</ele>
        <time>2011-06-26T08:56:08.000Z</time>
      </trkpt>
      <trkpt lat="46.02305" lon="1.01806">
        <ele>446</ele>
        <time>2011-06-26T08:56:15.000Z</time>
      </trkpt>
      <trkpt lat="46.02304" lon="1.01793">
        <ele>449</ele>
        <time>2011-06-26T08:56:23.000Z</time>
      </trkpt>
      <trkpt lat="46.02303" lon="1.01753">
        <ele>450</ele>
        <time>2011-06-26T08:56:40.000Z</time>
      </trkpt>
      <trkpt lat="46.02308" lon="1.01687">
        <ele>452</ele>
        <time>2011-06-26T08:57:05.000Z</time>
      </trkpt>
      <trkpt lat="46.02308" lon="1.01684">
        <ele>452</ele>
        <time>2011-06-26T08:57:06.000Z</time>
      </trkpt>
      <trkpt lat="46.0231" lon="1.01625">
        <ele>462</ele>
        <time>2011-06-26T08:57:37.000Z</time>
      </trkpt>
      <trkpt lat="46.02307" lon="1.01613">
        <ele>463</ele>
        <time>2011-06-26T08:57:43.000Z</time>
      </trkpt>
      <trkpt lat="46.02301" lon="1.01594">
        <ele>463</ele>
        <time>2011-06-26T08:57:53.000Z</time>
      </trkpt>
      <trkpt lat="46.02296" lon="1.01544">
        <ele>461</ele>
        <time>2011-06-26T08:58:21.000Z</time>
      </trkpt>
      <trkpt lat="46.02295" lon="1.01535">
        <ele>461</ele>
        <time>2011-06-26T08:58:26.000Z</time>
      </trkpt>
      <trkpt lat="46.02293" lon="1.0151">
        <ele>464</ele>
        <time>2011-06-26T08:58:38.000Z</time>
      </trkpt>
      <trkpt lat="46.02291" lon="1.01485">
        <ele>466</ele>
        <time>2011-06-26T08:58:50.000Z</time>
      </trkpt>
      <trkpt lat="46.02286" lon="1.01455">
        <ele>468</ele>
        <time>2011-06-26T08:59:04.000Z</time>
      </trkpt>
      <trkpt lat="46.02285" lon="1.01446">
        <ele>469</ele>
        <time>2011-06-26T08:59:08.000Z</time>
      </trkpt>
      <trkpt lat="46.02283" lon="1.01428">
        <ele>471</ele>
        <time>2011-06-26T08:59:16.000Z</time>
      </trkpt>
      <trkpt lat="46.02285" lon="1.01362">
        <ele>474</ele>
        <time>2011-06-26T08:59:37.000Z</time>
      </trkpt>
      <trkpt lat="46.02286" lon="1.01358">
        <ele>474</ele>
        <time>2011-06-26T08:59:38.000Z</time>
      </trkpt>
      <trkpt lat="46.02287" lon="1.01348">
        <ele>474</ele>
        <time>2011-06-26T08:59:41.000Z</time>
      </trkpt>
      <trkpt lat="46.02287" lon="1.01281">
        <ele>476</ele>
        <time>2011-06-26T08:59:58.000Z</time>
      </trkpt>
      <trkpt lat="46.02287" lon="1.01278">
        <ele>476</ele>
        <time>2011-06-26T08:59:59.000Z</time>
      </trkpt>
      <trkpt lat="46.0229" lon="1.01226">
        <ele>478</ele>
        <time>2011-06-26T09:00:10.000Z</time>
      </trkpt>
      <trkpt lat="46.02294" lon="1.01217">
        <ele>479</ele>
        <time>2011-06-26T09:00:12.000Z</time>
      </trkpt>
      <trkpt lat="46.02301" lon="1.01216">
        <ele>479</ele>
        <time>2011-06-26T09:00:14.000Z</time>
      </trkpt>
      <trkpt lat="46.02335" lon="1.01222">
        <ele>478</ele>
        <time>2011-06-26T09:00:23.000Z</time>
      </trkpt>
      <trkpt lat="46.02339" lon="1.01217">
        <ele>477</ele>
        <time>2011-06-26T09:00:25.000Z</time>
      </trkpt>
      <trkpt lat="46.02354" lon="1.0115">
        <ele>473</ele>
        <time>2011-06-26T09:00:37.000Z</time>
      </trkpt>
      <trkpt lat="46.02356" lon="1.01143">
        <ele>473</ele>
        <time>2011-06-26T09:00:38.000Z</time>
      </trkpt>
      <trkpt lat="46.02372" lon="1.01082">
        <ele>472</ele>
        <time>2011-06-26T09:00:47.000Z</time>
      </trkpt>
      <trkpt lat="46.02374" lon="1.01076">
        <ele>472</ele>
        <time>2011-06-26T09:00:48.000Z</time>
      </trkpt>
      <trkpt lat="46.02391" lon="1.01012">
        <ele>474</ele>
        <time>2011-06-26T09:00:58.000Z</time>
      </trkpt>
      <trkpt lat="46.02393" lon="1.01006">
        <ele>474</ele>
        <time>2011-06-26T09:00:59.000Z</time>
      </trkpt>
      <trkpt lat="46.02412" lon="1.00941">
        <ele>475</ele>
        <time>2011-06-26T09:01:10.000Z</time>
      </trkpt>
      <trkpt lat="46.02413" lon="1.00935">
        <ele>475</ele>
        <time>2011-06-26T09:01:11.000Z</time>
      </trkpt>
      <trkpt lat="46.02428" lon="1.00873">
        <ele>476</ele>
        <time>2011-06-26T09:01:21.000Z</time>
      </trkpt>
      <trkpt lat="46.0243" lon="1.00867">
        <ele>477</ele>
        <time>2011-06-26T09:01:22.000Z</time>
      </trkpt>
      <trkpt lat="46.02433" lon="1.00842">
        <ele>477</ele>
        <time>2011-06-26T09:01:26.000Z</time>
      </trkpt>
      <trkpt lat="46.02435" lon="1.00769">
        <ele>477</ele>
        <time>2011-06-26T09:01:36.000Z</time>
      </trkpt>
      <trkpt lat="46.02435" lon="1.0076">
        <ele>477</ele>
        <time>2011-06-26T09:01:37.000Z</time>
      </trkpt>
      <trkpt lat="46.02436" lon="1.00692">
        <ele>473</ele>
        <time>2011-06-26T09:01:43.000Z</time>
      </trkpt>
      <trkpt lat="46.02435" lon="1.0068">
        <ele>472</ele>
        <time>2011-06-26T09:01:44.000Z</time>
      </trkpt>
      <trkpt lat="46.02437" lon="1.00612">
        <ele>468</ele>
        <time>2011-06-26T09:01:49.000Z</time>
      </trkpt>
      <trkpt lat="46.02438" lon="1.006">
        <ele>467</ele>
        <time>2011-06-26T09:01:50.000Z</time>
      </trkpt>
      <trkpt lat="46.02434" lon="1.00553">
        <ele>465</ele>
        <time>2011-06-26T09:01:54.000Z</time>
      </trkpt>
      <trkpt lat="46.02428" lon="1.00537">
        <ele>464</ele>
        <time>2011-06-26T09:01:56.000Z</time>
      </trkpt>
      <trkpt lat="46.02422" lon="1.00533">
        <ele>464</ele>
        <time>2011-06-26T09:01:58.000Z</time>
      </trkpt>
      <trkpt lat="46.02415" lon="1.00525">
        <ele>465</ele>
        <time>2011-06-26T09:02:01.000Z</time>
      </trkpt>
      <trkpt lat="46.02378" lon="1.00485">
        <ele>479</ele>
        <time>2011-06-26T09:02:22.000Z</time>
      </trkpt>
      <trkpt lat="46.02377" lon="1.00484">
        <ele>479</ele>
        <time>2011-06-26T09:02:23.000Z</time>
      </trkpt>
      <trkpt lat="46.02341" lon="1.00441">
        <ele>495</ele>
        <time>2011-06-26T09:02:50.000Z</time>
      </trkpt>
      <trkpt lat="46.0234" lon="1.0044">
        <ele>495</ele>
        <time>2011-06-26T09:02:51.000Z</time>
      </trkpt>
      <trkpt lat="46.02338" lon="1.00436">
        <ele>496</ele>
        <time>2011-06-26T09:02:53.000Z</time>
      </trkpt>
      <trkpt lat="46.02335" lon="1.00429">
        <ele>497</ele>
        <time>2011-06-26T09:02:57.000Z</time>
      </trkpt>
      <trkpt lat="46.02317" lon="1.004">
        <ele>497</ele>
        <time>2011-06-26T09:03:11.000Z</time>
      </trkpt>
      <trkpt lat="46.02289" lon="1.00346">
        <ele>494</ele>
        <time>2011-06-26T09:03:29.000Z</time>
      </trkpt>
      <trkpt lat="46.02288" lon="1.00342">
        <ele>493</ele>
        <time>2011-06-26T09:03:30.000Z</time>
      </trkpt>
      <trkpt lat="46.02285" lon="1.00332">
        <ele>492</ele>
        <time>2011-06-26T09:03:32.000Z</time>
      </trkpt>
      <trkpt lat="46.02279" lon="1.00313">
        <ele>491</ele>
        <time>2011-06-26T09:03:35.000Z</time>
      </trkpt>
      <trkpt lat="46.02278" lon="1.00302">
        <ele>490</ele>
        <time>2011-06-26T09:03:37.000Z</time>
      </trkpt>
      <trkpt lat="46.02264" lon="1.00241">
        <ele>490</ele>
        <time>2011-06-26T09:03:52.000Z</time>
      </trkpt>
      <trkpt lat="46.02263" lon="1.00236">
        <ele>490</ele>
        <time>2011-06-26T09:03:53.000Z</time>
      </trkpt>
      <trkpt lat="46.02256" lon="1.00203">
        <ele>489</ele>
        <time>2011-06-26T09:04:00.000Z</time>
      </trkpt>
      <trkpt lat="46.02256" lon="1.00171">
        <ele>488</ele>
        <time>2011-06-26T09:04:06.000Z</time>
      </trkpt>
      <trkpt lat="46.02259" lon="1.00158">
        <ele>487</ele>
        <time>2011-06-26T09:04:08.000Z</time>
      </trkpt>
      <trkpt lat="46.02276" lon="1.00105">
        <ele>482</ele>
        <time>2011-06-26T09:04:16.000Z</time>
      </trkpt>
      <trkpt lat="46.02278" lon="1.00059">
        <ele>478</ele>
        <time>2011-06-26T09:04:26.000Z</time>
      </trkpt>
      <trkpt lat="46.02277" lon="1.0005">
        <ele>477</ele>
        <time>2011-06-26T09:04:28.000Z</time>
      </trkpt>
      <trkpt lat="46.02274" lon="1.00043">
        <ele>478</ele>
        <time>2011-06-26T09:04:30.000Z</time>
      </trkpt>
      <trkpt lat="46.02264" lon="1.0003">
        <ele>477</ele>
        <time>2011-06-26T09:04:34.000Z</time>
      </trkpt>
      <trkpt lat="46.02239" lon="1.0001">
        <ele>478</ele>
        <time>2011-06-26T09:04:44.000Z</time>
      </trkpt>
      <trkpt lat="46.02202" lon="0.99969">
        <ele>483</ele>
        <time>2011-06-26T09:05:02.000Z</time>
      </trkpt>
      <trkpt lat="46.022" lon="0.99966">
        <ele>484</ele>
        <time>2011-06-26T09:05:03.000Z</time>
      </trkpt>
      <trkpt lat="46.02174" lon="0.99936">
        <ele>486</ele>
        <time>2011-06-26T09:05:15.000Z</time>
      </trkpt>
      <trkpt lat="46.02163" lon="0.99911">
        <ele>489</ele>
        <time>2011-06-26T09:05:22.000Z</time>
      </trkpt>
      <trkpt lat="46.02154" lon="0.99887">
        <ele>492</ele>
        <time>2011-06-26T09:05:28.000Z</time>
      </trkpt>
      <trkpt lat="46.02143" lon="0.99842">
        <ele>491</ele>
        <time>2011-06-26T09:05:37.000Z</time>
      </trkpt>
      <trkpt lat="46.02131" lon="0.99817">
        <ele>488</ele>
        <time>2011-06-26T09:05:43.000Z</time>
      </trkpt>
      <trkpt lat="46.02111" lon="0.99783">
        <ele>486</ele>
        <time>2011-06-26T09:05:51.000Z</time>
      </trkpt>
      <trkpt lat="46.02106" lon="0.99772">
        <ele>484</ele>
        <time>2011-06-26T09:05:53.000Z</time>
      </trkpt>
      <trkpt lat="46.02095" lon="0.99755">
        <ele>482</ele>
        <time>2011-06-26T09:05:57.000Z</time>
      </trkpt>
      <trkpt lat="46.02084" lon="0.99737">
        <ele>479</ele>
        <time>2011-06-26T09:06:01.000Z</time>
      </trkpt>
      <trkpt lat="46.02074" lon="0.99713">
        <ele>475</ele>
        <time>2011-06-26T09:06:05.000Z</time>
      </trkpt>
      <trkpt lat="46.02067" lon="0.99707">
        <ele>474</ele>
        <time>2011-06-26T09:06:07.000Z</time>
      </trkpt>
      <trkpt lat="46.02052" lon="0.99706">
        <ele>471</ele>
        <time>2011-06-26T09:06:10.000Z</time>
      </trkpt>
      <trkpt lat="46.02028" lon="0.99714">
        <ele>466</ele>
        <time>2011-06-26T09:06:14.000Z</time>
      </trkpt>
      <trkpt lat="46.02001" lon="0.99734">
        <ele>463</ele>
        <time>2011-06-26T09:06:18.000Z</time>
      </trkpt>
      <trkpt lat="46.01962" lon="0.9978">
        <ele>458</ele>
        <time>2011-06-26T09:06:24.000Z</time>
      </trkpt>
      <trkpt lat="46.01957" lon="0.99787">
        <ele>457</ele>
        <time>2011-06-26T09:06:25.000Z</time>
      </trkpt>
      <trkpt lat="46.01944" lon="0.99797">
        <ele>454</ele>
        <time>2011-06-26T09:06:30.000Z</time>
      </trkpt>
      <trkpt lat="46.01949" lon="0.99779">
        <ele>452</ele>
        <time>2011-06-26T09:06:34.000Z</time>
      </trkpt>
      <trkpt lat="46.01962" lon="0.99714">
        <ele>449</ele>
        <time>2011-06-26T09:06:42.000Z</time>
      </trkpt>
      <trkpt lat="46.01962" lon="0.99706">
        <ele>448</ele>
        <time>2011-06-26T09:06:43.000Z</time>
      </trkpt>
      <trkpt lat="46.01962" lon="0.99664">
        <ele>446</ele>
        <time>2011-06-26T09:06:49.000Z</time>
      </trkpt>
      <trkpt lat="46.01957" lon="0.99647">
        <ele>447</ele>
        <time>2011-06-26T09:06:52.000Z</time>
      </trkpt>
      <trkpt lat="46.01952" lon="0.99632">
        <ele>448</ele>
        <time>2011-06-26T09:06:55.000Z</time>
      </trkpt>
      <trkpt lat="46.01953" lon="0.99622">
        <ele>448</ele>
        <time>2011-06-26T09:06:57.000Z</time>
      </trkpt>
      <trkpt lat="46.01958" lon="0.99612">
        <ele>449</ele>
        <time>2011-06-26T09:07:00.000Z</time>
      </trkpt>
      <trkpt lat="46.01968" lon="0.99588">
        <ele>452</ele>
        <time>2011-06-26T09:07:07.000Z</time>
      </trkpt>
      <trkpt lat="46.01968" lon="0.99563">
        <ele>458</ele>
        <time>2011-06-26T09:07:14.000Z</time>
      </trkpt>
      <trkpt lat="46.01969" lon="0.99548">
        <ele>459</ele>
        <time>2011-06-26T09:07:17.000Z</time>
      </trkpt>
      <trkpt lat="46.01966" lon="0.99481">
        <ele>457</ele>
        <time>2011-06-26T09:07:26.000Z</time>
      </trkpt>
      <trkpt lat="46.01966" lon="0.99474">
        <ele>456</ele>
        <time>2011-06-26T09:07:27.000Z</time>
      </trkpt>
      <trkpt lat="46.01966" lon="0.99434">
        <ele>454</ele>
        <time>2011-06-26T09:07:32.000Z</time>
      </trkpt>
      <trkpt lat="46.01973" lon="0.99419">
        <ele>453</ele>
        <time>2011-06-26T09:07:34.000Z</time>
      </trkpt>
      <trkpt lat="46.01982" lon="0.99408">
        <ele>452</ele>
        <time>2011-06-26T09:07:36.000Z</time>
      </trkpt>
      <trkpt lat="46.01989" lon="0.99386">
        <ele>452</ele>
        <time>2011-06-26T09:07:39.000Z</time>
      </trkpt>
      <trkpt lat="46.02001" lon="0.99316">
        <ele>448</ele>
        <time>2011-06-26T09:07:46.000Z</time>
      </trkpt>
      <trkpt lat="46.02003" lon="0.99306">
        <ele>447</ele>
        <time>2011-06-26T09:07:47.000Z</time>
      </trkpt>
      <trkpt lat="46.02011" lon="0.99266">
        <ele>443</ele>
        <time>2011-06-26T09:07:51.000Z</time>
      </trkpt>
      <trkpt lat="46.02028" lon="0.99197">
        <ele>440</ele>
        <time>2011-06-26T09:07:57.000Z</time>
      </trkpt>
      <trkpt lat="46.02032" lon="0.99185">
        <ele>439</ele>
        <time>2011-06-26T09:07:58.000Z</time>
      </trkpt>
      <trkpt lat="46.02041" lon="0.99164">
        <ele>438</ele>
        <time>2011-06-26T09:08:00.000Z</time>
      </trkpt>
      <trkpt lat="46.02071" lon="0.9912">
        <ele>435</ele>
        <time>2011-06-26T09:08:07.000Z</time>
      </trkpt>
      <trkpt lat="46.02073" lon="0.99114">
        <ele>435</ele>
        <time>2011-06-26T09:08:08.000Z</time>
      </trkpt>
      <trkpt lat="46.02103" lon="0.99064">
        <ele>439</ele>
        <time>2011-06-26T09:08:16.000Z</time>
      </trkpt>
      <trkpt lat="46.02106" lon="0.99056">
        <ele>440</ele>
        <time>2011-06-26T09:08:17.000Z</time>
      </trkpt>
      <trkpt lat="46.02115" lon="0.99045">
        <ele>441</ele>
        <time>2011-06-26T09:08:19.000Z</time>
      </trkpt>
      <trkpt lat="46.02123" lon="0.99044">
        <ele>441</ele>
        <time>2011-06-26T09:08:21.000Z</time>
      </trkpt>
      <trkpt lat="46.02137" lon="0.99049">
        <ele>440</ele>
        <time>2011-06-26T09:08:25.000Z</time>
      </trkpt>
      <trkpt lat="46.02184" lon="0.9905">
        <ele>435</ele>
        <time>2011-06-26T09:08:36.000Z</time>
      </trkpt>
      <trkpt lat="46.02188" lon="0.99049">
        <ele>434</ele>
        <time>2011-06-26T09:08:37.000Z</time>
      </trkpt>
      <trkpt lat="46.02236" lon="0.99039">
        <ele>434</ele>
        <time>2011-06-26T09:08:47.000Z</time>
      </trkpt>
      <trkpt lat="46.02241" lon="0.9904">
        <ele>434</ele>
        <time>2011-06-26T09:08:48.000Z</time>
      </trkpt>
      <trkpt lat="46.02288" lon="0.99046">
        <ele>435</ele>
        <time>2011-06-26T09:08:59.000Z</time>
      </trkpt>
      <trkpt lat="46.02291" lon="0.99047">
        <ele>435</ele>
        <time>2011-06-26T09:09:00.000Z</time>
      </trkpt>
      <trkpt lat="46.02312" lon="0.99052">
        <ele>435</ele>
        <time>2011-06-26T09:09:05.000Z</time>
      </trkpt>
      <trkpt lat="46.02357" lon="0.99067">
        <ele>434</ele>
        <time>2011-06-26T09:09:16.000Z</time>
      </trkpt>
      <trkpt lat="46.02361" lon="0.9907">
        <ele>434</ele>
        <time>2011-06-26T09:09:17.000Z</time>
      </trkpt>
      <trkpt lat="46.02365" lon="0.99072">
        <ele>434</ele>
        <time>2011-06-26T09:09:18.000Z</time>
      </trkpt>
      <trkpt lat="46.02377" lon="0.99076">
        <ele>432</ele>
        <time>2011-06-26T09:09:21.000Z</time>
      </trkpt>
      <trkpt lat="46.02388" lon="0.9908">
        <ele>430</ele>
        <time>2011-06-26T09:09:24.000Z</time>
      </trkpt>
      <trkpt lat="46.02398" lon="0.99084">
        <ele>429</ele>
        <time>2011-06-26T09:09:27.000Z</time>
      </trkpt>
      <trkpt lat="46.02444" lon="0.991">
        <ele>431</ele>
        <time>2011-06-26T09:09:38.000Z</time>
      </trkpt>
      <trkpt lat="46.02448" lon="0.99098">
        <ele>432</ele>
        <time>2011-06-26T09:09:39.000Z</time>
      </trkpt>
      <trkpt lat="46.02455" lon="0.99092">
        <ele>432</ele>
        <time>2011-06-26T09:09:41.000Z</time>
      </trkpt>
      <trkpt lat="46.02463" lon="0.99056">
        <ele>430</ele>
        <time>2011-06-26T09:09:45.000Z</time>
      </trkpt>
      <trkpt lat="46.02474" lon="0.99015">
        <ele>427</ele>
        <time>2011-06-26T09:09:49.000Z</time>
      </trkpt>
      <trkpt lat="46.02484" lon="0.98971">
        <ele>423</ele>
        <time>2011-06-26T09:09:54.000Z</time>
      </trkpt>
      <trkpt lat="46.02498" lon="0.98918">
        <ele>420</ele>
        <time>2011-06-26T09:10:01.000Z</time>
      </trkpt>
      <trkpt lat="46.02502" lon="0.98911">
        <ele>419</ele>
        <time>2011-06-26T09:10:02.000Z</time>
      </trkpt>
      <trkpt lat="46.02516" lon="0.98896">
        <ele>416</ele>
        <time>2011-06-26T09:10:05.000Z</time>
      </trkpt>
      <trkpt lat="46.02535" lon="0.98895">
        <ele>412</ele>
        <time>2011-06-26T09:10:08.000Z</time>
      </trkpt>
      <trkpt lat="46.02555" lon="0.98907">
        <ele>409</ele>
        <time>2011-06-26T09:10:12.000Z</time>
      </trkpt>
      <trkpt lat="46.02568" lon="0.98915">
        <ele>408</ele>
        <time>2011-06-26T09:10:15.000Z</time>
      </trkpt>
      <trkpt lat="46.02617" lon="0.98925">
        <ele>406</ele>
        <time>2011-06-26T09:10:24.000Z</time>
      </trkpt>
      <trkpt lat="46.02623" lon="0.98927">
        <ele>405</ele>
        <time>2011-06-26T09:10:25.000Z</time>
      </trkpt>
      <trkpt lat="46.02634" lon="0.98926">
        <ele>405</ele>
        <time>2011-06-26T09:10:27.000Z</time>
      </trkpt>
      <trkpt lat="46.02684" lon="0.98917">
        <ele>403</ele>
        <time>2011-06-26T09:10:36.000Z</time>
      </trkpt>
      <trkpt lat="46.02688" lon="0.98916">
        <ele>403</ele>
        <time>2011-06-26T09:10:37.000Z</time>
      </trkpt>
      <trkpt lat="46.02735" lon="0.98908">
        <ele>404</ele>
        <time>2011-06-26T09:10:47.000Z</time>
      </trkpt>
      <trkpt lat="46.02738" lon="0.98906">
        <ele>404</ele>
        <time>2011-06-26T09:10:48.000Z</time>
      </trkpt>
      <trkpt lat="46.0274" lon="0.98903">
        <ele>405</ele>
        <time>2011-06-26T09:10:49.000Z</time>
      </trkpt>
      <trkpt lat="46.02741" lon="0.98892">
        <ele>405</ele>
        <time>2011-06-26T09:10:51.000Z</time>
      </trkpt>
      <trkpt lat="46.02736" lon="0.98882">
        <ele>406</ele>
        <time>2011-06-26T09:10:53.000Z</time>
      </trkpt>
      <trkpt lat="46.02731" lon="0.98874">
        <ele>406</ele>
        <time>2011-06-26T09:10:55.000Z</time>
      </trkpt>
      <trkpt lat="46.02729" lon="0.98864">
        <ele>406</ele>
        <time>2011-06-26T09:10:57.000Z</time>
      </trkpt>
      <trkpt lat="46.02737" lon="0.98846">
        <ele>404</ele>
        <time>2011-06-26T09:11:00.000Z</time>
      </trkpt>
      <trkpt lat="46.02742" lon="0.98828">
        <ele>402</ele>
        <time>2011-06-26T09:11:03.000Z</time>
      </trkpt>
      <trkpt lat="46.02742" lon="0.98811">
        <ele>399</ele>
        <time>2011-06-26T09:11:07.000Z</time>
      </trkpt>
      <trkpt lat="46.02738" lon="0.98805">
        <ele>397</ele>
        <time>2011-06-26T09:11:12.000Z</time>
      </trkpt>
      <trkpt lat="46.02732" lon="0.98795">
        <ele>395</ele>
        <time>2011-06-26T09:11:17.000Z</time>
      </trkpt>
      <trkpt lat="46.02725" lon="0.98783">
        <ele>395</ele>
        <time>2011-06-26T09:11:25.000Z</time>
      </trkpt>
      <trkpt lat="46.02707" lon="0.98767">
        <ele>395</ele>
        <time>2011-06-26T09:11:37.000Z</time>
      </trkpt>
      <trkpt lat="46.02697" lon="0.98758">
        <ele>395</ele>
        <time>2011-06-26T09:11:46.000Z</time>
      </trkpt>
      <trkpt lat="46.02686" lon="0.98751">
        <ele>397</ele>
        <time>2011-06-26T09:11:55.000Z</time>
      </trkpt>
      <trkpt lat="46.02673" lon="0.98741">
        <ele>403</ele>
        <time>2011-06-26T09:12:06.000Z</time>
      </trkpt>
      <trkpt lat="46.02628" lon="0.98731">
        <ele>408</ele>
        <time>2011-06-26T09:12:41.000Z</time>
      </trkpt>
      <trkpt lat="46.02626" lon="0.98731">
        <ele>408</ele>
        <time>2011-06-26T09:12:42.000Z</time>
      </trkpt>
      <trkpt lat="46.02606" lon="0.98728">
        <ele>409</ele>
        <time>2011-06-26T09:12:57.000Z</time>
      </trkpt>
      <trkpt lat="46.02603" lon="0.98721">
        <ele>410</ele>
        <time>2011-06-26T09:13:02.000Z</time>
      </trkpt>
      <trkpt lat="46.02605" lon="0.98713">
        <ele>412</ele>
        <time>2011-06-26T09:13:08.000Z</time>
      </trkpt>
      <trkpt lat="46.02607" lon="0.98704">
        <ele>416</ele>
        <time>2011-06-26T09:13:14.000Z</time>
      </trkpt>
      <trkpt lat="46.02613" lon="0.98639">
        <ele>424</ele>
        <time>2011-06-26T09:13:52.000Z</time>
      </trkpt>
      <trkpt lat="46.02614" lon="0.98637">
        <ele>424</ele>
        <time>2011-06-26T09:13:53.000Z</time>
      </trkpt>
      <trkpt lat="46.02615" lon="0.98608">
        <ele>434</ele>
        <time>2011-06-26T09:14:12.000Z</time>
      </trkpt>
      <trkpt lat="46.02615" lon="0.98562">
        <ele>436</ele>
        <time>2011-06-26T09:14:28.000Z</time>
      </trkpt>
      <trkpt lat="46.02616" lon="0.98551">
        <ele>434</ele>
        <time>2011-06-26T09:14:31.000Z</time>
      </trkpt>
      <trkpt lat="46.02621" lon="0.98513">
        <ele>430</ele>
        <time>2011-06-26T09:14:42.000Z</time>
      </trkpt>
      <trkpt lat="46.02625" lon="0.985">
        <ele>430</ele>
        <time>2011-06-26T09:14:48.000Z</time>
      </trkpt>
      <trkpt lat="46.02635" lon="0.98477">
        <ele>429</ele>
        <time>2011-06-26T09:15:00.000Z</time>
      </trkpt>
      <trkpt lat="46.02645" lon="0.98472">
        <ele>428</ele>
        <time>2011-06-26T09:15:07.000Z</time>
      </trkpt>
      <trkpt lat="46.02667" lon="0.9846">
        <ele>431</ele>
        <time>2011-06-26T09:15:21.000Z</time>
      </trkpt>
      <trkpt lat="46.0267" lon="0.98452">
        <ele>432</ele>
        <time>2011-06-26T09:15:26.000Z</time>
      </trkpt>
      <trkpt lat="46.02675" lon="0.98438">
        <ele>434</ele>
        <time>2011-06-26T09:15:34.000Z</time>
      </trkpt>
      <trkpt lat="46.02681" lon="0.98436">
        <ele>435</ele>
        <time>2011-06-26T09:15:38.000Z</time>
      </trkpt>
      <trkpt lat="46.02695" lon="0.98435">
        <ele>437</ele>
        <time>2011-06-26T09:15:46.000Z</time>
      </trkpt>
      <trkpt lat="46.0271" lon="0.98429">
        <ele>441</ele>
        <time>2011-06-26T09:15:54.000Z</time>
      </trkpt>
      <trkpt lat="46.02753" lon="0.98406">
        <ele>446</ele>
        <time>2011-06-26T09:16:17.000Z</time>
      </trkpt>
      <trkpt lat="46.02755" lon="0.98405">
        <ele>446</ele>
        <time>2011-06-26T09:16:18.000Z</time>
      </trkpt>
      <trkpt lat="46.02768" lon="0.98402">
        <ele>445</ele>
        <time>2011-06-26T09:16:23.000Z</time>
      </trkpt>
      <trkpt lat="46.02814" lon="0.98402">
        <ele>443</ele>
        <time>2011-06-26T09:16:37.000Z</time>
      </trkpt>
      <trkpt lat="46.02818" lon="0.98401">
        <ele>443</ele>
        <time>2011-06-26T09:16:38.000Z</time>
      </trkpt>
      <trkpt lat="46.02842" lon="0.98396">
        <ele>442</ele>
        <time>2011-06-26T09:16:44.000Z</time>
      </trkpt>
      <trkpt lat="46.02887" lon="0.98377">
        <ele>438</ele>
        <time>2011-06-26T09:16:54.000Z</time>
      </trkpt>
      <trkpt lat="46.02892" lon="0.98378">
        <ele>437</ele>
        <time>2011-06-26T09:16:55.000Z</time>
      </trkpt>
      <trkpt lat="46.02899" lon="0.98383">
        <ele>436</ele>
        <time>2011-06-26T09:16:57.000Z</time>
      </trkpt>
      <trkpt lat="46.02927" lon="0.98419">
        <ele>429</ele>
        <time>2011-06-26T09:17:04.000Z</time>
      </trkpt>
      <trkpt lat="46.02944" lon="0.98418">
        <ele>425</ele>
        <time>2011-06-26T09:17:07.000Z</time>
      </trkpt>
      <trkpt lat="46.02953" lon="0.98413">
        <ele>423</ele>
        <time>2011-06-26T09:17:09.000Z</time>
      </trkpt>
      <trkpt lat="46.02958" lon="0.98403">
        <ele>421</ele>
        <time>2011-06-26T09:17:11.000Z</time>
      </trkpt>
      <trkpt lat="46.02953" lon="0.98335">
        <ele>417</ele>
        <time>2011-06-26T09:17:19.000Z</time>
      </trkpt>
      <trkpt lat="46.02952" lon="0.98325">
        <ele>417</ele>
        <time>2011-06-26T09:17:20.000Z</time>
      </trkpt>
      <trkpt lat="46.02939" lon="0.98266">
        <ele>415</ele>
        <time>2011-06-26T09:17:27.000Z</time>
      </trkpt>
      <trkpt lat="46.02936" lon="0.98258">
        <ele>414</ele>
        <time>2011-06-26T09:17:28.000Z</time>
      </trkpt>
      <trkpt lat="46.02935" lon="0.98249">
        <ele>414</ele>
        <time>2011-06-26T09:17:29.000Z</time>
      </trkpt>
      <trkpt lat="46.02934" lon="0.98216">
        <ele>412</ele>
        <time>2011-06-26T09:17:33.000Z</time>
      </trkpt>
      <trkpt lat="46.0294" lon="0.98198">
        <ele>410</ele>
        <time>2011-06-26T09:17:36.000Z</time>
      </trkpt>
      <trkpt lat="46.02956" lon="0.98182">
        <ele>404</ele>
        <time>2011-06-26T09:17:40.000Z</time>
      </trkpt>
      <trkpt lat="46.0298" lon="0.98178">
        <ele>396</ele>
        <time>2011-06-26T09:17:45.000Z</time>
      </trkpt>
      <trkpt lat="46.02993" lon="0.98164">
        <ele>392</ele>
        <time>2011-06-26T09:17:48.000Z</time>
      </trkpt>
      <trkpt lat="46.02998" lon="0.98152">
        <ele>389</ele>
        <time>2011-06-26T09:17:50.000Z</time>
      </trkpt>
      <trkpt lat="46.03014" lon="0.98106">
        <ele>381</ele>
        <time>2011-06-26T09:17:56.000Z</time>
      </trkpt>
      <trkpt lat="46.03012" lon="0.98098">
        <ele>379</ele>
        <time>2011-06-26T09:17:58.000Z</time>
      </trkpt>
      <trkpt lat="46.03007" lon="0.98093">
        <ele>376</ele>
        <time>2011-06-26T09:18:02.000Z</time>
      </trkpt>
      <trkpt lat="46.02961" lon="0.98089">
        <ele>381</ele>
        <time>2011-06-26T09:18:19.000Z</time>
      </trkpt>
      <trkpt lat="46.02958" lon="0.98088">
        <ele>381</ele>
        <time>2011-06-26T09:18:20.000Z</time>
      </trkpt>
      <trkpt lat="46.02947" lon="0.98087">
        <ele>382</ele>
        <time>2011-06-26T09:18:24.000Z</time>
      </trkpt>
      <trkpt lat="46.02907" lon="0.98053">
        <ele>386</ele>
        <time>2011-06-26T09:18:33.000Z</time>
      </trkpt>
      <trkpt lat="46.02902" lon="0.98046">
        <ele>386</ele>
        <time>2011-06-26T09:18:34.000Z</time>
      </trkpt>
      <trkpt lat="46.02876" lon="0.98006">
        <ele>387</ele>
        <time>2011-06-26T09:18:39.000Z</time>
      </trkpt>
      <trkpt lat="46.0288" lon="0.98001">
        <ele>388</ele>
        <time>2011-06-26T09:18:42.000Z</time>
      </trkpt>
      <trkpt lat="46.02898" lon="0.98003">
        <ele>389</ele>
        <time>2011-06-26T09:18:46.000Z</time>
      </trkpt>
      <trkpt lat="46.02911" lon="0.98004">
        <ele>387</ele>
        <time>2011-06-26T09:18:49.000Z</time>
      </trkpt>
      <trkpt lat="46.02961" lon="0.98005">
        <ele>379</ele>
        <time>2011-06-26T09:18:57.000Z</time>
      </trkpt>
      <trkpt lat="46.02966" lon="0.98005">
        <ele>379</ele>
        <time>2011-06-26T09:18:58.000Z</time>
      </trkpt>
      <trkpt lat="46.03012" lon="0.98007">
        <ele>374</ele>
        <time>2011-06-26T09:19:06.000Z</time>
      </trkpt>
      <trkpt lat="46.03017" lon="0.98008">
        <ele>373</ele>
        <time>2011-06-26T09:19:07.000Z</time>
      </trkpt>
      <trkpt lat="46.03068" lon="0.98013">
        <ele>369</ele>
        <time>2011-06-26T09:19:16.000Z</time>
      </trkpt>
      <trkpt lat="46.03074" lon="0.98012">
        <ele>368</ele>
        <time>2011-06-26T09:19:17.000Z</time>
      </trkpt>
      <trkpt lat="46.0308" lon="0.9801">
        <ele>368</ele>
        <time>2011-06-26T09:19:18.000Z</time>
      </trkpt>
      <trkpt lat="46.03089" lon="0.98">
        <ele>366</ele>
        <time>2011-06-26T09:19:22.000Z</time>
      </trkpt>
      <trkpt lat="46.03091" lon="0.97979">
        <ele>362</ele>
        <time>2011-06-26T09:19:26.000Z</time>
      </trkpt>
      <trkpt lat="46.03101" lon="0.97965">
        <ele>358</ele>
        <time>2011-06-26T09:19:30.000Z</time>
      </trkpt>
      <trkpt lat="46.03125" lon="0.97949">
        <ele>356</ele>
        <time>2011-06-26T09:19:48.000Z</time>
      </trkpt>
      <trkpt lat="46.03142" lon="0.97928">
        <ele>361</ele>
        <time>2011-06-26T09:20:03.000Z</time>
      </trkpt>
      <trkpt lat="46.03152" lon="0.97923">
        <ele>365</ele>
        <time>2011-06-26T09:20:11.000Z</time>
      </trkpt>
      <trkpt lat="46.03159" lon="0.97922">
        <ele>367</ele>
        <time>2011-06-26T09:20:14.000Z</time>
      </trkpt>
      <trkpt lat="46.03207" lon="0.97919">
        <ele>367</ele>
        <time>2011-06-26T09:20:25.000Z</time>
      </trkpt>
      <trkpt lat="46.03213" lon="0.97919">
        <ele>367</ele>
        <time>2011-06-26T09:20:26.000Z</time>
      </trkpt>
      <trkpt lat="46.03257" lon="0.97911">
        <ele>365</ele>
        <time>2011-06-26T09:20:35.000Z</time>
      </trkpt>
      <trkpt lat="46.0326" lon="0.97909">
        <ele>365</ele>
        <time>2011-06-26T09:20:36.000Z</time>
      </trkpt>
      <trkpt lat="46.03266" lon="0.97907">
        <ele>365</ele>
        <time>2011-06-26T09:20:38.000Z</time>
      </trkpt>
      <trkpt lat="46.0328" lon="0.97899">
        <ele>367</ele>
        <time>2011-06-26T09:20:44.000Z</time>
      </trkpt>
      <trkpt lat="46.03311" lon="0.9787">
        <ele>367</ele>
        <time>2011-06-26T09:20:56.000Z</time>
      </trkpt>
      <trkpt lat="46.03329" lon="0.97846">
        <ele>367</ele>
        <time>2011-06-26T09:21:04.000Z</time>
      </trkpt>
      <trkpt lat="46.03334" lon="0.97834">
        <ele>367</ele>
        <time>2011-06-26T09:21:07.000Z</time>
      </trkpt>
      <trkpt lat="46.03344" lon="0.97797">
        <ele>369</ele>
        <time>2011-06-26T09:21:16.000Z</time>
      </trkpt>
      <trkpt lat="46.03358" lon="0.97754">
        <ele>372</ele>
        <time>2011-06-26T09:21:28.000Z</time>
      </trkpt>
      <trkpt lat="46.03363" lon="0.97737">
        <ele>371</ele>
        <time>2011-06-26T09:21:33.000Z</time>
      </trkpt>
      <trkpt lat="46.03402" lon="0.97701">
        <ele>371</ele>
        <time>2011-06-26T09:21:46.000Z</time>
      </trkpt>
      <trkpt lat="46.03405" lon="0.97698">
        <ele>371</ele>
        <time>2011-06-26T09:21:47.000Z</time>
      </trkpt>
      <trkpt lat="46.03439" lon="0.97657">
        <ele>371</ele>
        <time>2011-06-26T09:21:56.000Z</time>
      </trkpt>
      <trkpt lat="46.03443" lon="0.97652">
        <ele>371</ele>
        <time>2011-06-26T09:21:57.000Z</time>
      </trkpt>
      <trkpt lat="46.03479" lon="0.97613">
        <ele>370</ele>
        <time>2011-06-26T09:22:07.000Z</time>
      </trkpt>
      <trkpt lat="46.03482" lon="0.9761">
        <ele>370</ele>
        <time>2011-06-26T09:22:08.000Z</time>
      </trkpt>
      <trkpt lat="46.03485" lon="0.97606">
        <ele>370</ele>
        <time>2011-06-26T09:22:09.000Z</time>
      </trkpt>
      <trkpt lat="46.03488" lon="0.97589">
        <ele>370</ele>
        <time>2011-06-26T09:22:12.000Z</time>
      </trkpt>
      <trkpt lat="46.0349" lon="0.97549">
        <ele>369</ele>
        <time>2011-06-26T09:22:19.000Z</time>
      </trkpt>
      <trkpt lat="46.03494" lon="0.9748">
        <ele>369</ele>
        <time>2011-06-26T09:22:30.000Z</time>
      </trkpt>
      <trkpt lat="46.03495" lon="0.97474">
        <ele>369</ele>
        <time>2011-06-26T09:22:31.000Z</time>
      </trkpt>
      <trkpt lat="46.03511" lon="0.97416">
        <ele>369</ele>
        <time>2011-06-26T09:22:41.000Z</time>
      </trkpt>
      <trkpt lat="46.03513" lon="0.97411">
        <ele>369</ele>
        <time>2011-06-26T09:22:42.000Z</time>
      </trkpt>
      <trkpt lat="46.03532" lon="0.97347">
        <ele>370</ele>
        <time>2011-06-26T09:22:54.000Z</time>
      </trkpt>
      <trkpt lat="46.03533" lon="0.97342">
        <ele>370</ele>
        <time>2011-06-26T09:22:55.000Z</time>
      </trkpt>
      <trkpt lat="46.03538" lon="0.97322">
        <ele>371</ele>
        <time>2011-06-26T09:22:59.000Z</time>
      </trkpt>
      <trkpt lat="46.03539" lon="0.97306">
        <ele>371</ele>
        <time>2011-06-26T09:23:02.000Z</time>
      </trkpt>
      <trkpt lat="46.03537" lon="0.97285">
        <ele>371</ele>
        <time>2011-06-26T09:23:06.000Z</time>
      </trkpt>
      <trkpt lat="46.03533" lon="0.97266">
        <ele>372</ele>
        <time>2011-06-26T09:23:10.000Z</time>
      </trkpt>
      <trkpt lat="46.0353" lon="0.9725">
        <ele>372</ele>
        <time>2011-06-26T09:23:13.000Z</time>
      </trkpt>
      <trkpt lat="46.03536" lon="0.97224">
        <ele>370</ele>
        <time>2011-06-26T09:23:17.000Z</time>
      </trkpt>
      <trkpt lat="46.03556" lon="0.97158">
        <ele>366</ele>
        <time>2011-06-26T09:23:24.000Z</time>
      </trkpt>
      <trkpt lat="46.03556" lon="0.97146">
        <ele>365</ele>
        <time>2011-06-26T09:23:25.000Z</time>
      </trkpt>
      <trkpt lat="46.03551" lon="0.97111">
        <ele>363</ele>
        <time>2011-06-26T09:23:28.000Z</time>
      </trkpt>
      <trkpt lat="46.03544" lon="0.97081">
        <ele>361</ele>
        <time>2011-06-26T09:23:32.000Z</time>
      </trkpt>
      <trkpt lat="46.03546" lon="0.97069">
        <ele>360</ele>
        <time>2011-06-26T09:23:34.000Z</time>
      </trkpt>
      <trkpt lat="46.03553" lon="0.97032">
        <ele>359</ele>
        <time>2011-06-26T09:23:39.000Z</time>
      </trkpt>
      <trkpt lat="46.03549" lon="0.96994">
        <ele>358</ele>
        <time>2011-06-26T09:23:44.000Z</time>
      </trkpt>
      <trkpt lat="46.03536" lon="0.96971">
        <ele>358</ele>
        <time>2011-06-26T09:23:48.000Z</time>
      </trkpt>
      <trkpt lat="46.03511" lon="0.9692">
        <ele>358</ele>
        <time>2011-06-26T09:23:55.000Z</time>
      </trkpt>
      <trkpt lat="46.03508" lon="0.96912">
        <ele>358</ele>
        <time>2011-06-26T09:23:56.000Z</time>
      </trkpt>
      <trkpt lat="46.03497" lon="0.96876">
        <ele>358</ele>
        <time>2011-06-26T09:24:01.000Z</time>
      </trkpt>
      <trkpt lat="46.03498" lon="0.96861">
        <ele>359</ele>
        <time>2011-06-26T09:24:04.000Z</time>
      </trkpt>
      <trkpt lat="46.03503" lon="0.96816">
        <ele>359</ele>
        <time>2011-06-26T09:24:13.000Z</time>
      </trkpt>
      <trkpt lat="46.03499" lon="0.968">
        <ele>358</ele>
        <time>2011-06-26T09:24:16.000Z</time>
      </trkpt>
      <trkpt lat="46.0348" lon="0.96755">
        <ele>354</ele>
        <time>2011-06-26T09:24:23.000Z</time>
      </trkpt>
      <trkpt lat="46.0348" lon="0.96723">
        <ele>353</ele>
        <time>2011-06-26T09:24:28.000Z</time>
      </trkpt>
      <trkpt lat="46.03491" lon="0.96655">
        <ele>355</ele>
        <time>2011-06-26T09:24:35.000Z</time>
      </trkpt>
      <trkpt lat="46.03494" lon="0.96647">
        <ele>355</ele>
        <time>2011-06-26T09:24:36.000Z</time>
      </trkpt>
      <trkpt lat="46.0352" lon="0.96588">
        <ele>353</ele>
        <time>2011-06-26T09:24:45.000Z</time>
      </trkpt>
      <trkpt lat="46.03522" lon="0.96582">
        <ele>353</ele>
        <time>2011-06-26T09:24:46.000Z</time>
      </trkpt>
      <trkpt lat="46.0354" lon="0.96544">
        <ele>350</ele>
        <time>2011-06-26T09:24:53.000Z</time>
      </trkpt>
      <trkpt lat="46.03548" lon="0.96538">
        <ele>350</ele>
        <time>2011-06-26T09:24:55.000Z</time>
      </trkpt>
      <trkpt lat="46.03566" lon="0.96533">
        <ele>348</ele>
        <time>2011-06-26T09:24:59.000Z</time>
      </trkpt>
      <trkpt lat="46.03577" lon="0.96524">
        <ele>347</ele>
        <time>2011-06-26T09:25:02.000Z</time>
      </trkpt>
      <trkpt lat="46.03583" lon="0.96514">
        <ele>347</ele>
        <time>2011-06-26T09:25:04.000Z</time>
      </trkpt>
      <trkpt lat="46.03592" lon="0.9649">
        <ele>346</ele>
        <time>2011-06-26T09:25:08.000Z</time>
      </trkpt>
      <trkpt lat="46.0361" lon="0.96428">
        <ele>344</ele>
        <time>2011-06-26T09:25:15.000Z</time>
      </trkpt>
      <trkpt lat="46.03613" lon="0.96419">
        <ele>344</ele>
        <time>2011-06-26T09:25:16.000Z</time>
      </trkpt>
      <trkpt lat="46.03629" lon="0.96382">
        <ele>345</ele>
        <time>2011-06-26T09:25:22.000Z</time>
      </trkpt>
      <trkpt lat="46.03658" lon="0.96336">
        <ele>347</ele>
        <time>2011-06-26T09:25:33.000Z</time>
      </trkpt>
      <trkpt lat="46.0366" lon="0.96333">
        <ele>348</ele>
        <time>2011-06-26T09:25:34.000Z</time>
      </trkpt>
      <trkpt lat="46.0368" lon="0.9629">
        <ele>349</ele>
        <time>2011-06-26T09:25:42.000Z</time>
      </trkpt>
      <trkpt lat="46.03685" lon="0.96264">
        <ele>349</ele>
        <time>2011-06-26T09:25:46.000Z</time>
      </trkpt>
      <trkpt lat="46.03675" lon="0.96199">
        <ele>346</ele>
        <time>2011-06-26T09:25:55.000Z</time>
      </trkpt>
      <trkpt lat="46.03675" lon="0.96191">
        <ele>346</ele>
        <time>2011-06-26T09:25:56.000Z</time>
      </trkpt>
      <trkpt lat="46.03676" lon="0.96184">
        <ele>345</ele>
        <time>2011-06-26T09:25:57.000Z</time>
      </trkpt>
      <trkpt lat="46.03682" lon="0.96164">
        <ele>344</ele>
        <time>2011-06-26T09:26:00.000Z</time>
      </trkpt>
      <trkpt lat="46.03725" lon="0.9614">
        <ele>340</ele>
        <time>2011-06-26T09:26:10.000Z</time>
      </trkpt>
      <trkpt lat="46.03728" lon="0.96137">
        <ele>339</ele>
        <time>2011-06-26T09:26:11.000Z</time>
      </trkpt>
      <trkpt lat="46.03735" lon="0.96129">
        <ele>339</ele>
        <time>2011-06-26T09:26:13.000Z</time>
      </trkpt>
      <trkpt lat="46.03762" lon="0.96067">
        <ele>331</ele>
        <time>2011-06-26T09:26:22.000Z</time>
      </trkpt>
      <trkpt lat="46.03765" lon="0.96058">
        <ele>330</ele>
        <time>2011-06-26T09:26:23.000Z</time>
      </trkpt>
      <trkpt lat="46.03777" lon="0.96036">
        <ele>327</ele>
        <time>2011-06-26T09:26:26.000Z</time>
      </trkpt>
      <trkpt lat="46.0379" lon="0.96019">
        <ele>326</ele>
        <time>2011-06-26T09:26:29.000Z</time>
      </trkpt>
      <trkpt lat="46.03831" lon="0.95981">
        <ele>324</ele>
        <time>2011-06-26T09:26:36.000Z</time>
      </trkpt>
      <trkpt lat="46.03836" lon="0.95973">
        <ele>324</ele>
        <time>2011-06-26T09:26:37.000Z</time>
      </trkpt>
      <trkpt lat="46.03867" lon="0.95918">
        <ele>324</ele>
        <time>2011-06-26T09:26:46.000Z</time>
      </trkpt>
      <trkpt lat="46.0387" lon="0.95914">
        <ele>324</ele>
        <time>2011-06-26T09:26:47.000Z</time>
      </trkpt>
      <trkpt lat="46.03907" lon="0.95869">
        <ele>321</ele>
        <time>2011-06-26T09:26:56.000Z</time>
      </trkpt>
      <trkpt lat="46.03911" lon="0.95863">
        <ele>320</ele>
        <time>2011-06-26T09:26:57.000Z</time>
      </trkpt>
      <trkpt lat="46.03931" lon="0.95819">
        <ele>314</ele>
        <time>2011-06-26T09:27:03.000Z</time>
      </trkpt>
      <trkpt lat="46.03953" lon="0.95766">
        <ele>309</ele>
        <time>2011-06-26T09:27:09.000Z</time>
      </trkpt>
      <trkpt lat="46.03958" lon="0.9576">
        <ele>309</ele>
        <time>2011-06-26T09:27:10.000Z</time>
      </trkpt>
      <trkpt lat="46.03973" lon="0.95743">
        <ele>308</ele>
        <time>2011-06-26T09:27:15.000Z</time>
      </trkpt>
      <trkpt lat="46.03973" lon="0.95735">
        <ele>308</ele>
        <time>2011-06-26T09:27:17.000Z</time>
      </trkpt>
      <trkpt lat="46.03971" lon="0.95727">
        <ele>308</ele>
        <time>2011-06-26T09:27:19.000Z</time>
      </trkpt>
      <trkpt lat="46.0397" lon="0.95717">
        <ele>309</ele>
        <time>2011-06-26T09:27:21.000Z</time>
      </trkpt>
      <trkpt lat="46.03962" lon="0.95668">
        <ele>310</ele>
        <time>2011-06-26T09:27:32.000Z</time>
      </trkpt>
      <trkpt lat="46.03959" lon="0.9566">
        <ele>311</ele>
        <time>2011-06-26T09:27:34.000Z</time>
      </trkpt>
      <trkpt lat="46.03949" lon="0.95626">
        <ele>312</ele>
        <time>2011-06-26T09:27:41.000Z</time>
      </trkpt>
      <trkpt lat="46.03941" lon="0.95607">
        <ele>312</ele>
        <time>2011-06-26T09:27:45.000Z</time>
      </trkpt>
      <trkpt lat="46.03913" lon="0.95551">
        <ele>314</ele>
        <time>2011-06-26T09:27:59.000Z</time>
      </trkpt>
      <trkpt lat="46.03912" lon="0.95547">
        <ele>314</ele>
        <time>2011-06-26T09:28:00.000Z</time>
      </trkpt>
      <trkpt lat="46.03884" lon="0.95495">
        <ele>320</ele>
        <time>2011-06-26T09:28:16.000Z</time>
      </trkpt>
      <trkpt lat="46.03883" lon="0.95493">
        <ele>321</ele>
        <time>2011-06-26T09:28:17.000Z</time>
      </trkpt>
      <trkpt lat="46.03862" lon="0.95447">
        <ele>326</ele>
        <time>2011-06-26T09:28:36.000Z</time>
      </trkpt>
      <trkpt lat="46.03859" lon="0.95429">
        <ele>327</ele>
        <time>2011-06-26T09:28:42.000Z</time>
      </trkpt>
      <trkpt lat="46.03852" lon="0.95376">
        <ele>326</ele>
        <time>2011-06-26T09:28:55.000Z</time>
      </trkpt>
      <trkpt lat="46.03842" lon="0.95366">
        <ele>325</ele>
        <time>2011-06-26T09:28:59.000Z</time>
      </trkpt>
      <trkpt lat="46.03809" lon="0.95342">
        <ele>324</ele>
        <time>2011-06-26T09:29:09.000Z</time>
      </trkpt>
      <trkpt lat="46.03773" lon="0.95332">
        <ele>323</ele>
        <time>2011-06-26T09:29:17.000Z</time>
      </trkpt>
      <trkpt lat="46.0373" lon="0.95314">
        <ele>323</ele>
        <time>2011-06-26T09:29:26.000Z</time>
      </trkpt>
      <trkpt lat="46.03725" lon="0.95313">
        <ele>323</ele>
        <time>2011-06-26T09:29:27.000Z</time>
      </trkpt>
      <trkpt lat="46.03712" lon="0.95315">
        <ele>323</ele>
        <time>2011-06-26T09:29:30.000Z</time>
      </trkpt>
      <trkpt lat="46.03708" lon="0.95319">
        <ele>323</ele>
        <time>2011-06-26T09:29:32.000Z</time>
      </trkpt>
      <trkpt lat="46.03691" lon="0.95333">
        <ele>325</ele>
        <time>2011-06-26T09:29:42.000Z</time>
      </trkpt>
      <trkpt lat="46.0365" lon="0.95363">
        <ele>326</ele>
        <time>2011-06-26T09:30:05.000Z</time>
      </trkpt>
      <trkpt lat="46.03648" lon="0.95364">
        <ele>325</ele>
        <time>2011-06-26T09:30:06.000Z</time>
      </trkpt>
      <trkpt lat="46.03643" lon="0.9537">
        <ele>324</ele>
        <time>2011-06-26T09:30:09.000Z</time>
      </trkpt>
      <trkpt lat="46.03626" lon="0.9538">
        <ele>322</ele>
        <time>2011-06-26T09:30:17.000Z</time>
      </trkpt>
      <trkpt lat="46.03582" lon="0.9539">
        <ele>327</ele>
        <time>2011-06-26T09:30:35.000Z</time>
      </trkpt>
      <trkpt lat="46.03579" lon="0.95391">
        <ele>327</ele>
        <time>2011-06-26T09:30:36.000Z</time>
      </trkpt>
      <trkpt lat="46.0356" lon="0.95399">
        <ele>331</ele>
        <time>2011-06-26T09:30:44.000Z</time>
      </trkpt>
      <trkpt lat="46.03553" lon="0.95405">
        <ele>332</ele>
        <time>2011-06-26T09:30:48.000Z</time>
      </trkpt>
      <trkpt lat="46.03539" lon="0.95425">
        <ele>333</ele>
        <time>2011-06-26T09:30:59.000Z</time>
      </trkpt>
      <trkpt lat="46.03511" lon="0.95478">
        <ele>337</ele>
        <time>2011-06-26T09:31:24.000Z</time>
      </trkpt>
      <trkpt lat="46.0351" lon="0.95481">
        <ele>338</ele>
        <time>2011-06-26T09:31:25.000Z</time>
      </trkpt>
      <trkpt lat="46.03496" lon="0.95511">
        <ele>341</ele>
        <time>2011-06-26T09:31:38.000Z</time>
      </trkpt>
      <trkpt lat="46.03494" lon="0.9552">
        <ele>341</ele>
        <time>2011-06-26T09:31:42.000Z</time>
      </trkpt>
      <trkpt lat="46.03488" lon="0.95558">
        <ele>346</ele>
        <time>2011-06-26T09:32:00.000Z</time>
      </trkpt>
      <trkpt lat="46.03486" lon="0.95626">
        <ele>349</ele>
        <time>2011-06-26T09:32:26.000Z</time>
      </trkpt>
      <trkpt lat="46.03486" lon="0.95628">
        <ele>349</ele>
        <time>2011-06-26T09:32:27.000Z</time>
      </trkpt>
      <trkpt lat="46.03482" lon="0.95674">
        <ele>350</ele>
        <time>2011-06-26T09:32:42.000Z</time>
      </trkpt>
      <trkpt lat="46.03474" lon="0.95686">
        <ele>351</ele>
        <time>2011-06-26T09:32:48.000Z</time>
      </trkpt>
      <trkpt lat="46.03466" lon="0.95695">
        <ele>350</ele>
        <time>2011-06-26T09:32:54.000Z</time>
      </trkpt>
      <trkpt lat="46.03422" lon="0.95716">
        <ele>355</ele>
        <time>2011-06-26T09:33:20.000Z</time>
      </trkpt>
      <trkpt lat="46.03421" lon="0.95718">
        <ele>355</ele>
        <time>2011-06-26T09:33:21.000Z</time>
      </trkpt>
      <trkpt lat="46.03417" lon="0.95722">
        <ele>356</ele>
        <time>2011-06-26T09:33:24.000Z</time>
      </trkpt>
      <trkpt lat="46.03415" lon="0.9573">
        <ele>357</ele>
        <time>2011-06-26T09:33:28.000Z</time>
      </trkpt>
      <trkpt lat="46.03413" lon="0.95737">
        <ele>358</ele>
        <time>2011-06-26T09:33:34.000Z</time>
      </trkpt>
      <trkpt lat="46.03407" lon="0.95736">
        <ele>358</ele>
        <time>2011-06-26T09:33:38.000Z</time>
      </trkpt>
      <trkpt lat="46.03373" lon="0.95745">
        <ele>358</ele>
        <time>2011-06-26T09:33:51.000Z</time>
      </trkpt>
      <trkpt lat="46.03363" lon="0.95746">
        <ele>358</ele>
        <time>2011-06-26T09:33:54.000Z</time>
      </trkpt>
      <trkpt lat="46.03341" lon="0.95759">
        <ele>359</ele>
        <time>2011-06-26T09:34:00.000Z</time>
      </trkpt>
      <trkpt lat="46.03332" lon="0.95758">
        <ele>359</ele>
        <time>2011-06-26T09:34:02.000Z</time>
      </trkpt>
      <trkpt lat="46.03307" lon="0.95752">
        <ele>360</ele>
        <time>2011-06-26T09:34:07.000Z</time>
      </trkpt>
      <trkpt lat="46.03279" lon="0.95761">
        <ele>358</ele>
        <time>2011-06-26T09:34:13.000Z</time>
      </trkpt>
      <trkpt lat="46.03236" lon="0.95741">
        <ele>357</ele>
        <time>2011-06-26T09:34:27.000Z</time>
      </trkpt>
      <trkpt lat="46.03233" lon="0.9574">
        <ele>357</ele>
        <time>2011-06-26T09:34:28.000Z</time>
      </trkpt>
      <trkpt lat="46.03222" lon="0.95739">
        <ele>359</ele>
        <time>2011-06-26T09:34:33.000Z</time>
      </trkpt>
      <trkpt lat="46.03207" lon="0.95744">
        <ele>361</ele>
        <time>2011-06-26T09:34:39.000Z</time>
      </trkpt>
      <trkpt lat="46.03201" lon="0.95752">
        <ele>363</ele>
        <time>2011-06-26T09:34:43.000Z</time>
      </trkpt>
      <trkpt lat="46.03171" lon="0.95804">
        <ele>370</ele>
        <time>2011-06-26T09:35:10.000Z</time>
      </trkpt>
      <trkpt lat="46.0317" lon="0.95806">
        <ele>370</ele>
        <time>2011-06-26T09:35:11.000Z</time>
      </trkpt>
      <trkpt lat="46.03167" lon="0.95814">
        <ele>371</ele>
        <time>2011-06-26T09:35:15.000Z</time>
      </trkpt>
      <trkpt lat="46.03154" lon="0.95845">
        <ele>373</ele>
        <time>2011-06-26T09:35:29.000Z</time>
      </trkpt>
      <trkpt lat="46.03138" lon="0.95847">
        <ele>373</ele>
        <time>2011-06-26T09:35:37.000Z</time>
      </trkpt>
      <trkpt lat="46.03093" lon="0.95861">
        <ele>374</ele>
        <time>2011-06-26T09:36:00.000Z</time>
      </trkpt>
      <trkpt lat="46.03091" lon="0.95862">
        <ele>374</ele>
        <time>2011-06-26T09:36:01.000Z</time>
      </trkpt>
      <trkpt lat="46.03065" lon="0.95869">
        <ele>375</ele>
        <time>2011-06-26T09:36:15.000Z</time>
      </trkpt>
      <trkpt lat="46.03064" lon="0.95879">
        <ele>376</ele>
        <time>2011-06-26T09:36:19.000Z</time>
      </trkpt>
      <trkpt lat="46.03067" lon="0.95886">
        <ele>377</ele>
        <time>2011-06-26T09:36:23.000Z</time>
      </trkpt>
      <trkpt lat="46.03077" lon="0.95891">
        <ele>378</ele>
        <time>2011-06-26T09:36:29.000Z</time>
      </trkpt>
      <trkpt lat="46.03083" lon="0.95887">
        <ele>378</ele>
        <time>2011-06-26T09:36:34.000Z</time>
      </trkpt>
      <trkpt lat="46.03082" lon="0.95884">
        <ele>379</ele>
        <time>2011-06-26T09:36:51.000Z</time>
      </trkpt>
      <trkpt lat="46.03083" lon="0.95888">
        <ele>383</ele>
        <time>2011-06-26T09:45:56.000Z</time>
      </trkpt>
      <trkpt lat="46.03082" lon="0.95886">
        <ele>381</ele>
        <time>2011-06-26T09:52:39.000Z</time>
      </trkpt>
      <trkpt lat="46.03082" lon="0.95893">
        <ele>385</ele>
        <time>2011-06-26T09:55:31.000Z</time>
      </trkpt>
      <trkpt lat="46.03068" lon="0.95889">
        <ele>383</ele>
        <time>2011-06-26T09:55:48.000Z</time>
      </trkpt>
      <trkpt lat="46.0306" lon="0.95886">
        <ele>382</ele>
        <time>2011-06-26T09:55:52.000Z</time>
      </trkpt>
      <trkpt lat="46.03017" lon="0.95867">
        <ele>381</ele>
        <time>2011-06-26T09:56:10.000Z</time>
      </trkpt>
      <trkpt lat="46.03014" lon="0.95866">
        <ele>381</ele>
        <time>2011-06-26T09:56:11.000Z</time>
      </trkpt>
      <trkpt lat="46.03003" lon="0.9586">
        <ele>381</ele>
        <time>2011-06-26T09:56:15.000Z</time>
      </trkpt>
      <trkpt lat="46.02959" lon="0.95839">
        <ele>382</ele>
        <time>2011-06-26T09:56:31.000Z</time>
      </trkpt>
      <trkpt lat="46.02956" lon="0.95838">
        <ele>382</ele>
        <time>2011-06-26T09:56:32.000Z</time>
      </trkpt>
      <trkpt lat="46.02945" lon="0.95836">
        <ele>383</ele>
        <time>2011-06-26T09:56:35.000Z</time>
      </trkpt>
      <trkpt lat="46.02938" lon="0.95834">
        <ele>383</ele>
        <time>2011-06-26T09:56:37.000Z</time>
      </trkpt>
      <trkpt lat="46.02918" lon="0.95827">
        <ele>383</ele>
        <time>2011-06-26T09:56:43.000Z</time>
      </trkpt>
      <trkpt lat="46.02873" lon="0.95817">
        <ele>383</ele>
        <time>2011-06-26T09:56:55.000Z</time>
      </trkpt>
      <trkpt lat="46.02869" lon="0.95817">
        <ele>383</ele>
        <time>2011-06-26T09:56:56.000Z</time>
      </trkpt>
      <trkpt lat="46.02822" lon="0.95815">
        <ele>383</ele>
        <time>2011-06-26T09:57:08.000Z</time>
      </trkpt>
      <trkpt lat="46.02818" lon="0.95815">
        <ele>383</ele>
        <time>2011-06-26T09:57:09.000Z</time>
      </trkpt>
      <trkpt lat="46.02813" lon="0.95816">
        <ele>383</ele>
        <time>2011-06-26T09:57:10.000Z</time>
      </trkpt>
      <trkpt lat="46.0277" lon="0.95835">
        <ele>383</ele>
        <time>2011-06-26T09:57:21.000Z</time>
      </trkpt>
      <trkpt lat="46.02767" lon="0.95838">
        <ele>383</ele>
        <time>2011-06-26T09:57:22.000Z</time>
      </trkpt>
      <trkpt lat="46.02754" lon="0.95851">
        <ele>383</ele>
        <time>2011-06-26T09:57:26.000Z</time>
      </trkpt>
      <trkpt lat="46.02742" lon="0.95851">
        <ele>383</ele>
        <time>2011-06-26T09:57:29.000Z</time>
      </trkpt>
      <trkpt lat="46.02708" lon="0.95847">
        <ele>384</ele>
        <time>2011-06-26T09:57:39.000Z</time>
      </trkpt>
      <trkpt lat="46.02686" lon="0.95852">
        <ele>385</ele>
        <time>2011-06-26T09:57:46.000Z</time>
      </trkpt>
      <trkpt lat="46.02674" lon="0.95857">
        <ele>384</ele>
        <time>2011-06-26T09:57:50.000Z</time>
      </trkpt>
      <trkpt lat="46.02656" lon="0.95862">
        <ele>383</ele>
        <time>2011-06-26T09:57:56.000Z</time>
      </trkpt>
      <trkpt lat="46.02634" lon="0.95859">
        <ele>382</ele>
        <time>2011-06-26T09:58:02.000Z</time>
      </trkpt>
      <trkpt lat="46.0261" lon="0.9586">
        <ele>380</ele>
        <time>2011-06-26T09:58:10.000Z</time>
      </trkpt>
      <trkpt lat="46.02581" lon="0.95872">
        <ele>383</ele>
        <time>2011-06-26T09:58:23.000Z</time>
      </trkpt>
      <trkpt lat="46.02569" lon="0.95876">
        <ele>384</ele>
        <time>2011-06-26T09:58:29.000Z</time>
      </trkpt>
      <trkpt lat="46.02554" lon="0.95882">
        <ele>388</ele>
        <time>2011-06-26T09:58:37.000Z</time>
      </trkpt>
      <trkpt lat="46.02528" lon="0.9587">
        <ele>399</ele>
        <time>2011-06-26T09:59:06.000Z</time>
      </trkpt>
      <trkpt lat="46.02521" lon="0.95868">
        <ele>399</ele>
        <time>2011-06-26T09:59:10.000Z</time>
      </trkpt>
      <trkpt lat="46.02475" lon="0.95863">
        <ele>399</ele>
        <time>2011-06-26T09:59:44.000Z</time>
      </trkpt>
      <trkpt lat="46.02474" lon="0.95863">
        <ele>399</ele>
        <time>2011-06-26T09:59:45.000Z</time>
      </trkpt>
      <trkpt lat="46.02432" lon="0.95855">
        <ele>403</ele>
        <time>2011-06-26T10:00:12.000Z</time>
      </trkpt>
      <trkpt lat="46.02405" lon="0.95848">
        <ele>407</ele>
        <time>2011-06-26T10:00:33.000Z</time>
      </trkpt>
      <trkpt lat="46.02378" lon="0.9585">
        <ele>415</ele>
        <time>2011-06-26T10:01:00.000Z</time>
      </trkpt>
      <trkpt lat="46.02365" lon="0.95854">
        <ele>415</ele>
        <time>2011-06-26T10:01:09.000Z</time>
      </trkpt>
      <trkpt lat="46.02339" lon="0.95864">
        <ele>418</ele>
        <time>2011-06-26T10:01:27.000Z</time>
      </trkpt>
      <trkpt lat="46.0233" lon="0.95867">
        <ele>419</ele>
        <time>2011-06-26T10:01:33.000Z</time>
      </trkpt>
      <trkpt lat="46.02306" lon="0.95861">
        <ele>418</ele>
        <time>2011-06-26T10:01:42.000Z</time>
      </trkpt>
      <trkpt lat="46.02262" lon="0.95845">
        <ele>416</ele>
        <time>2011-06-26T10:01:51.000Z</time>
      </trkpt>
      <trkpt lat="46.02256" lon="0.95843">
        <ele>416</ele>
        <time>2011-06-26T10:01:52.000Z</time>
      </trkpt>
      <trkpt lat="46.02213" lon="0.95825">
        <ele>417</ele>
        <time>2011-06-26T10:02:01.000Z</time>
      </trkpt>
      <trkpt lat="46.02208" lon="0.95822">
        <ele>417</ele>
        <time>2011-06-26T10:02:02.000Z</time>
      </trkpt>
      <trkpt lat="46.02192" lon="0.95812">
        <ele>416</ele>
        <time>2011-06-26T10:02:05.000Z</time>
      </trkpt>
      <trkpt lat="46.02179" lon="0.95799">
        <ele>415</ele>
        <time>2011-06-26T10:02:08.000Z</time>
      </trkpt>
      <trkpt lat="46.02153" lon="0.95779">
        <ele>414</ele>
        <time>2011-06-26T10:02:14.000Z</time>
      </trkpt>
      <trkpt lat="46.02122" lon="0.95768">
        <ele>415</ele>
        <time>2011-06-26T10:02:21.000Z</time>
      </trkpt>
      <trkpt lat="46.02105" lon="0.9576">
        <ele>416</ele>
        <time>2011-06-26T10:02:25.000Z</time>
      </trkpt>
      <trkpt lat="46.02087" lon="0.95745">
        <ele>417</ele>
        <time>2011-06-26T10:02:30.000Z</time>
      </trkpt>
      <trkpt lat="46.02066" lon="0.95746">
        <ele>417</ele>
        <time>2011-06-26T10:02:35.000Z</time>
      </trkpt>
      <trkpt lat="46.02019" lon="0.95749">
        <ele>420</ele>
        <time>2011-06-26T10:02:46.000Z</time>
      </trkpt>
      <trkpt lat="46.02014" lon="0.95749">
        <ele>420</ele>
        <time>2011-06-26T10:02:47.000Z</time>
      </trkpt>
      <trkpt lat="46.02001" lon="0.95748">
        <ele>420</ele>
        <time>2011-06-26T10:02:50.000Z</time>
      </trkpt>
      <trkpt lat="46.01974" lon="0.95744">
        <ele>422</ele>
        <time>2011-06-26T10:02:57.000Z</time>
      </trkpt>
      <trkpt lat="46.01962" lon="0.95741">
        <ele>423</ele>
        <time>2011-06-26T10:03:01.000Z</time>
      </trkpt>
      <trkpt lat="46.01951" lon="0.95742">
        <ele>424</ele>
        <time>2011-06-26T10:03:05.000Z</time>
      </trkpt>
      <trkpt lat="46.01944" lon="0.95748">
        <ele>425</ele>
        <time>2011-06-26T10:03:08.000Z</time>
      </trkpt>
      <trkpt lat="46.01934" lon="0.95758">
        <ele>424</ele>
        <time>2011-06-26T10:03:12.000Z</time>
      </trkpt>
      <trkpt lat="46.01925" lon="0.95763">
        <ele>423</ele>
        <time>2011-06-26T10:03:15.000Z</time>
      </trkpt>
      <trkpt lat="46.01881" lon="0.95774">
        <ele>424</ele>
        <time>2011-06-26T10:03:37.000Z</time>
      </trkpt>
      <trkpt lat="46.01879" lon="0.95773">
        <ele>424</ele>
        <time>2011-06-26T10:03:38.000Z</time>
      </trkpt>
      <trkpt lat="46.01866" lon="0.9577">
        <ele>426</ele>
        <time>2011-06-26T10:03:44.000Z</time>
      </trkpt>
      <trkpt lat="46.01821" lon="0.9577">
        <ele>431</ele>
        <time>2011-06-26T10:04:02.000Z</time>
      </trkpt>
      <trkpt lat="46.01818" lon="0.9577">
        <ele>431</ele>
        <time>2011-06-26T10:04:03.000Z</time>
      </trkpt>
      <trkpt lat="46.01772" lon="0.95767">
        <ele>433</ele>
        <time>2011-06-26T10:04:18.000Z</time>
      </trkpt>
      <trkpt lat="46.01769" lon="0.95766">
        <ele>433</ele>
        <time>2011-06-26T10:04:19.000Z</time>
      </trkpt>
      <trkpt lat="46.01766" lon="0.95766">
        <ele>433</ele>
        <time>2011-06-26T10:04:20.000Z</time>
      </trkpt>
      <trkpt lat="46.01754" lon="0.95761">
        <ele>433</ele>
        <time>2011-06-26T10:04:24.000Z</time>
      </trkpt>
      <trkpt lat="46.01738" lon="0.9575">
        <ele>434</ele>
        <time>2011-06-26T10:04:30.000Z</time>
      </trkpt>
      <trkpt lat="46.01725" lon="0.95741">
        <ele>435</ele>
        <time>2011-06-26T10:04:35.000Z</time>
      </trkpt>
      <trkpt lat="46.0169" lon="0.95707">
        <ele>438</ele>
        <time>2011-06-26T10:04:49.000Z</time>
      </trkpt>
      <trkpt lat="46.01673" lon="0.95692">
        <ele>441</ele>
        <time>2011-06-26T10:05:02.000Z</time>
      </trkpt>
      <trkpt lat="46.01659" lon="0.9568">
        <ele>443</ele>
        <time>2011-06-26T10:05:10.000Z</time>
      </trkpt>
      <trkpt lat="46.01621" lon="0.95652">
        <ele>444</ele>
        <time>2011-06-26T10:05:28.000Z</time>
      </trkpt>
      <trkpt lat="46.01578" lon="0.9563">
        <ele>445</ele>
        <time>2011-06-26T10:05:42.000Z</time>
      </trkpt>
      <trkpt lat="46.01574" lon="0.95629">
        <ele>444</ele>
        <time>2011-06-26T10:05:43.000Z</time>
      </trkpt>
      <trkpt lat="46.01534" lon="0.95621">
        <ele>441</ele>
        <time>2011-06-26T10:05:52.000Z</time>
      </trkpt>
      <trkpt lat="46.01529" lon="0.95622">
        <ele>440</ele>
        <time>2011-06-26T10:05:53.000Z</time>
      </trkpt>
      <trkpt lat="46.01482" lon="0.95626">
        <ele>437</ele>
        <time>2011-06-26T10:06:03.000Z</time>
      </trkpt>
      <trkpt lat="46.01477" lon="0.95627">
        <ele>437</ele>
        <time>2011-06-26T10:06:04.000Z</time>
      </trkpt>
      <trkpt lat="46.01463" lon="0.95631">
        <ele>437</ele>
        <time>2011-06-26T10:06:07.000Z</time>
      </trkpt>
      <trkpt lat="46.01416" lon="0.95651">
        <ele>434</ele>
        <time>2011-06-26T10:06:17.000Z</time>
      </trkpt>
      <trkpt lat="46.01411" lon="0.95652">
        <ele>434</ele>
        <time>2011-06-26T10:06:18.000Z</time>
      </trkpt>
      <trkpt lat="46.01396" lon="0.95655">
        <ele>434</ele>
        <time>2011-06-26T10:06:21.000Z</time>
      </trkpt>
      <trkpt lat="46.01362" lon="0.95653">
        <ele>433</ele>
        <time>2011-06-26T10:06:28.000Z</time>
      </trkpt>
      <trkpt lat="46.01329" lon="0.95649">
        <ele>432</ele>
        <time>2011-06-26T10:06:34.000Z</time>
      </trkpt>
      <trkpt lat="46.01295" lon="0.95661">
        <ele>431</ele>
        <time>2011-06-26T10:06:40.000Z</time>
      </trkpt>
      <trkpt lat="46.01249" lon="0.95688">
        <ele>429</ele>
        <time>2011-06-26T10:06:48.000Z</time>
      </trkpt>
      <trkpt lat="46.01242" lon="0.95691">
        <ele>429</ele>
        <time>2011-06-26T10:06:49.000Z</time>
      </trkpt>
      <trkpt lat="46.01196" lon="0.95712">
        <ele>425</ele>
        <time>2011-06-26T10:06:57.000Z</time>
      </trkpt>
      <trkpt lat="46.01192" lon="0.95717">
        <ele>424</ele>
        <time>2011-06-26T10:06:58.000Z</time>
      </trkpt>
      <trkpt lat="46.01159" lon="0.95768">
        <ele>424</ele>
        <time>2011-06-26T10:07:07.000Z</time>
      </trkpt>
      <trkpt lat="46.01155" lon="0.95775">
        <ele>423</ele>
        <time>2011-06-26T10:07:08.000Z</time>
      </trkpt>
      <trkpt lat="46.01122" lon="0.95824">
        <ele>423</ele>
        <time>2011-06-26T10:07:16.000Z</time>
      </trkpt>
      <trkpt lat="46.01117" lon="0.95829">
        <ele>423</ele>
        <time>2011-06-26T10:07:17.000Z</time>
      </trkpt>
      <trkpt lat="46.01097" lon="0.95841">
        <ele>423</ele>
        <time>2011-06-26T10:07:21.000Z</time>
      </trkpt>
      <trkpt lat="46.01088" lon="0.95841">
        <ele>423</ele>
        <time>2011-06-26T10:07:23.000Z</time>
      </trkpt>
      <trkpt lat="46.01075" lon="0.95835">
        <ele>423</ele>
        <time>2011-06-26T10:07:26.000Z</time>
      </trkpt>
      <trkpt lat="46.0104" lon="0.95796">
        <ele>425</ele>
        <time>2011-06-26T10:07:38.000Z</time>
      </trkpt>
      <trkpt lat="46.01037" lon="0.95795">
        <ele>425</ele>
        <time>2011-06-26T10:07:39.000Z</time>
      </trkpt>
      <trkpt lat="46.01012" lon="0.95785">
        <ele>425</ele>
        <time>2011-06-26T10:07:46.000Z</time>
      </trkpt>
      <trkpt lat="46.01001" lon="0.95788">
        <ele>425</ele>
        <time>2011-06-26T10:07:49.000Z</time>
      </trkpt>
      <trkpt lat="46.00992" lon="0.95794">
        <ele>425</ele>
        <time>2011-06-26T10:07:52.000Z</time>
      </trkpt>
      <trkpt lat="46.00963" lon="0.95833">
        <ele>425</ele>
        <time>2011-06-26T10:08:02.000Z</time>
      </trkpt>
      <trkpt lat="46.00952" lon="0.9586">
        <ele>425</ele>
        <time>2011-06-26T10:08:07.000Z</time>
      </trkpt>
      <trkpt lat="46.00944" lon="0.959">
        <ele>424</ele>
        <time>2011-06-26T10:08:15.000Z</time>
      </trkpt>
      <trkpt lat="46.0094" lon="0.95923">
        <ele>424</ele>
        <time>2011-06-26T10:08:22.000Z</time>
      </trkpt>
      <trkpt lat="46.0093" lon="0.95983">
        <ele>423</ele>
        <time>2011-06-26T10:08:34.000Z</time>
      </trkpt>
      <trkpt lat="46.00931" lon="0.95989">
        <ele>423</ele>
        <time>2011-06-26T10:08:35.000Z</time>
      </trkpt>
      <trkpt lat="46.00932" lon="0.96026">
        <ele>424</ele>
        <time>2011-06-26T10:08:42.000Z</time>
      </trkpt>
      <trkpt lat="46.00919" lon="0.9609">
        <ele>425</ele>
        <time>2011-06-26T10:08:53.000Z</time>
      </trkpt>
      <trkpt lat="46.00918" lon="0.96096">
        <ele>426</ele>
        <time>2011-06-26T10:08:54.000Z</time>
      </trkpt>
      <trkpt lat="46.00905" lon="0.96159">
        <ele>425</ele>
        <time>2011-06-26T10:09:03.000Z</time>
      </trkpt>
      <trkpt lat="46.00904" lon="0.96167">
        <ele>425</ele>
        <time>2011-06-26T10:09:04.000Z</time>
      </trkpt>
      <trkpt lat="46.00891" lon="0.96233">
        <ele>423</ele>
        <time>2011-06-26T10:09:12.000Z</time>
      </trkpt>
      <trkpt lat="46.00889" lon="0.96242">
        <ele>423</ele>
        <time>2011-06-26T10:09:13.000Z</time>
      </trkpt>
      <trkpt lat="46.00881" lon="0.96308">
        <ele>420</ele>
        <time>2011-06-26T10:09:20.000Z</time>
      </trkpt>
      <trkpt lat="46.00879" lon="0.96317">
        <ele>420</ele>
        <time>2011-06-26T10:09:21.000Z</time>
      </trkpt>
      <trkpt lat="46.00866" lon="0.9638">
        <ele>415</ele>
        <time>2011-06-26T10:09:28.000Z</time>
      </trkpt>
      <trkpt lat="46.00864" lon="0.96389">
        <ele>414</ele>
        <time>2011-06-26T10:09:29.000Z</time>
      </trkpt>
      <trkpt lat="46.00861" lon="0.96398">
        <ele>414</ele>
        <time>2011-06-26T10:09:30.000Z</time>
      </trkpt>
      <trkpt lat="46.00846" lon="0.96416">
        <ele>413</ele>
        <time>2011-06-26T10:09:33.000Z</time>
      </trkpt>
      <trkpt lat="46.00797" lon="0.96431">
        <ele>409</ele>
        <time>2011-06-26T10:09:39.000Z</time>
      </trkpt>
      <trkpt lat="46.00787" lon="0.96433">
        <ele>409</ele>
        <time>2011-06-26T10:09:40.000Z</time>
      </trkpt>
      <trkpt lat="46.00739" lon="0.96441">
        <ele>405</ele>
        <time>2011-06-26T10:09:45.000Z</time>
      </trkpt>
      <trkpt lat="46.00729" lon="0.96443">
        <ele>404</ele>
        <time>2011-06-26T10:09:46.000Z</time>
      </trkpt>
      <trkpt lat="46.00711" lon="0.9645">
        <ele>403</ele>
        <time>2011-06-26T10:09:48.000Z</time>
      </trkpt>
      <trkpt lat="46.00688" lon="0.96478">
        <ele>400</ele>
        <time>2011-06-26T10:09:51.000Z</time>
      </trkpt>
      <trkpt lat="46.00659" lon="0.96533">
        <ele>399</ele>
        <time>2011-06-26T10:09:56.000Z</time>
      </trkpt>
      <trkpt lat="46.00653" lon="0.96543">
        <ele>399</ele>
        <time>2011-06-26T10:09:57.000Z</time>
      </trkpt>
      <trkpt lat="46.00642" lon="0.96557">
        <ele>399</ele>
        <time>2011-06-26T10:09:59.000Z</time>
      </trkpt>
      <trkpt lat="46.00628" lon="0.96563">
        <ele>399</ele>
        <time>2011-06-26T10:10:01.000Z</time>
      </trkpt>
      <trkpt lat="46.00595" lon="0.96567">
        <ele>400</ele>
        <time>2011-06-26T10:10:07.000Z</time>
      </trkpt>
      <trkpt lat="46.0055" lon="0.96583">
        <ele>405</ele>
        <time>2011-06-26T10:10:22.000Z</time>
      </trkpt>
      <trkpt lat="46.00548" lon="0.96583">
        <ele>405</ele>
        <time>2011-06-26T10:10:23.000Z</time>
      </trkpt>
      <trkpt lat="46.00537" lon="0.96583">
        <ele>406</ele>
        <time>2011-06-26T10:10:27.000Z</time>
      </trkpt>
      <trkpt lat="46.00516" lon="0.96587">
        <ele>407</ele>
        <time>2011-06-26T10:10:35.000Z</time>
      </trkpt>
      <trkpt lat="46.00471" lon="0.96601">
        <ele>408</ele>
        <time>2011-06-26T10:10:52.000Z</time>
      </trkpt>
      <trkpt lat="46.00469" lon="0.96602">
        <ele>408</ele>
        <time>2011-06-26T10:10:53.000Z</time>
      </trkpt>
      <trkpt lat="46.00464" lon="0.96605">
        <ele>408</ele>
        <time>2011-06-26T10:10:55.000Z</time>
      </trkpt>
      <trkpt lat="46.00441" lon="0.96624">
        <ele>407</ele>
        <time>2011-06-26T10:11:02.000Z</time>
      </trkpt>
      <trkpt lat="46.00407" lon="0.96661">
        <ele>408</ele>
        <time>2011-06-26T10:11:13.000Z</time>
      </trkpt>
      <trkpt lat="46.00404" lon="0.96663">
        <ele>408</ele>
        <time>2011-06-26T10:11:14.000Z</time>
      </trkpt>
      <trkpt lat="46.00388" lon="0.96678">
        <ele>409</ele>
        <time>2011-06-26T10:11:20.000Z</time>
      </trkpt>
      <trkpt lat="46.0036" lon="0.96727">
        <ele>411</ele>
        <time>2011-06-26T10:11:33.000Z</time>
      </trkpt>
      <trkpt lat="46.00357" lon="0.9673">
        <ele>411</ele>
        <time>2011-06-26T10:11:34.000Z</time>
      </trkpt>
      <trkpt lat="46.00324" lon="0.96778">
        <ele>412</ele>
        <time>2011-06-26T10:11:47.000Z</time>
      </trkpt>
      <trkpt lat="46.0032" lon="0.96782">
        <ele>412</ele>
        <time>2011-06-26T10:11:48.000Z</time>
      </trkpt>
      <trkpt lat="46.00314" lon="0.96789">
        <ele>412</ele>
        <time>2011-06-26T10:11:50.000Z</time>
      </trkpt>
      <trkpt lat="46.00272" lon="0.96823">
        <ele>411</ele>
        <time>2011-06-26T10:12:01.000Z</time>
      </trkpt>
      <trkpt lat="46.00268" lon="0.96826">
        <ele>411</ele>
        <time>2011-06-26T10:12:02.000Z</time>
      </trkpt>
      <trkpt lat="46.00254" lon="0.96834">
        <ele>411</ele>
        <time>2011-06-26T10:12:05.000Z</time>
      </trkpt>
      <trkpt lat="46.00215" lon="0.96842">
        <ele>411</ele>
        <time>2011-06-26T10:12:14.000Z</time>
      </trkpt>
      <trkpt lat="46.00184" lon="0.96831">
        <ele>410</ele>
        <time>2011-06-26T10:12:21.000Z</time>
      </trkpt>
      <trkpt lat="46.00168" lon="0.96824">
        <ele>410</ele>
        <time>2011-06-26T10:12:24.000Z</time>
      </trkpt>
      <trkpt lat="46.00159" lon="0.96828">
        <ele>410</ele>
        <time>2011-06-26T10:12:26.000Z</time>
      </trkpt>
      <trkpt lat="46.00145" lon="0.96836">
        <ele>409</ele>
        <time>2011-06-26T10:12:29.000Z</time>
      </trkpt>
      <trkpt lat="46.00132" lon="0.96845">
        <ele>407</ele>
        <time>2011-06-26T10:12:32.000Z</time>
      </trkpt>
      <trkpt lat="46.00124" lon="0.96863">
        <ele>405</ele>
        <time>2011-06-26T10:12:35.000Z</time>
      </trkpt>
      <trkpt lat="46.00101" lon="0.96926">
        <ele>400</ele>
        <time>2011-06-26T10:12:42.000Z</time>
      </trkpt>
      <trkpt lat="46.00097" lon="0.96936">
        <ele>399</ele>
        <time>2011-06-26T10:12:43.000Z</time>
      </trkpt>
      <trkpt lat="46.00091" lon="0.96945">
        <ele>398</ele>
        <time>2011-06-26T10:12:44.000Z</time>
      </trkpt>
      <trkpt lat="46.00064" lon="0.9699">
        <ele>394</ele>
        <time>2011-06-26T10:12:51.000Z</time>
      </trkpt>
      <trkpt lat="46.0006" lon="0.96993">
        <ele>394</ele>
        <time>2011-06-26T10:12:52.000Z</time>
      </trkpt>
      <trkpt lat="46.00048" lon="0.96996">
        <ele>394</ele>
        <time>2011-06-26T10:12:54.000Z</time>
      </trkpt>
      <trkpt lat="46.00031" lon="0.96993">
        <ele>393</ele>
        <time>2011-06-26T10:12:57.000Z</time>
      </trkpt>
      <trkpt lat="46.00005" lon="0.96976">
        <ele>391</ele>
        <time>2011-06-26T10:13:02.000Z</time>
      </trkpt>
      <trkpt lat="45.9999" lon="0.96969">
        <ele>389</ele>
        <time>2011-06-26T10:13:06.000Z</time>
      </trkpt>
      <trkpt lat="45.99968" lon="0.96952">
        <ele>386</ele>
        <time>2011-06-26T10:13:11.000Z</time>
      </trkpt>
      <trkpt lat="45.99921" lon="0.96942">
        <ele>380</ele>
        <time>2011-06-26T10:13:20.000Z</time>
      </trkpt>
      <trkpt lat="45.99916" lon="0.96941">
        <ele>379</ele>
        <time>2011-06-26T10:13:21.000Z</time>
      </trkpt>
      <trkpt lat="45.99871" lon="0.96934">
        <ele>380</ele>
        <time>2011-06-26T10:13:30.000Z</time>
      </trkpt>
      <trkpt lat="45.99866" lon="0.96934">
        <ele>380</ele>
        <time>2011-06-26T10:13:31.000Z</time>
      </trkpt>
      <trkpt lat="45.99817" lon="0.96938">
        <ele>383</ele>
        <time>2011-06-26T10:13:42.000Z</time>
      </trkpt>
      <trkpt lat="45.99812" lon="0.96938">
        <ele>383</ele>
        <time>2011-06-26T10:13:43.000Z</time>
      </trkpt>
      <trkpt lat="45.99773" lon="0.96947">
        <ele>381</ele>
        <time>2011-06-26T10:13:51.000Z</time>
      </trkpt>
      <trkpt lat="45.99768" lon="0.96949">
        <ele>381</ele>
        <time>2011-06-26T10:13:52.000Z</time>
      </trkpt>
      <trkpt lat="45.99719" lon="0.96962">
        <ele>378</ele>
        <time>2011-06-26T10:14:00.000Z</time>
      </trkpt>
      <trkpt lat="45.99712" lon="0.96961">
        <ele>377</ele>
        <time>2011-06-26T10:14:01.000Z</time>
      </trkpt>
      <trkpt lat="45.99691" lon="0.96954">
        <ele>374</ele>
        <time>2011-06-26T10:14:04.000Z</time>
      </trkpt>
      <trkpt lat="45.99643" lon="0.96936">
        <ele>370</ele>
        <time>2011-06-26T10:14:10.000Z</time>
      </trkpt>
      <trkpt lat="45.99635" lon="0.96935">
        <ele>370</ele>
        <time>2011-06-26T10:14:11.000Z</time>
      </trkpt>
      <trkpt lat="45.99582" lon="0.96935">
        <ele>367</ele>
        <time>2011-06-26T10:14:17.000Z</time>
      </trkpt>
      <trkpt lat="45.99574" lon="0.96935">
        <ele>367</ele>
        <time>2011-06-26T10:14:18.000Z</time>
      </trkpt>
      <trkpt lat="45.99521" lon="0.96937">
        <ele>364</ele>
        <time>2011-06-26T10:14:24.000Z</time>
      </trkpt>
      <trkpt lat="45.99512" lon="0.96938">
        <ele>364</ele>
        <time>2011-06-26T10:14:25.000Z</time>
      </trkpt>
      <trkpt lat="45.99466" lon="0.96942">
        <ele>362</ele>
        <time>2011-06-26T10:14:31.000Z</time>
      </trkpt>
      <trkpt lat="45.99458" lon="0.96943">
        <ele>362</ele>
        <time>2011-06-26T10:14:32.000Z</time>
      </trkpt>
      <trkpt lat="45.99421" lon="0.96949">
        <ele>362</ele>
        <time>2011-06-26T10:14:38.000Z</time>
      </trkpt>
      <trkpt lat="45.99372" lon="0.96964">
        <ele>360</ele>
        <time>2011-06-26T10:14:47.000Z</time>
      </trkpt>
      <trkpt lat="45.99368" lon="0.96966">
        <ele>360</ele>
        <time>2011-06-26T10:14:48.000Z</time>
      </trkpt>
      <trkpt lat="45.99329" lon="0.96982">
        <ele>360</ele>
        <time>2011-06-26T10:14:56.000Z</time>
      </trkpt>
      <trkpt lat="45.99324" lon="0.96983">
        <ele>360</ele>
        <time>2011-06-26T10:14:57.000Z</time>
      </trkpt>
      <trkpt lat="45.99299" lon="0.96998">
        <ele>361</ele>
        <time>2011-06-26T10:15:03.000Z</time>
      </trkpt>
      <trkpt lat="45.99287" lon="0.97013">
        <ele>361</ele>
        <time>2011-06-26T10:15:07.000Z</time>
      </trkpt>
      <trkpt lat="45.99251" lon="0.97065">
        <ele>361</ele>
        <time>2011-06-26T10:15:17.000Z</time>
      </trkpt>
      <trkpt lat="45.99246" lon="0.97071">
        <ele>361</ele>
        <time>2011-06-26T10:15:18.000Z</time>
      </trkpt>
      <trkpt lat="45.99229" lon="0.971">
        <ele>360</ele>
        <time>2011-06-26T10:15:22.000Z</time>
      </trkpt>
      <trkpt lat="45.99202" lon="0.97158">
        <ele>358</ele>
        <time>2011-06-26T10:15:30.000Z</time>
      </trkpt>
      <trkpt lat="45.99199" lon="0.97162">
        <ele>358</ele>
        <time>2011-06-26T10:15:31.000Z</time>
      </trkpt>
      <trkpt lat="45.99191" lon="0.97176">
        <ele>358</ele>
        <time>2011-06-26T10:15:34.000Z</time>
      </trkpt>
      <trkpt lat="45.9915" lon="0.97218">
        <ele>358</ele>
        <time>2011-06-26T10:15:45.000Z</time>
      </trkpt>
      <trkpt lat="45.99147" lon="0.97221">
        <ele>358</ele>
        <time>2011-06-26T10:15:46.000Z</time>
      </trkpt>
      <trkpt lat="45.99107" lon="0.97262">
        <ele>357</ele>
        <time>2011-06-26T10:15:57.000Z</time>
      </trkpt>
      <trkpt lat="45.99102" lon="0.97266">
        <ele>357</ele>
        <time>2011-06-26T10:15:58.000Z</time>
      </trkpt>
      <trkpt lat="45.99077" lon="0.97284">
        <ele>356</ele>
        <time>2011-06-26T10:16:03.000Z</time>
      </trkpt>
      <trkpt lat="45.99048" lon="0.97291">
        <ele>354</ele>
        <time>2011-06-26T10:16:08.000Z</time>
      </trkpt>
      <trkpt lat="45.99001" lon="0.97298">
        <ele>354</ele>
        <time>2011-06-26T10:16:16.000Z</time>
      </trkpt>
      <trkpt lat="45.98995" lon="0.97298">
        <ele>354</ele>
        <time>2011-06-26T10:16:17.000Z</time>
      </trkpt>
      <trkpt lat="45.98947" lon="0.97303">
        <ele>354</ele>
        <time>2011-06-26T10:16:25.000Z</time>
      </trkpt>
      <trkpt lat="45.98941" lon="0.97303">
        <ele>354</ele>
        <time>2011-06-26T10:16:26.000Z</time>
      </trkpt>
      <trkpt lat="45.98923" lon="0.97301">
        <ele>353</ele>
        <time>2011-06-26T10:16:29.000Z</time>
      </trkpt>
      <trkpt lat="45.98872" lon="0.97292">
        <ele>352</ele>
        <time>2011-06-26T10:16:37.000Z</time>
      </trkpt>
      <trkpt lat="45.98866" lon="0.97292">
        <ele>352</ele>
        <time>2011-06-26T10:16:38.000Z</time>
      </trkpt>
      <trkpt lat="45.98814" lon="0.97291">
        <ele>349</ele>
        <time>2011-06-26T10:16:45.000Z</time>
      </trkpt>
      <trkpt lat="45.98806" lon="0.97291">
        <ele>349</ele>
        <time>2011-06-26T10:16:46.000Z</time>
      </trkpt>
      <trkpt lat="45.98761" lon="0.97292">
        <ele>347</ele>
        <time>2011-06-26T10:16:52.000Z</time>
      </trkpt>
      <trkpt lat="45.98753" lon="0.97294">
        <ele>347</ele>
        <time>2011-06-26T10:16:53.000Z</time>
      </trkpt>
      <trkpt lat="45.98739" lon="0.97301">
        <ele>347</ele>
        <time>2011-06-26T10:16:55.000Z</time>
      </trkpt>
      <trkpt lat="45.98705" lon="0.97334">
        <ele>346</ele>
        <time>2011-06-26T10:17:00.000Z</time>
      </trkpt>
      <trkpt lat="45.98699" lon="0.97342">
        <ele>345</ele>
        <time>2011-06-26T10:17:01.000Z</time>
      </trkpt>
      <trkpt lat="45.98663" lon="0.97385">
        <ele>343</ele>
        <time>2011-06-26T10:17:07.000Z</time>
      </trkpt>
      <trkpt lat="45.98658" lon="0.9739">
        <ele>343</ele>
        <time>2011-06-26T10:17:08.000Z</time>
      </trkpt>
      <trkpt lat="45.98652" lon="0.97394">
        <ele>343</ele>
        <time>2011-06-26T10:17:09.000Z</time>
      </trkpt>
      <trkpt lat="45.98608" lon="0.97405">
        <ele>343</ele>
        <time>2011-06-26T10:17:15.000Z</time>
      </trkpt>
      <trkpt lat="45.98602" lon="0.97406">
        <ele>343</ele>
        <time>2011-06-26T10:17:16.000Z</time>
      </trkpt>
      <trkpt lat="45.98555" lon="0.97413">
        <ele>342</ele>
        <time>2011-06-26T10:17:23.000Z</time>
      </trkpt>
      <trkpt lat="45.98549" lon="0.97414">
        <ele>342</ele>
        <time>2011-06-26T10:17:24.000Z</time>
      </trkpt>
      <trkpt lat="45.98501" lon="0.97422">
        <ele>340</ele>
        <time>2011-06-26T10:17:32.000Z</time>
      </trkpt>
      <trkpt lat="45.98495" lon="0.97422">
        <ele>340</ele>
        <time>2011-06-26T10:17:33.000Z</time>
      </trkpt>
      <trkpt lat="45.98471" lon="0.97422">
        <ele>340</ele>
        <time>2011-06-26T10:17:37.000Z</time>
      </trkpt>
      <trkpt lat="45.98426" lon="0.97405">
        <ele>338</ele>
        <time>2011-06-26T10:17:44.000Z</time>
      </trkpt>
      <trkpt lat="45.98419" lon="0.97403">
        <ele>338</ele>
        <time>2011-06-26T10:17:45.000Z</time>
      </trkpt>
      <trkpt lat="45.9837" lon="0.97394">
        <ele>337</ele>
        <time>2011-06-26T10:17:52.000Z</time>
      </trkpt>
      <trkpt lat="45.98363" lon="0.97396">
        <ele>337</ele>
        <time>2011-06-26T10:17:53.000Z</time>
      </trkpt>
      <trkpt lat="45.9832" lon="0.97421">
        <ele>336</ele>
        <time>2011-06-26T10:18:00.000Z</time>
      </trkpt>
      <trkpt lat="45.98314" lon="0.97425">
        <ele>336</ele>
        <time>2011-06-26T10:18:01.000Z</time>
      </trkpt>
      <trkpt lat="45.983" lon="0.97443">
        <ele>336</ele>
        <time>2011-06-26T10:18:04.000Z</time>
      </trkpt>
      <trkpt lat="45.98293" lon="0.97467">
        <ele>336</ele>
        <time>2011-06-26T10:18:07.000Z</time>
      </trkpt>
      <trkpt lat="45.98281" lon="0.97517">
        <ele>337</ele>
        <time>2011-06-26T10:18:14.000Z</time>
      </trkpt>
      <trkpt lat="45.98255" lon="0.97571">
        <ele>338</ele>
        <time>2011-06-26T10:18:24.000Z</time>
      </trkpt>
      <trkpt lat="45.98255" lon="0.97576">
        <ele>337</ele>
        <time>2011-06-26T10:18:25.000Z</time>
      </trkpt>
      <trkpt lat="45.98258" lon="0.9758">
        <ele>337</ele>
        <time>2011-06-26T10:18:26.000Z</time>
      </trkpt>
      <trkpt lat="45.98274" lon="0.97589">
        <ele>337</ele>
        <time>2011-06-26T10:18:30.000Z</time>
      </trkpt>
      <trkpt lat="45.98298" lon="0.97602">
        <ele>337</ele>
        <time>2011-06-26T10:18:35.000Z</time>
      </trkpt>
      <trkpt lat="45.98331" lon="0.97625">
        <ele>335</ele>
        <time>2011-06-26T10:18:41.000Z</time>
      </trkpt>
      <trkpt lat="45.9838" lon="0.9764">
        <ele>332</ele>
        <time>2011-06-26T10:18:48.000Z</time>
      </trkpt>
      <trkpt lat="45.98388" lon="0.97641">
        <ele>332</ele>
        <time>2011-06-26T10:18:49.000Z</time>
      </trkpt>
      <trkpt lat="45.98429" lon="0.97661">
        <ele>327</ele>
        <time>2011-06-26T10:18:55.000Z</time>
      </trkpt>
      <trkpt lat="45.98435" lon="0.97666">
        <ele>326</ele>
        <time>2011-06-26T10:18:56.000Z</time>
      </trkpt>
      <trkpt lat="45.98442" lon="0.97678">
        <ele>325</ele>
        <time>2011-06-26T10:18:58.000Z</time>
      </trkpt>
      <trkpt lat="45.9844" lon="0.97692">
        <ele>324</ele>
        <time>2011-06-26T10:19:00.000Z</time>
      </trkpt>
      <trkpt lat="45.98412" lon="0.97747">
        <ele>321</ele>
        <time>2011-06-26T10:19:10.000Z</time>
      </trkpt>
      <trkpt lat="45.98409" lon="0.97752">
        <ele>321</ele>
        <time>2011-06-26T10:19:11.000Z</time>
      </trkpt>
      <trkpt lat="45.98399" lon="0.97769">
        <ele>321</ele>
        <time>2011-06-26T10:19:14.000Z</time>
      </trkpt>
      <trkpt lat="45.98365" lon="0.97818">
        <ele>322</ele>
        <time>2011-06-26T10:19:23.000Z</time>
      </trkpt>
      <trkpt lat="45.98361" lon="0.97825">
        <ele>322</ele>
        <time>2011-06-26T10:19:24.000Z</time>
      </trkpt>
      <trkpt lat="45.98359" lon="0.97831">
        <ele>322</ele>
        <time>2011-06-26T10:19:25.000Z</time>
      </trkpt>
      <trkpt lat="45.98333" lon="0.97887">
        <ele>324</ele>
        <time>2011-06-26T10:19:35.000Z</time>
      </trkpt>
      <trkpt lat="45.98331" lon="0.97892">
        <ele>325</ele>
        <time>2011-06-26T10:19:36.000Z</time>
      </trkpt>
      <trkpt lat="45.98314" lon="0.97938">
        <ele>327</ele>
        <time>2011-06-26T10:19:44.000Z</time>
      </trkpt>
      <trkpt lat="45.98302" lon="0.98003">
        <ele>327</ele>
        <time>2011-06-26T10:19:54.000Z</time>
      </trkpt>
      <trkpt lat="45.983" lon="0.98012">
        <ele>326</ele>
        <time>2011-06-26T10:19:55.000Z</time>
      </trkpt>
      <trkpt lat="45.98296" lon="0.98029">
        <ele>326</ele>
        <time>2011-06-26T10:19:57.000Z</time>
      </trkpt>
      <trkpt lat="45.98285" lon="0.98062">
        <ele>324</ele>
        <time>2011-06-26T10:20:01.000Z</time>
      </trkpt>
      <trkpt lat="45.98272" lon="0.98077">
        <ele>323</ele>
        <time>2011-06-26T10:20:04.000Z</time>
      </trkpt>
      <trkpt lat="45.9825" lon="0.98098">
        <ele>322</ele>
        <time>2011-06-26T10:20:09.000Z</time>
      </trkpt>
      <trkpt lat="45.98234" lon="0.98102">
        <ele>321</ele>
        <time>2011-06-26T10:20:12.000Z</time>
      </trkpt>
      <trkpt lat="45.98212" lon="0.98097">
        <ele>319</ele>
        <time>2011-06-26T10:20:15.000Z</time>
      </trkpt>
      <trkpt lat="45.98191" lon="0.98096">
        <ele>316</ele>
        <time>2011-06-26T10:20:18.000Z</time>
      </trkpt>
      <trkpt lat="45.98184" lon="0.98104">
        <ele>314</ele>
        <time>2011-06-26T10:20:20.000Z</time>
      </trkpt>
      <trkpt lat="45.98185" lon="0.98124">
        <ele>312</ele>
        <time>2011-06-26T10:20:23.000Z</time>
      </trkpt>
      <trkpt lat="45.98205" lon="0.98186">
        <ele>305</ele>
        <time>2011-06-26T10:20:29.000Z</time>
      </trkpt>
      <trkpt lat="45.98209" lon="0.98196">
        <ele>304</ele>
        <time>2011-06-26T10:20:30.000Z</time>
      </trkpt>
      <trkpt lat="45.98214" lon="0.98205">
        <ele>302</ele>
        <time>2011-06-26T10:20:31.000Z</time>
      </trkpt>
      <trkpt lat="45.98236" lon="0.98274">
        <ele>292</ele>
        <time>2011-06-26T10:20:37.000Z</time>
      </trkpt>
      <trkpt lat="45.98238" lon="0.98287">
        <ele>290</ele>
        <time>2011-06-26T10:20:38.000Z</time>
      </trkpt>
      <trkpt lat="45.98247" lon="0.98334">
        <ele>283</ele>
        <time>2011-06-26T10:20:42.000Z</time>
      </trkpt>
      <trkpt lat="45.98244" lon="0.98372">
        <ele>281</ele>
        <time>2011-06-26T10:20:45.000Z</time>
      </trkpt>
      <trkpt lat="45.98236" lon="0.98439">
        <ele>280</ele>
        <time>2011-06-26T10:20:51.000Z</time>
      </trkpt>
      <trkpt lat="45.98236" lon="0.98447">
        <ele>280</ele>
        <time>2011-06-26T10:20:52.000Z</time>
      </trkpt>
      <trkpt lat="45.98235" lon="0.98461">
        <ele>280</ele>
        <time>2011-06-26T10:20:54.000Z</time>
      </trkpt>
      <trkpt lat="45.98239" lon="0.98486">
        <ele>279</ele>
        <time>2011-06-26T10:20:57.000Z</time>
      </trkpt>
      <trkpt lat="45.98249" lon="0.98508">
        <ele>277</ele>
        <time>2011-06-26T10:21:00.000Z</time>
      </trkpt>
      <trkpt lat="45.98283" lon="0.98551">
        <ele>273</ele>
        <time>2011-06-26T10:21:07.000Z</time>
      </trkpt>
      <trkpt lat="45.98288" lon="0.98557">
        <ele>272</ele>
        <time>2011-06-26T10:21:08.000Z</time>
      </trkpt>
      <trkpt lat="45.98301" lon="0.98577">
        <ele>271</ele>
        <time>2011-06-26T10:21:12.000Z</time>
      </trkpt>
      <trkpt lat="45.98304" lon="0.98591">
        <ele>270</ele>
        <time>2011-06-26T10:21:14.000Z</time>
      </trkpt>
      <trkpt lat="45.98304" lon="0.98607">
        <ele>271</ele>
        <time>2011-06-26T10:21:16.000Z</time>
      </trkpt>
      <trkpt lat="45.98298" lon="0.98675">
        <ele>273</ele>
        <time>2011-06-26T10:21:26.000Z</time>
      </trkpt>
      <trkpt lat="45.98298" lon="0.98681">
        <ele>273</ele>
        <time>2011-06-26T10:21:27.000Z</time>
      </trkpt>
      <trkpt lat="45.98288" lon="0.98747">
        <ele>278</ele>
        <time>2011-06-26T10:21:38.000Z</time>
      </trkpt>
      <trkpt lat="45.98286" lon="0.98754">
        <ele>278</ele>
        <time>2011-06-26T10:21:39.000Z</time>
      </trkpt>
      <trkpt lat="45.98282" lon="0.98775">
        <ele>278</ele>
        <time>2011-06-26T10:21:42.000Z</time>
      </trkpt>
      <trkpt lat="45.98284" lon="0.9879">
        <ele>278</ele>
        <time>2011-06-26T10:21:44.000Z</time>
      </trkpt>
      <trkpt lat="45.9829" lon="0.98809">
        <ele>278</ele>
        <time>2011-06-26T10:21:47.000Z</time>
      </trkpt>
      <trkpt lat="45.98315" lon="0.98866">
        <ele>277</ele>
        <time>2011-06-26T10:21:56.000Z</time>
      </trkpt>
      <trkpt lat="45.98318" lon="0.98872">
        <ele>277</ele>
        <time>2011-06-26T10:21:57.000Z</time>
      </trkpt>
      <trkpt lat="45.98345" lon="0.9893">
        <ele>279</ele>
        <time>2011-06-26T10:22:08.000Z</time>
      </trkpt>
      <trkpt lat="45.98347" lon="0.98935">
        <ele>279</ele>
        <time>2011-06-26T10:22:09.000Z</time>
      </trkpt>
      <trkpt lat="45.98365" lon="0.98984">
        <ele>275</ele>
        <time>2011-06-26T10:22:16.000Z</time>
      </trkpt>
      <trkpt lat="45.98363" lon="0.99006">
        <ele>274</ele>
        <time>2011-06-26T10:22:19.000Z</time>
      </trkpt>
      <trkpt lat="45.98352" lon="0.9903">
        <ele>275</ele>
        <time>2011-06-26T10:22:23.000Z</time>
      </trkpt>
      <trkpt lat="45.98324" lon="0.9907">
        <ele>276</ele>
        <time>2011-06-26T10:22:33.000Z</time>
      </trkpt>
      <trkpt lat="45.98318" lon="0.9908">
        <ele>277</ele>
        <time>2011-06-26T10:22:36.000Z</time>
      </trkpt>
      <trkpt lat="45.98314" lon="0.99096">
        <ele>278</ele>
        <time>2011-06-26T10:22:41.000Z</time>
      </trkpt>
      <trkpt lat="45.98313" lon="0.99109">
        <ele>280</ele>
        <time>2011-06-26T10:22:45.000Z</time>
      </trkpt>
      <trkpt lat="45.9831" lon="0.99129">
        <ele>280</ele>
        <time>2011-06-26T10:22:51.000Z</time>
      </trkpt>
      <trkpt lat="45.98304" lon="0.99137">
        <ele>281</ele>
        <time>2011-06-26T10:22:54.000Z</time>
      </trkpt>
      <trkpt lat="45.98288" lon="0.99149">
        <ele>283</ele>
        <time>2011-06-26T10:23:02.000Z</time>
      </trkpt>
      <trkpt lat="45.98269" lon="0.99161">
        <ele>284</ele>
        <time>2011-06-26T10:23:09.000Z</time>
      </trkpt>
      <trkpt lat="45.98264" lon="0.99171">
        <ele>284</ele>
        <time>2011-06-26T10:23:12.000Z</time>
      </trkpt>
      <trkpt lat="45.98259" lon="0.99184">
        <ele>284</ele>
        <time>2011-06-26T10:23:16.000Z</time>
      </trkpt>
      <trkpt lat="45.98256" lon="0.99199">
        <ele>283</ele>
        <time>2011-06-26T10:23:22.000Z</time>
      </trkpt>
      <trkpt lat="45.98246" lon="0.99214">
        <ele>282</ele>
        <time>2011-06-26T10:23:28.000Z</time>
      </trkpt>
      <trkpt lat="45.98242" lon="0.9922">
        <ele>283</ele>
        <time>2011-06-26T10:23:31.000Z</time>
      </trkpt>
      <trkpt lat="45.98231" lon="0.99232">
        <ele>284</ele>
        <time>2011-06-26T10:23:37.000Z</time>
      </trkpt>
      <trkpt lat="45.98221" lon="0.99237">
        <ele>299</ele>
        <time>2011-06-26T10:24:19.000Z</time>
      </trkpt>
      <trkpt lat="45.98217" lon="0.99241">
        <ele>299</ele>
        <time>2011-06-26T10:24:23.000Z</time>
      </trkpt>
      <trkpt lat="45.98197" lon="0.99259">
        <ele>296</ele>
        <time>2011-06-26T10:24:33.000Z</time>
      </trkpt>
      <trkpt lat="45.98183" lon="0.99275">
        <ele>295</ele>
        <time>2011-06-26T10:24:40.000Z</time>
      </trkpt>
      <trkpt lat="45.98175" lon="0.99293">
        <ele>295</ele>
        <time>2011-06-26T10:24:46.000Z</time>
      </trkpt>
      <trkpt lat="45.98172" lon="0.99316">
        <ele>297</ele>
        <time>2011-06-26T10:24:54.000Z</time>
      </trkpt>
      <trkpt lat="45.98171" lon="0.99374">
        <ele>300</ele>
        <time>2011-06-26T10:25:16.000Z</time>
      </trkpt>
      <trkpt lat="45.98162" lon="0.99397">
        <ele>301</ele>
        <time>2011-06-26T10:25:24.000Z</time>
      </trkpt>
      <trkpt lat="45.98138" lon="0.99432">
        <ele>304</ele>
        <time>2011-06-26T10:25:39.000Z</time>
      </trkpt>
      <trkpt lat="45.981" lon="0.99468">
        <ele>305</ele>
        <time>2011-06-26T10:25:58.000Z</time>
      </trkpt>
      <trkpt lat="45.98098" lon="0.9947">
        <ele>305</ele>
        <time>2011-06-26T10:25:59.000Z</time>
      </trkpt>
      <trkpt lat="45.98081" lon="0.9949">
        <ele>305</ele>
        <time>2011-06-26T10:26:09.000Z</time>
      </trkpt>
      <trkpt lat="45.98054" lon="0.99536">
        <ele>314</ele>
        <time>2011-06-26T10:26:29.000Z</time>
      </trkpt>
      <trkpt lat="45.9805" lon="0.99544">
        <ele>316</ele>
        <time>2011-06-26T10:26:33.000Z</time>
      </trkpt>
      <trkpt lat="45.98028" lon="0.99596">
        <ele>320</ele>
        <time>2011-06-26T10:26:59.000Z</time>
      </trkpt>
      <trkpt lat="45.98023" lon="0.99613">
        <ele>321</ele>
        <time>2011-06-26T10:27:07.000Z</time>
      </trkpt>
      <trkpt lat="45.9802" lon="0.99622">
        <ele>320</ele>
        <time>2011-06-26T10:27:11.000Z</time>
      </trkpt>
      <trkpt lat="45.98009" lon="0.99651">
        <ele>321</ele>
        <time>2011-06-26T10:27:25.000Z</time>
      </trkpt>
      <trkpt lat="45.98004" lon="0.99657">
        <ele>321</ele>
        <time>2011-06-26T10:27:28.000Z</time>
      </trkpt>
      <trkpt lat="45.97988" lon="0.99669">
        <ele>322</ele>
        <time>2011-06-26T10:27:34.000Z</time>
      </trkpt>
      <trkpt lat="45.97986" lon="0.99677">
        <ele>322</ele>
        <time>2011-06-26T10:27:36.000Z</time>
      </trkpt>
      <trkpt lat="45.97985" lon="0.99688">
        <ele>323</ele>
        <time>2011-06-26T10:27:39.000Z</time>
      </trkpt>
      <trkpt lat="45.97983" lon="0.99704">
        <ele>323</ele>
        <time>2011-06-26T10:27:43.000Z</time>
      </trkpt>
      <trkpt lat="45.97982" lon="0.99715">
        <ele>324</ele>
        <time>2011-06-26T10:27:46.000Z</time>
      </trkpt>
      <trkpt lat="45.97979" lon="0.99729">
        <ele>325</ele>
        <time>2011-06-26T10:27:49.000Z</time>
      </trkpt>
      <trkpt lat="45.97978" lon="0.99738">
        <ele>325</ele>
        <time>2011-06-26T10:27:51.000Z</time>
      </trkpt>
      <trkpt lat="45.97975" lon="0.99758">
        <ele>325</ele>
        <time>2011-06-26T10:27:55.000Z</time>
      </trkpt>
      <trkpt lat="45.97972" lon="0.99784">
        <ele>326</ele>
        <time>2011-06-26T10:28:00.000Z</time>
      </trkpt>
      <trkpt lat="45.97969" lon="0.99802">
        <ele>326</ele>
        <time>2011-06-26T10:28:04.000Z</time>
      </trkpt>
      <trkpt lat="45.97961" lon="0.99838">
        <ele>328</ele>
        <time>2011-06-26T10:28:12.000Z</time>
      </trkpt>
      <trkpt lat="45.97946" lon="0.99884">
        <ele>330</ele>
        <time>2011-06-26T10:28:22.000Z</time>
      </trkpt>
      <trkpt lat="45.97932" lon="0.99929">
        <ele>331</ele>
        <time>2011-06-26T10:28:32.000Z</time>
      </trkpt>
      <trkpt lat="45.97935" lon="0.99936">
        <ele>331</ele>
        <time>2011-06-26T10:28:34.000Z</time>
      </trkpt>
      <trkpt lat="45.9798" lon="0.99966">
        <ele>330</ele>
        <time>2011-06-26T10:28:46.000Z</time>
      </trkpt>
      <trkpt lat="45.97984" lon="0.99968">
        <ele>330</ele>
        <time>2011-06-26T10:28:47.000Z</time>
      </trkpt>
      <trkpt lat="45.98026" lon="0.99998">
        <ele>329</ele>
        <time>2011-06-26T10:28:57.000Z</time>
      </trkpt>
      <trkpt lat="45.9803" lon="1.00001">
        <ele>329</ele>
        <time>2011-06-26T10:28:58.000Z</time>
      </trkpt>
      <trkpt lat="45.98074" lon="1.00032">
        <ele>328</ele>
        <time>2011-06-26T10:29:08.000Z</time>
      </trkpt>
      <trkpt lat="45.98078" lon="1.00035">
        <ele>328</ele>
        <time>2011-06-26T10:29:09.000Z</time>
      </trkpt>
      <trkpt lat="45.98122" lon="1.00061">
        <ele>328</ele>
        <time>2011-06-26T10:29:19.000Z</time>
      </trkpt>
      <trkpt lat="45.98127" lon="1.00064">
        <ele>328</ele>
        <time>2011-06-26T10:29:20.000Z</time>
      </trkpt>
      <trkpt lat="45.98173" lon="1.00087">
        <ele>329</ele>
        <time>2011-06-26T10:29:31.000Z</time>
      </trkpt>
      <trkpt lat="45.98177" lon="1.00089">
        <ele>329</ele>
        <time>2011-06-26T10:29:32.000Z</time>
      </trkpt>
      <trkpt lat="45.98193" lon="1.00099">
        <ele>330</ele>
        <time>2011-06-26T10:29:36.000Z</time>
      </trkpt>
      <trkpt lat="45.98199" lon="1.00115">
        <ele>330</ele>
        <time>2011-06-26T10:29:39.000Z</time>
      </trkpt>
      <trkpt lat="45.98206" lon="1.00167">
        <ele>329</ele>
        <time>2011-06-26T10:29:47.000Z</time>
      </trkpt>
      <trkpt lat="45.98218" lon="1.00235">
        <ele>330</ele>
        <time>2011-06-26T10:29:58.000Z</time>
      </trkpt>
      <trkpt lat="45.98219" lon="1.00243">
        <ele>330</ele>
        <time>2011-06-26T10:29:59.000Z</time>
      </trkpt>
      <trkpt lat="45.9823" lon="1.00311">
        <ele>327</ele>
        <time>2011-06-26T10:30:07.000Z</time>
      </trkpt>
      <trkpt lat="45.98231" lon="1.0032">
        <ele>327</ele>
        <time>2011-06-26T10:30:08.000Z</time>
      </trkpt>
      <trkpt lat="45.98237" lon="1.00385">
        <ele>326</ele>
        <time>2011-06-26T10:30:15.000Z</time>
      </trkpt>
      <trkpt lat="45.98238" lon="1.00395">
        <ele>326</ele>
        <time>2011-06-26T10:30:16.000Z</time>
      </trkpt>
      <trkpt lat="45.9824" lon="1.00421">
        <ele>326</ele>
        <time>2011-06-26T10:30:19.000Z</time>
      </trkpt>
      <trkpt lat="45.98246" lon="1.00447">
        <ele>325</ele>
        <time>2011-06-26T10:30:22.000Z</time>
      </trkpt>
      <trkpt lat="45.98261" lon="1.00503">
        <ele>321</ele>
        <time>2011-06-26T10:30:28.000Z</time>
      </trkpt>
      <trkpt lat="45.98263" lon="1.00513">
        <ele>321</ele>
        <time>2011-06-26T10:30:29.000Z</time>
      </trkpt>
      <trkpt lat="45.98271" lon="1.00584">
        <ele>317</ele>
        <time>2011-06-26T10:30:36.000Z</time>
      </trkpt>
      <trkpt lat="45.98271" lon="1.00594">
        <ele>316</ele>
        <time>2011-06-26T10:30:37.000Z</time>
      </trkpt>
      <trkpt lat="45.98272" lon="1.00663">
        <ele>315</ele>
        <time>2011-06-26T10:30:45.000Z</time>
      </trkpt>
      <trkpt lat="45.98273" lon="1.00671">
        <ele>315</ele>
        <time>2011-06-26T10:30:46.000Z</time>
      </trkpt>
      <trkpt lat="45.98275" lon="1.0068">
        <ele>315</ele>
        <time>2011-06-26T10:30:47.000Z</time>
      </trkpt>
      <trkpt lat="45.98283" lon="1.00713">
        <ele>316</ele>
        <time>2011-06-26T10:30:51.000Z</time>
      </trkpt>
      <trkpt lat="45.98305" lon="1.00776">
        <ele>316</ele>
        <time>2011-06-26T10:31:00.000Z</time>
      </trkpt>
      <trkpt lat="45.98307" lon="1.00782">
        <ele>316</ele>
        <time>2011-06-26T10:31:01.000Z</time>
      </trkpt>
      <trkpt lat="45.98311" lon="1.0079">
        <ele>316</ele>
        <time>2011-06-26T10:31:03.000Z</time>
      </trkpt>
      <trkpt lat="45.98315" lon="1.00797">
        <ele>316</ele>
        <time>2011-06-26T10:31:05.000Z</time>
      </trkpt>
      <trkpt lat="45.98349" lon="1.0085">
        <ele>319</ele>
        <time>2011-06-26T10:31:17.000Z</time>
      </trkpt>
      <trkpt lat="45.98353" lon="1.00857">
        <ele>319</ele>
        <time>2011-06-26T10:31:18.000Z</time>
      </trkpt>
      <trkpt lat="45.98357" lon="1.00865">
        <ele>319</ele>
        <time>2011-06-26T10:31:19.000Z</time>
      </trkpt>
      <trkpt lat="45.98383" lon="1.00924">
        <ele>316</ele>
        <time>2011-06-26T10:31:26.000Z</time>
      </trkpt>
      <trkpt lat="45.98386" lon="1.00933">
        <ele>316</ele>
        <time>2011-06-26T10:31:27.000Z</time>
      </trkpt>
      <trkpt lat="45.98388" lon="1.00942">
        <ele>315</ele>
        <time>2011-06-26T10:31:28.000Z</time>
      </trkpt>
      <trkpt lat="45.98401" lon="1.00995">
        <ele>309</ele>
        <time>2011-06-26T10:31:34.000Z</time>
      </trkpt>
      <trkpt lat="45.98402" lon="1.01004">
        <ele>309</ele>
        <time>2011-06-26T10:31:35.000Z</time>
      </trkpt>
      <trkpt lat="45.98408" lon="1.01067">
        <ele>305</ele>
        <time>2011-06-26T10:31:41.000Z</time>
      </trkpt>
      <trkpt lat="45.98411" lon="1.01076">
        <ele>304</ele>
        <time>2011-06-26T10:31:42.000Z</time>
      </trkpt>
      <trkpt lat="45.98426" lon="1.0111">
        <ele>300</ele>
        <time>2011-06-26T10:31:47.000Z</time>
      </trkpt>
      <trkpt lat="45.98437" lon="1.01134">
        <ele>299</ele>
        <time>2011-06-26T10:31:50.000Z</time>
      </trkpt>
      <trkpt lat="45.98452" lon="1.01161">
        <ele>299</ele>
        <time>2011-06-26T10:31:54.000Z</time>
      </trkpt>
      <trkpt lat="45.98467" lon="1.01189">
        <ele>298</ele>
        <time>2011-06-26T10:31:59.000Z</time>
      </trkpt>
      <trkpt lat="45.98488" lon="1.01238">
        <ele>297</ele>
        <time>2011-06-26T10:32:07.000Z</time>
      </trkpt>
      <trkpt lat="45.98492" lon="1.01244">
        <ele>296</ele>
        <time>2011-06-26T10:32:08.000Z</time>
      </trkpt>
      <trkpt lat="45.98518" lon="1.01302">
        <ele>292</ele>
        <time>2011-06-26T10:32:18.000Z</time>
      </trkpt>
      <trkpt lat="45.9852" lon="1.01306">
        <ele>292</ele>
        <time>2011-06-26T10:32:19.000Z</time>
      </trkpt>
      <trkpt lat="45.98527" lon="1.01326">
        <ele>291</ele>
        <time>2011-06-26T10:32:24.000Z</time>
      </trkpt>
      <trkpt lat="45.98531" lon="1.01333">
        <ele>291</ele>
        <time>2011-06-26T10:32:26.000Z</time>
      </trkpt>
      <trkpt lat="45.98558" lon="1.01377">
        <ele>292</ele>
        <time>2011-06-26T10:32:40.000Z</time>
      </trkpt>
      <trkpt lat="45.98564" lon="1.01388">
        <ele>291</ele>
        <time>2011-06-26T10:32:43.000Z</time>
      </trkpt>
      <trkpt lat="45.98583" lon="1.01418">
        <ele>290</ele>
        <time>2011-06-26T10:32:51.000Z</time>
      </trkpt>
      <trkpt lat="45.98599" lon="1.01453">
        <ele>294</ele>
        <time>2011-06-26T10:32:59.000Z</time>
      </trkpt>
      <trkpt lat="45.98608" lon="1.01469">
        <ele>298</ele>
        <time>2011-06-26T10:33:03.000Z</time>
      </trkpt>
      <trkpt lat="45.98627" lon="1.01491">
        <ele>302</ele>
        <time>2011-06-26T10:33:08.000Z</time>
      </trkpt>
      <trkpt lat="45.98632" lon="1.01502">
        <ele>303</ele>
        <time>2011-06-26T10:33:10.000Z</time>
      </trkpt>
      <trkpt lat="45.9864" lon="1.01521">
        <ele>304</ele>
        <time>2011-06-26T10:33:13.000Z</time>
      </trkpt>
      <trkpt lat="45.98664" lon="1.01586">
        <ele>297</ele>
        <time>2011-06-26T10:33:21.000Z</time>
      </trkpt>
      <trkpt lat="45.98666" lon="1.01594">
        <ele>295</ele>
        <time>2011-06-26T10:33:22.000Z</time>
      </trkpt>
      <trkpt lat="45.98678" lon="1.01636">
        <ele>289</ele>
        <time>2011-06-26T10:33:27.000Z</time>
      </trkpt>
      <trkpt lat="45.98686" lon="1.01665">
        <ele>286</ele>
        <time>2011-06-26T10:33:31.000Z</time>
      </trkpt>
      <trkpt lat="45.98703" lon="1.01704">
        <ele>284</ele>
        <time>2011-06-26T10:33:41.000Z</time>
      </trkpt>
      <trkpt lat="45.98727" lon="1.01756">
        <ele>286</ele>
        <time>2011-06-26T10:33:56.000Z</time>
      </trkpt>
      <trkpt lat="45.98727" lon="1.0176">
        <ele>286</ele>
        <time>2011-06-26T10:33:57.000Z</time>
      </trkpt>
      <trkpt lat="45.98734" lon="1.01797">
        <ele>289</ele>
        <time>2011-06-26T10:34:16.000Z</time>
      </trkpt>
      <trkpt lat="45.9874" lon="1.0181">
        <ele>292</ele>
        <time>2011-06-26T10:34:26.000Z</time>
      </trkpt>
      <trkpt lat="45.98777" lon="1.01828">
        <ele>306</ele>
        <time>2011-06-26T10:35:13.000Z</time>
      </trkpt>
      <trkpt lat="45.9879" lon="1.01858">
        <ele>306</ele>
        <time>2011-06-26T10:35:36.000Z</time>
      </trkpt>
      <trkpt lat="45.98796" lon="1.01881">
        <ele>302</ele>
        <time>2011-06-26T10:36:18.000Z</time>
      </trkpt>
      <trkpt lat="45.98804" lon="1.019">
        <ele>307</ele>
        <time>2011-06-26T10:36:36.000Z</time>
      </trkpt>
      <trkpt lat="45.98808" lon="1.01907">
        <ele>309</ele>
        <time>2011-06-26T10:36:42.000Z</time>
      </trkpt>
      <trkpt lat="45.98814" lon="1.0192">
        <ele>309</ele>
        <time>2011-06-26T10:36:51.000Z</time>
      </trkpt>
      <trkpt lat="45.98839" lon="1.0197">
        <ele>316</ele>
        <time>2011-06-26T10:37:24.000Z</time>
      </trkpt>
      <trkpt lat="45.98843" lon="1.01979">
        <ele>317</ele>
        <time>2011-06-26T10:37:30.000Z</time>
      </trkpt>
      <trkpt lat="45.98869" lon="1.02034">
        <ele>313</ele>
        <time>2011-06-26T10:37:53.000Z</time>
      </trkpt>
      <trkpt lat="45.9887" lon="1.02036">
        <ele>313</ele>
        <time>2011-06-26T10:37:54.000Z</time>
      </trkpt>
      <trkpt lat="45.98876" lon="1.02052">
        <ele>311</ele>
        <time>2011-06-26T10:38:00.000Z</time>
      </trkpt>
      <trkpt lat="45.98889" lon="1.02089">
        <ele>313</ele>
        <time>2011-06-26T10:38:16.000Z</time>
      </trkpt>
      <trkpt lat="45.98892" lon="1.02098">
        <ele>314</ele>
        <time>2011-06-26T10:38:20.000Z</time>
      </trkpt>
      <trkpt lat="45.98896" lon="1.02112">
        <ele>316</ele>
        <time>2011-06-26T10:38:26.000Z</time>
      </trkpt>
      <trkpt lat="45.98907" lon="1.02141">
        <ele>318</ele>
        <time>2011-06-26T10:38:36.000Z</time>
      </trkpt>
      <trkpt lat="45.98931" lon="1.02199">
        <ele>321</ele>
        <time>2011-06-26T10:38:56.000Z</time>
      </trkpt>
      <trkpt lat="45.98932" lon="1.02203">
        <ele>321</ele>
        <time>2011-06-26T10:38:57.000Z</time>
      </trkpt>
      <trkpt lat="45.98938" lon="1.02227">
        <ele>320</ele>
        <time>2011-06-26T10:39:04.000Z</time>
      </trkpt>
      <trkpt lat="45.98937" lon="1.02246">
        <ele>321</ele>
        <time>2011-06-26T10:39:09.000Z</time>
      </trkpt>
      <trkpt lat="45.98941" lon="1.02259">
        <ele>322</ele>
        <time>2011-06-26T10:39:13.000Z</time>
      </trkpt>
      <trkpt lat="45.98946" lon="1.02269">
        <ele>322</ele>
        <time>2011-06-26T10:39:16.000Z</time>
      </trkpt>
      <trkpt lat="45.98976" lon="1.02314">
        <ele>323</ele>
        <time>2011-06-26T10:39:28.000Z</time>
      </trkpt>
      <trkpt lat="45.98978" lon="1.02318">
        <ele>323</ele>
        <time>2011-06-26T10:39:29.000Z</time>
      </trkpt>
      <trkpt lat="45.98983" lon="1.02328">
        <ele>323</ele>
        <time>2011-06-26T10:39:31.000Z</time>
      </trkpt>
      <trkpt lat="45.98994" lon="1.02357">
        <ele>323</ele>
        <time>2011-06-26T10:39:37.000Z</time>
      </trkpt>
      <trkpt lat="45.98991" lon="1.02374">
        <ele>323</ele>
        <time>2011-06-26T10:39:40.000Z</time>
      </trkpt>
      <trkpt lat="45.9898" lon="1.02409">
        <ele>323</ele>
        <time>2011-06-26T10:39:46.000Z</time>
      </trkpt>
      <trkpt lat="45.98975" lon="1.02426">
        <ele>323</ele>
        <time>2011-06-26T10:39:49.000Z</time>
      </trkpt>
      <trkpt lat="45.98971" lon="1.02452">
        <ele>325</ele>
        <time>2011-06-26T10:39:54.000Z</time>
      </trkpt>
      <trkpt lat="45.98971" lon="1.02522">
        <ele>326</ele>
        <time>2011-06-26T10:40:03.000Z</time>
      </trkpt>
      <trkpt lat="45.98971" lon="1.0253">
        <ele>326</ele>
        <time>2011-06-26T10:40:04.000Z</time>
      </trkpt>
      <trkpt lat="45.9897" lon="1.02599">
        <ele>325</ele>
        <time>2011-06-26T10:40:13.000Z</time>
      </trkpt>
      <trkpt lat="45.98971" lon="1.02606">
        <ele>325</ele>
        <time>2011-06-26T10:40:14.000Z</time>
      </trkpt>
      <trkpt lat="45.98973" lon="1.0262">
        <ele>325</ele>
        <time>2011-06-26T10:40:16.000Z</time>
      </trkpt>
      <trkpt lat="45.98991" lon="1.0268">
        <ele>326</ele>
        <time>2011-06-26T10:40:25.000Z</time>
      </trkpt>
      <trkpt lat="45.98993" lon="1.02686">
        <ele>326</ele>
        <time>2011-06-26T10:40:26.000Z</time>
      </trkpt>
      <trkpt lat="45.99001" lon="1.02708">
        <ele>327</ele>
        <time>2011-06-26T10:40:30.000Z</time>
      </trkpt>
      <trkpt lat="45.99014" lon="1.02733">
        <ele>328</ele>
        <time>2011-06-26T10:40:36.000Z</time>
      </trkpt>
      <trkpt lat="45.99017" lon="1.02742">
        <ele>329</ele>
        <time>2011-06-26T10:40:39.000Z</time>
      </trkpt>
      <trkpt lat="45.99037" lon="1.02784">
        <ele>331</ele>
        <time>2011-06-26T10:40:57.000Z</time>
      </trkpt>
      <trkpt lat="45.99064" lon="1.0284">
        <ele>334</ele>
        <time>2011-06-26T10:41:17.000Z</time>
      </trkpt>
      <trkpt lat="45.99065" lon="1.02842">
        <ele>335</ele>
        <time>2011-06-26T10:41:18.000Z</time>
      </trkpt>
      <trkpt lat="45.99092" lon="1.02896">
        <ele>337</ele>
        <time>2011-06-26T10:41:35.000Z</time>
      </trkpt>
      <trkpt lat="45.99094" lon="1.02899">
        <ele>337</ele>
        <time>2011-06-26T10:41:36.000Z</time>
      </trkpt>
      <trkpt lat="45.99119" lon="1.02937">
        <ele>335</ele>
        <time>2011-06-26T10:41:46.000Z</time>
      </trkpt>
      <trkpt lat="45.99158" lon="1.02977">
        <ele>335</ele>
        <time>2011-06-26T10:41:58.000Z</time>
      </trkpt>
      <trkpt lat="45.99162" lon="1.02979">
        <ele>335</ele>
        <time>2011-06-26T10:41:59.000Z</time>
      </trkpt>
      <trkpt lat="45.99169" lon="1.02985">
        <ele>335</ele>
        <time>2011-06-26T10:42:01.000Z</time>
      </trkpt>
      <trkpt lat="45.9921" lon="1.03015">
        <ele>337</ele>
        <time>2011-06-26T10:42:12.000Z</time>
      </trkpt>
      <trkpt lat="45.99214" lon="1.03018">
        <ele>337</ele>
        <time>2011-06-26T10:42:13.000Z</time>
      </trkpt>
      <trkpt lat="45.99253" lon="1.03055">
        <ele>338</ele>
        <time>2011-06-26T10:42:24.000Z</time>
      </trkpt>
      <trkpt lat="45.99257" lon="1.03057">
        <ele>338</ele>
        <time>2011-06-26T10:42:25.000Z</time>
      </trkpt>
      <trkpt lat="45.99265" lon="1.03066">
        <ele>339</ele>
        <time>2011-06-26T10:42:28.000Z</time>
      </trkpt>
      <trkpt lat="45.99268" lon="1.03075">
        <ele>339</ele>
        <time>2011-06-26T10:42:30.000Z</time>
      </trkpt>
      <trkpt lat="45.99269" lon="1.03104">
        <ele>338</ele>
        <time>2011-06-26T10:42:35.000Z</time>
      </trkpt>
      <trkpt lat="45.99263" lon="1.03157">
        <ele>336</ele>
        <time>2011-06-26T10:42:41.000Z</time>
      </trkpt>
      <trkpt lat="45.99255" lon="1.03183">
        <ele>335</ele>
        <time>2011-06-26T10:42:44.000Z</time>
      </trkpt>
      <trkpt lat="45.99238" lon="1.03248">
        <ele>330</ele>
        <time>2011-06-26T10:42:51.000Z</time>
      </trkpt>
      <trkpt lat="45.99236" lon="1.03257">
        <ele>330</ele>
        <time>2011-06-26T10:42:52.000Z</time>
      </trkpt>
      <trkpt lat="45.99235" lon="1.03267">
        <ele>329</ele>
        <time>2011-06-26T10:42:53.000Z</time>
      </trkpt>
      <trkpt lat="45.99232" lon="1.03285">
        <ele>328</ele>
        <time>2011-06-26T10:42:55.000Z</time>
      </trkpt>
      <trkpt lat="45.99228" lon="1.03306">
        <ele>325</ele>
        <time>2011-06-26T10:42:59.000Z</time>
      </trkpt>
      <trkpt lat="45.99229" lon="1.03315">
        <ele>324</ele>
        <time>2011-06-26T10:43:01.000Z</time>
      </trkpt>
      <trkpt lat="45.9923" lon="1.03342">
        <ele>323</ele>
        <time>2011-06-26T10:43:08.000Z</time>
      </trkpt>
      <trkpt lat="45.99228" lon="1.03384">
        <ele>323</ele>
        <time>2011-06-26T10:43:17.000Z</time>
      </trkpt>
      <trkpt lat="45.99227" lon="1.03402">
        <ele>323</ele>
        <time>2011-06-26T10:43:20.000Z</time>
      </trkpt>
      <trkpt lat="45.99229" lon="1.03416">
        <ele>322</ele>
        <time>2011-06-26T10:43:22.000Z</time>
      </trkpt>
      <trkpt lat="45.99241" lon="1.03486">
        <ele>315</ele>
        <time>2011-06-26T10:43:30.000Z</time>
      </trkpt>
      <trkpt lat="45.99243" lon="1.03495">
        <ele>314</ele>
        <time>2011-06-26T10:43:31.000Z</time>
      </trkpt>
      <trkpt lat="45.99244" lon="1.03527">
        <ele>312</ele>
        <time>2011-06-26T10:43:34.000Z</time>
      </trkpt>
      <trkpt lat="45.99243" lon="1.03598">
        <ele>308</ele>
        <time>2011-06-26T10:43:40.000Z</time>
      </trkpt>
      <trkpt lat="45.99243" lon="1.0361">
        <ele>308</ele>
        <time>2011-06-26T10:43:41.000Z</time>
      </trkpt>
      <trkpt lat="45.99242" lon="1.03676">
        <ele>307</ele>
        <time>2011-06-26T10:43:47.000Z</time>
      </trkpt>
      <trkpt lat="45.99242" lon="1.03685">
        <ele>307</ele>
        <time>2011-06-26T10:43:48.000Z</time>
      </trkpt>
      <trkpt lat="45.99239" lon="1.03756">
        <ele>308</ele>
        <time>2011-06-26T10:43:57.000Z</time>
      </trkpt>
      <trkpt lat="45.99239" lon="1.03763">
        <ele>308</ele>
        <time>2011-06-26T10:43:58.000Z</time>
      </trkpt>
      <trkpt lat="45.99235" lon="1.03818">
        <ele>310</ele>
        <time>2011-06-26T10:44:06.000Z</time>
      </trkpt>
      <trkpt lat="45.99231" lon="1.03885">
        <ele>313</ele>
        <time>2011-06-26T10:44:16.000Z</time>
      </trkpt>
      <trkpt lat="45.99231" lon="1.03892">
        <ele>313</ele>
        <time>2011-06-26T10:44:17.000Z</time>
      </trkpt>
      <trkpt lat="45.99228" lon="1.0396">
        <ele>313</ele>
        <time>2011-06-26T10:44:28.000Z</time>
      </trkpt>
      <trkpt lat="45.99228" lon="1.03967">
        <ele>313</ele>
        <time>2011-06-26T10:44:29.000Z</time>
      </trkpt>
      <trkpt lat="45.99219" lon="1.0403">
        <ele>315</ele>
        <time>2011-06-26T10:44:42.000Z</time>
      </trkpt>
      <trkpt lat="45.99218" lon="1.04034">
        <ele>316</ele>
        <time>2011-06-26T10:44:43.000Z</time>
      </trkpt>
      <trkpt lat="45.99205" lon="1.04096">
        <ele>324</ele>
        <time>2011-06-26T10:45:00.000Z</time>
      </trkpt>
      <trkpt lat="45.99204" lon="1.041">
        <ele>324</ele>
        <time>2011-06-26T10:45:01.000Z</time>
      </trkpt>
      <trkpt lat="45.99198" lon="1.04117">
        <ele>326</ele>
        <time>2011-06-26T10:45:06.000Z</time>
      </trkpt>
      <trkpt lat="45.99188" lon="1.04149">
        <ele>329</ele>
        <time>2011-06-26T10:45:16.000Z</time>
      </trkpt>
      <trkpt lat="45.99202" lon="1.04195">
        <ele>329</ele>
        <time>2011-06-26T10:45:28.000Z</time>
      </trkpt>
      <trkpt lat="45.99223" lon="1.04258">
        <ele>328</ele>
        <time>2011-06-26T10:45:42.000Z</time>
      </trkpt>
      <trkpt lat="45.99224" lon="1.04262">
        <ele>328</ele>
        <time>2011-06-26T10:45:43.000Z</time>
      </trkpt>
      <trkpt lat="45.99245" lon="1.0432">
        <ele>327</ele>
        <time>2011-06-26T10:45:56.000Z</time>
      </trkpt>
      <trkpt lat="45.99246" lon="1.04324">
        <ele>327</ele>
        <time>2011-06-26T10:45:57.000Z</time>
      </trkpt>
      <trkpt lat="45.99263" lon="1.04374">
        <ele>327</ele>
        <time>2011-06-26T10:46:08.000Z</time>
      </trkpt>
      <trkpt lat="45.99263" lon="1.04384">
        <ele>327</ele>
        <time>2011-06-26T10:46:10.000Z</time>
      </trkpt>
      <trkpt lat="45.9926" lon="1.04392">
        <ele>327</ele>
        <time>2011-06-26T10:46:12.000Z</time>
      </trkpt>
      <trkpt lat="45.99228" lon="1.04439">
        <ele>331</ele>
        <time>2011-06-26T10:46:26.000Z</time>
      </trkpt>
      <trkpt lat="45.99226" lon="1.04443">
        <ele>331</ele>
        <time>2011-06-26T10:46:27.000Z</time>
      </trkpt>
      <trkpt lat="45.99221" lon="1.04452">
        <ele>331</ele>
        <time>2011-06-26T10:46:30.000Z</time>
      </trkpt>
      <trkpt lat="45.99225" lon="1.04463">
        <ele>332</ele>
        <time>2011-06-26T10:46:34.000Z</time>
      </trkpt>
      <trkpt lat="45.99234" lon="1.0447">
        <ele>331</ele>
        <time>2011-06-26T10:46:37.000Z</time>
      </trkpt>
      <trkpt lat="45.99247" lon="1.04482">
        <ele>330</ele>
        <time>2011-06-26T10:46:41.000Z</time>
      </trkpt>
      <trkpt lat="45.99245" lon="1.04491">
        <ele>330</ele>
        <time>2011-06-26T10:46:43.000Z</time>
      </trkpt>
      <trkpt lat="45.99232" lon="1.04518">
        <ele>329</ele>
        <time>2011-06-26T10:46:48.000Z</time>
      </trkpt>
      <trkpt lat="45.99228" lon="1.04534">
        <ele>328</ele>
        <time>2011-06-26T10:46:51.000Z</time>
      </trkpt>
      <trkpt lat="45.99225" lon="1.04551">
        <ele>328</ele>
        <time>2011-06-26T10:46:54.000Z</time>
      </trkpt>
      <trkpt lat="45.99221" lon="1.0457">
        <ele>328</ele>
        <time>2011-06-26T10:46:58.000Z</time>
      </trkpt>
      <trkpt lat="45.99223" lon="1.04579">
        <ele>328</ele>
        <time>2011-06-26T10:47:00.000Z</time>
      </trkpt>
      <trkpt lat="45.99224" lon="1.04589">
        <ele>328</ele>
        <time>2011-06-26T10:47:02.000Z</time>
      </trkpt>
      <trkpt lat="45.99231" lon="1.04622">
        <ele>331</ele>
        <time>2011-06-26T10:47:09.000Z</time>
      </trkpt>
      <trkpt lat="45.99245" lon="1.0466">
        <ele>331</ele>
        <time>2011-06-26T10:47:17.000Z</time>
      </trkpt>
      <trkpt lat="45.99277" lon="1.04694">
        <ele>329</ele>
        <time>2011-06-26T10:47:28.000Z</time>
      </trkpt>
      <trkpt lat="45.99285" lon="1.04701">
        <ele>327</ele>
        <time>2011-06-26T10:47:31.000Z</time>
      </trkpt>
      <trkpt lat="45.9929" lon="1.04702">
        <ele>326</ele>
        <time>2011-06-26T10:47:35.000Z</time>
      </trkpt>
      <trkpt lat="45.99298" lon="1.04704">
        <ele>323</ele>
        <time>2011-06-26T10:50:45.000Z</time>
      </trkpt>
      <trkpt lat="45.99306" lon="1.04702">
        <ele>321</ele>
        <time>2011-06-26T10:52:03.000Z</time>
      </trkpt>
      <trkpt lat="45.99312" lon="1.04694">
        <ele>307</ele>
        <time>2011-06-26T10:53:04.000Z</time>
      </trkpt>
      <trkpt lat="45.99306" lon="1.04699">
        <ele>316</ele>
        <time>2011-06-26T10:53:43.000Z</time>
      </trkpt>
      <trkpt lat="45.99295" lon="1.04705">
        <ele>324</ele>
        <time>2011-06-26T10:56:11.000Z</time>
      </trkpt>
      <trkpt lat="45.99294" lon="1.04715">
        <ele>323</ele>
        <time>2011-06-26T10:56:31.000Z</time>
      </trkpt>
      <trkpt lat="45.99299" lon="1.04727">
        <ele>322</ele>
        <time>2011-06-26T10:56:34.000Z</time>
      </trkpt>
      <trkpt lat="45.99321" lon="1.04738">
        <ele>320</ele>
        <time>2011-06-26T10:56:38.000Z</time>
      </trkpt>
      <trkpt lat="45.99357" lon="1.04755">
        <ele>314</ele>
        <time>2011-06-26T10:56:44.000Z</time>
      </trkpt>
      <trkpt lat="45.99363" lon="1.0476">
        <ele>313</ele>
        <time>2011-06-26T10:56:46.000Z</time>
      </trkpt>
      <trkpt lat="45.99369" lon="1.04757">
        <ele>311</ele>
        <time>2011-06-26T10:56:48.000Z</time>
      </trkpt>
      <trkpt lat="45.99395" lon="1.04744">
        <ele>307</ele>
        <time>2011-06-26T10:56:54.000Z</time>
      </trkpt>
      <trkpt lat="45.99419" lon="1.04756">
        <ele>306</ele>
        <time>2011-06-26T10:56:58.000Z</time>
      </trkpt>
      <trkpt lat="45.99462" lon="1.04784">
        <ele>306</ele>
        <time>2011-06-26T10:57:07.000Z</time>
      </trkpt>
      <trkpt lat="45.99466" lon="1.04787">
        <ele>307</ele>
        <time>2011-06-26T10:57:08.000Z</time>
      </trkpt>
      <trkpt lat="45.99511" lon="1.0481">
        <ele>310</ele>
        <time>2011-06-26T10:57:18.000Z</time>
      </trkpt>
      <trkpt lat="45.99516" lon="1.04812">
        <ele>310</ele>
        <time>2011-06-26T10:57:19.000Z</time>
      </trkpt>
      <trkpt lat="45.99564" lon="1.04831">
        <ele>311</ele>
        <time>2011-06-26T10:57:28.000Z</time>
      </trkpt>
      <trkpt lat="45.99572" lon="1.04834">
        <ele>311</ele>
        <time>2011-06-26T10:57:29.000Z</time>
      </trkpt>
      <trkpt lat="45.99616" lon="1.04855">
        <ele>310</ele>
        <time>2011-06-26T10:57:35.000Z</time>
      </trkpt>
      <trkpt lat="45.99623" lon="1.04859">
        <ele>309</ele>
        <time>2011-06-26T10:57:36.000Z</time>
      </trkpt>
      <trkpt lat="45.99643" lon="1.04865">
        <ele>309</ele>
        <time>2011-06-26T10:57:39.000Z</time>
      </trkpt>
      <trkpt lat="45.99668" lon="1.04863">
        <ele>309</ele>
        <time>2011-06-26T10:57:44.000Z</time>
      </trkpt>
      <trkpt lat="45.99684" lon="1.0486">
        <ele>310</ele>
        <time>2011-06-26T10:57:48.000Z</time>
      </trkpt>
      <trkpt lat="45.9973" lon="1.04855">
        <ele>313</ele>
        <time>2011-06-26T10:58:01.000Z</time>
      </trkpt>
      <trkpt lat="45.99733" lon="1.04856">
        <ele>313</ele>
        <time>2011-06-26T10:58:02.000Z</time>
      </trkpt>
      <trkpt lat="45.99743" lon="1.04861">
        <ele>314</ele>
        <time>2011-06-26T10:58:05.000Z</time>
      </trkpt>
      <trkpt lat="45.99755" lon="1.0487">
        <ele>316</ele>
        <time>2011-06-26T10:58:09.000Z</time>
      </trkpt>
      <trkpt lat="45.99773" lon="1.04891">
        <ele>318</ele>
        <time>2011-06-26T10:58:15.000Z</time>
      </trkpt>
      <trkpt lat="45.99807" lon="1.04935">
        <ele>320</ele>
        <time>2011-06-26T10:58:30.000Z</time>
      </trkpt>
      <trkpt lat="45.99809" lon="1.04938">
        <ele>320</ele>
        <time>2011-06-26T10:58:31.000Z</time>
      </trkpt>
      <trkpt lat="45.99846" lon="1.04983">
        <ele>324</ele>
        <time>2011-06-26T10:58:43.000Z</time>
      </trkpt>
      <trkpt lat="45.99848" lon="1.04987">
        <ele>324</ele>
        <time>2011-06-26T10:58:44.000Z</time>
      </trkpt>
      <trkpt lat="45.99883" lon="1.05029">
        <ele>323</ele>
        <time>2011-06-26T10:58:55.000Z</time>
      </trkpt>
      <trkpt lat="45.99886" lon="1.05032">
        <ele>323</ele>
        <time>2011-06-26T10:58:56.000Z</time>
      </trkpt>
      <trkpt lat="45.99909" lon="1.05053">
        <ele>323</ele>
        <time>2011-06-26T10:59:03.000Z</time>
      </trkpt>
      <trkpt lat="45.99924" lon="1.05068">
        <ele>323</ele>
        <time>2011-06-26T10:59:08.000Z</time>
      </trkpt>
      <trkpt lat="45.99926" lon="1.05077">
        <ele>323</ele>
        <time>2011-06-26T10:59:10.000Z</time>
      </trkpt>
      <trkpt lat="45.99924" lon="1.05084">
        <ele>323</ele>
        <time>2011-06-26T10:59:12.000Z</time>
      </trkpt>
      <trkpt lat="45.99884" lon="1.05125">
        <ele>319</ele>
        <time>2011-06-26T10:59:22.000Z</time>
      </trkpt>
      <trkpt lat="45.99879" lon="1.0513">
        <ele>319</ele>
        <time>2011-06-26T10:59:23.000Z</time>
      </trkpt>
      <trkpt lat="45.99856" lon="1.0516">
        <ele>318</ele>
        <time>2011-06-26T10:59:29.000Z</time>
      </trkpt>
      <trkpt lat="45.99855" lon="1.05172">
        <ele>317</ele>
        <time>2011-06-26T10:59:31.000Z</time>
      </trkpt>
      <trkpt lat="45.9986" lon="1.05184">
        <ele>316</ele>
        <time>2011-06-26T10:59:33.000Z</time>
      </trkpt>
      <trkpt lat="45.99884" lon="1.05221">
        <ele>314</ele>
        <time>2011-06-26T10:59:39.000Z</time>
      </trkpt>
      <trkpt lat="45.99923" lon="1.05265">
        <ele>312</ele>
        <time>2011-06-26T10:59:47.000Z</time>
      </trkpt>
      <trkpt lat="45.99927" lon="1.05271">
        <ele>312</ele>
        <time>2011-06-26T10:59:48.000Z</time>
      </trkpt>
      <trkpt lat="45.99955" lon="1.053">
        <ele>310</ele>
        <time>2011-06-26T10:59:55.000Z</time>
      </trkpt>
      <trkpt lat="45.99969" lon="1.05316">
        <ele>309</ele>
        <time>2011-06-26T10:59:59.000Z</time>
      </trkpt>
      <trkpt lat="46.00005" lon="1.05364">
        <ele>308</ele>
        <time>2011-06-26T11:00:10.000Z</time>
      </trkpt>
      <trkpt lat="46.00008" lon="1.05368">
        <ele>308</ele>
        <time>2011-06-26T11:00:11.000Z</time>
      </trkpt>
      <trkpt lat="46.00045" lon="1.05408">
        <ele>312</ele>
        <time>2011-06-26T11:00:24.000Z</time>
      </trkpt>
      <trkpt lat="46.00047" lon="1.05411">
        <ele>313</ele>
        <time>2011-06-26T11:00:25.000Z</time>
      </trkpt>
      <trkpt lat="46.00061" lon="1.05425">
        <ele>315</ele>
        <time>2011-06-26T11:00:31.000Z</time>
      </trkpt>
      <trkpt lat="46.00062" lon="1.05432">
        <ele>316</ele>
        <time>2011-06-26T11:00:33.000Z</time>
      </trkpt>
      <trkpt lat="46.00061" lon="1.05448">
        <ele>315</ele>
        <time>2011-06-26T11:00:36.000Z</time>
      </trkpt>
      <trkpt lat="46.00051" lon="1.05511">
        <ele>314</ele>
        <time>2011-06-26T11:00:49.000Z</time>
      </trkpt>
      <trkpt lat="46.00051" lon="1.05516">
        <ele>315</ele>
        <time>2011-06-26T11:00:50.000Z</time>
      </trkpt>
      <trkpt lat="46.00051" lon="1.05526">
        <ele>315</ele>
        <time>2011-06-26T11:00:52.000Z</time>
      </trkpt>
      <trkpt lat="46.00048" lon="1.05552">
        <ele>316</ele>
        <time>2011-06-26T11:00:58.000Z</time>
      </trkpt>
      <trkpt lat="46.00045" lon="1.05575">
        <ele>321</ele>
        <time>2011-06-26T11:01:03.000Z</time>
      </trkpt>
      <trkpt lat="46.00038" lon="1.05633">
        <ele>329</ele>
        <time>2011-06-26T11:01:11.000Z</time>
      </trkpt>
      <trkpt lat="46.00037" lon="1.05642">
        <ele>329</ele>
        <time>2011-06-26T11:01:12.000Z</time>
      </trkpt>
      <trkpt lat="46.00034" lon="1.05708">
        <ele>330</ele>
        <time>2011-06-26T11:01:20.000Z</time>
      </trkpt>
      <trkpt lat="46.00033" lon="1.05714">
        <ele>329</ele>
        <time>2011-06-26T11:01:21.000Z</time>
      </trkpt>
      <trkpt lat="46.00029" lon="1.05723">
        <ele>327</ele>
        <time>2011-06-26T11:01:23.000Z</time>
      </trkpt>
      <trkpt lat="46.00021" lon="1.05729">
        <ele>326</ele>
        <time>2011-06-26T11:01:26.000Z</time>
      </trkpt>
      <trkpt lat="46.00013" lon="1.05732">
        <ele>325</ele>
        <time>2011-06-26T11:01:28.000Z</time>
      </trkpt>
      <trkpt lat="45.99966" lon="1.05746">
        <ele>320</ele>
        <time>2011-06-26T11:01:36.000Z</time>
      </trkpt>
      <trkpt lat="45.9996" lon="1.05748">
        <ele>319</ele>
        <time>2011-06-26T11:01:37.000Z</time>
      </trkpt>
      <trkpt lat="45.99912" lon="1.05762">
        <ele>314</ele>
        <time>2011-06-26T11:01:44.000Z</time>
      </trkpt>
      <trkpt lat="45.99908" lon="1.05763">
        <ele>313</ele>
        <time>2011-06-26T11:01:45.000Z</time>
      </trkpt>
      <trkpt lat="45.99906" lon="1.05766">
        <ele>312</ele>
        <time>2011-06-26T11:01:46.000Z</time>
      </trkpt>
      <trkpt lat="45.9991" lon="1.05778">
        <ele>309</ele>
        <time>2011-06-26T11:01:49.000Z</time>
      </trkpt>
      <trkpt lat="45.99932" lon="1.05818">
        <ele>304</ele>
        <time>2011-06-26T11:01:57.000Z</time>
      </trkpt>
      <trkpt lat="45.99958" lon="1.05874">
        <ele>302</ele>
        <time>2011-06-26T11:02:07.000Z</time>
      </trkpt>
      <trkpt lat="45.9996" lon="1.05879">
        <ele>302</ele>
        <time>2011-06-26T11:02:08.000Z</time>
      </trkpt>
      <trkpt lat="45.99974" lon="1.05903">
        <ele>304</ele>
        <time>2011-06-26T11:02:13.000Z</time>
      </trkpt>
      <trkpt lat="45.99994" lon="1.05936">
        <ele>306</ele>
        <time>2011-06-26T11:02:19.000Z</time>
      </trkpt>
      <trkpt lat="46.00017" lon="1.05996">
        <ele>307</ele>
        <time>2011-06-26T11:02:28.000Z</time>
      </trkpt>
      <trkpt lat="46.00019" lon="1.06003">
        <ele>307</ele>
        <time>2011-06-26T11:02:29.000Z</time>
      </trkpt>
      <trkpt lat="46.00023" lon="1.06017">
        <ele>307</ele>
        <time>2011-06-26T11:02:31.000Z</time>
      </trkpt>
      <trkpt lat="46.00021" lon="1.06039">
        <ele>307</ele>
        <time>2011-06-26T11:02:34.000Z</time>
      </trkpt>
      <trkpt lat="46.00018" lon="1.06072">
        <ele>307</ele>
        <time>2011-06-26T11:02:39.000Z</time>
      </trkpt>
      <trkpt lat="46.00019" lon="1.06091">
        <ele>307</ele>
        <time>2011-06-26T11:02:42.000Z</time>
      </trkpt>
      <trkpt lat="46.00032" lon="1.06142">
        <ele>307</ele>
        <time>2011-06-26T11:02:51.000Z</time>
      </trkpt>
      <trkpt lat="46.00019" lon="1.06182">
        <ele>306</ele>
        <time>2011-06-26T11:02:58.000Z</time>
      </trkpt>
      <trkpt lat="46.00013" lon="1.06202">
        <ele>306</ele>
        <time>2011-06-26T11:03:02.000Z</time>
      </trkpt>
      <trkpt lat="46.00013" lon="1.06219">
        <ele>306</ele>
        <time>2011-06-26T11:03:05.000Z</time>
      </trkpt>
      <trkpt lat="46.0002" lon="1.06232">
        <ele>307</ele>
        <time>2011-06-26T11:03:09.000Z</time>
      </trkpt>
      <trkpt lat="46.00029" lon="1.06245">
        <ele>308</ele>
        <time>2011-06-26T11:03:15.000Z</time>
      </trkpt>
      <trkpt lat="46.00029" lon="1.06256">
        <ele>309</ele>
        <time>2011-06-26T11:03:19.000Z</time>
      </trkpt>
      <trkpt lat="46.00016" lon="1.06282">
        <ele>313</ele>
        <time>2011-06-26T11:03:31.000Z</time>
      </trkpt>
      <trkpt lat="46.00013" lon="1.063">
        <ele>313</ele>
        <time>2011-06-26T11:03:37.000Z</time>
      </trkpt>
      <trkpt lat="46.00012" lon="1.06336">
        <ele>315</ele>
        <time>2011-06-26T11:03:48.000Z</time>
      </trkpt>
      <trkpt lat="46.00013" lon="1.06346">
        <ele>316</ele>
        <time>2011-06-26T11:03:51.000Z</time>
      </trkpt>
      <trkpt lat="46.00014" lon="1.06357">
        <ele>316</ele>
        <time>2011-06-26T11:03:54.000Z</time>
      </trkpt>
      <trkpt lat="46.00029" lon="1.06419">
        <ele>315</ele>
        <time>2011-06-26T11:04:14.000Z</time>
      </trkpt>
      <trkpt lat="46.0003" lon="1.06421">
        <ele>315</ele>
        <time>2011-06-26T11:04:15.000Z</time>
      </trkpt>
      <trkpt lat="46.00034" lon="1.06442">
        <ele>313</ele>
        <time>2011-06-26T11:04:24.000Z</time>
      </trkpt>
      <trkpt lat="46.00038" lon="1.06484">
        <ele>317</ele>
        <time>2011-06-26T11:04:40.000Z</time>
      </trkpt>
      <trkpt lat="46.0004" lon="1.06498">
        <ele>319</ele>
        <time>2011-06-26T11:04:46.000Z</time>
      </trkpt>
      <trkpt lat="46.00047" lon="1.06564">
        <ele>328</ele>
        <time>2011-06-26T11:05:16.000Z</time>
      </trkpt>
      <trkpt lat="46.00047" lon="1.06566">
        <ele>328</ele>
        <time>2011-06-26T11:05:17.000Z</time>
      </trkpt>
      <trkpt lat="46.0005" lon="1.06596">
        <ele>331</ele>
        <time>2011-06-26T11:05:30.000Z</time>
      </trkpt>
      <trkpt lat="46.00055" lon="1.06616">
        <ele>331</ele>
        <time>2011-06-26T11:05:40.000Z</time>
      </trkpt>
      <trkpt lat="46.00062" lon="1.06661">
        <ele>335</ele>
        <time>2011-06-26T11:06:00.000Z</time>
      </trkpt>
      <trkpt lat="46.00065" lon="1.06681">
        <ele>337</ele>
        <time>2011-06-26T11:06:10.000Z</time>
      </trkpt>
      <trkpt lat="46.00067" lon="1.06697">
        <ele>341</ele>
        <time>2011-06-26T11:06:18.000Z</time>
      </trkpt>
      <trkpt lat="46.00068" lon="1.06714">
        <ele>342</ele>
        <time>2011-06-26T11:06:27.000Z</time>
      </trkpt>
      <trkpt lat="46.00074" lon="1.06729">
        <ele>342</ele>
        <time>2011-06-26T11:06:33.000Z</time>
      </trkpt>
      <trkpt lat="46.00106" lon="1.06778">
        <ele>338</ele>
        <time>2011-06-26T11:06:43.000Z</time>
      </trkpt>
      <trkpt lat="46.00111" lon="1.06785">
        <ele>337</ele>
        <time>2011-06-26T11:06:44.000Z</time>
      </trkpt>
      <trkpt lat="46.00148" lon="1.06836">
        <ele>333</ele>
        <time>2011-06-26T11:06:51.000Z</time>
      </trkpt>
      <trkpt lat="46.00152" lon="1.06844">
        <ele>333</ele>
        <time>2011-06-26T11:06:52.000Z</time>
      </trkpt>
      <trkpt lat="46.00162" lon="1.06862">
        <ele>333</ele>
        <time>2011-06-26T11:06:55.000Z</time>
      </trkpt>
      <trkpt lat="46.00181" lon="1.06897">
        <ele>332</ele>
        <time>2011-06-26T11:07:02.000Z</time>
      </trkpt>
      <trkpt lat="46.00188" lon="1.06899">
        <ele>332</ele>
        <time>2011-06-26T11:07:04.000Z</time>
      </trkpt>
      <trkpt lat="46.00199" lon="1.06894">
        <ele>331</ele>
        <time>2011-06-26T11:07:07.000Z</time>
      </trkpt>
      <trkpt lat="46.00242" lon="1.06862">
        <ele>329</ele>
        <time>2011-06-26T11:07:18.000Z</time>
      </trkpt>
      <trkpt lat="46.00245" lon="1.06858">
        <ele>328</ele>
        <time>2011-06-26T11:07:19.000Z</time>
      </trkpt>
      <trkpt lat="46.00248" lon="1.06853">
        <ele>328</ele>
        <time>2011-06-26T11:07:20.000Z</time>
      </trkpt>
      <trkpt lat="46.00264" lon="1.06834">
        <ele>327</ele>
        <time>2011-06-26T11:07:25.000Z</time>
      </trkpt>
      <trkpt lat="46.00285" lon="1.06815">
        <ele>327</ele>
        <time>2011-06-26T11:07:31.000Z</time>
      </trkpt>
      <trkpt lat="46.00296" lon="1.06807">
        <ele>326</ele>
        <time>2011-06-26T11:07:37.000Z</time>
      </trkpt>
      <trkpt lat="46.0031" lon="1.06794">
        <ele>326</ele>
        <time>2011-06-26T11:07:42.000Z</time>
      </trkpt>
      <trkpt lat="46.00357" lon="1.06782">
        <ele>331</ele>
        <time>2011-06-26T11:07:56.000Z</time>
      </trkpt>
      <trkpt lat="46.0036" lon="1.06781">
        <ele>331</ele>
        <time>2011-06-26T11:07:57.000Z</time>
      </trkpt>
      <trkpt lat="46.00408" lon="1.06772">
        <ele>338</ele>
        <time>2011-06-26T11:08:13.000Z</time>
      </trkpt>
      <trkpt lat="46.0041" lon="1.06772">
        <ele>338</ele>
        <time>2011-06-26T11:08:14.000Z</time>
      </trkpt>
      <trkpt lat="46.00422" lon="1.06778">
        <ele>340</ele>
        <time>2011-06-26T11:08:19.000Z</time>
      </trkpt>
      <trkpt lat="46.00425" lon="1.06787">
        <ele>340</ele>
        <time>2011-06-26T11:08:22.000Z</time>
      </trkpt>
      <trkpt lat="46.00433" lon="1.06796">
        <ele>341</ele>
        <time>2011-06-26T11:08:26.000Z</time>
      </trkpt>
      <trkpt lat="46.00444" lon="1.06797">
        <ele>342</ele>
        <time>2011-06-26T11:08:30.000Z</time>
      </trkpt>
      <trkpt lat="46.00458" lon="1.06798">
        <ele>343</ele>
        <time>2011-06-26T11:08:35.000Z</time>
      </trkpt>
      <trkpt lat="46.00462" lon="1.06807">
        <ele>343</ele>
        <time>2011-06-26T11:08:38.000Z</time>
      </trkpt>
      <trkpt lat="46.00462" lon="1.06814">
        <ele>344</ele>
        <time>2011-06-26T11:08:40.000Z</time>
      </trkpt>
      <trkpt lat="46.00449" lon="1.0688">
        <ele>342</ele>
        <time>2011-06-26T11:08:57.000Z</time>
      </trkpt>
      <trkpt lat="46.00448" lon="1.06885">
        <ele>342</ele>
        <time>2011-06-26T11:08:58.000Z</time>
      </trkpt>
      <trkpt lat="46.00441" lon="1.06914">
        <ele>343</ele>
        <time>2011-06-26T11:09:05.000Z</time>
      </trkpt>
      <trkpt lat="46.00424" lon="1.06976">
        <ele>346</ele>
        <time>2011-06-26T11:09:19.000Z</time>
      </trkpt>
      <trkpt lat="46.00423" lon="1.06979">
        <ele>346</ele>
        <time>2011-06-26T11:09:20.000Z</time>
      </trkpt>
      <trkpt lat="46.00406" lon="1.07039">
        <ele>346</ele>
        <time>2011-06-26T11:09:35.000Z</time>
      </trkpt>
      <trkpt lat="46.00404" lon="1.07043">
        <ele>346</ele>
        <time>2011-06-26T11:09:36.000Z</time>
      </trkpt>
      <trkpt lat="46.00391" lon="1.07068">
        <ele>346</ele>
        <time>2011-06-26T11:09:43.000Z</time>
      </trkpt>
      <trkpt lat="46.00365" lon="1.07121">
        <ele>349</ele>
        <time>2011-06-26T11:09:59.000Z</time>
      </trkpt>
      <trkpt lat="46.00364" lon="1.07124">
        <ele>349</ele>
        <time>2011-06-26T11:10:00.000Z</time>
      </trkpt>
      <trkpt lat="46.00339" lon="1.07168">
        <ele>355</ele>
        <time>2011-06-26T11:10:18.000Z</time>
      </trkpt>
      <trkpt lat="46.00324" lon="1.07181">
        <ele>357</ele>
        <time>2011-06-26T11:10:26.000Z</time>
      </trkpt>
      <trkpt lat="46.00303" lon="1.07185">
        <ele>357</ele>
        <time>2011-06-26T11:10:33.000Z</time>
      </trkpt>
      <trkpt lat="46.00258" lon="1.07181">
        <ele>355</ele>
        <time>2011-06-26T11:10:46.000Z</time>
      </trkpt>
      <trkpt lat="46.00254" lon="1.0718">
        <ele>355</ele>
        <time>2011-06-26T11:10:47.000Z</time>
      </trkpt>
      <trkpt lat="46.00203" lon="1.07179">
        <ele>352</ele>
        <time>2011-06-26T11:10:55.000Z</time>
      </trkpt>
      <trkpt lat="46.00195" lon="1.07178">
        <ele>352</ele>
        <time>2011-06-26T11:10:56.000Z</time>
      </trkpt>
      <trkpt lat="46.00142" lon="1.07173">
        <ele>348</ele>
        <time>2011-06-26T11:11:02.000Z</time>
      </trkpt>
      <trkpt lat="46.00132" lon="1.07172">
        <ele>348</ele>
        <time>2011-06-26T11:11:03.000Z</time>
      </trkpt>
      <trkpt lat="46.00079" lon="1.07167">
        <ele>346</ele>
        <time>2011-06-26T11:11:09.000Z</time>
      </trkpt>
      <trkpt lat="46.00071" lon="1.07166">
        <ele>346</ele>
        <time>2011-06-26T11:11:10.000Z</time>
      </trkpt>
      <trkpt lat="46.0003" lon="1.07159">
        <ele>344</ele>
        <time>2011-06-26T11:11:15.000Z</time>
      </trkpt>
      <trkpt lat="46.00022" lon="1.07156">
        <ele>344</ele>
        <time>2011-06-26T11:11:16.000Z</time>
      </trkpt>
      <trkpt lat="46.00007" lon="1.07147">
        <ele>343</ele>
        <time>2011-06-26T11:11:18.000Z</time>
      </trkpt>
      <trkpt lat="45.99967" lon="1.07106">
        <ele>343</ele>
        <time>2011-06-26T11:11:24.000Z</time>
      </trkpt>
      <trkpt lat="45.99961" lon="1.07102">
        <ele>343</ele>
        <time>2011-06-26T11:11:25.000Z</time>
      </trkpt>
      <trkpt lat="45.99947" lon="1.0709">
        <ele>343</ele>
        <time>2011-06-26T11:11:29.000Z</time>
      </trkpt>
      <trkpt lat="45.99932" lon="1.07065">
        <ele>342</ele>
        <time>2011-06-26T11:11:38.000Z</time>
      </trkpt>
      <trkpt lat="45.99921" lon="1.07054">
        <ele>343</ele>
        <time>2011-06-26T11:11:41.000Z</time>
      </trkpt>
      <trkpt lat="45.99909" lon="1.07052">
        <ele>343</ele>
        <time>2011-06-26T11:11:44.000Z</time>
      </trkpt>
      <trkpt lat="45.99864" lon="1.07065">
        <ele>338</ele>
        <time>2011-06-26T11:11:55.000Z</time>
      </trkpt>
      <trkpt lat="45.99858" lon="1.07069">
        <ele>337</ele>
        <time>2011-06-26T11:11:56.000Z</time>
      </trkpt>
      <trkpt lat="45.99813" lon="1.07096">
        <ele>329</ele>
        <time>2011-06-26T11:12:02.000Z</time>
      </trkpt>
      <trkpt lat="45.99804" lon="1.07101">
        <ele>328</ele>
        <time>2011-06-26T11:12:03.000Z</time>
      </trkpt>
      <trkpt lat="45.99759" lon="1.07132">
        <ele>323</ele>
        <time>2011-06-26T11:12:08.000Z</time>
      </trkpt>
      <trkpt lat="45.99751" lon="1.07141">
        <ele>323</ele>
        <time>2011-06-26T11:12:09.000Z</time>
      </trkpt>
      <trkpt lat="45.99723" lon="1.07156">
        <ele>321</ele>
        <time>2011-06-26T11:12:12.000Z</time>
      </trkpt>
      <trkpt lat="45.99678" lon="1.07177">
        <ele>319</ele>
        <time>2011-06-26T11:12:18.000Z</time>
      </trkpt>
      <trkpt lat="45.99672" lon="1.07182">
        <ele>319</ele>
        <time>2011-06-26T11:12:19.000Z</time>
      </trkpt>
      <trkpt lat="45.99641" lon="1.07215">
        <ele>320</ele>
        <time>2011-06-26T11:12:26.000Z</time>
      </trkpt>
      <trkpt lat="45.99617" lon="1.07245">
        <ele>321</ele>
        <time>2011-06-26T11:12:33.000Z</time>
      </trkpt>
      <trkpt lat="45.99609" lon="1.07245">
        <ele>322</ele>
        <time>2011-06-26T11:12:35.000Z</time>
      </trkpt>
      <trkpt lat="45.99591" lon="1.07234">
        <ele>321</ele>
        <time>2011-06-26T11:12:39.000Z</time>
      </trkpt>
      <trkpt lat="45.99568" lon="1.0721">
        <ele>321</ele>
        <time>2011-06-26T11:12:45.000Z</time>
      </trkpt>
      <trkpt lat="45.99528" lon="1.07175">
        <ele>323</ele>
        <time>2011-06-26T11:12:55.000Z</time>
      </trkpt>
      <trkpt lat="45.99524" lon="1.07171">
        <ele>323</ele>
        <time>2011-06-26T11:12:56.000Z</time>
      </trkpt>
      <trkpt lat="45.99514" lon="1.07158">
        <ele>323</ele>
        <time>2011-06-26T11:12:59.000Z</time>
      </trkpt>
      <trkpt lat="45.99479" lon="1.07112">
        <ele>323</ele>
        <time>2011-06-26T11:13:09.000Z</time>
      </trkpt>
      <trkpt lat="45.99474" lon="1.07107">
        <ele>323</ele>
        <time>2011-06-26T11:13:10.000Z</time>
      </trkpt>
      <trkpt lat="45.99453" lon="1.07088">
        <ele>321</ele>
        <time>2011-06-26T11:13:14.000Z</time>
      </trkpt>
      <trkpt lat="45.99435" lon="1.07083">
        <ele>320</ele>
        <time>2011-06-26T11:13:17.000Z</time>
      </trkpt>
      <trkpt lat="45.99417" lon="1.0709">
        <ele>319</ele>
        <time>2011-06-26T11:13:20.000Z</time>
      </trkpt>
      <trkpt lat="45.99378" lon="1.07124">
        <ele>315</ele>
        <time>2011-06-26T11:13:27.000Z</time>
      </trkpt>
      <trkpt lat="45.99371" lon="1.07127">
        <ele>314</ele>
        <time>2011-06-26T11:13:28.000Z</time>
      </trkpt>
      <trkpt lat="45.99334" lon="1.07144">
        <ele>312</ele>
        <time>2011-06-26T11:13:34.000Z</time>
      </trkpt>
      <trkpt lat="45.99327" lon="1.07146">
        <ele>312</ele>
        <time>2011-06-26T11:13:35.000Z</time>
      </trkpt>
      <trkpt lat="45.99278" lon="1.07155">
        <ele>309</ele>
        <time>2011-06-26T11:13:42.000Z</time>
      </trkpt>
      <trkpt lat="45.99271" lon="1.07155">
        <ele>309</ele>
        <time>2011-06-26T11:13:43.000Z</time>
      </trkpt>
      <trkpt lat="45.99228" lon="1.07169">
        <ele>307</ele>
        <time>2011-06-26T11:13:49.000Z</time>
      </trkpt>
      <trkpt lat="45.99222" lon="1.07176">
        <ele>307</ele>
        <time>2011-06-26T11:13:50.000Z</time>
      </trkpt>
      <trkpt lat="45.99185" lon="1.07217">
        <ele>306</ele>
        <time>2011-06-26T11:13:57.000Z</time>
      </trkpt>
      <trkpt lat="45.9918" lon="1.0722">
        <ele>306</ele>
        <time>2011-06-26T11:13:58.000Z</time>
      </trkpt>
      <trkpt lat="45.99144" lon="1.0724">
        <ele>304</ele>
        <time>2011-06-26T11:14:06.000Z</time>
      </trkpt>
      <trkpt lat="45.99099" lon="1.07255">
        <ele>303</ele>
        <time>2011-06-26T11:14:16.000Z</time>
      </trkpt>
      <trkpt lat="45.99094" lon="1.07257">
        <ele>303</ele>
        <time>2011-06-26T11:14:17.000Z</time>
      </trkpt>
      <trkpt lat="45.9909" lon="1.07259">
        <ele>303</ele>
        <time>2011-06-26T11:14:18.000Z</time>
      </trkpt>
      <trkpt lat="45.99054" lon="1.07277">
        <ele>303</ele>
        <time>2011-06-26T11:14:28.000Z</time>
      </trkpt>
      <trkpt lat="45.99029" lon="1.0729">
        <ele>307</ele>
        <time>2011-06-26T11:14:36.000Z</time>
      </trkpt>
      <trkpt lat="45.99001" lon="1.07312">
        <ele>315</ele>
        <time>2011-06-26T11:14:47.000Z</time>
      </trkpt>
      <trkpt lat="45.98989" lon="1.07325">
        <ele>319</ele>
        <time>2011-06-26T11:14:51.000Z</time>
      </trkpt>
      <trkpt lat="45.98973" lon="1.07353">
        <ele>320</ele>
        <time>2011-06-26T11:15:03.000Z</time>
      </trkpt>
      <trkpt lat="45.98966" lon="1.07369">
        <ele>322</ele>
        <time>2011-06-26T11:15:11.000Z</time>
      </trkpt>
      <trkpt lat="45.98961" lon="1.07378">
        <ele>323</ele>
        <time>2011-06-26T11:15:15.000Z</time>
      </trkpt>
      <trkpt lat="45.98933" lon="1.07431">
        <ele>329</ele>
        <time>2011-06-26T11:15:36.000Z</time>
      </trkpt>
      <trkpt lat="45.98931" lon="1.07433">
        <ele>329</ele>
        <time>2011-06-26T11:15:37.000Z</time>
      </trkpt>
      <trkpt lat="45.98927" lon="1.07439">
        <ele>330</ele>
        <time>2011-06-26T11:15:40.000Z</time>
      </trkpt>
      <trkpt lat="45.98918" lon="1.07452">
        <ele>330</ele>
        <time>2011-06-26T11:15:46.000Z</time>
      </trkpt>
      <trkpt lat="45.98911" lon="1.07463">
        <ele>330</ele>
        <time>2011-06-26T11:15:51.000Z</time>
      </trkpt>
      <trkpt lat="45.98906" lon="1.07471">
        <ele>331</ele>
        <time>2011-06-26T11:15:55.000Z</time>
      </trkpt>
      <trkpt lat="45.98901" lon="1.07478">
        <ele>332</ele>
        <time>2011-06-26T11:15:59.000Z</time>
      </trkpt>
      <trkpt lat="45.98896" lon="1.07486">
        <ele>333</ele>
        <time>2011-06-26T11:16:02.000Z</time>
      </trkpt>
      <trkpt lat="45.98893" lon="1.075">
        <ele>335</ele>
        <time>2011-06-26T11:16:08.000Z</time>
      </trkpt>
      <trkpt lat="45.98891" lon="1.07512">
        <ele>340</ele>
        <time>2011-06-26T11:16:14.000Z</time>
      </trkpt>
      <trkpt lat="45.9889" lon="1.0752">
        <ele>342</ele>
        <time>2011-06-26T11:16:18.000Z</time>
      </trkpt>
      <trkpt lat="45.98885" lon="1.07533">
        <ele>345</ele>
        <time>2011-06-26T11:16:24.000Z</time>
      </trkpt>
      <trkpt lat="45.98883" lon="1.07541">
        <ele>347</ele>
        <time>2011-06-26T11:16:28.000Z</time>
      </trkpt>
      <trkpt lat="45.98882" lon="1.0755">
        <ele>347</ele>
        <time>2011-06-26T11:16:32.000Z</time>
      </trkpt>
      <trkpt lat="45.9888" lon="1.07561">
        <ele>345</ele>
        <time>2011-06-26T11:16:45.000Z</time>
      </trkpt>
      <trkpt lat="45.98876" lon="1.07575">
        <ele>334</ele>
        <time>2011-06-26T11:16:57.000Z</time>
      </trkpt>
      <trkpt lat="45.98874" lon="1.07594">
        <ele>335</ele>
        <time>2011-06-26T11:17:08.000Z</time>
      </trkpt>
      <trkpt lat="45.98878" lon="1.07626">
        <ele>338</ele>
        <time>2011-06-26T11:17:22.000Z</time>
      </trkpt>
      <trkpt lat="45.9888" lon="1.07634">
        <ele>339</ele>
        <time>2011-06-26T11:17:26.000Z</time>
      </trkpt>
      <trkpt lat="45.98887" lon="1.0765">
        <ele>339</ele>
        <time>2011-06-26T11:17:39.000Z</time>
      </trkpt>
      <trkpt lat="45.98891" lon="1.07657">
        <ele>339</ele>
        <time>2011-06-26T11:17:43.000Z</time>
      </trkpt>
      <trkpt lat="45.98894" lon="1.07664">
        <ele>338</ele>
        <time>2011-06-26T11:17:47.000Z</time>
      </trkpt>
      <trkpt lat="45.98896" lon="1.07673">
        <ele>338</ele>
        <time>2011-06-26T11:17:51.000Z</time>
      </trkpt>
      <trkpt lat="45.9891" lon="1.07716">
        <ele>338</ele>
        <time>2011-06-26T11:18:08.000Z</time>
      </trkpt>
      <trkpt lat="45.98912" lon="1.07727">
        <ele>339</ele>
        <time>2011-06-26T11:18:12.000Z</time>
      </trkpt>
      <trkpt lat="45.98912" lon="1.07747">
        <ele>342</ele>
        <time>2011-06-26T11:18:18.000Z</time>
      </trkpt>
      <trkpt lat="45.98912" lon="1.07782">
        <ele>347</ele>
        <time>2011-06-26T11:18:27.000Z</time>
      </trkpt>
      <trkpt lat="45.98912" lon="1.07794">
        <ele>351</ele>
        <time>2011-06-26T11:18:30.000Z</time>
      </trkpt>
      <trkpt lat="45.98911" lon="1.07812">
        <ele>356</ele>
        <time>2011-06-26T11:18:34.000Z</time>
      </trkpt>
      <trkpt lat="45.9891" lon="1.07831">
        <ele>361</ele>
        <time>2011-06-26T11:18:39.000Z</time>
      </trkpt>
      <trkpt lat="45.98909" lon="1.07846">
        <ele>364</ele>
        <time>2011-06-26T11:18:43.000Z</time>
      </trkpt>
      <trkpt lat="45.98906" lon="1.07853">
        <ele>366</ele>
        <time>2011-06-26T11:18:45.000Z</time>
      </trkpt>
      <trkpt lat="45.989" lon="1.07863">
        <ele>368</ele>
        <time>2011-06-26T11:18:48.000Z</time>
      </trkpt>
      <trkpt lat="45.98884" lon="1.07877">
        <ele>366</ele>
        <time>2011-06-26T11:18:55.000Z</time>
      </trkpt>
      <trkpt lat="45.98862" lon="1.07899">
        <ele>362</ele>
        <time>2011-06-26T11:19:05.000Z</time>
      </trkpt>
      <trkpt lat="45.98859" lon="1.07907">
        <ele>361</ele>
        <time>2011-06-26T11:19:09.000Z</time>
      </trkpt>
      <trkpt lat="45.98855" lon="1.07915">
        <ele>361</ele>
        <time>2011-06-26T11:19:14.000Z</time>
      </trkpt>
      <trkpt lat="45.98847" lon="1.07926">
        <ele>360</ele>
        <time>2011-06-26T11:19:20.000Z</time>
      </trkpt>
      <trkpt lat="45.98841" lon="1.07939">
        <ele>359</ele>
        <time>2011-06-26T11:19:26.000Z</time>
      </trkpt>
      <trkpt lat="45.98837" lon="1.07947">
        <ele>358</ele>
        <time>2011-06-26T11:19:30.000Z</time>
      </trkpt>
      <trkpt lat="45.98831" lon="1.07954">
        <ele>356</ele>
        <time>2011-06-26T11:19:34.000Z</time>
      </trkpt>
      <trkpt lat="45.98812" lon="1.07967">
        <ele>353</ele>
        <time>2011-06-26T11:19:43.000Z</time>
      </trkpt>
      <trkpt lat="45.98805" lon="1.07975">
        <ele>352</ele>
        <time>2011-06-26T11:19:47.000Z</time>
      </trkpt>
      <trkpt lat="45.98799" lon="1.07985">
        <ele>352</ele>
        <time>2011-06-26T11:19:51.000Z</time>
      </trkpt>
      <trkpt lat="45.9879" lon="1.07995">
        <ele>352</ele>
        <time>2011-06-26T11:19:56.000Z</time>
      </trkpt>
      <trkpt lat="45.98786" lon="1.08001">
        <ele>351</ele>
        <time>2011-06-26T11:19:58.000Z</time>
      </trkpt>
      <trkpt lat="45.98782" lon="1.08013">
        <ele>350</ele>
        <time>2011-06-26T11:20:01.000Z</time>
      </trkpt>
      <trkpt lat="45.98781" lon="1.08029">
        <ele>349</ele>
        <time>2011-06-26T11:20:04.000Z</time>
      </trkpt>
      <trkpt lat="45.98775" lon="1.08065">
        <ele>349</ele>
        <time>2011-06-26T11:20:10.000Z</time>
      </trkpt>
      <trkpt lat="45.98771" lon="1.08102">
        <ele>355</ele>
        <time>2011-06-26T11:20:15.000Z</time>
      </trkpt>
      <trkpt lat="45.98758" lon="1.08169">
        <ele>363</ele>
        <time>2011-06-26T11:20:23.000Z</time>
      </trkpt>
      <trkpt lat="45.98756" lon="1.08177">
        <ele>364</ele>
        <time>2011-06-26T11:20:24.000Z</time>
      </trkpt>
      <trkpt lat="45.98749" lon="1.08245">
        <ele>363</ele>
        <time>2011-06-26T11:20:33.000Z</time>
      </trkpt>
      <trkpt lat="45.98751" lon="1.0825">
        <ele>362</ele>
        <time>2011-06-26T11:20:34.000Z</time>
      </trkpt>
      <trkpt lat="45.98753" lon="1.08253">
        <ele>361</ele>
        <time>2011-06-26T11:20:35.000Z</time>
      </trkpt>
      <trkpt lat="45.98766" lon="1.08261">
        <ele>359</ele>
        <time>2011-06-26T11:20:39.000Z</time>
      </trkpt>
      <trkpt lat="45.98806" lon="1.08293">
        <ele>355</ele>
        <time>2011-06-26T11:20:51.000Z</time>
      </trkpt>
      <trkpt lat="45.9881" lon="1.08296">
        <ele>355</ele>
        <time>2011-06-26T11:20:52.000Z</time>
      </trkpt>
      <trkpt lat="45.9885" lon="1.08328">
        <ele>355</ele>
        <time>2011-06-26T11:21:07.000Z</time>
      </trkpt>
      <trkpt lat="45.98852" lon="1.08329">
        <ele>354</ele>
        <time>2011-06-26T11:21:08.000Z</time>
      </trkpt>
      <trkpt lat="45.98892" lon="1.08363">
        <ele>354</ele>
        <time>2011-06-26T11:21:25.000Z</time>
      </trkpt>
      <trkpt lat="45.98895" lon="1.08365">
        <ele>354</ele>
        <time>2011-06-26T11:21:26.000Z</time>
      </trkpt>
      <trkpt lat="45.98933" lon="1.08398">
        <ele>353</ele>
        <time>2011-06-26T11:21:41.000Z</time>
      </trkpt>
      <trkpt lat="45.98936" lon="1.08401">
        <ele>353</ele>
        <time>2011-06-26T11:21:42.000Z</time>
      </trkpt>
      <trkpt lat="45.98947" lon="1.08415">
        <ele>353</ele>
        <time>2011-06-26T11:21:46.000Z</time>
      </trkpt>
      <trkpt lat="45.98982" lon="1.08462">
        <ele>350</ele>
        <time>2011-06-26T11:22:01.000Z</time>
      </trkpt>
      <trkpt lat="45.98984" lon="1.08465">
        <ele>350</ele>
        <time>2011-06-26T11:22:02.000Z</time>
      </trkpt>
      <trkpt lat="45.98993" lon="1.0848">
        <ele>350</ele>
        <time>2011-06-26T11:22:06.000Z</time>
      </trkpt>
      <trkpt lat="45.9902" lon="1.08536">
        <ele>355</ele>
        <time>2011-06-26T11:22:21.000Z</time>
      </trkpt>
      <trkpt lat="45.99022" lon="1.08538">
        <ele>355</ele>
        <time>2011-06-26T11:22:22.000Z</time>
      </trkpt>
      <trkpt lat="45.99026" lon="1.08549">
        <ele>357</ele>
        <time>2011-06-26T11:22:25.000Z</time>
      </trkpt>
      <trkpt lat="45.99049" lon="1.08606">
        <ele>364</ele>
        <time>2011-06-26T11:22:38.000Z</time>
      </trkpt>
      <trkpt lat="45.99052" lon="1.0861">
        <ele>365</ele>
        <time>2011-06-26T11:22:39.000Z</time>
      </trkpt>
      <trkpt lat="45.99063" lon="1.08639">
        <ele>369</ele>
        <time>2011-06-26T11:22:45.000Z</time>
      </trkpt>
      <trkpt lat="45.99072" lon="1.08673">
        <ele>369</ele>
        <time>2011-06-26T11:22:51.000Z</time>
      </trkpt>
      <trkpt lat="45.99086" lon="1.08739">
        <ele>366</ele>
        <time>2011-06-26T11:23:03.000Z</time>
      </trkpt>
      <trkpt lat="45.99086" lon="1.08745">
        <ele>366</ele>
        <time>2011-06-26T11:23:04.000Z</time>
      </trkpt>
      <trkpt lat="45.99099" lon="1.08808">
        <ele>364</ele>
        <time>2011-06-26T11:23:16.000Z</time>
      </trkpt>
      <trkpt lat="45.991" lon="1.08814">
        <ele>364</ele>
        <time>2011-06-26T11:23:17.000Z</time>
      </trkpt>
      <trkpt lat="45.99113" lon="1.08877">
        <ele>365</ele>
        <time>2011-06-26T11:23:27.000Z</time>
      </trkpt>
      <trkpt lat="45.99115" lon="1.08884">
        <ele>365</ele>
        <time>2011-06-26T11:23:28.000Z</time>
      </trkpt>
      <trkpt lat="45.99129" lon="1.08946">
        <ele>364</ele>
        <time>2011-06-26T11:23:37.000Z</time>
      </trkpt>
      <trkpt lat="45.9913" lon="1.08953">
        <ele>363</ele>
        <time>2011-06-26T11:23:38.000Z</time>
      </trkpt>
      <trkpt lat="45.99142" lon="1.09019">
        <ele>358</ele>
        <time>2011-06-26T11:23:46.000Z</time>
      </trkpt>
      <trkpt lat="45.99144" lon="1.09027">
        <ele>357</ele>
        <time>2011-06-26T11:23:47.000Z</time>
      </trkpt>
      <trkpt lat="45.99158" lon="1.09095">
        <ele>353</ele>
        <time>2011-06-26T11:23:55.000Z</time>
      </trkpt>
      <trkpt lat="45.9916" lon="1.09103">
        <ele>353</ele>
        <time>2011-06-26T11:23:56.000Z</time>
      </trkpt>
      <trkpt lat="45.99174" lon="1.09171">
        <ele>351</ele>
        <time>2011-06-26T11:24:04.000Z</time>
      </trkpt>
      <trkpt lat="45.99177" lon="1.0918">
        <ele>351</ele>
        <time>2011-06-26T11:24:05.000Z</time>
      </trkpt>
      <trkpt lat="45.99193" lon="1.09247">
        <ele>354</ele>
        <time>2011-06-26T11:24:13.000Z</time>
      </trkpt>
      <trkpt lat="45.99194" lon="1.09255">
        <ele>354</ele>
        <time>2011-06-26T11:24:14.000Z</time>
      </trkpt>
      <trkpt lat="45.99199" lon="1.09292">
        <ele>355</ele>
        <time>2011-06-26T11:24:19.000Z</time>
      </trkpt>
      <trkpt lat="45.99203" lon="1.09354">
        <ele>355</ele>
        <time>2011-06-26T11:24:27.000Z</time>
      </trkpt>
      <trkpt lat="45.99204" lon="1.09362">
        <ele>355</ele>
        <time>2011-06-26T11:24:28.000Z</time>
      </trkpt>
      <trkpt lat="45.99211" lon="1.09431">
        <ele>355</ele>
        <time>2011-06-26T11:24:37.000Z</time>
      </trkpt>
      <trkpt lat="45.99211" lon="1.09437">
        <ele>355</ele>
        <time>2011-06-26T11:24:38.000Z</time>
      </trkpt>
      <trkpt lat="45.99211" lon="1.09443">
        <ele>355</ele>
        <time>2011-06-26T11:24:39.000Z</time>
      </trkpt>
      <trkpt lat="45.99207" lon="1.09474">
        <ele>356</ele>
        <time>2011-06-26T11:24:44.000Z</time>
      </trkpt>
      <trkpt lat="45.99201" lon="1.095">
        <ele>355</ele>
        <time>2011-06-26T11:24:48.000Z</time>
      </trkpt>
      <trkpt lat="45.99169" lon="1.09551">
        <ele>354</ele>
        <time>2011-06-26T11:24:58.000Z</time>
      </trkpt>
      <trkpt lat="45.99165" lon="1.09556">
        <ele>354</ele>
        <time>2011-06-26T11:24:59.000Z</time>
      </trkpt>
      <trkpt lat="45.99157" lon="1.09564">
        <ele>353</ele>
        <time>2011-06-26T11:25:01.000Z</time>
      </trkpt>
      <trkpt lat="45.99113" lon="1.09588">
        <ele>354</ele>
        <time>2011-06-26T11:25:12.000Z</time>
      </trkpt>
      <trkpt lat="45.99109" lon="1.0959">
        <ele>354</ele>
        <time>2011-06-26T11:25:13.000Z</time>
      </trkpt>
      <trkpt lat="45.99067" lon="1.09613">
        <ele>356</ele>
        <time>2011-06-26T11:25:23.000Z</time>
      </trkpt>
      <trkpt lat="45.99062" lon="1.09615">
        <ele>356</ele>
        <time>2011-06-26T11:25:24.000Z</time>
      </trkpt>
      <trkpt lat="45.99016" lon="1.09639">
        <ele>352</ele>
        <time>2011-06-26T11:25:33.000Z</time>
      </trkpt>
      <trkpt lat="45.99009" lon="1.09641">
        <ele>351</ele>
        <time>2011-06-26T11:25:34.000Z</time>
      </trkpt>
      <trkpt lat="45.98963" lon="1.09662">
        <ele>348</ele>
        <time>2011-06-26T11:25:40.000Z</time>
      </trkpt>
      <trkpt lat="45.98955" lon="1.09667">
        <ele>348</ele>
        <time>2011-06-26T11:25:41.000Z</time>
      </trkpt>
      <trkpt lat="45.98941" lon="1.09679">
        <ele>347</ele>
        <time>2011-06-26T11:25:43.000Z</time>
      </trkpt>
      <trkpt lat="45.98911" lon="1.09736">
        <ele>345</ele>
        <time>2011-06-26T11:25:50.000Z</time>
      </trkpt>
      <trkpt lat="45.98906" lon="1.09744">
        <ele>345</ele>
        <time>2011-06-26T11:25:51.000Z</time>
      </trkpt>
      <trkpt lat="45.98897" lon="1.09755">
        <ele>345</ele>
        <time>2011-06-26T11:25:53.000Z</time>
      </trkpt>
      <trkpt lat="45.98881" lon="1.09773">
        <ele>345</ele>
        <time>2011-06-26T11:25:57.000Z</time>
      </trkpt>
      <trkpt lat="45.98852" lon="1.09827">
        <ele>346</ele>
        <time>2011-06-26T11:26:08.000Z</time>
      </trkpt>
      <trkpt lat="45.98849" lon="1.09831">
        <ele>346</ele>
        <time>2011-06-26T11:26:09.000Z</time>
      </trkpt>
      <trkpt lat="45.98831" lon="1.09858">
        <ele>348</ele>
        <time>2011-06-26T11:26:16.000Z</time>
      </trkpt>
      <trkpt lat="45.98793" lon="1.09896">
        <ele>352</ele>
        <time>2011-06-26T11:26:29.000Z</time>
      </trkpt>
      <trkpt lat="45.98791" lon="1.09898">
        <ele>352</ele>
        <time>2011-06-26T11:26:30.000Z</time>
      </trkpt>
      <trkpt lat="45.98784" lon="1.09904">
        <ele>353</ele>
        <time>2011-06-26T11:26:33.000Z</time>
      </trkpt>
      <trkpt lat="45.98751" lon="1.09922">
        <ele>357</ele>
        <time>2011-06-26T11:26:46.000Z</time>
      </trkpt>
      <trkpt lat="45.98745" lon="1.09927">
        <ele>358</ele>
        <time>2011-06-26T11:26:50.000Z</time>
      </trkpt>
      <trkpt lat="45.9873" lon="1.09942">
        <ele>360</ele>
        <time>2011-06-26T11:26:58.000Z</time>
      </trkpt>
      <trkpt lat="45.98687" lon="1.09984">
        <ele>356</ele>
        <time>2011-06-26T11:27:08.000Z</time>
      </trkpt>
      <trkpt lat="45.9868" lon="1.0999">
        <ele>356</ele>
        <time>2011-06-26T11:27:09.000Z</time>
      </trkpt>
      <trkpt lat="45.98635" lon="1.10027">
        <ele>352</ele>
        <time>2011-06-26T11:27:15.000Z</time>
      </trkpt>
      <trkpt lat="45.98626" lon="1.10033">
        <ele>351</ele>
        <time>2011-06-26T11:27:16.000Z</time>
      </trkpt>
      <trkpt lat="45.98578" lon="1.10068">
        <ele>350</ele>
        <time>2011-06-26T11:27:22.000Z</time>
      </trkpt>
      <trkpt lat="45.98571" lon="1.10076">
        <ele>349</ele>
        <time>2011-06-26T11:27:23.000Z</time>
      </trkpt>
      <trkpt lat="45.98529" lon="1.10112">
        <ele>347</ele>
        <time>2011-06-26T11:27:30.000Z</time>
      </trkpt>
      <trkpt lat="45.98524" lon="1.10115">
        <ele>346</ele>
        <time>2011-06-26T11:27:31.000Z</time>
      </trkpt>
      <trkpt lat="45.98513" lon="1.10118">
        <ele>346</ele>
        <time>2011-06-26T11:27:33.000Z</time>
      </trkpt>
      <trkpt lat="45.98473" lon="1.1013">
        <ele>348</ele>
        <time>2011-06-26T11:27:41.000Z</time>
      </trkpt>
      <trkpt lat="45.98467" lon="1.10136">
        <ele>349</ele>
        <time>2011-06-26T11:27:43.000Z</time>
      </trkpt>
      <trkpt lat="45.98446" lon="1.10168">
        <ele>350</ele>
        <time>2011-06-26T11:27:50.000Z</time>
      </trkpt>
      <trkpt lat="45.98413" lon="1.10221">
        <ele>350</ele>
        <time>2011-06-26T11:27:59.000Z</time>
      </trkpt>
      <trkpt lat="45.98411" lon="1.10225">
        <ele>350</ele>
        <time>2011-06-26T11:28:00.000Z</time>
      </trkpt>
      <trkpt lat="45.98382" lon="1.10276">
        <ele>353</ele>
        <time>2011-06-26T11:28:10.000Z</time>
      </trkpt>
      <trkpt lat="45.98378" lon="1.10282">
        <ele>353</ele>
        <time>2011-06-26T11:28:11.000Z</time>
      </trkpt>
      <trkpt lat="45.98344" lon="1.10329">
        <ele>353</ele>
        <time>2011-06-26T11:28:19.000Z</time>
      </trkpt>
      <trkpt lat="45.98339" lon="1.10335">
        <ele>352</ele>
        <time>2011-06-26T11:28:20.000Z</time>
      </trkpt>
      <trkpt lat="45.98303" lon="1.10377">
        <ele>351</ele>
        <time>2011-06-26T11:28:29.000Z</time>
      </trkpt>
      <trkpt lat="45.98299" lon="1.10381">
        <ele>351</ele>
        <time>2011-06-26T11:28:30.000Z</time>
      </trkpt>
      <trkpt lat="45.98297" lon="1.10385">
        <ele>351</ele>
        <time>2011-06-26T11:28:31.000Z</time>
      </trkpt>
      <trkpt lat="45.98267" lon="1.10438">
        <ele>351</ele>
        <time>2011-06-26T11:28:49.000Z</time>
      </trkpt>
      <trkpt lat="45.98265" lon="1.10441">
        <ele>351</ele>
        <time>2011-06-26T11:28:50.000Z</time>
      </trkpt>
      <trkpt lat="45.98263" lon="1.10443">
        <ele>351</ele>
        <time>2011-06-26T11:28:51.000Z</time>
      </trkpt>
      <trkpt lat="45.98248" lon="1.1047">
        <ele>351</ele>
        <time>2011-06-26T11:28:59.000Z</time>
      </trkpt>
      <trkpt lat="45.98236" lon="1.10492">
        <ele>352</ele>
        <time>2011-06-26T11:29:06.000Z</time>
      </trkpt>
      <trkpt lat="45.98221" lon="1.10522">
        <ele>352</ele>
        <time>2011-06-26T11:29:16.000Z</time>
      </trkpt>
      <trkpt lat="45.98194" lon="1.10576">
        <ele>356</ele>
        <time>2011-06-26T11:29:28.000Z</time>
      </trkpt>
      <trkpt lat="45.98192" lon="1.10582">
        <ele>356</ele>
        <time>2011-06-26T11:29:29.000Z</time>
      </trkpt>
      <trkpt lat="45.98181" lon="1.10614">
        <ele>355</ele>
        <time>2011-06-26T11:29:35.000Z</time>
      </trkpt>
      <trkpt lat="45.98171" lon="1.10679">
        <ele>350</ele>
        <time>2011-06-26T11:29:46.000Z</time>
      </trkpt>
      <trkpt lat="45.9817" lon="1.10685">
        <ele>350</ele>
        <time>2011-06-26T11:29:47.000Z</time>
      </trkpt>
      <trkpt lat="45.98154" lon="1.10752">
        <ele>347</ele>
        <time>2011-06-26T11:29:58.000Z</time>
      </trkpt>
      <trkpt lat="45.98152" lon="1.10758">
        <ele>347</ele>
        <time>2011-06-26T11:29:59.000Z</time>
      </trkpt>
      <trkpt lat="45.98145" lon="1.10786">
        <ele>348</ele>
        <time>2011-06-26T11:30:04.000Z</time>
      </trkpt>
      <trkpt lat="45.98132" lon="1.1081">
        <ele>349</ele>
        <time>2011-06-26T11:30:09.000Z</time>
      </trkpt>
      <trkpt lat="45.98094" lon="1.10849">
        <ele>350</ele>
        <time>2011-06-26T11:30:20.000Z</time>
      </trkpt>
      <trkpt lat="45.98091" lon="1.10853">
        <ele>350</ele>
        <time>2011-06-26T11:30:21.000Z</time>
      </trkpt>
      <trkpt lat="45.98075" lon="1.10868">
        <ele>351</ele>
        <time>2011-06-26T11:30:26.000Z</time>
      </trkpt>
      <trkpt lat="45.98029" lon="1.10886">
        <ele>352</ele>
        <time>2011-06-26T11:30:39.000Z</time>
      </trkpt>
      <trkpt lat="45.98025" lon="1.10887">
        <ele>353</ele>
        <time>2011-06-26T11:30:40.000Z</time>
      </trkpt>
      <trkpt lat="45.97981" lon="1.10902">
        <ele>355</ele>
        <time>2011-06-26T11:30:52.000Z</time>
      </trkpt>
      <trkpt lat="45.97977" lon="1.10904">
        <ele>355</ele>
        <time>2011-06-26T11:30:53.000Z</time>
      </trkpt>
      <trkpt lat="45.97946" lon="1.1092">
        <ele>356</ele>
        <time>2011-06-26T11:31:02.000Z</time>
      </trkpt>
      <trkpt lat="45.97917" lon="1.10932">
        <ele>356</ele>
        <time>2011-06-26T11:31:09.000Z</time>
      </trkpt>
      <trkpt lat="45.9787" lon="1.10951">
        <ele>356</ele>
        <time>2011-06-26T11:31:19.000Z</time>
      </trkpt>
      <trkpt lat="45.97865" lon="1.10953">
        <ele>356</ele>
        <time>2011-06-26T11:31:20.000Z</time>
      </trkpt>
      <trkpt lat="45.97824" lon="1.10979">
        <ele>356</ele>
        <time>2011-06-26T11:31:28.000Z</time>
      </trkpt>
      <trkpt lat="45.9782" lon="1.10984">
        <ele>357</ele>
        <time>2011-06-26T11:31:29.000Z</time>
      </trkpt>
      <trkpt lat="45.97802" lon="1.11005">
        <ele>357</ele>
        <time>2011-06-26T11:31:33.000Z</time>
      </trkpt>
      <trkpt lat="45.9777" lon="1.11056">
        <ele>358</ele>
        <time>2011-06-26T11:31:44.000Z</time>
      </trkpt>
      <trkpt lat="45.97767" lon="1.11059">
        <ele>358</ele>
        <time>2011-06-26T11:31:45.000Z</time>
      </trkpt>
      <trkpt lat="45.97764" lon="1.11062">
        <ele>358</ele>
        <time>2011-06-26T11:31:46.000Z</time>
      </trkpt>
      <trkpt lat="45.97751" lon="1.11071">
        <ele>358</ele>
        <time>2011-06-26T11:31:50.000Z</time>
      </trkpt>
      <trkpt lat="45.97718" lon="1.11094">
        <ele>353</ele>
        <time>2011-06-26T11:32:00.000Z</time>
      </trkpt>
      <trkpt lat="45.97679" lon="1.11132">
        <ele>349</ele>
        <time>2011-06-26T11:32:09.000Z</time>
      </trkpt>
      <trkpt lat="45.97675" lon="1.11138">
        <ele>349</ele>
        <time>2011-06-26T11:32:10.000Z</time>
      </trkpt>
      <trkpt lat="45.97642" lon="1.11185">
        <ele>349</ele>
        <time>2011-06-26T11:32:18.000Z</time>
      </trkpt>
      <trkpt lat="45.97637" lon="1.1119">
        <ele>349</ele>
        <time>2011-06-26T11:32:19.000Z</time>
      </trkpt>
      <trkpt lat="45.97602" lon="1.11219">
        <ele>349</ele>
        <time>2011-06-26T11:32:27.000Z</time>
      </trkpt>
      <trkpt lat="45.97598" lon="1.11222">
        <ele>350</ele>
        <time>2011-06-26T11:32:28.000Z</time>
      </trkpt>
      <trkpt lat="45.97579" lon="1.11228">
        <ele>350</ele>
        <time>2011-06-26T11:32:32.000Z</time>
      </trkpt>
      <trkpt lat="45.97567" lon="1.11234">
        <ele>350</ele>
        <time>2011-06-26T11:32:35.000Z</time>
      </trkpt>
      <trkpt lat="45.97555" lon="1.11239">
        <ele>350</ele>
        <time>2011-06-26T11:32:38.000Z</time>
      </trkpt>
      <trkpt lat="45.97508" lon="1.11242">
        <ele>352</ele>
        <time>2011-06-26T11:32:48.000Z</time>
      </trkpt>
      <trkpt lat="45.97504" lon="1.11243">
        <ele>352</ele>
        <time>2011-06-26T11:32:49.000Z</time>
      </trkpt>
      <trkpt lat="45.97478" lon="1.11249">
        <ele>352</ele>
        <time>2011-06-26T11:32:54.000Z</time>
      </trkpt>
      <trkpt lat="45.97434" lon="1.11277">
        <ele>350</ele>
        <time>2011-06-26T11:33:02.000Z</time>
      </trkpt>
      <trkpt lat="45.97427" lon="1.11282">
        <ele>349</ele>
        <time>2011-06-26T11:33:03.000Z</time>
      </trkpt>
      <trkpt lat="45.97383" lon="1.11316">
        <ele>348</ele>
        <time>2011-06-26T11:33:10.000Z</time>
      </trkpt>
      <trkpt lat="45.97376" lon="1.1132">
        <ele>347</ele>
        <time>2011-06-26T11:33:11.000Z</time>
      </trkpt>
      <trkpt lat="45.97364" lon="1.1133">
        <ele>347</ele>
        <time>2011-06-26T11:33:13.000Z</time>
      </trkpt>
      <trkpt lat="45.97324" lon="1.11372">
        <ele>345</ele>
        <time>2011-06-26T11:33:20.000Z</time>
      </trkpt>
      <trkpt lat="45.97318" lon="1.11378">
        <ele>345</ele>
        <time>2011-06-26T11:33:21.000Z</time>
      </trkpt>
      <trkpt lat="45.97297" lon="1.1139">
        <ele>344</ele>
        <time>2011-06-26T11:33:24.000Z</time>
      </trkpt>
      <trkpt lat="45.97279" lon="1.11408">
        <ele>344</ele>
        <time>2011-06-26T11:33:27.000Z</time>
      </trkpt>
      <trkpt lat="45.97272" lon="1.11438">
        <ele>343</ele>
        <time>2011-06-26T11:33:30.000Z</time>
      </trkpt>
      <trkpt lat="45.97264" lon="1.11504">
        <ele>342</ele>
        <time>2011-06-26T11:33:36.000Z</time>
      </trkpt>
      <trkpt lat="45.97261" lon="1.11514">
        <ele>342</ele>
        <time>2011-06-26T11:33:37.000Z</time>
      </trkpt>
      <trkpt lat="45.97245" lon="1.11577">
        <ele>340</ele>
        <time>2011-06-26T11:33:43.000Z</time>
      </trkpt>
      <trkpt lat="45.97242" lon="1.11588">
        <ele>340</ele>
        <time>2011-06-26T11:33:44.000Z</time>
      </trkpt>
      <trkpt lat="45.97226" lon="1.11654">
        <ele>339</ele>
        <time>2011-06-26T11:33:51.000Z</time>
      </trkpt>
      <trkpt lat="45.97223" lon="1.11663">
        <ele>339</ele>
        <time>2011-06-26T11:33:52.000Z</time>
      </trkpt>
      <trkpt lat="45.97208" lon="1.11726">
        <ele>338</ele>
        <time>2011-06-26T11:33:59.000Z</time>
      </trkpt>
      <trkpt lat="45.97205" lon="1.11734">
        <ele>338</ele>
        <time>2011-06-26T11:34:00.000Z</time>
      </trkpt>
      <trkpt lat="45.97188" lon="1.11796">
        <ele>336</ele>
        <time>2011-06-26T11:34:08.000Z</time>
      </trkpt>
      <trkpt lat="45.97187" lon="1.11803">
        <ele>336</ele>
        <time>2011-06-26T11:34:09.000Z</time>
      </trkpt>
      <trkpt lat="45.97181" lon="1.11842">
        <ele>334</ele>
        <time>2011-06-26T11:34:14.000Z</time>
      </trkpt>
      <trkpt lat="45.97177" lon="1.11908">
        <ele>333</ele>
        <time>2011-06-26T11:34:23.000Z</time>
      </trkpt>
      <trkpt lat="45.97177" lon="1.11915">
        <ele>333</ele>
        <time>2011-06-26T11:34:24.000Z</time>
      </trkpt>
      <trkpt lat="45.97173" lon="1.11957">
        <ele>332</ele>
        <time>2011-06-26T11:34:30.000Z</time>
      </trkpt>
      <trkpt lat="45.97161" lon="1.12026">
        <ele>332</ele>
        <time>2011-06-26T11:34:40.000Z</time>
      </trkpt>
      <trkpt lat="45.9716" lon="1.12033">
        <ele>332</ele>
        <time>2011-06-26T11:34:41.000Z</time>
      </trkpt>
      <trkpt lat="45.97149" lon="1.12097">
        <ele>333</ele>
        <time>2011-06-26T11:34:49.000Z</time>
      </trkpt>
      <trkpt lat="45.97146" lon="1.12105">
        <ele>333</ele>
        <time>2011-06-26T11:34:50.000Z</time>
      </trkpt>
      <trkpt lat="45.97144" lon="1.12113">
        <ele>332</ele>
        <time>2011-06-26T11:34:51.000Z</time>
      </trkpt>
      <trkpt lat="45.97136" lon="1.12182">
        <ele>329</ele>
        <time>2011-06-26T11:34:59.000Z</time>
      </trkpt>
      <trkpt lat="45.97135" lon="1.12191">
        <ele>328</ele>
        <time>2011-06-26T11:35:00.000Z</time>
      </trkpt>
      <trkpt lat="45.97135" lon="1.12207">
        <ele>328</ele>
        <time>2011-06-26T11:35:02.000Z</time>
      </trkpt>
      <trkpt lat="45.97136" lon="1.12248">
        <ele>327</ele>
        <time>2011-06-26T11:35:07.000Z</time>
      </trkpt>
      <trkpt lat="45.97137" lon="1.12306">
        <ele>324</ele>
        <time>2011-06-26T11:35:15.000Z</time>
      </trkpt>
      <trkpt lat="45.97138" lon="1.12326">
        <ele>324</ele>
        <time>2011-06-26T11:35:18.000Z</time>
      </trkpt>
      <trkpt lat="45.97141" lon="1.12396">
        <ele>323</ele>
        <time>2011-06-26T11:35:27.000Z</time>
      </trkpt>
      <trkpt lat="45.97141" lon="1.12404">
        <ele>323</ele>
        <time>2011-06-26T11:35:28.000Z</time>
      </trkpt>
      <trkpt lat="45.97142" lon="1.12469">
        <ele>322</ele>
        <time>2011-06-26T11:35:36.000Z</time>
      </trkpt>
      <trkpt lat="45.97141" lon="1.12477">
        <ele>322</ele>
        <time>2011-06-26T11:35:37.000Z</time>
      </trkpt>
      <trkpt lat="45.97143" lon="1.12541">
        <ele>322</ele>
        <time>2011-06-26T11:35:46.000Z</time>
      </trkpt>
      <trkpt lat="45.97144" lon="1.12548">
        <ele>322</ele>
        <time>2011-06-26T11:35:47.000Z</time>
      </trkpt>
      <trkpt lat="45.97157" lon="1.12614">
        <ele>322</ele>
        <time>2011-06-26T11:35:56.000Z</time>
      </trkpt>
      <trkpt lat="45.97158" lon="1.12622">
        <ele>322</ele>
        <time>2011-06-26T11:35:57.000Z</time>
      </trkpt>
      <trkpt lat="45.97173" lon="1.1269">
        <ele>321</ele>
        <time>2011-06-26T11:36:05.000Z</time>
      </trkpt>
      <trkpt lat="45.97174" lon="1.127">
        <ele>321</ele>
        <time>2011-06-26T11:36:06.000Z</time>
      </trkpt>
      <trkpt lat="45.97179" lon="1.12765">
        <ele>318</ele>
        <time>2011-06-26T11:36:13.000Z</time>
      </trkpt>
      <trkpt lat="45.97179" lon="1.12774">
        <ele>318</ele>
        <time>2011-06-26T11:36:14.000Z</time>
      </trkpt>
      <trkpt lat="45.97178" lon="1.1284">
        <ele>317</ele>
        <time>2011-06-26T11:36:21.000Z</time>
      </trkpt>
      <trkpt lat="45.97178" lon="1.12849">
        <ele>317</ele>
        <time>2011-06-26T11:36:22.000Z</time>
      </trkpt>
      <trkpt lat="45.97176" lon="1.12858">
        <ele>316</ele>
        <time>2011-06-26T11:36:23.000Z</time>
      </trkpt>
      <trkpt lat="45.97176" lon="1.12926">
        <ele>316</ele>
        <time>2011-06-26T11:36:31.000Z</time>
      </trkpt>
      <trkpt lat="45.97176" lon="1.12935">
        <ele>316</ele>
        <time>2011-06-26T11:36:32.000Z</time>
      </trkpt>
      <trkpt lat="45.97168" lon="1.13005">
        <ele>315</ele>
        <time>2011-06-26T11:36:40.000Z</time>
      </trkpt>
      <trkpt lat="45.97166" lon="1.13014">
        <ele>315</ele>
        <time>2011-06-26T11:36:41.000Z</time>
      </trkpt>
      <trkpt lat="45.97153" lon="1.13059">
        <ele>316</ele>
        <time>2011-06-26T11:36:47.000Z</time>
      </trkpt>
      <trkpt lat="45.97142" lon="1.13102">
        <ele>317</ele>
        <time>2011-06-26T11:36:53.000Z</time>
      </trkpt>
      <trkpt lat="45.9713" lon="1.13168">
        <ele>316</ele>
        <time>2011-06-26T11:37:02.000Z</time>
      </trkpt>
      <trkpt lat="45.97129" lon="1.13176">
        <ele>316</ele>
        <time>2011-06-26T11:37:03.000Z</time>
      </trkpt>
      <trkpt lat="45.97119" lon="1.13242">
        <ele>318</ele>
        <time>2011-06-26T11:37:11.000Z</time>
      </trkpt>
      <trkpt lat="45.97118" lon="1.13251">
        <ele>318</ele>
        <time>2011-06-26T11:37:12.000Z</time>
      </trkpt>
      <trkpt lat="45.97111" lon="1.13321">
        <ele>320</ele>
        <time>2011-06-26T11:37:21.000Z</time>
      </trkpt>
      <trkpt lat="45.9711" lon="1.13329">
        <ele>320</ele>
        <time>2011-06-26T11:37:22.000Z</time>
      </trkpt>
      <trkpt lat="45.97104" lon="1.13393">
        <ele>322</ele>
        <time>2011-06-26T11:37:32.000Z</time>
      </trkpt>
      <trkpt lat="45.97102" lon="1.13399">
        <ele>322</ele>
        <time>2011-06-26T11:37:33.000Z</time>
      </trkpt>
      <trkpt lat="45.971" lon="1.13405">
        <ele>322</ele>
        <time>2011-06-26T11:37:34.000Z</time>
      </trkpt>
      <trkpt lat="45.97097" lon="1.13416">
        <ele>322</ele>
        <time>2011-06-26T11:37:36.000Z</time>
      </trkpt>
      <trkpt lat="45.97091" lon="1.13429">
        <ele>322</ele>
        <time>2011-06-26T11:37:40.000Z</time>
      </trkpt>
      <trkpt lat="45.97083" lon="1.13454">
        <ele>323</ele>
        <time>2011-06-26T11:37:45.000Z</time>
      </trkpt>
      <trkpt lat="45.97071" lon="1.13518">
        <ele>323</ele>
        <time>2011-06-26T11:37:55.000Z</time>
      </trkpt>
      <trkpt lat="45.9707" lon="1.13525">
        <ele>323</ele>
        <time>2011-06-26T11:37:56.000Z</time>
      </trkpt>
      <trkpt lat="45.97066" lon="1.13546">
        <ele>323</ele>
        <time>2011-06-26T11:37:59.000Z</time>
      </trkpt>
      <trkpt lat="45.97065" lon="1.13612">
        <ele>322</ele>
        <time>2011-06-26T11:38:08.000Z</time>
      </trkpt>
      <trkpt lat="45.97065" lon="1.13619">
        <ele>322</ele>
        <time>2011-06-26T11:38:09.000Z</time>
      </trkpt>
      <trkpt lat="45.97058" lon="1.13689">
        <ele>321</ele>
        <time>2011-06-26T11:38:19.000Z</time>
      </trkpt>
      <trkpt lat="45.97057" lon="1.13697">
        <ele>321</ele>
        <time>2011-06-26T11:38:20.000Z</time>
      </trkpt>
      <trkpt lat="45.97057" lon="1.13719">
        <ele>320</ele>
        <time>2011-06-26T11:38:23.000Z</time>
      </trkpt>
      <trkpt lat="45.97055" lon="1.1376">
        <ele>319</ele>
        <time>2011-06-26T11:38:29.000Z</time>
      </trkpt>
      <trkpt lat="45.97042" lon="1.13828">
        <ele>317</ele>
        <time>2011-06-26T11:38:38.000Z</time>
      </trkpt>
      <trkpt lat="45.9704" lon="1.13835">
        <ele>317</ele>
        <time>2011-06-26T11:38:39.000Z</time>
      </trkpt>
      <trkpt lat="45.97033" lon="1.1386">
        <ele>317</ele>
        <time>2011-06-26T11:38:43.000Z</time>
      </trkpt>
      <trkpt lat="45.97025" lon="1.13884">
        <ele>317</ele>
        <time>2011-06-26T11:38:49.000Z</time>
      </trkpt>
      <trkpt lat="45.96996" lon="1.1394">
        <ele>318</ele>
        <time>2011-06-26T11:39:04.000Z</time>
      </trkpt>
      <trkpt lat="45.96993" lon="1.13945">
        <ele>318</ele>
        <time>2011-06-26T11:39:05.000Z</time>
      </trkpt>
      <trkpt lat="45.96984" lon="1.13966">
        <ele>318</ele>
        <time>2011-06-26T11:39:09.000Z</time>
      </trkpt>
      <trkpt lat="45.96965" lon="1.14025">
        <ele>321</ele>
        <time>2011-06-26T11:39:21.000Z</time>
      </trkpt>
      <trkpt lat="45.96964" lon="1.1403">
        <ele>321</ele>
        <time>2011-06-26T11:39:22.000Z</time>
      </trkpt>
      <trkpt lat="45.96962" lon="1.1404">
        <ele>322</ele>
        <time>2011-06-26T11:39:24.000Z</time>
      </trkpt>
      <trkpt lat="45.96957" lon="1.14073">
        <ele>324</ele>
        <time>2011-06-26T11:39:32.000Z</time>
      </trkpt>
      <trkpt lat="45.96955" lon="1.14079">
        <ele>324</ele>
        <time>2011-06-26T11:39:34.000Z</time>
      </trkpt>
      <trkpt lat="45.96948" lon="1.1408">
        <ele>325</ele>
        <time>2011-06-26T11:39:37.000Z</time>
      </trkpt>
      <trkpt lat="45.96932" lon="1.14065">
        <ele>325</ele>
        <time>2011-06-26T11:39:42.000Z</time>
      </trkpt>
      <trkpt lat="45.96907" lon="1.14041">
        <ele>323</ele>
        <time>2011-06-26T11:39:48.000Z</time>
      </trkpt>
      <trkpt lat="45.96892" lon="1.14042">
        <ele>323</ele>
        <time>2011-06-26T11:39:51.000Z</time>
      </trkpt>
      <trkpt lat="45.96873" lon="1.14049">
        <ele>324</ele>
        <time>2011-06-26T11:39:55.000Z</time>
      </trkpt>
      <trkpt lat="45.96831" lon="1.14082">
        <ele>327</ele>
        <time>2011-06-26T11:40:04.000Z</time>
      </trkpt>
      <trkpt lat="45.96826" lon="1.14086">
        <ele>328</ele>
        <time>2011-06-26T11:40:05.000Z</time>
      </trkpt>
      <trkpt lat="45.9678" lon="1.14116">
        <ele>326</ele>
        <time>2011-06-26T11:40:13.000Z</time>
      </trkpt>
      <trkpt lat="45.96775" lon="1.1412">
        <ele>326</ele>
        <time>2011-06-26T11:40:14.000Z</time>
      </trkpt>
      <trkpt lat="45.96738" lon="1.1414">
        <ele>323</ele>
        <time>2011-06-26T11:40:20.000Z</time>
      </trkpt>
      <trkpt lat="45.96732" lon="1.14142">
        <ele>322</ele>
        <time>2011-06-26T11:40:21.000Z</time>
      </trkpt>
      <trkpt lat="45.96685" lon="1.14159">
        <ele>321</ele>
        <time>2011-06-26T11:40:29.000Z</time>
      </trkpt>
      <trkpt lat="45.9668" lon="1.14161">
        <ele>321</ele>
        <time>2011-06-26T11:40:30.000Z</time>
      </trkpt>
      <trkpt lat="45.9663" lon="1.14178">
        <ele>319</ele>
        <time>2011-06-26T11:40:38.000Z</time>
      </trkpt>
      <trkpt lat="45.96623" lon="1.14181">
        <ele>319</ele>
        <time>2011-06-26T11:40:39.000Z</time>
      </trkpt>
      <trkpt lat="45.96576" lon="1.14191">
        <ele>317</ele>
        <time>2011-06-26T11:40:46.000Z</time>
      </trkpt>
      <trkpt lat="45.96569" lon="1.14191">
        <ele>317</ele>
        <time>2011-06-26T11:40:47.000Z</time>
      </trkpt>
      <trkpt lat="45.96528" lon="1.14181">
        <ele>315</ele>
        <time>2011-06-26T11:40:53.000Z</time>
      </trkpt>
      <trkpt lat="45.96521" lon="1.14178">
        <ele>315</ele>
        <time>2011-06-26T11:40:54.000Z</time>
      </trkpt>
      <trkpt lat="45.96486" lon="1.14157">
        <ele>314</ele>
        <time>2011-06-26T11:41:00.000Z</time>
      </trkpt>
      <trkpt lat="45.96447" lon="1.14124">
        <ele>313</ele>
        <time>2011-06-26T11:41:08.000Z</time>
      </trkpt>
      <trkpt lat="45.96442" lon="1.1412">
        <ele>313</ele>
        <time>2011-06-26T11:41:09.000Z</time>
      </trkpt>
      <trkpt lat="45.96408" lon="1.14096">
        <ele>314</ele>
        <time>2011-06-26T11:41:16.000Z</time>
      </trkpt>
      <trkpt lat="45.96401" lon="1.14103">
        <ele>314</ele>
        <time>2011-06-26T11:41:18.000Z</time>
      </trkpt>
      <trkpt lat="45.96386" lon="1.14147">
        <ele>313</ele>
        <time>2011-06-26T11:41:25.000Z</time>
      </trkpt>
      <trkpt lat="45.96377" lon="1.14145">
        <ele>313</ele>
        <time>2011-06-26T11:41:27.000Z</time>
      </trkpt>
      <trkpt lat="45.96338" lon="1.14107">
        <ele>313</ele>
        <time>2011-06-26T11:41:36.000Z</time>
      </trkpt>
      <trkpt lat="45.96334" lon="1.14106">
        <ele>313</ele>
        <time>2011-06-26T11:41:37.000Z</time>
      </trkpt>
      <trkpt lat="45.96328" lon="1.14111">
        <ele>313</ele>
        <time>2011-06-26T11:41:39.000Z</time>
      </trkpt>
      <trkpt lat="45.96323" lon="1.14151">
        <ele>312</ele>
        <time>2011-06-26T11:41:44.000Z</time>
      </trkpt>
      <trkpt lat="45.9631" lon="1.14206">
        <ele>310</ele>
        <time>2011-06-26T11:41:51.000Z</time>
      </trkpt>
      <trkpt lat="45.96302" lon="1.14205">
        <ele>309</ele>
        <time>2011-06-26T11:41:54.000Z</time>
      </trkpt>
      <trkpt lat="45.96255" lon="1.14202">
        <ele>308</ele>
        <time>2011-06-26T11:42:04.000Z</time>
      </trkpt>
      <trkpt lat="45.96251" lon="1.14202">
        <ele>308</ele>
        <time>2011-06-26T11:42:05.000Z</time>
      </trkpt>
      <trkpt lat="45.96206" lon="1.142">
        <ele>308</ele>
        <time>2011-06-26T11:42:16.000Z</time>
      </trkpt>
      <trkpt lat="45.96201" lon="1.14199">
        <ele>308</ele>
        <time>2011-06-26T11:42:17.000Z</time>
      </trkpt>
      <trkpt lat="45.96154" lon="1.14193">
        <ele>305</ele>
        <time>2011-06-26T11:42:27.000Z</time>
      </trkpt>
      <trkpt lat="45.96149" lon="1.14192">
        <ele>305</ele>
        <time>2011-06-26T11:42:28.000Z</time>
      </trkpt>
      <trkpt lat="45.96108" lon="1.14188">
        <ele>304</ele>
        <time>2011-06-26T11:42:37.000Z</time>
      </trkpt>
      <trkpt lat="45.96103" lon="1.14187">
        <ele>304</ele>
        <time>2011-06-26T11:42:38.000Z</time>
      </trkpt>
      <trkpt lat="45.96058" lon="1.14182">
        <ele>302</ele>
        <time>2011-06-26T11:42:47.000Z</time>
      </trkpt>
      <trkpt lat="45.96053" lon="1.14181">
        <ele>302</ele>
        <time>2011-06-26T11:42:48.000Z</time>
      </trkpt>
      <trkpt lat="45.96006" lon="1.14177">
        <ele>302</ele>
        <time>2011-06-26T11:42:58.000Z</time>
      </trkpt>
      <trkpt lat="45.96002" lon="1.14177">
        <ele>302</ele>
        <time>2011-06-26T11:42:59.000Z</time>
      </trkpt>
      <trkpt lat="45.95957" lon="1.14172">
        <ele>302</ele>
        <time>2011-06-26T11:43:08.000Z</time>
      </trkpt>
      <trkpt lat="45.95952" lon="1.14172">
        <ele>302</ele>
        <time>2011-06-26T11:43:09.000Z</time>
      </trkpt>
      <trkpt lat="45.95903" lon="1.14167">
        <ele>305</ele>
        <time>2011-06-26T11:43:18.000Z</time>
      </trkpt>
      <trkpt lat="45.95898" lon="1.14167">
        <ele>305</ele>
        <time>2011-06-26T11:43:19.000Z</time>
      </trkpt>
      <trkpt lat="45.95852" lon="1.14161">
        <ele>307</ele>
        <time>2011-06-26T11:43:27.000Z</time>
      </trkpt>
      <trkpt lat="45.95846" lon="1.14159">
        <ele>307</ele>
        <time>2011-06-26T11:43:28.000Z</time>
      </trkpt>
      <trkpt lat="45.95801" lon="1.14149">
        <ele>305</ele>
        <time>2011-06-26T11:43:36.000Z</time>
      </trkpt>
      <trkpt lat="45.95795" lon="1.1415">
        <ele>305</ele>
        <time>2011-06-26T11:43:37.000Z</time>
      </trkpt>
      <trkpt lat="45.9579" lon="1.14152">
        <ele>304</ele>
        <time>2011-06-26T11:43:38.000Z</time>
      </trkpt>
      <trkpt lat="45.95746" lon="1.1417">
        <ele>299</ele>
        <time>2011-06-26T11:43:47.000Z</time>
      </trkpt>
      <trkpt lat="45.95742" lon="1.14171">
        <ele>299</ele>
        <time>2011-06-26T11:43:48.000Z</time>
      </trkpt>
      <trkpt lat="45.95739" lon="1.14173">
        <ele>298</ele>
        <time>2011-06-26T11:43:49.000Z</time>
      </trkpt>
      <trkpt lat="45.957" lon="1.14213">
        <ele>295</ele>
        <time>2011-06-26T11:43:58.000Z</time>
      </trkpt>
      <trkpt lat="45.95695" lon="1.14218">
        <ele>295</ele>
        <time>2011-06-26T11:43:59.000Z</time>
      </trkpt>
      <trkpt lat="45.95656" lon="1.14262">
        <ele>293</ele>
        <time>2011-06-26T11:44:07.000Z</time>
      </trkpt>
      <trkpt lat="45.95652" lon="1.14268">
        <ele>293</ele>
        <time>2011-06-26T11:44:08.000Z</time>
      </trkpt>
      <trkpt lat="45.95623" lon="1.14311">
        <ele>291</ele>
        <time>2011-06-26T11:44:19.000Z</time>
      </trkpt>
      <trkpt lat="45.9562" lon="1.14321">
        <ele>290</ele>
        <time>2011-06-26T11:44:23.000Z</time>
      </trkpt>
      <trkpt lat="45.95613" lon="1.14321">
        <ele>289</ele>
        <time>2011-06-26T11:44:28.000Z</time>
      </trkpt>
      <trkpt lat="45.95607" lon="1.14316">
        <ele>289</ele>
        <time>2011-06-26T11:44:32.000Z</time>
      </trkpt>
      <trkpt lat="45.95562" lon="1.14295">
        <ele>293</ele>
        <time>2011-06-26T11:44:50.000Z</time>
      </trkpt>
      <trkpt lat="45.95558" lon="1.14293">
        <ele>293</ele>
        <time>2011-06-26T11:44:51.000Z</time>
      </trkpt>
      <trkpt lat="45.95514" lon="1.14268">
        <ele>294</ele>
        <time>2011-06-26T11:45:02.000Z</time>
      </trkpt>
      <trkpt lat="45.95509" lon="1.14265">
        <ele>294</ele>
        <time>2011-06-26T11:45:03.000Z</time>
      </trkpt>
      <trkpt lat="45.95466" lon="1.14241">
        <ele>293</ele>
        <time>2011-06-26T11:45:12.000Z</time>
      </trkpt>
      <trkpt lat="45.95463" lon="1.14238">
        <ele>293</ele>
        <time>2011-06-26T11:45:13.000Z</time>
      </trkpt>
      <trkpt lat="45.95461" lon="1.14228">
        <ele>292</ele>
        <time>2011-06-26T11:45:15.000Z</time>
      </trkpt>
      <trkpt lat="45.95453" lon="1.14171">
        <ele>291</ele>
        <time>2011-06-26T11:45:23.000Z</time>
      </trkpt>
      <trkpt lat="45.95446" lon="1.14158">
        <ele>290</ele>
        <time>2011-06-26T11:45:26.000Z</time>
      </trkpt>
      <trkpt lat="45.95432" lon="1.14152">
        <ele>289</ele>
        <time>2011-06-26T11:45:30.000Z</time>
      </trkpt>
      <trkpt lat="45.95388" lon="1.14135">
        <ele>293</ele>
        <time>2011-06-26T11:45:41.000Z</time>
      </trkpt>
      <trkpt lat="45.95384" lon="1.14133">
        <ele>293</ele>
        <time>2011-06-26T11:45:42.000Z</time>
      </trkpt>
      <trkpt lat="45.95338" lon="1.14113">
        <ele>300</ele>
        <time>2011-06-26T11:45:55.000Z</time>
      </trkpt>
      <trkpt lat="45.95335" lon="1.14111">
        <ele>300</ele>
        <time>2011-06-26T11:45:56.000Z</time>
      </trkpt>
      <trkpt lat="45.95324" lon="1.14109">
        <ele>301</ele>
        <time>2011-06-26T11:46:00.000Z</time>
      </trkpt>
      <trkpt lat="45.95277" lon="1.14119">
        <ele>301</ele>
        <time>2011-06-26T11:46:14.000Z</time>
      </trkpt>
      <trkpt lat="45.95274" lon="1.1412">
        <ele>301</ele>
        <time>2011-06-26T11:46:15.000Z</time>
      </trkpt>
      <trkpt lat="45.95227" lon="1.14123">
        <ele>302</ele>
        <time>2011-06-26T11:46:29.000Z</time>
      </trkpt>
      <trkpt lat="45.95224" lon="1.14123">
        <ele>302</ele>
        <time>2011-06-26T11:46:30.000Z</time>
      </trkpt>
      <trkpt lat="45.95193" lon="1.14126">
        <ele>303</ele>
        <time>2011-06-26T11:46:40.000Z</time>
      </trkpt>
      <trkpt lat="45.9517" lon="1.14134">
        <ele>306</ele>
        <time>2011-06-26T11:46:50.000Z</time>
      </trkpt>
      <trkpt lat="45.95139" lon="1.14147">
        <ele>310</ele>
        <time>2011-06-26T11:47:04.000Z</time>
      </trkpt>
      <trkpt lat="45.95104" lon="1.14169">
        <ele>314</ele>
        <time>2011-06-26T11:47:21.000Z</time>
      </trkpt>
      <trkpt lat="45.9507" lon="1.14173">
        <ele>313</ele>
        <time>2011-06-26T11:47:35.000Z</time>
      </trkpt>
      <trkpt lat="45.9505" lon="1.14171">
        <ele>314</ele>
        <time>2011-06-26T11:47:45.000Z</time>
      </trkpt>
      <trkpt lat="45.95023" lon="1.14159">
        <ele>317</ele>
        <time>2011-06-26T11:47:59.000Z</time>
      </trkpt>
      <trkpt lat="45.94981" lon="1.1413">
        <ele>315</ele>
        <time>2011-06-26T11:48:21.000Z</time>
      </trkpt>
      <trkpt lat="45.94979" lon="1.14129">
        <ele>315</ele>
        <time>2011-06-26T11:48:22.000Z</time>
      </trkpt>
      <trkpt lat="45.94936" lon="1.14101">
        <ele>317</ele>
        <time>2011-06-26T11:48:43.000Z</time>
      </trkpt>
      <trkpt lat="45.94934" lon="1.14099">
        <ele>317</ele>
        <time>2011-06-26T11:48:44.000Z</time>
      </trkpt>
      <trkpt lat="45.94916" lon="1.14091">
        <ele>320</ele>
        <time>2011-06-26T11:48:53.000Z</time>
      </trkpt>
      <trkpt lat="45.94908" lon="1.14092">
        <ele>321</ele>
        <time>2011-06-26T11:48:57.000Z</time>
      </trkpt>
      <trkpt lat="45.94905" lon="1.141">
        <ele>322</ele>
        <time>2011-06-26T11:49:01.000Z</time>
      </trkpt>
      <trkpt lat="45.94915" lon="1.14166">
        <ele>324</ele>
        <time>2011-06-26T11:49:24.000Z</time>
      </trkpt>
      <trkpt lat="45.94916" lon="1.14171">
        <ele>324</ele>
        <time>2011-06-26T11:49:25.000Z</time>
      </trkpt>
      <trkpt lat="45.94925" lon="1.14237">
        <ele>322</ele>
        <time>2011-06-26T11:49:37.000Z</time>
      </trkpt>
      <trkpt lat="45.94925" lon="1.14244">
        <ele>322</ele>
        <time>2011-06-26T11:49:38.000Z</time>
      </trkpt>
      <trkpt lat="45.94924" lon="1.14266">
        <ele>321</ele>
        <time>2011-06-26T11:49:41.000Z</time>
      </trkpt>
      <trkpt lat="45.94925" lon="1.1433">
        <ele>320</ele>
        <time>2011-06-26T11:49:50.000Z</time>
      </trkpt>
      <trkpt lat="45.94926" lon="1.14337">
        <ele>320</ele>
        <time>2011-06-26T11:49:51.000Z</time>
      </trkpt>
      <trkpt lat="45.94928" lon="1.14347">
        <ele>320</ele>
        <time>2011-06-26T11:49:53.000Z</time>
      </trkpt>
      <trkpt lat="45.94936" lon="1.14413">
        <ele>323</ele>
        <time>2011-06-26T11:50:06.000Z</time>
      </trkpt>
      <trkpt lat="45.94937" lon="1.14418">
        <ele>323</ele>
        <time>2011-06-26T11:50:07.000Z</time>
      </trkpt>
      <trkpt lat="45.94946" lon="1.1446">
        <ele>328</ele>
        <time>2011-06-26T11:50:15.000Z</time>
      </trkpt>
      <trkpt lat="45.94953" lon="1.14489">
        <ele>330</ele>
        <time>2011-06-26T11:50:22.000Z</time>
      </trkpt>
      <trkpt lat="45.94958" lon="1.14545">
        <ele>332</ele>
        <time>2011-06-26T11:50:35.000Z</time>
      </trkpt>
      <trkpt lat="45.94984" lon="1.14602">
        <ele>336</ele>
        <time>2011-06-26T11:51:01.000Z</time>
      </trkpt>
      <trkpt lat="45.94985" lon="1.14605">
        <ele>336</ele>
        <time>2011-06-26T11:51:02.000Z</time>
      </trkpt>
      <trkpt lat="45.94986" lon="1.14614">
        <ele>336</ele>
        <time>2011-06-26T11:51:05.000Z</time>
      </trkpt>
      <trkpt lat="45.94985" lon="1.14634">
        <ele>337</ele>
        <time>2011-06-26T11:51:11.000Z</time>
      </trkpt>
      <trkpt lat="45.94975" lon="1.14657">
        <ele>337</ele>
        <time>2011-06-26T11:51:18.000Z</time>
      </trkpt>
      <trkpt lat="45.94975" lon="1.1468">
        <ele>337</ele>
        <time>2011-06-26T11:51:23.000Z</time>
      </trkpt>
      <trkpt lat="45.94975" lon="1.14704">
        <ele>337</ele>
        <time>2011-06-26T11:51:29.000Z</time>
      </trkpt>
      <trkpt lat="45.94973" lon="1.14716">
        <ele>337</ele>
        <time>2011-06-26T11:51:32.000Z</time>
      </trkpt>
      <trkpt lat="45.94967" lon="1.14749">
        <ele>338</ele>
        <time>2011-06-26T11:51:39.000Z</time>
      </trkpt>
      <trkpt lat="45.94956" lon="1.14815">
        <ele>340</ele>
        <time>2011-06-26T11:51:52.000Z</time>
      </trkpt>
      <trkpt lat="45.94955" lon="1.1482">
        <ele>340</ele>
        <time>2011-06-26T11:51:53.000Z</time>
      </trkpt>
      <trkpt lat="45.94944" lon="1.14869">
        <ele>341</ele>
        <time>2011-06-26T11:52:04.000Z</time>
      </trkpt>
      <trkpt lat="45.94925" lon="1.14923">
        <ele>343</ele>
        <time>2011-06-26T11:52:17.000Z</time>
      </trkpt>
      <trkpt lat="45.94924" lon="1.14927">
        <ele>343</ele>
        <time>2011-06-26T11:52:18.000Z</time>
      </trkpt>
      <trkpt lat="45.94909" lon="1.14969">
        <ele>345</ele>
        <time>2011-06-26T11:52:30.000Z</time>
      </trkpt>
      <trkpt lat="45.94888" lon="1.15026">
        <ele>348</ele>
        <time>2011-06-26T11:52:48.000Z</time>
      </trkpt>
      <trkpt lat="45.94887" lon="1.1503">
        <ele>348</ele>
        <time>2011-06-26T11:52:49.000Z</time>
      </trkpt>
      <trkpt lat="45.94873" lon="1.15075">
        <ele>349</ele>
        <time>2011-06-26T11:53:02.000Z</time>
      </trkpt>
      <trkpt lat="45.94875" lon="1.15083">
        <ele>349</ele>
        <time>2011-06-26T11:53:04.000Z</time>
      </trkpt>
      <trkpt lat="45.94901" lon="1.15139">
        <ele>349</ele>
        <time>2011-06-26T11:53:17.000Z</time>
      </trkpt>
      <trkpt lat="45.94903" lon="1.15143">
        <ele>349</ele>
        <time>2011-06-26T11:53:18.000Z</time>
      </trkpt>
      <trkpt lat="45.94923" lon="1.15189">
        <ele>349</ele>
        <time>2011-06-26T11:53:29.000Z</time>
      </trkpt>
      <trkpt lat="45.94918" lon="1.15198">
        <ele>349</ele>
        <time>2011-06-26T11:53:32.000Z</time>
      </trkpt>
      <trkpt lat="45.94904" lon="1.15209">
        <ele>350</ele>
        <time>2011-06-26T11:53:36.000Z</time>
      </trkpt>
      <trkpt lat="45.94896" lon="1.15226">
        <ele>350</ele>
        <time>2011-06-26T11:53:39.000Z</time>
      </trkpt>
      <trkpt lat="45.9487" lon="1.15285">
        <ele>351</ele>
        <time>2011-06-26T11:53:48.000Z</time>
      </trkpt>
      <trkpt lat="45.94866" lon="1.1529">
        <ele>351</ele>
        <time>2011-06-26T11:53:49.000Z</time>
      </trkpt>
      <trkpt lat="45.94843" lon="1.15313">
        <ele>352</ele>
        <time>2011-06-26T11:53:54.000Z</time>
      </trkpt>
      <trkpt lat="45.94833" lon="1.15317">
        <ele>352</ele>
        <time>2011-06-26T11:53:57.000Z</time>
      </trkpt>
      <trkpt lat="45.94823" lon="1.15314">
        <ele>340</ele>
        <time>2011-06-26T11:57:34.000Z</time>
      </trkpt>
      <trkpt lat="45.94816" lon="1.15311">
        <ele>350</ele>
        <time>2011-06-26T11:58:20.000Z</time>
      </trkpt>
      <trkpt lat="45.94769" lon="1.15303">
        <ele>349</ele>
        <time>2011-06-26T11:58:35.000Z</time>
      </trkpt>
      <trkpt lat="45.94764" lon="1.15303">
        <ele>349</ele>
        <time>2011-06-26T11:58:36.000Z</time>
      </trkpt>
      <trkpt lat="45.9473" lon="1.15292">
        <ele>346</ele>
        <time>2011-06-26T11:58:43.000Z</time>
      </trkpt>
      <trkpt lat="45.94684" lon="1.15271">
        <ele>345</ele>
        <time>2011-06-26T11:58:51.000Z</time>
      </trkpt>
      <trkpt lat="45.94678" lon="1.1527">
        <ele>345</ele>
        <time>2011-06-26T11:58:52.000Z</time>
      </trkpt>
      <trkpt lat="45.94637" lon="1.1525">
        <ele>345</ele>
        <time>2011-06-26T11:59:01.000Z</time>
      </trkpt>
      <trkpt lat="45.94633" lon="1.15246">
        <ele>345</ele>
        <time>2011-06-26T11:59:02.000Z</time>
      </trkpt>
      <trkpt lat="45.94595" lon="1.15205">
        <ele>344</ele>
        <time>2011-06-26T11:59:12.000Z</time>
      </trkpt>
      <trkpt lat="45.94591" lon="1.15201">
        <ele>344</ele>
        <time>2011-06-26T11:59:13.000Z</time>
      </trkpt>
      <trkpt lat="45.94557" lon="1.15168">
        <ele>343</ele>
        <time>2011-06-26T11:59:23.000Z</time>
      </trkpt>
      <trkpt lat="45.94513" lon="1.15148">
        <ele>343</ele>
        <time>2011-06-26T11:59:37.000Z</time>
      </trkpt>
      <trkpt lat="45.9451" lon="1.15147">
        <ele>343</ele>
        <time>2011-06-26T11:59:38.000Z</time>
      </trkpt>
      <trkpt lat="45.94465" lon="1.15131">
        <ele>342</ele>
        <time>2011-06-26T11:59:54.000Z</time>
      </trkpt>
      <trkpt lat="45.94462" lon="1.1513">
        <ele>341</ele>
        <time>2011-06-26T11:59:55.000Z</time>
      </trkpt>
      <trkpt lat="45.94416" lon="1.15105">
        <ele>339</ele>
        <time>2011-06-26T12:00:06.000Z</time>
      </trkpt>
      <trkpt lat="45.94412" lon="1.15103">
        <ele>339</ele>
        <time>2011-06-26T12:00:07.000Z</time>
      </trkpt>
      <trkpt lat="45.94389" lon="1.15097">
        <ele>339</ele>
        <time>2011-06-26T12:00:12.000Z</time>
      </trkpt>
      <trkpt lat="45.94342" lon="1.15088">
        <ele>339</ele>
        <time>2011-06-26T12:00:23.000Z</time>
      </trkpt>
      <trkpt lat="45.94338" lon="1.15088">
        <ele>339</ele>
        <time>2011-06-26T12:00:24.000Z</time>
      </trkpt>
      <trkpt lat="45.94328" lon="1.15088">
        <ele>339</ele>
        <time>2011-06-26T12:00:26.000Z</time>
      </trkpt>
      <trkpt lat="45.94302" lon="1.15086">
        <ele>338</ele>
        <time>2011-06-26T12:00:31.000Z</time>
      </trkpt>
      <trkpt lat="45.94291" lon="1.15087">
        <ele>338</ele>
        <time>2011-06-26T12:00:33.000Z</time>
      </trkpt>
      <trkpt lat="45.94271" lon="1.15102">
        <ele>337</ele>
        <time>2011-06-26T12:00:37.000Z</time>
      </trkpt>
      <trkpt lat="45.94259" lon="1.15097">
        <ele>336</ele>
        <time>2011-06-26T12:00:39.000Z</time>
      </trkpt>
      <trkpt lat="45.94222" lon="1.15059">
        <ele>332</ele>
        <time>2011-06-26T12:00:45.000Z</time>
      </trkpt>
      <trkpt lat="45.94216" lon="1.15052">
        <ele>331</ele>
        <time>2011-06-26T12:00:46.000Z</time>
      </trkpt>
      <trkpt lat="45.9419" lon="1.15029">
        <ele>327</ele>
        <time>2011-06-26T12:00:52.000Z</time>
      </trkpt>
      <trkpt lat="45.94183" lon="1.15032">
        <ele>326</ele>
        <time>2011-06-26T12:00:54.000Z</time>
      </trkpt>
      <trkpt lat="45.94169" lon="1.15055">
        <ele>326</ele>
        <time>2011-06-26T12:00:59.000Z</time>
      </trkpt>
      <trkpt lat="45.94142" lon="1.15108">
        <ele>327</ele>
        <time>2011-06-26T12:01:09.000Z</time>
      </trkpt>
      <trkpt lat="45.94139" lon="1.15113">
        <ele>327</ele>
        <time>2011-06-26T12:01:10.000Z</time>
      </trkpt>
      <trkpt lat="45.94128" lon="1.15141">
        <ele>327</ele>
        <time>2011-06-26T12:01:16.000Z</time>
      </trkpt>
      <trkpt lat="45.94123" lon="1.15154">
        <ele>327</ele>
        <time>2011-06-26T12:01:19.000Z</time>
      </trkpt>
      <trkpt lat="45.94116" lon="1.15159">
        <ele>326</ele>
        <time>2011-06-26T12:01:21.000Z</time>
      </trkpt>
      <trkpt lat="45.94103" lon="1.15161">
        <ele>326</ele>
        <time>2011-06-26T12:01:24.000Z</time>
      </trkpt>
      <trkpt lat="45.94054" lon="1.15154">
        <ele>325</ele>
        <time>2011-06-26T12:01:34.000Z</time>
      </trkpt>
      <trkpt lat="45.94049" lon="1.15153">
        <ele>325</ele>
        <time>2011-06-26T12:01:35.000Z</time>
      </trkpt>
      <trkpt lat="45.94" lon="1.15142">
        <ele>327</ele>
        <time>2011-06-26T12:01:44.000Z</time>
      </trkpt>
      <trkpt lat="45.93995" lon="1.15141">
        <ele>327</ele>
        <time>2011-06-26T12:01:45.000Z</time>
      </trkpt>
      <trkpt lat="45.93967" lon="1.15133">
        <ele>326</ele>
        <time>2011-06-26T12:01:50.000Z</time>
      </trkpt>
      <trkpt lat="45.93921" lon="1.15121">
        <ele>323</ele>
        <time>2011-06-26T12:01:58.000Z</time>
      </trkpt>
      <trkpt lat="45.93915" lon="1.1512">
        <ele>323</ele>
        <time>2011-06-26T12:01:59.000Z</time>
      </trkpt>
      <trkpt lat="45.93871" lon="1.15108">
        <ele>320</ele>
        <time>2011-06-26T12:02:07.000Z</time>
      </trkpt>
      <trkpt lat="45.93865" lon="1.15106">
        <ele>319</ele>
        <time>2011-06-26T12:02:08.000Z</time>
      </trkpt>
      <trkpt lat="45.93819" lon="1.15103">
        <ele>317</ele>
        <time>2011-06-26T12:02:15.000Z</time>
      </trkpt>
      <trkpt lat="45.93813" lon="1.15104">
        <ele>316</ele>
        <time>2011-06-26T12:02:16.000Z</time>
      </trkpt>
      <trkpt lat="45.93763" lon="1.15119">
        <ele>313</ele>
        <time>2011-06-26T12:02:24.000Z</time>
      </trkpt>
      <trkpt lat="45.93757" lon="1.15121">
        <ele>313</ele>
        <time>2011-06-26T12:02:25.000Z</time>
      </trkpt>
      <trkpt lat="45.93707" lon="1.15139">
        <ele>308</ele>
        <time>2011-06-26T12:02:32.000Z</time>
      </trkpt>
      <trkpt lat="45.937" lon="1.15142">
        <ele>308</ele>
        <time>2011-06-26T12:02:33.000Z</time>
      </trkpt>
      <trkpt lat="45.93671" lon="1.15145">
        <ele>305</ele>
        <time>2011-06-26T12:02:38.000Z</time>
      </trkpt>
      <trkpt lat="45.93661" lon="1.15141">
        <ele>304</ele>
        <time>2011-06-26T12:02:40.000Z</time>
      </trkpt>
      <trkpt lat="45.93636" lon="1.15113">
        <ele>302</ele>
        <time>2011-06-26T12:02:46.000Z</time>
      </trkpt>
      <trkpt lat="45.93603" lon="1.15067">
        <ele>305</ele>
        <time>2011-06-26T12:02:57.000Z</time>
      </trkpt>
      <trkpt lat="45.936" lon="1.15062">
        <ele>305</ele>
        <time>2011-06-26T12:02:58.000Z</time>
      </trkpt>
      <trkpt lat="45.93566" lon="1.15011">
        <ele>304</ele>
        <time>2011-06-26T12:03:08.000Z</time>
      </trkpt>
      <trkpt lat="45.93563" lon="1.15005">
        <ele>304</ele>
        <time>2011-06-26T12:03:09.000Z</time>
      </trkpt>
      <trkpt lat="45.93559" lon="1.14998">
        <ele>304</ele>
        <time>2011-06-26T12:03:10.000Z</time>
      </trkpt>
      <trkpt lat="45.93554" lon="1.1498">
        <ele>304</ele>
        <time>2011-06-26T12:03:13.000Z</time>
      </trkpt>
      <trkpt lat="45.93551" lon="1.14965">
        <ele>304</ele>
        <time>2011-06-26T12:03:16.000Z</time>
      </trkpt>
      <trkpt lat="45.93542" lon="1.14951">
        <ele>303</ele>
        <time>2011-06-26T12:03:19.000Z</time>
      </trkpt>
      <trkpt lat="45.93507" lon="1.14909">
        <ele>304</ele>
        <time>2011-06-26T12:03:28.000Z</time>
      </trkpt>
      <trkpt lat="45.93504" lon="1.14902">
        <ele>304</ele>
        <time>2011-06-26T12:03:29.000Z</time>
      </trkpt>
      <trkpt lat="45.93494" lon="1.14886">
        <ele>304</ele>
        <time>2011-06-26T12:03:32.000Z</time>
      </trkpt>
      <trkpt lat="45.93462" lon="1.14839">
        <ele>305</ele>
        <time>2011-06-26T12:03:41.000Z</time>
      </trkpt>
      <trkpt lat="45.93458" lon="1.14834">
        <ele>305</ele>
        <time>2011-06-26T12:03:42.000Z</time>
      </trkpt>
      <trkpt lat="45.93423" lon="1.14782">
        <ele>305</ele>
        <time>2011-06-26T12:03:51.000Z</time>
      </trkpt>
      <trkpt lat="45.93419" lon="1.14776">
        <ele>305</ele>
        <time>2011-06-26T12:03:52.000Z</time>
      </trkpt>
      <trkpt lat="45.93388" lon="1.14728">
        <ele>305</ele>
        <time>2011-06-26T12:04:01.000Z</time>
      </trkpt>
      <trkpt lat="45.93385" lon="1.14724">
        <ele>305</ele>
        <time>2011-06-26T12:04:02.000Z</time>
      </trkpt>
      <trkpt lat="45.93359" lon="1.1469">
        <ele>305</ele>
        <time>2011-06-26T12:04:13.000Z</time>
      </trkpt>
      <trkpt lat="45.93353" lon="1.14686">
        <ele>305</ele>
        <time>2011-06-26T12:04:16.000Z</time>
      </trkpt>
      <trkpt lat="45.9335" lon="1.14695">
        <ele>305</ele>
        <time>2011-06-26T12:04:20.000Z</time>
      </trkpt>
      <trkpt lat="45.93346" lon="1.14752">
        <ele>303</ele>
        <time>2011-06-26T12:04:32.000Z</time>
      </trkpt>
      <trkpt lat="45.93343" lon="1.14762">
        <ele>302</ele>
        <time>2011-06-26T12:04:34.000Z</time>
      </trkpt>
      <trkpt lat="45.93339" lon="1.1477">
        <ele>301</ele>
        <time>2011-06-26T12:04:36.000Z</time>
      </trkpt>
      <trkpt lat="45.93301" lon="1.14812">
        <ele>297</ele>
        <time>2011-06-26T12:04:49.000Z</time>
      </trkpt>
      <trkpt lat="45.93298" lon="1.14815">
        <ele>297</ele>
        <time>2011-06-26T12:04:50.000Z</time>
      </trkpt>
      <trkpt lat="45.93294" lon="1.14821">
        <ele>296</ele>
        <time>2011-06-26T12:04:52.000Z</time>
      </trkpt>
      <trkpt lat="45.93255" lon="1.14858">
        <ele>292</ele>
        <time>2011-06-26T12:05:04.000Z</time>
      </trkpt>
      <trkpt lat="45.93251" lon="1.1486">
        <ele>291</ele>
        <time>2011-06-26T12:05:05.000Z</time>
      </trkpt>
      <trkpt lat="45.93219" lon="1.14879">
        <ele>292</ele>
        <time>2011-06-26T12:05:18.000Z</time>
      </trkpt>
      <trkpt lat="45.93215" lon="1.14887">
        <ele>292</ele>
        <time>2011-06-26T12:05:22.000Z</time>
      </trkpt>
      <trkpt lat="45.93188" lon="1.1494">
        <ele>293</ele>
        <time>2011-06-26T12:05:45.000Z</time>
      </trkpt>
      <trkpt lat="45.93186" lon="1.14942">
        <ele>293</ele>
        <time>2011-06-26T12:05:46.000Z</time>
      </trkpt>
      <trkpt lat="45.93157" lon="1.14975">
        <ele>295</ele>
        <time>2011-06-26T12:06:06.000Z</time>
      </trkpt>
      <trkpt lat="45.93147" lon="1.14991">
        <ele>299</ele>
        <time>2011-06-26T12:06:16.000Z</time>
      </trkpt>
      <trkpt lat="45.93129" lon="1.15014">
        <ele>302</ele>
        <time>2011-06-26T12:06:32.000Z</time>
      </trkpt>
      <trkpt lat="45.93117" lon="1.15019">
        <ele>300</ele>
        <time>2011-06-26T12:06:40.000Z</time>
      </trkpt>
      <trkpt lat="45.93108" lon="1.15019">
        <ele>301</ele>
        <time>2011-06-26T12:06:46.000Z</time>
      </trkpt>
      <trkpt lat="45.93102" lon="1.15016">
        <ele>304</ele>
        <time>2011-06-26T12:06:52.000Z</time>
      </trkpt>
      <trkpt lat="45.93057" lon="1.15002">
        <ele>310</ele>
        <time>2011-06-26T12:07:17.000Z</time>
      </trkpt>
      <trkpt lat="45.93054" lon="1.15001">
        <ele>310</ele>
        <time>2011-06-26T12:07:18.000Z</time>
      </trkpt>
      <trkpt lat="45.93013" lon="1.14989">
        <ele>311</ele>
        <time>2011-06-26T12:07:32.000Z</time>
      </trkpt>
      <trkpt lat="45.93003" lon="1.14982">
        <ele>312</ele>
        <time>2011-06-26T12:07:36.000Z</time>
      </trkpt>
      <trkpt lat="45.92965" lon="1.14943">
        <ele>318</ele>
        <time>2011-06-26T12:07:55.000Z</time>
      </trkpt>
      <trkpt lat="45.92963" lon="1.14941">
        <ele>318</ele>
        <time>2011-06-26T12:07:56.000Z</time>
      </trkpt>
      <trkpt lat="45.92946" lon="1.14926">
        <ele>323</ele>
        <time>2011-06-26T12:08:05.000Z</time>
      </trkpt>
      <trkpt lat="45.92935" lon="1.14922">
        <ele>324</ele>
        <time>2011-06-26T12:08:11.000Z</time>
      </trkpt>
      <trkpt lat="45.92926" lon="1.14922">
        <ele>325</ele>
        <time>2011-06-26T12:08:26.000Z</time>
      </trkpt>
      <trkpt lat="45.92915" lon="1.14926">
        <ele>324</ele>
        <time>2011-06-26T12:08:32.000Z</time>
      </trkpt>
      <trkpt lat="45.92899" lon="1.14954">
        <ele>322</ele>
        <time>2011-06-26T12:08:42.000Z</time>
      </trkpt>
      <trkpt lat="45.92883" lon="1.14987">
        <ele>321</ele>
        <time>2011-06-26T12:08:50.000Z</time>
      </trkpt>
      <trkpt lat="45.92872" lon="1.15">
        <ele>320</ele>
        <time>2011-06-26T12:08:54.000Z</time>
      </trkpt>
      <trkpt lat="45.92863" lon="1.15045">
        <ele>317</ele>
        <time>2011-06-26T12:09:03.000Z</time>
      </trkpt>
      <trkpt lat="45.92863" lon="1.15077">
        <ele>318</ele>
        <time>2011-06-26T12:09:08.000Z</time>
      </trkpt>
      <trkpt lat="45.92857" lon="1.15102">
        <ele>318</ele>
        <time>2011-06-26T12:09:12.000Z</time>
      </trkpt>
      <trkpt lat="45.9283" lon="1.15159">
        <ele>317</ele>
        <time>2011-06-26T12:09:22.000Z</time>
      </trkpt>
      <trkpt lat="45.92826" lon="1.15164">
        <ele>316</ele>
        <time>2011-06-26T12:09:23.000Z</time>
      </trkpt>
      <trkpt lat="45.92817" lon="1.15173">
        <ele>316</ele>
        <time>2011-06-26T12:09:25.000Z</time>
      </trkpt>
      <trkpt lat="45.92789" lon="1.15189">
        <ele>314</ele>
        <time>2011-06-26T12:09:30.000Z</time>
      </trkpt>
      <trkpt lat="45.92746" lon="1.15215">
        <ele>312</ele>
        <time>2011-06-26T12:09:37.000Z</time>
      </trkpt>
      <trkpt lat="45.92741" lon="1.15222">
        <ele>312</ele>
        <time>2011-06-26T12:09:38.000Z</time>
      </trkpt>
      <trkpt lat="45.92738" lon="1.15231">
        <ele>311</ele>
        <time>2011-06-26T12:09:39.000Z</time>
      </trkpt>
      <trkpt lat="45.92737" lon="1.1525">
        <ele>311</ele>
        <time>2011-06-26T12:09:41.000Z</time>
      </trkpt>
      <trkpt lat="45.92752" lon="1.15314">
        <ele>306</ele>
        <time>2011-06-26T12:09:48.000Z</time>
      </trkpt>
      <trkpt lat="45.92755" lon="1.15325">
        <ele>306</ele>
        <time>2011-06-26T12:09:49.000Z</time>
      </trkpt>
      <trkpt lat="45.92761" lon="1.15374">
        <ele>303</ele>
        <time>2011-06-26T12:09:53.000Z</time>
      </trkpt>
      <trkpt lat="45.92756" lon="1.15409">
        <ele>301</ele>
        <time>2011-06-26T12:09:56.000Z</time>
      </trkpt>
      <trkpt lat="45.92733" lon="1.15465">
        <ele>300</ele>
        <time>2011-06-26T12:10:03.000Z</time>
      </trkpt>
      <trkpt lat="45.9273" lon="1.1547">
        <ele>300</ele>
        <time>2011-06-26T12:10:04.000Z</time>
      </trkpt>
      <trkpt lat="45.92712" lon="1.15524">
        <ele>303</ele>
        <time>2011-06-26T12:10:14.000Z</time>
      </trkpt>
      <trkpt lat="45.9271" lon="1.1553">
        <ele>303</ele>
        <time>2011-06-26T12:10:15.000Z</time>
      </trkpt>
      <trkpt lat="45.92707" lon="1.15555">
        <ele>305</ele>
        <time>2011-06-26T12:10:19.000Z</time>
      </trkpt>
      <trkpt lat="45.92701" lon="1.15626">
        <ele>306</ele>
        <time>2011-06-26T12:10:29.000Z</time>
      </trkpt>
      <trkpt lat="45.92701" lon="1.15632">
        <ele>306</ele>
        <time>2011-06-26T12:10:30.000Z</time>
      </trkpt>
      <trkpt lat="45.92693" lon="1.157">
        <ele>307</ele>
        <time>2011-06-26T12:10:39.000Z</time>
      </trkpt>
      <trkpt lat="45.92691" lon="1.15708">
        <ele>307</ele>
        <time>2011-06-26T12:10:40.000Z</time>
      </trkpt>
      <trkpt lat="45.92681" lon="1.15773">
        <ele>306</ele>
        <time>2011-06-26T12:10:48.000Z</time>
      </trkpt>
      <trkpt lat="45.92679" lon="1.15782">
        <ele>306</ele>
        <time>2011-06-26T12:10:49.000Z</time>
      </trkpt>
      <trkpt lat="45.92667" lon="1.15849">
        <ele>305</ele>
        <time>2011-06-26T12:10:57.000Z</time>
      </trkpt>
      <trkpt lat="45.92666" lon="1.15857">
        <ele>305</ele>
        <time>2011-06-26T12:10:58.000Z</time>
      </trkpt>
      <trkpt lat="45.92665" lon="1.15882">
        <ele>305</ele>
        <time>2011-06-26T12:11:01.000Z</time>
      </trkpt>
      <trkpt lat="45.92673" lon="1.15954">
        <ele>304</ele>
        <time>2011-06-26T12:11:09.000Z</time>
      </trkpt>
      <trkpt lat="45.92675" lon="1.15963">
        <ele>304</ele>
        <time>2011-06-26T12:11:10.000Z</time>
      </trkpt>
      <trkpt lat="45.92683" lon="1.1601">
        <ele>304</ele>
        <time>2011-06-26T12:11:15.000Z</time>
      </trkpt>
      <trkpt lat="45.92707" lon="1.16077">
        <ele>301</ele>
        <time>2011-06-26T12:11:22.000Z</time>
      </trkpt>
      <trkpt lat="45.92711" lon="1.16087">
        <ele>301</ele>
        <time>2011-06-26T12:11:23.000Z</time>
      </trkpt>
      <trkpt lat="45.92735" lon="1.16154">
        <ele>297</ele>
        <time>2011-06-26T12:11:29.000Z</time>
      </trkpt>
      <trkpt lat="45.9274" lon="1.16166">
        <ele>297</ele>
        <time>2011-06-26T12:11:30.000Z</time>
      </trkpt>
      <trkpt lat="45.92764" lon="1.16224">
        <ele>294</ele>
        <time>2011-06-26T12:11:35.000Z</time>
      </trkpt>
      <trkpt lat="45.92767" lon="1.16236">
        <ele>294</ele>
        <time>2011-06-26T12:11:36.000Z</time>
      </trkpt>
      <trkpt lat="45.92775" lon="1.16286">
        <ele>292</ele>
        <time>2011-06-26T12:11:40.000Z</time>
      </trkpt>
      <trkpt lat="45.9277" lon="1.16355">
        <ele>293</ele>
        <time>2011-06-26T12:11:47.000Z</time>
      </trkpt>
      <trkpt lat="45.9277" lon="1.16364">
        <ele>293</ele>
        <time>2011-06-26T12:11:48.000Z</time>
      </trkpt>
      <trkpt lat="45.92775" lon="1.16436">
        <ele>291</ele>
        <time>2011-06-26T12:11:56.000Z</time>
      </trkpt>
      <trkpt lat="45.92775" lon="1.16447">
        <ele>290</ele>
        <time>2011-06-26T12:11:57.000Z</time>
      </trkpt>
      <trkpt lat="45.92772" lon="1.16469">
        <ele>290</ele>
        <time>2011-06-26T12:11:59.000Z</time>
      </trkpt>
      <trkpt lat="45.92752" lon="1.16538">
        <ele>288</ele>
        <time>2011-06-26T12:12:06.000Z</time>
      </trkpt>
      <trkpt lat="45.9275" lon="1.16548">
        <ele>287</ele>
        <time>2011-06-26T12:12:07.000Z</time>
      </trkpt>
      <trkpt lat="45.92749" lon="1.16557">
        <ele>287</ele>
        <time>2011-06-26T12:12:08.000Z</time>
      </trkpt>
      <trkpt lat="45.92743" lon="1.16622">
        <ele>287</ele>
        <time>2011-06-26T12:12:15.000Z</time>
      </trkpt>
      <trkpt lat="45.92742" lon="1.1663">
        <ele>287</ele>
        <time>2011-06-26T12:12:16.000Z</time>
      </trkpt>
      <trkpt lat="45.92736" lon="1.16656">
        <ele>288</ele>
        <time>2011-06-26T12:12:20.000Z</time>
      </trkpt>
      <trkpt lat="45.92726" lon="1.16669">
        <ele>288</ele>
        <time>2011-06-26T12:12:23.000Z</time>
      </trkpt>
      <trkpt lat="45.92717" lon="1.16672">
        <ele>289</ele>
        <time>2011-06-26T12:12:25.000Z</time>
      </trkpt>
      <trkpt lat="45.92691" lon="1.16661">
        <ele>289</ele>
        <time>2011-06-26T12:12:31.000Z</time>
      </trkpt>
      <trkpt lat="45.92673" lon="1.16638">
        <ele>289</ele>
        <time>2011-06-26T12:12:36.000Z</time>
      </trkpt>
      <trkpt lat="45.92656" lon="1.16611">
        <ele>289</ele>
        <time>2011-06-26T12:12:41.000Z</time>
      </trkpt>
      <trkpt lat="45.92639" lon="1.166">
        <ele>290</ele>
        <time>2011-06-26T12:12:45.000Z</time>
      </trkpt>
      <trkpt lat="45.92628" lon="1.166">
        <ele>291</ele>
        <time>2011-06-26T12:12:48.000Z</time>
      </trkpt>
      <trkpt lat="45.92604" lon="1.16613">
        <ele>292</ele>
        <time>2011-06-26T12:12:55.000Z</time>
      </trkpt>
      <trkpt lat="45.92563" lon="1.16648">
        <ele>294</ele>
        <time>2011-06-26T12:13:08.000Z</time>
      </trkpt>
      <trkpt lat="45.9256" lon="1.16652">
        <ele>294</ele>
        <time>2011-06-26T12:13:09.000Z</time>
      </trkpt>
      <trkpt lat="45.92534" lon="1.16679">
        <ele>295</ele>
        <time>2011-06-26T12:13:18.000Z</time>
      </trkpt>
      <trkpt lat="45.92533" lon="1.16688">
        <ele>295</ele>
        <time>2011-06-26T12:13:20.000Z</time>
      </trkpt>
      <trkpt lat="45.9254" lon="1.167">
        <ele>294</ele>
        <time>2011-06-26T12:13:23.000Z</time>
      </trkpt>
      <trkpt lat="45.92566" lon="1.16733">
        <ele>291</ele>
        <time>2011-06-26T12:13:29.000Z</time>
      </trkpt>
      <trkpt lat="45.92566" lon="1.16751">
        <ele>290</ele>
        <time>2011-06-26T12:13:31.000Z</time>
      </trkpt>
      <trkpt lat="45.92561" lon="1.16773">
        <ele>290</ele>
        <time>2011-06-26T12:13:34.000Z</time>
      </trkpt>
      <trkpt lat="45.9256" lon="1.16807">
        <ele>291</ele>
        <time>2011-06-26T12:13:39.000Z</time>
      </trkpt>
      <trkpt lat="45.92559" lon="1.16848">
        <ele>291</ele>
        <time>2011-06-26T12:13:45.000Z</time>
      </trkpt>
      <trkpt lat="45.92553" lon="1.16867">
        <ele>291</ele>
        <time>2011-06-26T12:13:48.000Z</time>
      </trkpt>
      <trkpt lat="45.92535" lon="1.16909">
        <ele>291</ele>
        <time>2011-06-26T12:13:55.000Z</time>
      </trkpt>
      <trkpt lat="45.92516" lon="1.16925">
        <ele>291</ele>
        <time>2011-06-26T12:14:00.000Z</time>
      </trkpt>
      <trkpt lat="45.92511" lon="1.16935">
        <ele>291</ele>
        <time>2011-06-26T12:14:02.000Z</time>
      </trkpt>
      <trkpt lat="45.92513" lon="1.16945">
        <ele>291</ele>
        <time>2011-06-26T12:14:04.000Z</time>
      </trkpt>
      <trkpt lat="45.92524" lon="1.16964">
        <ele>292</ele>
        <time>2011-06-26T12:14:08.000Z</time>
      </trkpt>
      <trkpt lat="45.92538" lon="1.1699">
        <ele>293</ele>
        <time>2011-06-26T12:14:13.000Z</time>
      </trkpt>
      <trkpt lat="45.92559" lon="1.17051">
        <ele>293</ele>
        <time>2011-06-26T12:14:23.000Z</time>
      </trkpt>
      <trkpt lat="45.92562" lon="1.17056">
        <ele>292</ele>
        <time>2011-06-26T12:14:24.000Z</time>
      </trkpt>
      <trkpt lat="45.92594" lon="1.1711">
        <ele>292</ele>
        <time>2011-06-26T12:14:34.000Z</time>
      </trkpt>
      <trkpt lat="45.92597" lon="1.17116">
        <ele>292</ele>
        <time>2011-06-26T12:14:35.000Z</time>
      </trkpt>
      <trkpt lat="45.92605" lon="1.17134">
        <ele>292</ele>
        <time>2011-06-26T12:14:38.000Z</time>
      </trkpt>
      <trkpt lat="45.92615" lon="1.17165">
        <ele>291</ele>
        <time>2011-06-26T12:14:43.000Z</time>
      </trkpt>
      <trkpt lat="45.92627" lon="1.17191">
        <ele>290</ele>
        <time>2011-06-26T12:14:47.000Z</time>
      </trkpt>
      <trkpt lat="45.92628" lon="1.17208">
        <ele>290</ele>
        <time>2011-06-26T12:14:49.000Z</time>
      </trkpt>
      <trkpt lat="45.92621" lon="1.17232">
        <ele>289</ele>
        <time>2011-06-26T12:14:53.000Z</time>
      </trkpt>
      <trkpt lat="45.92616" lon="1.1724">
        <ele>289</ele>
        <time>2011-06-26T12:14:55.000Z</time>
      </trkpt>
      <trkpt lat="45.92605" lon="1.17253">
        <ele>290</ele>
        <time>2011-06-26T12:15:00.000Z</time>
      </trkpt>
      <trkpt lat="45.92598" lon="1.17266">
        <ele>290</ele>
        <time>2011-06-26T12:15:06.000Z</time>
      </trkpt>
      <trkpt lat="45.92593" lon="1.17273">
        <ele>288</ele>
        <time>2011-06-26T12:15:10.000Z</time>
      </trkpt>
      <trkpt lat="45.9258" lon="1.17281">
        <ele>288</ele>
        <time>2011-06-26T12:15:16.000Z</time>
      </trkpt>
      <trkpt lat="45.92572" lon="1.1728">
        <ele>288</ele>
        <time>2011-06-26T12:15:19.000Z</time>
      </trkpt>
      <trkpt lat="45.92562" lon="1.17277">
        <ele>289</ele>
        <time>2011-06-26T12:15:23.000Z</time>
      </trkpt>
      <trkpt lat="45.92553" lon="1.17277">
        <ele>290</ele>
        <time>2011-06-26T12:15:27.000Z</time>
      </trkpt>
      <trkpt lat="45.92545" lon="1.17303">
        <ele>291</ele>
        <time>2011-06-26T12:15:34.000Z</time>
      </trkpt>
      <trkpt lat="45.9254" lon="1.17309">
        <ele>290</ele>
        <time>2011-06-26T12:15:37.000Z</time>
      </trkpt>
      <trkpt lat="45.92536" lon="1.17318">
        <ele>291</ele>
        <time>2011-06-26T12:15:41.000Z</time>
      </trkpt>
      <trkpt lat="45.92532" lon="1.17328">
        <ele>292</ele>
        <time>2011-06-26T12:15:44.000Z</time>
      </trkpt>
      <trkpt lat="45.9253" lon="1.17336">
        <ele>293</ele>
        <time>2011-06-26T12:15:46.000Z</time>
      </trkpt>
      <trkpt lat="45.92508" lon="1.17397">
        <ele>294</ele>
        <time>2011-06-26T12:15:59.000Z</time>
      </trkpt>
      <trkpt lat="45.92506" lon="1.17402">
        <ele>294</ele>
        <time>2011-06-26T12:16:00.000Z</time>
      </trkpt>
      <trkpt lat="45.9249" lon="1.17454">
        <ele>295</ele>
        <time>2011-06-26T12:16:09.000Z</time>
      </trkpt>
      <trkpt lat="45.9248" lon="1.17507">
        <ele>298</ele>
        <time>2011-06-26T12:16:18.000Z</time>
      </trkpt>
      <trkpt lat="45.92474" lon="1.17508">
        <ele>298</ele>
        <time>2011-06-26T12:16:22.000Z</time>
      </trkpt>
      <trkpt lat="45.92468" lon="1.17512">
        <ele>298</ele>
        <time>2011-06-26T12:16:27.000Z</time>
      </trkpt>
      <trkpt lat="45.92466" lon="1.17506">
        <ele>298</ele>
        <time>2011-06-26T12:16:32.000Z</time>
      </trkpt>
      <trkpt lat="45.92461" lon="1.17471">
        <ele>300</ele>
        <time>2011-06-26T12:16:50.000Z</time>
      </trkpt>
      <trkpt lat="45.92456" lon="1.17462">
        <ele>301</ele>
        <time>2011-06-26T12:16:56.000Z</time>
      </trkpt>
      <trkpt lat="45.9242" lon="1.17438">
        <ele>310</ele>
        <time>2011-06-26T12:17:18.000Z</time>
      </trkpt>
      <trkpt lat="45.92405" lon="1.17447">
        <ele>310</ele>
        <time>2011-06-26T12:17:22.000Z</time>
      </trkpt>
      <trkpt lat="45.92395" lon="1.17457">
        <ele>312</ele>
        <time>2011-06-26T12:17:30.000Z</time>
      </trkpt>
      <trkpt lat="45.9237" lon="1.17458">
        <ele>310</ele>
        <time>2011-06-26T12:17:44.000Z</time>
      </trkpt>
      <trkpt lat="45.92357" lon="1.17452">
        <ele>309</ele>
        <time>2011-06-26T12:17:52.000Z</time>
      </trkpt>
      <trkpt lat="45.92349" lon="1.17449">
        <ele>309</ele>
        <time>2011-06-26T12:17:56.000Z</time>
      </trkpt>
      <trkpt lat="45.92343" lon="1.17454">
        <ele>309</ele>
        <time>2011-06-26T12:18:00.000Z</time>
      </trkpt>
      <trkpt lat="45.9231" lon="1.17499">
        <ele>309</ele>
        <time>2011-06-26T12:18:14.000Z</time>
      </trkpt>
      <trkpt lat="45.92307" lon="1.17504">
        <ele>309</ele>
        <time>2011-06-26T12:18:15.000Z</time>
      </trkpt>
      <trkpt lat="45.92274" lon="1.17553">
        <ele>309</ele>
        <time>2011-06-26T12:18:26.000Z</time>
      </trkpt>
      <trkpt lat="45.92272" lon="1.17557">
        <ele>309</ele>
        <time>2011-06-26T12:18:27.000Z</time>
      </trkpt>
      <trkpt lat="45.92271" lon="1.17561">
        <ele>308</ele>
        <time>2011-06-26T12:18:28.000Z</time>
      </trkpt>
      <trkpt lat="45.92274" lon="1.1757">
        <ele>308</ele>
        <time>2011-06-26T12:18:30.000Z</time>
      </trkpt>
      <trkpt lat="45.92308" lon="1.17619">
        <ele>307</ele>
        <time>2011-06-26T12:18:41.000Z</time>
      </trkpt>
      <trkpt lat="45.92312" lon="1.17622">
        <ele>307</ele>
        <time>2011-06-26T12:18:42.000Z</time>
      </trkpt>
      <trkpt lat="45.92321" lon="1.1762">
        <ele>307</ele>
        <time>2011-06-26T12:18:44.000Z</time>
      </trkpt>
      <trkpt lat="45.9233" lon="1.17607">
        <ele>307</ele>
        <time>2011-06-26T12:18:47.000Z</time>
      </trkpt>
      <trkpt lat="45.92359" lon="1.17559">
        <ele>308</ele>
        <time>2011-06-26T12:19:00.000Z</time>
      </trkpt>
      <trkpt lat="45.92362" lon="1.17557">
        <ele>308</ele>
        <time>2011-06-26T12:19:01.000Z</time>
      </trkpt>
      <trkpt lat="45.92374" lon="1.17548">
        <ele>308</ele>
        <time>2011-06-26T12:19:11.000Z</time>
      </trkpt>
      <trkpt lat="45.92375" lon="1.17547">
        <ele>308</ele>
        <time>2011-06-26T12:19:45.000Z</time>
      </trkpt>
    </trkseg>
  </trk>
</gpx>